<?xml version="1.0" encoding="UTF-8" standalone="no" ?>
<gpx xmlns="http://www.topografix.com/GPX/1/1" xmlns:xsi="http://www.w3.org/2001/XMLSchema-instance" xsi:schemaLocation="http://www.topografix.com/GPX/1/1 http://www.topografix.com/GPX/1/1/gpx.xsd" version="1.1" creator="VisuGPX - https://www.visugpx.com">
  <metadata>
    <name>2021-08-09 12:39:07 [Garmin]</name>
  </metadata>
  <trk>
    <name><![CDATA[2021-08-09 12:39:07 [Garmin]_1]]></name>
    <trkseg>
      <trkpt lat="46.46463" lon="5.45234">
        <ele>375</ele>
        <time>2021-08-09T10:39:07Z</time>
      </trkpt>
      <trkpt lat="46.46463" lon="5.45234">
        <ele>371.6</ele>
        <time>2021-08-09T10:39:08Z</time>
      </trkpt>
      <trkpt lat="46.4647" lon="5.45239">
        <ele>372.6</ele>
        <time>2021-08-09T10:40:39Z</time>
      </trkpt>
      <trkpt lat="46.46474" lon="5.45241">
        <ele>372.6</ele>
        <time>2021-08-09T10:40:40Z</time>
      </trkpt>
      <trkpt lat="46.46494" lon="5.45248">
        <ele>372.6</ele>
        <time>2021-08-09T10:40:46Z</time>
      </trkpt>
      <trkpt lat="46.46496" lon="5.45247">
        <ele>372.6</ele>
        <time>2021-08-09T10:40:49Z</time>
      </trkpt>
      <trkpt lat="46.46498" lon="5.45245">
        <ele>372.6</ele>
        <time>2021-08-09T10:41:05Z</time>
      </trkpt>
      <trkpt lat="46.46505" lon="5.45247">
        <ele>372.6</ele>
        <time>2021-08-09T10:41:07Z</time>
      </trkpt>
      <trkpt lat="46.46531" lon="5.45257">
        <ele>372.4</ele>
        <time>2021-08-09T10:41:13Z</time>
      </trkpt>
      <trkpt lat="46.46566" lon="5.4527">
        <ele>372.2</ele>
        <time>2021-08-09T10:41:21Z</time>
      </trkpt>
      <trkpt lat="46.46575" lon="5.45272">
        <ele>372.2</ele>
        <time>2021-08-09T10:41:23Z</time>
      </trkpt>
      <trkpt lat="46.46584" lon="5.45272">
        <ele>372.2</ele>
        <time>2021-08-09T10:41:25Z</time>
      </trkpt>
      <trkpt lat="46.46594" lon="5.4527">
        <ele>372.4</ele>
        <time>2021-08-09T10:41:27Z</time>
      </trkpt>
      <trkpt lat="46.46602" lon="5.45268">
        <ele>372.6</ele>
        <time>2021-08-09T10:41:29Z</time>
      </trkpt>
      <trkpt lat="46.46613" lon="5.45263">
        <ele>372.8</ele>
        <time>2021-08-09T10:41:31Z</time>
      </trkpt>
      <trkpt lat="46.46624" lon="5.45258">
        <ele>373.2</ele>
        <time>2021-08-09T10:41:34Z</time>
      </trkpt>
      <trkpt lat="46.46634" lon="5.45256">
        <ele>373.4</ele>
        <time>2021-08-09T10:41:36Z</time>
      </trkpt>
      <trkpt lat="46.46647" lon="5.45256">
        <ele>373.8</ele>
        <time>2021-08-09T10:41:39Z</time>
      </trkpt>
      <trkpt lat="46.46652" lon="5.45256">
        <ele>373.8</ele>
        <time>2021-08-09T10:41:40Z</time>
      </trkpt>
      <trkpt lat="46.46665" lon="5.45256">
        <ele>374.2</ele>
        <time>2021-08-09T10:41:43Z</time>
      </trkpt>
      <trkpt lat="46.46683" lon="5.45258">
        <ele>374.8</ele>
        <time>2021-08-09T10:41:47Z</time>
      </trkpt>
      <trkpt lat="46.46686" lon="5.45259">
        <ele>374.8</ele>
        <time>2021-08-09T10:41:48Z</time>
      </trkpt>
      <trkpt lat="46.46691" lon="5.4526">
        <ele>374.8</ele>
        <time>2021-08-09T10:41:49Z</time>
      </trkpt>
      <trkpt lat="46.46696" lon="5.45262">
        <ele>375</ele>
        <time>2021-08-09T10:41:50Z</time>
      </trkpt>
      <trkpt lat="46.46705" lon="5.45264">
        <ele>375.2</ele>
        <time>2021-08-09T10:41:52Z</time>
      </trkpt>
      <trkpt lat="46.46727" lon="5.45269">
        <ele>376.2</ele>
        <time>2021-08-09T10:41:57Z</time>
      </trkpt>
      <trkpt lat="46.46749" lon="5.45271">
        <ele>376.8</ele>
        <time>2021-08-09T10:42:02Z</time>
      </trkpt>
      <trkpt lat="46.46765" lon="5.45272">
        <ele>377.4</ele>
        <time>2021-08-09T10:42:06Z</time>
      </trkpt>
      <trkpt lat="46.4677" lon="5.45273">
        <ele>377.6</ele>
        <time>2021-08-09T10:42:07Z</time>
      </trkpt>
      <trkpt lat="46.46785" lon="5.45274">
        <ele>378.4</ele>
        <time>2021-08-09T10:42:10Z</time>
      </trkpt>
      <trkpt lat="46.46805" lon="5.45276">
        <ele>379</ele>
        <time>2021-08-09T10:42:14Z</time>
      </trkpt>
      <trkpt lat="46.46819" lon="5.45277">
        <ele>379.6</ele>
        <time>2021-08-09T10:42:17Z</time>
      </trkpt>
      <trkpt lat="46.46832" lon="5.4528">
        <ele>380</ele>
        <time>2021-08-09T10:42:20Z</time>
      </trkpt>
      <trkpt lat="46.46847" lon="5.45284">
        <ele>380.2</ele>
        <time>2021-08-09T10:42:23Z</time>
      </trkpt>
      <trkpt lat="46.46862" lon="5.45285">
        <ele>380.4</ele>
        <time>2021-08-09T10:42:26Z</time>
      </trkpt>
      <trkpt lat="46.46875" lon="5.45282">
        <ele>380.6</ele>
        <time>2021-08-09T10:42:29Z</time>
      </trkpt>
      <trkpt lat="46.46882" lon="5.45278">
        <ele>380.8</ele>
        <time>2021-08-09T10:42:31Z</time>
      </trkpt>
      <trkpt lat="46.46886" lon="5.45275">
        <ele>380.8</ele>
        <time>2021-08-09T10:42:32Z</time>
      </trkpt>
      <trkpt lat="46.46888" lon="5.45272">
        <ele>381</ele>
        <time>2021-08-09T10:42:33Z</time>
      </trkpt>
      <trkpt lat="46.46894" lon="5.45261">
        <ele>381.4</ele>
        <time>2021-08-09T10:42:35Z</time>
      </trkpt>
      <trkpt lat="46.46898" lon="5.45248">
        <ele>381.6</ele>
        <time>2021-08-09T10:42:37Z</time>
      </trkpt>
      <trkpt lat="46.46906" lon="5.45226">
        <ele>381.8</ele>
        <time>2021-08-09T10:42:40Z</time>
      </trkpt>
      <trkpt lat="46.46914" lon="5.45214">
        <ele>382</ele>
        <time>2021-08-09T10:42:42Z</time>
      </trkpt>
      <trkpt lat="46.46939" lon="5.45198">
        <ele>382</ele>
        <time>2021-08-09T10:42:47Z</time>
      </trkpt>
      <trkpt lat="46.46943" lon="5.45194">
        <ele>382</ele>
        <time>2021-08-09T10:42:48Z</time>
      </trkpt>
      <trkpt lat="46.46949" lon="5.45184">
        <ele>382</ele>
        <time>2021-08-09T10:42:50Z</time>
      </trkpt>
      <trkpt lat="46.46951" lon="5.45171">
        <ele>382.4</ele>
        <time>2021-08-09T10:42:52Z</time>
      </trkpt>
      <trkpt lat="46.46952" lon="5.45165">
        <ele>382.4</ele>
        <time>2021-08-09T10:42:53Z</time>
      </trkpt>
      <trkpt lat="46.46954" lon="5.45158">
        <ele>382.6</ele>
        <time>2021-08-09T10:42:54Z</time>
      </trkpt>
      <trkpt lat="46.46959" lon="5.45146">
        <ele>382.6</ele>
        <time>2021-08-09T10:42:56Z</time>
      </trkpt>
      <trkpt lat="46.46965" lon="5.45143">
        <ele>382.6</ele>
        <time>2021-08-09T10:42:57Z</time>
      </trkpt>
      <trkpt lat="46.46977" lon="5.45138">
        <ele>382.6</ele>
        <time>2021-08-09T10:42:59Z</time>
      </trkpt>
      <trkpt lat="46.46992" lon="5.45136">
        <ele>382.2</ele>
        <time>2021-08-09T10:43:01Z</time>
      </trkpt>
      <trkpt lat="46.47021" lon="5.45147">
        <ele>380.6</ele>
        <time>2021-08-09T10:43:05Z</time>
      </trkpt>
      <trkpt lat="46.47048" lon="5.45164">
        <ele>379.2</ele>
        <time>2021-08-09T10:43:09Z</time>
      </trkpt>
      <trkpt lat="46.47061" lon="5.45174">
        <ele>378.8</ele>
        <time>2021-08-09T10:43:11Z</time>
      </trkpt>
      <trkpt lat="46.471" lon="5.45201">
        <ele>378.4</ele>
        <time>2021-08-09T10:43:17Z</time>
      </trkpt>
      <trkpt lat="46.47107" lon="5.45205">
        <ele>378.4</ele>
        <time>2021-08-09T10:43:18Z</time>
      </trkpt>
      <trkpt lat="46.47149" lon="5.45228">
        <ele>378.4</ele>
        <time>2021-08-09T10:43:24Z</time>
      </trkpt>
      <trkpt lat="46.47202" lon="5.45254">
        <ele>378.4</ele>
        <time>2021-08-09T10:43:32Z</time>
      </trkpt>
      <trkpt lat="46.47211" lon="5.45258">
        <ele>378.4</ele>
        <time>2021-08-09T10:43:33Z</time>
      </trkpt>
      <trkpt lat="46.47265" lon="5.45283">
        <ele>378.8</ele>
        <time>2021-08-09T10:43:41Z</time>
      </trkpt>
      <trkpt lat="46.47272" lon="5.45286">
        <ele>379</ele>
        <time>2021-08-09T10:43:42Z</time>
      </trkpt>
      <trkpt lat="46.47325" lon="5.4531">
        <ele>379.4</ele>
        <time>2021-08-09T10:43:50Z</time>
      </trkpt>
      <trkpt lat="46.47338" lon="5.45316">
        <ele>379.6</ele>
        <time>2021-08-09T10:43:52Z</time>
      </trkpt>
      <trkpt lat="46.47372" lon="5.45329">
        <ele>380.2</ele>
        <time>2021-08-09T10:43:57Z</time>
      </trkpt>
      <trkpt lat="46.47405" lon="5.45338">
        <ele>380.4</ele>
        <time>2021-08-09T10:44:02Z</time>
      </trkpt>
      <trkpt lat="46.47459" lon="5.45354">
        <ele>380.2</ele>
        <time>2021-08-09T10:44:10Z</time>
      </trkpt>
      <trkpt lat="46.47517" lon="5.45373">
        <ele>380.8</ele>
        <time>2021-08-09T10:44:19Z</time>
      </trkpt>
      <trkpt lat="46.47529" lon="5.45379">
        <ele>381.2</ele>
        <time>2021-08-09T10:44:21Z</time>
      </trkpt>
      <trkpt lat="46.47549" lon="5.45392">
        <ele>381.8</ele>
        <time>2021-08-09T10:44:25Z</time>
      </trkpt>
      <trkpt lat="46.47564" lon="5.45403">
        <ele>382.2</ele>
        <time>2021-08-09T10:44:28Z</time>
      </trkpt>
      <trkpt lat="46.47589" lon="5.45423">
        <ele>383.2</ele>
        <time>2021-08-09T10:44:33Z</time>
      </trkpt>
      <trkpt lat="46.47594" lon="5.45427">
        <ele>383.4</ele>
        <time>2021-08-09T10:44:34Z</time>
      </trkpt>
      <trkpt lat="46.47628" lon="5.45451">
        <ele>384.8</ele>
        <time>2021-08-09T10:44:40Z</time>
      </trkpt>
      <trkpt lat="46.47661" lon="5.45465">
        <ele>385.2</ele>
        <time>2021-08-09T10:44:45Z</time>
      </trkpt>
      <trkpt lat="46.47667" lon="5.45469">
        <ele>385.2</ele>
        <time>2021-08-09T10:44:46Z</time>
      </trkpt>
      <trkpt lat="46.4771" lon="5.45504">
        <ele>385</ele>
        <time>2021-08-09T10:44:53Z</time>
      </trkpt>
      <trkpt lat="46.4775" lon="5.45541">
        <ele>385</ele>
        <time>2021-08-09T10:45:00Z</time>
      </trkpt>
      <trkpt lat="46.47756" lon="5.45545">
        <ele>385.2</ele>
        <time>2021-08-09T10:45:01Z</time>
      </trkpt>
      <trkpt lat="46.47775" lon="5.45554">
        <ele>385.4</ele>
        <time>2021-08-09T10:45:04Z</time>
      </trkpt>
      <trkpt lat="46.47815" lon="5.45561">
        <ele>385.4</ele>
        <time>2021-08-09T10:45:10Z</time>
      </trkpt>
      <trkpt lat="46.47872" lon="5.4558">
        <ele>385.2</ele>
        <time>2021-08-09T10:45:18Z</time>
      </trkpt>
      <trkpt lat="46.47911" lon="5.45598">
        <ele>383.6</ele>
        <time>2021-08-09T10:45:23Z</time>
      </trkpt>
      <trkpt lat="46.47936" lon="5.45608">
        <ele>382.8</ele>
        <time>2021-08-09T10:45:26Z</time>
      </trkpt>
      <trkpt lat="46.47944" lon="5.45611">
        <ele>382.6</ele>
        <time>2021-08-09T10:45:27Z</time>
      </trkpt>
      <trkpt lat="46.47988" lon="5.45628">
        <ele>381.4</ele>
        <time>2021-08-09T10:45:32Z</time>
      </trkpt>
      <trkpt lat="46.48015" lon="5.45639">
        <ele>380.4</ele>
        <time>2021-08-09T10:45:35Z</time>
      </trkpt>
      <trkpt lat="46.48058" lon="5.4566">
        <ele>378.8</ele>
        <time>2021-08-09T10:45:40Z</time>
      </trkpt>
      <trkpt lat="46.48074" lon="5.45673">
        <ele>378.4</ele>
        <time>2021-08-09T10:45:42Z</time>
      </trkpt>
      <trkpt lat="46.4811" lon="5.45706">
        <ele>377.8</ele>
        <time>2021-08-09T10:45:47Z</time>
      </trkpt>
      <trkpt lat="46.48145" lon="5.45748">
        <ele>378</ele>
        <time>2021-08-09T10:45:53Z</time>
      </trkpt>
      <trkpt lat="46.48155" lon="5.45761">
        <ele>379.2</ele>
        <time>2021-08-09T10:45:55Z</time>
      </trkpt>
      <trkpt lat="46.48178" lon="5.4579">
        <ele>379.8</ele>
        <time>2021-08-09T10:46:00Z</time>
      </trkpt>
      <trkpt lat="46.48191" lon="5.45807">
        <ele>380.2</ele>
        <time>2021-08-09T10:46:03Z</time>
      </trkpt>
      <trkpt lat="46.48203" lon="5.45823">
        <ele>380.8</ele>
        <time>2021-08-09T10:46:06Z</time>
      </trkpt>
      <trkpt lat="46.48212" lon="5.45834">
        <ele>381.4</ele>
        <time>2021-08-09T10:46:08Z</time>
      </trkpt>
      <trkpt lat="46.48237" lon="5.45868">
        <ele>382.2</ele>
        <time>2021-08-09T10:46:14Z</time>
      </trkpt>
      <trkpt lat="46.48241" lon="5.45874">
        <ele>382.4</ele>
        <time>2021-08-09T10:46:15Z</time>
      </trkpt>
      <trkpt lat="46.48267" lon="5.45912">
        <ele>383.6</ele>
        <time>2021-08-09T10:46:22Z</time>
      </trkpt>
      <trkpt lat="46.48275" lon="5.45924">
        <ele>383.6</ele>
        <time>2021-08-09T10:46:24Z</time>
      </trkpt>
      <trkpt lat="46.48294" lon="5.4595">
        <ele>384.8</ele>
        <time>2021-08-09T10:46:29Z</time>
      </trkpt>
      <trkpt lat="46.48313" lon="5.45978">
        <ele>385.8</ele>
        <time>2021-08-09T10:46:34Z</time>
      </trkpt>
      <trkpt lat="46.48317" lon="5.45984">
        <ele>386</ele>
        <time>2021-08-09T10:46:35Z</time>
      </trkpt>
      <trkpt lat="46.48352" lon="5.46044">
        <ele>386.6</ele>
        <time>2021-08-09T10:46:44Z</time>
      </trkpt>
      <trkpt lat="46.48374" lon="5.46087">
        <ele>386.8</ele>
        <time>2021-08-09T10:46:50Z</time>
      </trkpt>
      <trkpt lat="46.48401" lon="5.46138">
        <ele>387</ele>
        <time>2021-08-09T10:46:57Z</time>
      </trkpt>
      <trkpt lat="46.48421" lon="5.46188">
        <ele>386.8</ele>
        <time>2021-08-09T10:47:03Z</time>
      </trkpt>
      <trkpt lat="46.48423" lon="5.46199">
        <ele>386.4</ele>
        <time>2021-08-09T10:47:04Z</time>
      </trkpt>
      <trkpt lat="46.48433" lon="5.46243">
        <ele>385.8</ele>
        <time>2021-08-09T10:47:08Z</time>
      </trkpt>
      <trkpt lat="46.48437" lon="5.46253">
        <ele>385.4</ele>
        <time>2021-08-09T10:47:09Z</time>
      </trkpt>
      <trkpt lat="46.48441" lon="5.46262">
        <ele>385.4</ele>
        <time>2021-08-09T10:47:10Z</time>
      </trkpt>
      <trkpt lat="46.48443" lon="5.46271">
        <ele>384.6</ele>
        <time>2021-08-09T10:47:11Z</time>
      </trkpt>
      <trkpt lat="46.48443" lon="5.46281">
        <ele>384.4</ele>
        <time>2021-08-09T10:47:12Z</time>
      </trkpt>
      <trkpt lat="46.48436" lon="5.46301">
        <ele>383.8</ele>
        <time>2021-08-09T10:47:14Z</time>
      </trkpt>
      <trkpt lat="46.48432" lon="5.4631">
        <ele>383.4</ele>
        <time>2021-08-09T10:47:15Z</time>
      </trkpt>
      <trkpt lat="46.48418" lon="5.46339">
        <ele>382</ele>
        <time>2021-08-09T10:47:18Z</time>
      </trkpt>
      <trkpt lat="46.48401" lon="5.46377">
        <ele>380.8</ele>
        <time>2021-08-09T10:47:22Z</time>
      </trkpt>
      <trkpt lat="46.48393" lon="5.464">
        <ele>380.6</ele>
        <time>2021-08-09T10:47:24Z</time>
      </trkpt>
      <trkpt lat="46.48391" lon="5.4641">
        <ele>380.6</ele>
        <time>2021-08-09T10:47:25Z</time>
      </trkpt>
      <trkpt lat="46.48387" lon="5.46443">
        <ele>380.4</ele>
        <time>2021-08-09T10:47:28Z</time>
      </trkpt>
      <trkpt lat="46.48385" lon="5.46496">
        <ele>380</ele>
        <time>2021-08-09T10:47:33Z</time>
      </trkpt>
      <trkpt lat="46.48382" lon="5.46505">
        <ele>380</ele>
        <time>2021-08-09T10:47:34Z</time>
      </trkpt>
      <trkpt lat="46.48366" lon="5.46549">
        <ele>380.2</ele>
        <time>2021-08-09T10:47:39Z</time>
      </trkpt>
      <trkpt lat="46.48347" lon="5.46595">
        <ele>380.4</ele>
        <time>2021-08-09T10:47:45Z</time>
      </trkpt>
      <trkpt lat="46.48348" lon="5.46606">
        <ele>380.4</ele>
        <time>2021-08-09T10:47:47Z</time>
      </trkpt>
      <trkpt lat="46.4835" lon="5.46611">
        <ele>380.4</ele>
        <time>2021-08-09T10:47:48Z</time>
      </trkpt>
      <trkpt lat="46.48355" lon="5.46616">
        <ele>380.4</ele>
        <time>2021-08-09T10:47:49Z</time>
      </trkpt>
      <trkpt lat="46.48366" lon="5.46624">
        <ele>380.2</ele>
        <time>2021-08-09T10:47:51Z</time>
      </trkpt>
      <trkpt lat="46.48405" lon="5.46644">
        <ele>380</ele>
        <time>2021-08-09T10:47:57Z</time>
      </trkpt>
      <trkpt lat="46.48455" lon="5.46674">
        <ele>380</ele>
        <time>2021-08-09T10:48:05Z</time>
      </trkpt>
      <trkpt lat="46.48473" lon="5.46684">
        <ele>381</ele>
        <time>2021-08-09T10:48:08Z</time>
      </trkpt>
      <trkpt lat="46.48524" lon="5.46715">
        <ele>381.4</ele>
        <time>2021-08-09T10:48:17Z</time>
      </trkpt>
      <trkpt lat="46.48557" lon="5.46734">
        <ele>381.8</ele>
        <time>2021-08-09T10:48:23Z</time>
      </trkpt>
      <trkpt lat="46.4859" lon="5.46753">
        <ele>382.8</ele>
        <time>2021-08-09T10:48:29Z</time>
      </trkpt>
      <trkpt lat="46.48595" lon="5.46757">
        <ele>383</ele>
        <time>2021-08-09T10:48:30Z</time>
      </trkpt>
      <trkpt lat="46.48637" lon="5.46781">
        <ele>383.6</ele>
        <time>2021-08-09T10:48:38Z</time>
      </trkpt>
      <trkpt lat="46.48653" lon="5.4679">
        <ele>384</ele>
        <time>2021-08-09T10:48:41Z</time>
      </trkpt>
      <trkpt lat="46.48677" lon="5.46805">
        <ele>385.2</ele>
        <time>2021-08-09T10:48:46Z</time>
      </trkpt>
      <trkpt lat="46.48706" lon="5.46822">
        <ele>386.4</ele>
        <time>2021-08-09T10:48:52Z</time>
      </trkpt>
      <trkpt lat="46.48715" lon="5.46827">
        <ele>386.8</ele>
        <time>2021-08-09T10:48:54Z</time>
      </trkpt>
      <trkpt lat="46.48734" lon="5.46838">
        <ele>387.6</ele>
        <time>2021-08-09T10:48:58Z</time>
      </trkpt>
      <trkpt lat="46.48765" lon="5.46856">
        <ele>388.4</ele>
        <time>2021-08-09T10:49:05Z</time>
      </trkpt>
      <trkpt lat="46.4877" lon="5.46859">
        <ele>388.6</ele>
        <time>2021-08-09T10:49:06Z</time>
      </trkpt>
      <trkpt lat="46.4879" lon="5.46871">
        <ele>389.6</ele>
        <time>2021-08-09T10:49:11Z</time>
      </trkpt>
      <trkpt lat="46.48794" lon="5.46874">
        <ele>390</ele>
        <time>2021-08-09T10:49:12Z</time>
      </trkpt>
      <trkpt lat="46.48798" lon="5.46877">
        <ele>390</ele>
        <time>2021-08-09T10:49:13Z</time>
      </trkpt>
      <trkpt lat="46.48802" lon="5.4688">
        <ele>390.4</ele>
        <time>2021-08-09T10:49:14Z</time>
      </trkpt>
      <trkpt lat="46.48811" lon="5.46885">
        <ele>391</ele>
        <time>2021-08-09T10:49:16Z</time>
      </trkpt>
      <trkpt lat="46.48823" lon="5.46892">
        <ele>392.2</ele>
        <time>2021-08-09T10:49:19Z</time>
      </trkpt>
      <trkpt lat="46.48826" lon="5.46894">
        <ele>392.2</ele>
        <time>2021-08-09T10:49:20Z</time>
      </trkpt>
      <trkpt lat="46.48842" lon="5.46903">
        <ele>393.2</ele>
        <time>2021-08-09T10:49:24Z</time>
      </trkpt>
      <trkpt lat="46.4886" lon="5.46911">
        <ele>394.2</ele>
        <time>2021-08-09T10:49:29Z</time>
      </trkpt>
      <trkpt lat="46.48864" lon="5.46912">
        <ele>394.4</ele>
        <time>2021-08-09T10:49:30Z</time>
      </trkpt>
      <trkpt lat="46.48876" lon="5.46915">
        <ele>395.6</ele>
        <time>2021-08-09T10:49:33Z</time>
      </trkpt>
      <trkpt lat="46.48895" lon="5.46921">
        <ele>396.2</ele>
        <time>2021-08-09T10:49:38Z</time>
      </trkpt>
      <trkpt lat="46.48899" lon="5.46922">
        <ele>396.4</ele>
        <time>2021-08-09T10:49:39Z</time>
      </trkpt>
      <trkpt lat="46.48918" lon="5.46925">
        <ele>397.4</ele>
        <time>2021-08-09T10:49:44Z</time>
      </trkpt>
      <trkpt lat="46.48937" lon="5.46925">
        <ele>398.6</ele>
        <time>2021-08-09T10:49:49Z</time>
      </trkpt>
      <trkpt lat="46.48948" lon="5.46923">
        <ele>399</ele>
        <time>2021-08-09T10:49:52Z</time>
      </trkpt>
      <trkpt lat="46.48955" lon="5.46921">
        <ele>399.8</ele>
        <time>2021-08-09T10:49:54Z</time>
      </trkpt>
      <trkpt lat="46.48976" lon="5.46909">
        <ele>400.8</ele>
        <time>2021-08-09T10:50:01Z</time>
      </trkpt>
      <trkpt lat="46.4898" lon="5.46907">
        <ele>401.2</ele>
        <time>2021-08-09T10:50:02Z</time>
      </trkpt>
      <trkpt lat="46.48996" lon="5.46894">
        <ele>402.2</ele>
        <time>2021-08-09T10:50:07Z</time>
      </trkpt>
      <trkpt lat="46.49002" lon="5.46889">
        <ele>402.8</ele>
        <time>2021-08-09T10:50:09Z</time>
      </trkpt>
      <trkpt lat="46.49008" lon="5.46883">
        <ele>403.2</ele>
        <time>2021-08-09T10:50:11Z</time>
      </trkpt>
      <trkpt lat="46.49029" lon="5.46862">
        <ele>404.4</ele>
        <time>2021-08-09T10:50:18Z</time>
      </trkpt>
      <trkpt lat="46.49044" lon="5.46847">
        <ele>405.6</ele>
        <time>2021-08-09T10:50:23Z</time>
      </trkpt>
      <trkpt lat="46.49056" lon="5.46834">
        <ele>406.6</ele>
        <time>2021-08-09T10:50:27Z</time>
      </trkpt>
      <trkpt lat="46.49059" lon="5.46831">
        <ele>406.8</ele>
        <time>2021-08-09T10:50:28Z</time>
      </trkpt>
      <trkpt lat="46.49072" lon="5.46819">
        <ele>408</ele>
        <time>2021-08-09T10:50:32Z</time>
      </trkpt>
      <trkpt lat="46.49085" lon="5.46808">
        <ele>408.2</ele>
        <time>2021-08-09T10:50:36Z</time>
      </trkpt>
      <trkpt lat="46.49095" lon="5.46799">
        <ele>409.2</ele>
        <time>2021-08-09T10:50:39Z</time>
      </trkpt>
      <trkpt lat="46.49112" lon="5.46784">
        <ele>410</ele>
        <time>2021-08-09T10:50:44Z</time>
      </trkpt>
      <trkpt lat="46.49115" lon="5.46782">
        <ele>410.2</ele>
        <time>2021-08-09T10:50:45Z</time>
      </trkpt>
      <trkpt lat="46.49134" lon="5.46767">
        <ele>411.4</ele>
        <time>2021-08-09T10:50:51Z</time>
      </trkpt>
      <trkpt lat="46.49138" lon="5.46764">
        <ele>411.4</ele>
        <time>2021-08-09T10:50:52Z</time>
      </trkpt>
      <trkpt lat="46.49153" lon="5.46756">
        <ele>412.2</ele>
        <time>2021-08-09T10:50:56Z</time>
      </trkpt>
      <trkpt lat="46.49173" lon="5.46748">
        <ele>413</ele>
        <time>2021-08-09T10:51:01Z</time>
      </trkpt>
      <trkpt lat="46.4918" lon="5.46748">
        <ele>413.2</ele>
        <time>2021-08-09T10:51:03Z</time>
      </trkpt>
      <trkpt lat="46.49201" lon="5.46747">
        <ele>414.6</ele>
        <time>2021-08-09T10:51:09Z</time>
      </trkpt>
      <trkpt lat="46.49226" lon="5.46752">
        <ele>415.8</ele>
        <time>2021-08-09T10:51:15Z</time>
      </trkpt>
      <trkpt lat="46.4923" lon="5.46754">
        <ele>416.4</ele>
        <time>2021-08-09T10:51:16Z</time>
      </trkpt>
      <trkpt lat="46.49246" lon="5.46762">
        <ele>417</ele>
        <time>2021-08-09T10:51:20Z</time>
      </trkpt>
      <trkpt lat="46.49266" lon="5.46773">
        <ele>418.2</ele>
        <time>2021-08-09T10:51:25Z</time>
      </trkpt>
      <trkpt lat="46.49273" lon="5.46777">
        <ele>418.6</ele>
        <time>2021-08-09T10:51:27Z</time>
      </trkpt>
      <trkpt lat="46.49286" lon="5.46784">
        <ele>419.2</ele>
        <time>2021-08-09T10:51:30Z</time>
      </trkpt>
      <trkpt lat="46.49301" lon="5.46793">
        <ele>420</ele>
        <time>2021-08-09T10:51:34Z</time>
      </trkpt>
      <trkpt lat="46.49305" lon="5.46796">
        <ele>420.4</ele>
        <time>2021-08-09T10:51:35Z</time>
      </trkpt>
      <trkpt lat="46.4932" lon="5.46805">
        <ele>421.6</ele>
        <time>2021-08-09T10:51:39Z</time>
      </trkpt>
      <trkpt lat="46.49333" lon="5.46812">
        <ele>422.4</ele>
        <time>2021-08-09T10:51:42Z</time>
      </trkpt>
      <trkpt lat="46.49339" lon="5.46816">
        <ele>422.6</ele>
        <time>2021-08-09T10:51:44Z</time>
      </trkpt>
      <trkpt lat="46.49362" lon="5.46829">
        <ele>423.4</ele>
        <time>2021-08-09T10:51:50Z</time>
      </trkpt>
      <trkpt lat="46.49371" lon="5.46834">
        <ele>423.8</ele>
        <time>2021-08-09T10:51:52Z</time>
      </trkpt>
      <trkpt lat="46.49383" lon="5.46841">
        <ele>424.8</ele>
        <time>2021-08-09T10:51:55Z</time>
      </trkpt>
      <trkpt lat="46.49399" lon="5.46848">
        <ele>425.4</ele>
        <time>2021-08-09T10:51:59Z</time>
      </trkpt>
      <trkpt lat="46.49417" lon="5.46857">
        <ele>426</ele>
        <time>2021-08-09T10:52:03Z</time>
      </trkpt>
      <trkpt lat="46.49439" lon="5.46868">
        <ele>427</ele>
        <time>2021-08-09T10:52:08Z</time>
      </trkpt>
      <trkpt lat="46.49444" lon="5.46871">
        <ele>427.2</ele>
        <time>2021-08-09T10:52:09Z</time>
      </trkpt>
      <trkpt lat="46.49479" lon="5.4689">
        <ele>428</ele>
        <time>2021-08-09T10:52:17Z</time>
      </trkpt>
      <trkpt lat="46.49489" lon="5.46895">
        <ele>428.2</ele>
        <time>2021-08-09T10:52:19Z</time>
      </trkpt>
      <trkpt lat="46.49515" lon="5.46907">
        <ele>429.4</ele>
        <time>2021-08-09T10:52:25Z</time>
      </trkpt>
      <trkpt lat="46.49525" lon="5.46913">
        <ele>429.8</ele>
        <time>2021-08-09T10:52:27Z</time>
      </trkpt>
      <trkpt lat="46.49559" lon="5.4693">
        <ele>430.4</ele>
        <time>2021-08-09T10:52:34Z</time>
      </trkpt>
      <trkpt lat="46.49602" lon="5.46945">
        <ele>431.4</ele>
        <time>2021-08-09T10:52:42Z</time>
      </trkpt>
      <trkpt lat="46.49611" lon="5.46948">
        <ele>431.6</ele>
        <time>2021-08-09T10:52:44Z</time>
      </trkpt>
      <trkpt lat="46.49664" lon="5.4696">
        <ele>432.2</ele>
        <time>2021-08-09T10:52:54Z</time>
      </trkpt>
      <trkpt lat="46.49673" lon="5.46963">
        <ele>432.4</ele>
        <time>2021-08-09T10:52:56Z</time>
      </trkpt>
      <trkpt lat="46.49715" lon="5.4697">
        <ele>433.6</ele>
        <time>2021-08-09T10:53:04Z</time>
      </trkpt>
      <trkpt lat="46.4972" lon="5.46971">
        <ele>433.8</ele>
        <time>2021-08-09T10:53:05Z</time>
      </trkpt>
      <trkpt lat="46.4975" lon="5.46977">
        <ele>434.6</ele>
        <time>2021-08-09T10:53:11Z</time>
      </trkpt>
      <trkpt lat="46.49769" lon="5.4698">
        <ele>435</ele>
        <time>2021-08-09T10:53:14Z</time>
      </trkpt>
      <trkpt lat="46.49824" lon="5.46988">
        <ele>435.8</ele>
        <time>2021-08-09T10:53:24Z</time>
      </trkpt>
      <trkpt lat="46.49836" lon="5.46991">
        <ele>436</ele>
        <time>2021-08-09T10:53:26Z</time>
      </trkpt>
      <trkpt lat="46.49888" lon="5.47">
        <ele>436.8</ele>
        <time>2021-08-09T10:53:35Z</time>
      </trkpt>
      <trkpt lat="46.49947" lon="5.47013">
        <ele>437.8</ele>
        <time>2021-08-09T10:53:45Z</time>
      </trkpt>
      <trkpt lat="46.49959" lon="5.47017">
        <ele>438</ele>
        <time>2021-08-09T10:53:47Z</time>
      </trkpt>
      <trkpt lat="46.50002" lon="5.47029">
        <ele>438</ele>
        <time>2021-08-09T10:53:54Z</time>
      </trkpt>
      <trkpt lat="46.50048" lon="5.47032">
        <ele>438.4</ele>
        <time>2021-08-09T10:54:01Z</time>
      </trkpt>
      <trkpt lat="46.50074" lon="5.47028">
        <ele>438.8</ele>
        <time>2021-08-09T10:54:05Z</time>
      </trkpt>
      <trkpt lat="46.50096" lon="5.47021">
        <ele>439.2</ele>
        <time>2021-08-09T10:54:09Z</time>
      </trkpt>
      <trkpt lat="46.50151" lon="5.47001">
        <ele>440</ele>
        <time>2021-08-09T10:54:18Z</time>
      </trkpt>
      <trkpt lat="46.50164" lon="5.46995">
        <ele>440</ele>
        <time>2021-08-09T10:54:20Z</time>
      </trkpt>
      <trkpt lat="46.50211" lon="5.46979">
        <ele>440.2</ele>
        <time>2021-08-09T10:54:27Z</time>
      </trkpt>
      <trkpt lat="46.50271" lon="5.46972">
        <ele>440.4</ele>
        <time>2021-08-09T10:54:36Z</time>
      </trkpt>
      <trkpt lat="46.50328" lon="5.46971">
        <ele>440</ele>
        <time>2021-08-09T10:54:44Z</time>
      </trkpt>
      <trkpt lat="46.50359" lon="5.4697">
        <ele>439.8</ele>
        <time>2021-08-09T10:54:48Z</time>
      </trkpt>
      <trkpt lat="46.50415" lon="5.46971">
        <ele>439.2</ele>
        <time>2021-08-09T10:54:55Z</time>
      </trkpt>
      <trkpt lat="46.50431" lon="5.46974">
        <ele>438.8</ele>
        <time>2021-08-09T10:54:57Z</time>
      </trkpt>
      <trkpt lat="46.50474" lon="5.46989">
        <ele>437.8</ele>
        <time>2021-08-09T10:55:02Z</time>
      </trkpt>
      <trkpt lat="46.50489" lon="5.46994">
        <ele>437.6</ele>
        <time>2021-08-09T10:55:04Z</time>
      </trkpt>
      <trkpt lat="46.50546" lon="5.47014">
        <ele>437</ele>
        <time>2021-08-09T10:55:11Z</time>
      </trkpt>
      <trkpt lat="46.5056" lon="5.47019">
        <ele>437</ele>
        <time>2021-08-09T10:55:13Z</time>
      </trkpt>
      <trkpt lat="46.50614" lon="5.47036">
        <ele>436.8</ele>
        <time>2021-08-09T10:55:20Z</time>
      </trkpt>
      <trkpt lat="46.50635" lon="5.47042">
        <ele>437</ele>
        <time>2021-08-09T10:55:23Z</time>
      </trkpt>
      <trkpt lat="46.50679" lon="5.47055">
        <ele>437.6</ele>
        <time>2021-08-09T10:55:29Z</time>
      </trkpt>
      <trkpt lat="46.50719" lon="5.47069">
        <ele>437.8</ele>
        <time>2021-08-09T10:55:35Z</time>
      </trkpt>
      <trkpt lat="46.50766" lon="5.47089">
        <ele>438</ele>
        <time>2021-08-09T10:55:42Z</time>
      </trkpt>
      <trkpt lat="46.50812" lon="5.47107">
        <ele>438</ele>
        <time>2021-08-09T10:55:49Z</time>
      </trkpt>
      <trkpt lat="46.50832" lon="5.47117">
        <ele>438.4</ele>
        <time>2021-08-09T10:55:52Z</time>
      </trkpt>
      <trkpt lat="46.50854" lon="5.47126">
        <ele>438.6</ele>
        <time>2021-08-09T10:55:55Z</time>
      </trkpt>
      <trkpt lat="46.50904" lon="5.47148">
        <ele>439.6</ele>
        <time>2021-08-09T10:56:02Z</time>
      </trkpt>
      <trkpt lat="46.50917" lon="5.47154">
        <ele>439.4</ele>
        <time>2021-08-09T10:56:04Z</time>
      </trkpt>
      <trkpt lat="46.5097" lon="5.47178">
        <ele>439</ele>
        <time>2021-08-09T10:56:11Z</time>
      </trkpt>
      <trkpt lat="46.50997" lon="5.4719">
        <ele>438.8</ele>
        <time>2021-08-09T10:56:15Z</time>
      </trkpt>
      <trkpt lat="46.51056" lon="5.47212">
        <ele>438.6</ele>
        <time>2021-08-09T10:56:23Z</time>
      </trkpt>
      <trkpt lat="46.51061" lon="5.47214">
        <ele>438.6</ele>
        <time>2021-08-09T10:56:24Z</time>
      </trkpt>
      <trkpt lat="46.51118" lon="5.47234">
        <ele>438.6</ele>
        <time>2021-08-09T10:56:32Z</time>
      </trkpt>
      <trkpt lat="46.51139" lon="5.47242">
        <ele>438.6</ele>
        <time>2021-08-09T10:56:35Z</time>
      </trkpt>
      <trkpt lat="46.5116" lon="5.47249">
        <ele>438.6</ele>
        <time>2021-08-09T10:56:38Z</time>
      </trkpt>
      <trkpt lat="46.51209" lon="5.4727">
        <ele>438.8</ele>
        <time>2021-08-09T10:56:45Z</time>
      </trkpt>
      <trkpt lat="46.51265" lon="5.47292">
        <ele>438.8</ele>
        <time>2021-08-09T10:56:53Z</time>
      </trkpt>
      <trkpt lat="46.51286" lon="5.47302">
        <ele>438.8</ele>
        <time>2021-08-09T10:56:56Z</time>
      </trkpt>
      <trkpt lat="46.51345" lon="5.47326">
        <ele>438.6</ele>
        <time>2021-08-09T10:57:04Z</time>
      </trkpt>
      <trkpt lat="46.51351" lon="5.47328">
        <ele>438.6</ele>
        <time>2021-08-09T10:57:05Z</time>
      </trkpt>
      <trkpt lat="46.51408" lon="5.4735">
        <ele>438.8</ele>
        <time>2021-08-09T10:57:13Z</time>
      </trkpt>
      <trkpt lat="46.51423" lon="5.47356">
        <ele>438.8</ele>
        <time>2021-08-09T10:57:15Z</time>
      </trkpt>
      <trkpt lat="46.5148" lon="5.47379">
        <ele>439.4</ele>
        <time>2021-08-09T10:57:23Z</time>
      </trkpt>
      <trkpt lat="46.51534" lon="5.474">
        <ele>439.4</ele>
        <time>2021-08-09T10:57:31Z</time>
      </trkpt>
      <trkpt lat="46.51555" lon="5.47409">
        <ele>439.6</ele>
        <time>2021-08-09T10:57:34Z</time>
      </trkpt>
      <trkpt lat="46.5161" lon="5.47432">
        <ele>439.8</ele>
        <time>2021-08-09T10:57:42Z</time>
      </trkpt>
      <trkpt lat="46.51624" lon="5.47437">
        <ele>440</ele>
        <time>2021-08-09T10:57:44Z</time>
      </trkpt>
      <trkpt lat="46.51651" lon="5.47449">
        <ele>440.2</ele>
        <time>2021-08-09T10:57:48Z</time>
      </trkpt>
      <trkpt lat="46.51691" lon="5.47466">
        <ele>440.4</ele>
        <time>2021-08-09T10:57:54Z</time>
      </trkpt>
      <trkpt lat="46.51697" lon="5.47469">
        <ele>440.4</ele>
        <time>2021-08-09T10:57:55Z</time>
      </trkpt>
      <trkpt lat="46.51751" lon="5.47489">
        <ele>440.8</ele>
        <time>2021-08-09T10:58:03Z</time>
      </trkpt>
      <trkpt lat="46.51758" lon="5.47492">
        <ele>440.8</ele>
        <time>2021-08-09T10:58:04Z</time>
      </trkpt>
      <trkpt lat="46.51792" lon="5.47506">
        <ele>441.2</ele>
        <time>2021-08-09T10:58:09Z</time>
      </trkpt>
      <trkpt lat="46.51824" lon="5.47519">
        <ele>441.6</ele>
        <time>2021-08-09T10:58:14Z</time>
      </trkpt>
      <trkpt lat="46.51879" lon="5.47541">
        <ele>442</ele>
        <time>2021-08-09T10:58:22Z</time>
      </trkpt>
      <trkpt lat="46.51887" lon="5.47544">
        <ele>442</ele>
        <time>2021-08-09T10:58:23Z</time>
      </trkpt>
      <trkpt lat="46.51942" lon="5.47566">
        <ele>442.2</ele>
        <time>2021-08-09T10:58:31Z</time>
      </trkpt>
      <trkpt lat="46.5195" lon="5.47569">
        <ele>442.2</ele>
        <time>2021-08-09T10:58:32Z</time>
      </trkpt>
      <trkpt lat="46.52004" lon="5.47591">
        <ele>442.4</ele>
        <time>2021-08-09T10:58:40Z</time>
      </trkpt>
      <trkpt lat="46.52019" lon="5.47597">
        <ele>442.6</ele>
        <time>2021-08-09T10:58:42Z</time>
      </trkpt>
      <trkpt lat="46.52079" lon="5.4762">
        <ele>442.6</ele>
        <time>2021-08-09T10:58:51Z</time>
      </trkpt>
      <trkpt lat="46.52137" lon="5.47647">
        <ele>443</ele>
        <time>2021-08-09T10:59:00Z</time>
      </trkpt>
      <trkpt lat="46.52191" lon="5.47676">
        <ele>442.8</ele>
        <time>2021-08-09T10:59:08Z</time>
      </trkpt>
      <trkpt lat="46.52198" lon="5.47679">
        <ele>443</ele>
        <time>2021-08-09T10:59:09Z</time>
      </trkpt>
      <trkpt lat="46.52211" lon="5.47685">
        <ele>443</ele>
        <time>2021-08-09T10:59:11Z</time>
      </trkpt>
      <trkpt lat="46.52263" lon="5.47709">
        <ele>443.2</ele>
        <time>2021-08-09T10:59:18Z</time>
      </trkpt>
      <trkpt lat="46.52312" lon="5.47732">
        <ele>443</ele>
        <time>2021-08-09T10:59:25Z</time>
      </trkpt>
      <trkpt lat="46.52365" lon="5.47758">
        <ele>443</ele>
        <time>2021-08-09T10:59:33Z</time>
      </trkpt>
      <trkpt lat="46.52397" lon="5.47773">
        <ele>443.2</ele>
        <time>2021-08-09T10:59:38Z</time>
      </trkpt>
      <trkpt lat="46.52402" lon="5.47779">
        <ele>443.4</ele>
        <time>2021-08-09T10:59:39Z</time>
      </trkpt>
      <trkpt lat="46.52405" lon="5.47786">
        <ele>443.4</ele>
        <time>2021-08-09T10:59:40Z</time>
      </trkpt>
      <trkpt lat="46.52407" lon="5.47799">
        <ele>443.6</ele>
        <time>2021-08-09T10:59:42Z</time>
      </trkpt>
      <trkpt lat="46.52407" lon="5.47821">
        <ele>444.2</ele>
        <time>2021-08-09T10:59:45Z</time>
      </trkpt>
      <trkpt lat="46.52408" lon="5.47842">
        <ele>445.2</ele>
        <time>2021-08-09T10:59:48Z</time>
      </trkpt>
      <trkpt lat="46.5241" lon="5.47848">
        <ele>445.8</ele>
        <time>2021-08-09T10:59:49Z</time>
      </trkpt>
      <trkpt lat="46.52414" lon="5.4786">
        <ele>446.4</ele>
        <time>2021-08-09T10:59:51Z</time>
      </trkpt>
      <trkpt lat="46.52418" lon="5.47867">
        <ele>446.6</ele>
        <time>2021-08-09T10:59:52Z</time>
      </trkpt>
      <trkpt lat="46.52431" lon="5.4789">
        <ele>447.4</ele>
        <time>2021-08-09T10:59:56Z</time>
      </trkpt>
      <trkpt lat="46.52447" lon="5.47917">
        <ele>448.2</ele>
        <time>2021-08-09T11:00:01Z</time>
      </trkpt>
      <trkpt lat="46.52451" lon="5.47926">
        <ele>448.6</ele>
        <time>2021-08-09T11:00:04Z</time>
      </trkpt>
      <trkpt lat="46.52452" lon="5.47927">
        <ele>449</ele>
        <time>2021-08-09T11:00:05Z</time>
      </trkpt>
      <trkpt lat="46.52452" lon="5.47928">
        <ele>449.8</ele>
        <time>2021-08-09T11:00:09Z</time>
      </trkpt>
      <trkpt lat="46.52452" lon="5.47928">
        <ele>449.8</ele>
        <time>2021-08-09T11:00:10Z</time>
      </trkpt>
      <trkpt lat="46.52453" lon="5.47929">
        <ele>450</ele>
        <time>2021-08-09T11:00:51Z</time>
      </trkpt>
      <trkpt lat="46.52457" lon="5.47936">
        <ele>450.2</ele>
        <time>2021-08-09T11:00:54Z</time>
      </trkpt>
      <trkpt lat="46.52467" lon="5.47953">
        <ele>450.4</ele>
        <time>2021-08-09T11:00:58Z</time>
      </trkpt>
      <trkpt lat="46.52482" lon="5.47976">
        <ele>450.8</ele>
        <time>2021-08-09T11:01:03Z</time>
      </trkpt>
      <trkpt lat="46.52487" lon="5.47985">
        <ele>451</ele>
        <time>2021-08-09T11:01:05Z</time>
      </trkpt>
      <trkpt lat="46.52498" lon="5.48003">
        <ele>452.2</ele>
        <time>2021-08-09T11:01:09Z</time>
      </trkpt>
      <trkpt lat="46.52505" lon="5.48016">
        <ele>453.4</ele>
        <time>2021-08-09T11:01:12Z</time>
      </trkpt>
      <trkpt lat="46.52512" lon="5.48028">
        <ele>454.2</ele>
        <time>2021-08-09T11:01:15Z</time>
      </trkpt>
      <trkpt lat="46.52515" lon="5.48032">
        <ele>454.6</ele>
        <time>2021-08-09T11:01:16Z</time>
      </trkpt>
      <trkpt lat="46.52525" lon="5.48046">
        <ele>455.6</ele>
        <time>2021-08-09T11:01:20Z</time>
      </trkpt>
      <trkpt lat="46.5253" lon="5.48052">
        <ele>456.2</ele>
        <time>2021-08-09T11:01:22Z</time>
      </trkpt>
      <trkpt lat="46.52537" lon="5.48058">
        <ele>456.8</ele>
        <time>2021-08-09T11:01:24Z</time>
      </trkpt>
      <trkpt lat="46.52548" lon="5.48066">
        <ele>457.6</ele>
        <time>2021-08-09T11:01:27Z</time>
      </trkpt>
      <trkpt lat="46.52552" lon="5.48068">
        <ele>458</ele>
        <time>2021-08-09T11:01:28Z</time>
      </trkpt>
      <trkpt lat="46.52573" lon="5.48081">
        <ele>459.2</ele>
        <time>2021-08-09T11:01:33Z</time>
      </trkpt>
      <trkpt lat="46.52583" lon="5.48085">
        <ele>459.2</ele>
        <time>2021-08-09T11:01:35Z</time>
      </trkpt>
      <trkpt lat="46.52612" lon="5.48099">
        <ele>459.2</ele>
        <time>2021-08-09T11:01:40Z</time>
      </trkpt>
      <trkpt lat="46.52648" lon="5.48115">
        <ele>458.2</ele>
        <time>2021-08-09T11:01:46Z</time>
      </trkpt>
      <trkpt lat="46.52653" lon="5.48117">
        <ele>458</ele>
        <time>2021-08-09T11:01:47Z</time>
      </trkpt>
      <trkpt lat="46.5267" lon="5.48122">
        <ele>457.8</ele>
        <time>2021-08-09T11:01:50Z</time>
      </trkpt>
      <trkpt lat="46.5268" lon="5.48124">
        <ele>457.6</ele>
        <time>2021-08-09T11:01:52Z</time>
      </trkpt>
      <trkpt lat="46.52688" lon="5.48125">
        <ele>457.8</ele>
        <time>2021-08-09T11:01:55Z</time>
      </trkpt>
      <trkpt lat="46.52691" lon="5.48127">
        <ele>458</ele>
        <time>2021-08-09T11:01:57Z</time>
      </trkpt>
      <trkpt lat="46.52691" lon="5.48131">
        <ele>458.2</ele>
        <time>2021-08-09T11:01:59Z</time>
      </trkpt>
      <trkpt lat="46.52679" lon="5.48131">
        <ele>458.2</ele>
        <time>2021-08-09T11:02:03Z</time>
      </trkpt>
      <trkpt lat="46.52654" lon="5.48123">
        <ele>458.4</ele>
        <time>2021-08-09T11:02:09Z</time>
      </trkpt>
      <trkpt lat="46.52638" lon="5.48118">
        <ele>459</ele>
        <time>2021-08-09T11:02:13Z</time>
      </trkpt>
      <trkpt lat="46.52621" lon="5.48113">
        <ele>460.2</ele>
        <time>2021-08-09T11:02:17Z</time>
      </trkpt>
      <trkpt lat="46.52605" lon="5.48109">
        <ele>461.2</ele>
        <time>2021-08-09T11:02:21Z</time>
      </trkpt>
      <trkpt lat="46.52584" lon="5.48107">
        <ele>462.4</ele>
        <time>2021-08-09T11:02:26Z</time>
      </trkpt>
      <trkpt lat="46.52565" lon="5.48104">
        <ele>463.8</ele>
        <time>2021-08-09T11:02:31Z</time>
      </trkpt>
      <trkpt lat="46.52557" lon="5.48103">
        <ele>464.4</ele>
        <time>2021-08-09T11:02:33Z</time>
      </trkpt>
      <trkpt lat="46.52549" lon="5.48103">
        <ele>464.8</ele>
        <time>2021-08-09T11:02:35Z</time>
      </trkpt>
      <trkpt lat="46.52534" lon="5.48102">
        <ele>466</ele>
        <time>2021-08-09T11:02:39Z</time>
      </trkpt>
      <trkpt lat="46.52523" lon="5.48102">
        <ele>466.8</ele>
        <time>2021-08-09T11:02:42Z</time>
      </trkpt>
      <trkpt lat="46.52515" lon="5.48103">
        <ele>467.2</ele>
        <time>2021-08-09T11:02:44Z</time>
      </trkpt>
      <trkpt lat="46.52497" lon="5.48108">
        <ele>468.2</ele>
        <time>2021-08-09T11:02:49Z</time>
      </trkpt>
      <trkpt lat="46.52493" lon="5.48109">
        <ele>468.2</ele>
        <time>2021-08-09T11:02:50Z</time>
      </trkpt>
      <trkpt lat="46.5249" lon="5.4811">
        <ele>468.4</ele>
        <time>2021-08-09T11:02:51Z</time>
      </trkpt>
      <trkpt lat="46.52474" lon="5.48115">
        <ele>469.2</ele>
        <time>2021-08-09T11:02:55Z</time>
      </trkpt>
      <trkpt lat="46.52452" lon="5.48121">
        <ele>470.2</ele>
        <time>2021-08-09T11:03:01Z</time>
      </trkpt>
      <trkpt lat="46.52445" lon="5.48123">
        <ele>470.8</ele>
        <time>2021-08-09T11:03:03Z</time>
      </trkpt>
      <trkpt lat="46.52421" lon="5.4813">
        <ele>471.4</ele>
        <time>2021-08-09T11:03:10Z</time>
      </trkpt>
      <trkpt lat="46.52417" lon="5.48131">
        <ele>471.6</ele>
        <time>2021-08-09T11:03:11Z</time>
      </trkpt>
      <trkpt lat="46.52407" lon="5.48134">
        <ele>472.6</ele>
        <time>2021-08-09T11:03:14Z</time>
      </trkpt>
      <trkpt lat="46.52393" lon="5.48138">
        <ele>473.8</ele>
        <time>2021-08-09T11:03:18Z</time>
      </trkpt>
      <trkpt lat="46.52389" lon="5.48139">
        <ele>474.2</ele>
        <time>2021-08-09T11:03:19Z</time>
      </trkpt>
      <trkpt lat="46.52379" lon="5.48141">
        <ele>475</ele>
        <time>2021-08-09T11:03:22Z</time>
      </trkpt>
      <trkpt lat="46.52363" lon="5.48145">
        <ele>476</ele>
        <time>2021-08-09T11:03:27Z</time>
      </trkpt>
      <trkpt lat="46.52351" lon="5.48151">
        <ele>477.2</ele>
        <time>2021-08-09T11:03:31Z</time>
      </trkpt>
      <trkpt lat="46.52346" lon="5.48157">
        <ele>477.6</ele>
        <time>2021-08-09T11:03:33Z</time>
      </trkpt>
      <trkpt lat="46.52346" lon="5.48164">
        <ele>478</ele>
        <time>2021-08-09T11:03:35Z</time>
      </trkpt>
      <trkpt lat="46.52347" lon="5.48167">
        <ele>478.4</ele>
        <time>2021-08-09T11:03:36Z</time>
      </trkpt>
      <trkpt lat="46.5235" lon="5.48171">
        <ele>478.6</ele>
        <time>2021-08-09T11:03:37Z</time>
      </trkpt>
      <trkpt lat="46.52357" lon="5.48173">
        <ele>478.8</ele>
        <time>2021-08-09T11:03:39Z</time>
      </trkpt>
      <trkpt lat="46.5237" lon="5.48171">
        <ele>479.2</ele>
        <time>2021-08-09T11:03:42Z</time>
      </trkpt>
      <trkpt lat="46.52377" lon="5.48171">
        <ele>479.6</ele>
        <time>2021-08-09T11:03:44Z</time>
      </trkpt>
      <trkpt lat="46.52395" lon="5.48168">
        <ele>480.6</ele>
        <time>2021-08-09T11:03:49Z</time>
      </trkpt>
      <trkpt lat="46.52403" lon="5.48168">
        <ele>481</ele>
        <time>2021-08-09T11:03:51Z</time>
      </trkpt>
      <trkpt lat="46.52417" lon="5.48169">
        <ele>481.6</ele>
        <time>2021-08-09T11:03:55Z</time>
      </trkpt>
      <trkpt lat="46.52429" lon="5.4817">
        <ele>482.2</ele>
        <time>2021-08-09T11:03:58Z</time>
      </trkpt>
      <trkpt lat="46.52438" lon="5.48168">
        <ele>483</ele>
        <time>2021-08-09T11:04:01Z</time>
      </trkpt>
      <trkpt lat="46.52456" lon="5.48173">
        <ele>484</ele>
        <time>2021-08-09T11:04:06Z</time>
      </trkpt>
      <trkpt lat="46.52459" lon="5.48174">
        <ele>484</ele>
        <time>2021-08-09T11:04:07Z</time>
      </trkpt>
      <trkpt lat="46.5247" lon="5.48178">
        <ele>485</ele>
        <time>2021-08-09T11:04:10Z</time>
      </trkpt>
      <trkpt lat="46.5249" lon="5.48188">
        <ele>486</ele>
        <time>2021-08-09T11:04:16Z</time>
      </trkpt>
      <trkpt lat="46.52493" lon="5.4819">
        <ele>486.2</ele>
        <time>2021-08-09T11:04:17Z</time>
      </trkpt>
      <trkpt lat="46.52513" lon="5.48203">
        <ele>487.2</ele>
        <time>2021-08-09T11:04:23Z</time>
      </trkpt>
      <trkpt lat="46.52516" lon="5.48205">
        <ele>487.6</ele>
        <time>2021-08-09T11:04:24Z</time>
      </trkpt>
      <trkpt lat="46.52529" lon="5.48215">
        <ele>488.6</ele>
        <time>2021-08-09T11:04:28Z</time>
      </trkpt>
      <trkpt lat="46.52539" lon="5.48221">
        <ele>489.2</ele>
        <time>2021-08-09T11:04:31Z</time>
      </trkpt>
      <trkpt lat="46.52549" lon="5.4823">
        <ele>489.6</ele>
        <time>2021-08-09T11:04:34Z</time>
      </trkpt>
      <trkpt lat="46.52561" lon="5.48243">
        <ele>490.6</ele>
        <time>2021-08-09T11:04:38Z</time>
      </trkpt>
      <trkpt lat="46.52564" lon="5.48247">
        <ele>490.6</ele>
        <time>2021-08-09T11:04:39Z</time>
      </trkpt>
      <trkpt lat="46.52582" lon="5.48274">
        <ele>491.8</ele>
        <time>2021-08-09T11:04:46Z</time>
      </trkpt>
      <trkpt lat="46.52592" lon="5.48297">
        <ele>492.8</ele>
        <time>2021-08-09T11:04:51Z</time>
      </trkpt>
      <trkpt lat="46.526" lon="5.4833">
        <ele>494</ele>
        <time>2021-08-09T11:04:57Z</time>
      </trkpt>
      <trkpt lat="46.52602" lon="5.48353">
        <ele>495</ele>
        <time>2021-08-09T11:05:01Z</time>
      </trkpt>
      <trkpt lat="46.52603" lon="5.48364">
        <ele>495.4</ele>
        <time>2021-08-09T11:05:03Z</time>
      </trkpt>
      <trkpt lat="46.52604" lon="5.4838">
        <ele>496.2</ele>
        <time>2021-08-09T11:05:06Z</time>
      </trkpt>
      <trkpt lat="46.52607" lon="5.48402">
        <ele>497</ele>
        <time>2021-08-09T11:05:10Z</time>
      </trkpt>
      <trkpt lat="46.52609" lon="5.48412">
        <ele>497.4</ele>
        <time>2021-08-09T11:05:12Z</time>
      </trkpt>
      <trkpt lat="46.52615" lon="5.48434">
        <ele>498.2</ele>
        <time>2021-08-09T11:05:16Z</time>
      </trkpt>
      <trkpt lat="46.52617" lon="5.48439">
        <ele>498.6</ele>
        <time>2021-08-09T11:05:17Z</time>
      </trkpt>
      <trkpt lat="46.52625" lon="5.48455">
        <ele>499.6</ele>
        <time>2021-08-09T11:05:20Z</time>
      </trkpt>
      <trkpt lat="46.5263" lon="5.48465">
        <ele>500.2</ele>
        <time>2021-08-09T11:05:22Z</time>
      </trkpt>
      <trkpt lat="46.5264" lon="5.48485">
        <ele>500.8</ele>
        <time>2021-08-09T11:05:26Z</time>
      </trkpt>
      <trkpt lat="46.52642" lon="5.48501">
        <ele>501.6</ele>
        <time>2021-08-09T11:05:29Z</time>
      </trkpt>
      <trkpt lat="46.52642" lon="5.48512">
        <ele>501.8</ele>
        <time>2021-08-09T11:05:31Z</time>
      </trkpt>
      <trkpt lat="46.52638" lon="5.48527">
        <ele>502.2</ele>
        <time>2021-08-09T11:05:34Z</time>
      </trkpt>
      <trkpt lat="46.52627" lon="5.48544">
        <ele>503</ele>
        <time>2021-08-09T11:05:38Z</time>
      </trkpt>
      <trkpt lat="46.52624" lon="5.48549">
        <ele>503.2</ele>
        <time>2021-08-09T11:05:39Z</time>
      </trkpt>
      <trkpt lat="46.52609" lon="5.48575">
        <ele>503.8</ele>
        <time>2021-08-09T11:05:44Z</time>
      </trkpt>
      <trkpt lat="46.52606" lon="5.48582">
        <ele>503.8</ele>
        <time>2021-08-09T11:05:45Z</time>
      </trkpt>
      <trkpt lat="46.52605" lon="5.48588">
        <ele>503.8</ele>
        <time>2021-08-09T11:05:46Z</time>
      </trkpt>
      <trkpt lat="46.52602" lon="5.48603">
        <ele>504</ele>
        <time>2021-08-09T11:05:48Z</time>
      </trkpt>
      <trkpt lat="46.52599" lon="5.48626">
        <ele>504.2</ele>
        <time>2021-08-09T11:05:51Z</time>
      </trkpt>
      <trkpt lat="46.52597" lon="5.48641">
        <ele>504.2</ele>
        <time>2021-08-09T11:05:53Z</time>
      </trkpt>
      <trkpt lat="46.52593" lon="5.48669">
        <ele>504.4</ele>
        <time>2021-08-09T11:05:57Z</time>
      </trkpt>
      <trkpt lat="46.52591" lon="5.48683">
        <ele>504.8</ele>
        <time>2021-08-09T11:05:59Z</time>
      </trkpt>
      <trkpt lat="46.52584" lon="5.48711">
        <ele>505.2</ele>
        <time>2021-08-09T11:06:03Z</time>
      </trkpt>
      <trkpt lat="46.52573" lon="5.48758">
        <ele>505.4</ele>
        <time>2021-08-09T11:06:09Z</time>
      </trkpt>
      <trkpt lat="46.52562" lon="5.48812">
        <ele>505</ele>
        <time>2021-08-09T11:06:15Z</time>
      </trkpt>
      <trkpt lat="46.5256" lon="5.48831">
        <ele>505</ele>
        <time>2021-08-09T11:06:17Z</time>
      </trkpt>
      <trkpt lat="46.52562" lon="5.4886">
        <ele>504.8</ele>
        <time>2021-08-09T11:06:20Z</time>
      </trkpt>
      <trkpt lat="46.52576" lon="5.48941">
        <ele>505.2</ele>
        <time>2021-08-09T11:06:29Z</time>
      </trkpt>
      <trkpt lat="46.5259" lon="5.49018">
        <ele>506</ele>
        <time>2021-08-09T11:06:38Z</time>
      </trkpt>
      <trkpt lat="46.52593" lon="5.49026">
        <ele>506.2</ele>
        <time>2021-08-09T11:06:39Z</time>
      </trkpt>
      <trkpt lat="46.52606" lon="5.49058">
        <ele>506.4</ele>
        <time>2021-08-09T11:06:43Z</time>
      </trkpt>
      <trkpt lat="46.52632" lon="5.49098">
        <ele>506</ele>
        <time>2021-08-09T11:06:48Z</time>
      </trkpt>
      <trkpt lat="46.52662" lon="5.49142">
        <ele>505.2</ele>
        <time>2021-08-09T11:06:53Z</time>
      </trkpt>
      <trkpt lat="46.52668" lon="5.49152">
        <ele>504.8</ele>
        <time>2021-08-09T11:06:54Z</time>
      </trkpt>
      <trkpt lat="46.52688" lon="5.4918">
        <ele>503.6</ele>
        <time>2021-08-09T11:06:57Z</time>
      </trkpt>
      <trkpt lat="46.52715" lon="5.4922">
        <ele>502.4</ele>
        <time>2021-08-09T11:07:01Z</time>
      </trkpt>
      <trkpt lat="46.52722" lon="5.4923">
        <ele>502</ele>
        <time>2021-08-09T11:07:02Z</time>
      </trkpt>
      <trkpt lat="46.52742" lon="5.49261">
        <ele>501.2</ele>
        <time>2021-08-09T11:07:05Z</time>
      </trkpt>
      <trkpt lat="46.52762" lon="5.4929">
        <ele>500</ele>
        <time>2021-08-09T11:07:08Z</time>
      </trkpt>
      <trkpt lat="46.52775" lon="5.4931">
        <ele>499.6</ele>
        <time>2021-08-09T11:07:10Z</time>
      </trkpt>
      <trkpt lat="46.52812" lon="5.49365">
        <ele>499</ele>
        <time>2021-08-09T11:07:16Z</time>
      </trkpt>
      <trkpt lat="46.52818" lon="5.49374">
        <ele>499</ele>
        <time>2021-08-09T11:07:17Z</time>
      </trkpt>
      <trkpt lat="46.52858" lon="5.49433">
        <ele>499.2</ele>
        <time>2021-08-09T11:07:24Z</time>
      </trkpt>
      <trkpt lat="46.52864" lon="5.49442">
        <ele>499.4</ele>
        <time>2021-08-09T11:07:25Z</time>
      </trkpt>
      <trkpt lat="46.52903" lon="5.49499">
        <ele>499.6</ele>
        <time>2021-08-09T11:07:32Z</time>
      </trkpt>
      <trkpt lat="46.52914" lon="5.49514">
        <ele>499.6</ele>
        <time>2021-08-09T11:07:34Z</time>
      </trkpt>
      <trkpt lat="46.52957" lon="5.49562">
        <ele>499.6</ele>
        <time>2021-08-09T11:07:41Z</time>
      </trkpt>
      <trkpt lat="46.52999" lon="5.49612">
        <ele>499</ele>
        <time>2021-08-09T11:07:47Z</time>
      </trkpt>
      <trkpt lat="46.53019" lon="5.49642">
        <ele>497.8</ele>
        <time>2021-08-09T11:07:50Z</time>
      </trkpt>
      <trkpt lat="46.53032" lon="5.49665">
        <ele>496.8</ele>
        <time>2021-08-09T11:07:52Z</time>
      </trkpt>
      <trkpt lat="46.53038" lon="5.49677">
        <ele>496.2</ele>
        <time>2021-08-09T11:07:53Z</time>
      </trkpt>
      <trkpt lat="46.53055" lon="5.49711">
        <ele>494.8</ele>
        <time>2021-08-09T11:07:56Z</time>
      </trkpt>
      <trkpt lat="46.53071" lon="5.49745">
        <ele>493.6</ele>
        <time>2021-08-09T11:07:59Z</time>
      </trkpt>
      <trkpt lat="46.53077" lon="5.49756">
        <ele>493.2</ele>
        <time>2021-08-09T11:08:00Z</time>
      </trkpt>
      <trkpt lat="46.53097" lon="5.49796">
        <ele>492.6</ele>
        <time>2021-08-09T11:08:04Z</time>
      </trkpt>
      <trkpt lat="46.53101" lon="5.49806">
        <ele>492.6</ele>
        <time>2021-08-09T11:08:05Z</time>
      </trkpt>
      <trkpt lat="46.53134" lon="5.49873">
        <ele>493.2</ele>
        <time>2021-08-09T11:08:12Z</time>
      </trkpt>
      <trkpt lat="46.53142" lon="5.4989">
        <ele>493.8</ele>
        <time>2021-08-09T11:08:14Z</time>
      </trkpt>
      <trkpt lat="46.53158" lon="5.49922">
        <ele>494.6</ele>
        <time>2021-08-09T11:08:18Z</time>
      </trkpt>
      <trkpt lat="46.53165" lon="5.49936">
        <ele>494.8</ele>
        <time>2021-08-09T11:08:20Z</time>
      </trkpt>
      <trkpt lat="46.53181" lon="5.49967">
        <ele>495.6</ele>
        <time>2021-08-09T11:08:25Z</time>
      </trkpt>
      <trkpt lat="46.53183" lon="5.49973">
        <ele>496.2</ele>
        <time>2021-08-09T11:08:26Z</time>
      </trkpt>
      <trkpt lat="46.53191" lon="5.49988">
        <ele>497.2</ele>
        <time>2021-08-09T11:08:29Z</time>
      </trkpt>
      <trkpt lat="46.53198" lon="5.50003">
        <ele>498</ele>
        <time>2021-08-09T11:08:32Z</time>
      </trkpt>
      <trkpt lat="46.53203" lon="5.50013">
        <ele>498.4</ele>
        <time>2021-08-09T11:08:34Z</time>
      </trkpt>
      <trkpt lat="46.53213" lon="5.50033">
        <ele>499.6</ele>
        <time>2021-08-09T11:08:38Z</time>
      </trkpt>
      <trkpt lat="46.53219" lon="5.50047">
        <ele>500.6</ele>
        <time>2021-08-09T11:08:41Z</time>
      </trkpt>
      <trkpt lat="46.53221" lon="5.50052">
        <ele>500.8</ele>
        <time>2021-08-09T11:08:42Z</time>
      </trkpt>
      <trkpt lat="46.53233" lon="5.50075">
        <ele>501.8</ele>
        <time>2021-08-09T11:08:47Z</time>
      </trkpt>
      <trkpt lat="46.53238" lon="5.50083">
        <ele>502.4</ele>
        <time>2021-08-09T11:08:49Z</time>
      </trkpt>
      <trkpt lat="46.53244" lon="5.50093">
        <ele>503.2</ele>
        <time>2021-08-09T11:08:51Z</time>
      </trkpt>
      <trkpt lat="46.53252" lon="5.50112">
        <ele>504.4</ele>
        <time>2021-08-09T11:08:55Z</time>
      </trkpt>
      <trkpt lat="46.53254" lon="5.50117">
        <ele>504.6</ele>
        <time>2021-08-09T11:08:56Z</time>
      </trkpt>
      <trkpt lat="46.53263" lon="5.50136">
        <ele>505.4</ele>
        <time>2021-08-09T11:09:00Z</time>
      </trkpt>
      <trkpt lat="46.53272" lon="5.50154">
        <ele>506.4</ele>
        <time>2021-08-09T11:09:04Z</time>
      </trkpt>
      <trkpt lat="46.53275" lon="5.50158">
        <ele>506.8</ele>
        <time>2021-08-09T11:09:05Z</time>
      </trkpt>
      <trkpt lat="46.53289" lon="5.50188">
        <ele>510</ele>
        <time>2021-08-09T11:09:11Z</time>
      </trkpt>
      <trkpt lat="46.53296" lon="5.50202">
        <ele>509</ele>
        <time>2021-08-09T11:09:14Z</time>
      </trkpt>
      <trkpt lat="46.53298" lon="5.50207">
        <ele>509</ele>
        <time>2021-08-09T11:09:15Z</time>
      </trkpt>
      <trkpt lat="46.53308" lon="5.50227">
        <ele>510.2</ele>
        <time>2021-08-09T11:09:19Z</time>
      </trkpt>
      <trkpt lat="46.53322" lon="5.50255">
        <ele>511.2</ele>
        <time>2021-08-09T11:09:25Z</time>
      </trkpt>
      <trkpt lat="46.53339" lon="5.50288">
        <ele>512.4</ele>
        <time>2021-08-09T11:09:32Z</time>
      </trkpt>
      <trkpt lat="46.53343" lon="5.50297">
        <ele>512.6</ele>
        <time>2021-08-09T11:09:34Z</time>
      </trkpt>
      <trkpt lat="46.53355" lon="5.5032">
        <ele>513.4</ele>
        <time>2021-08-09T11:09:39Z</time>
      </trkpt>
      <trkpt lat="46.53368" lon="5.50347">
        <ele>514.6</ele>
        <time>2021-08-09T11:09:44Z</time>
      </trkpt>
      <trkpt lat="46.53384" lon="5.50379">
        <ele>515</ele>
        <time>2021-08-09T11:09:49Z</time>
      </trkpt>
      <trkpt lat="46.53409" lon="5.50429">
        <ele>515</ele>
        <time>2021-08-09T11:09:56Z</time>
      </trkpt>
      <trkpt lat="46.5344" lon="5.50493">
        <ele>514.8</ele>
        <time>2021-08-09T11:10:04Z</time>
      </trkpt>
      <trkpt lat="46.53475" lon="5.50561">
        <ele>513.8</ele>
        <time>2021-08-09T11:10:12Z</time>
      </trkpt>
      <trkpt lat="46.53479" lon="5.50569">
        <ele>513.8</ele>
        <time>2021-08-09T11:10:13Z</time>
      </trkpt>
      <trkpt lat="46.5351" lon="5.50634">
        <ele>513.8</ele>
        <time>2021-08-09T11:10:21Z</time>
      </trkpt>
      <trkpt lat="46.53542" lon="5.50699">
        <ele>514.6</ele>
        <time>2021-08-09T11:10:30Z</time>
      </trkpt>
      <trkpt lat="46.53546" lon="5.50706">
        <ele>514.6</ele>
        <time>2021-08-09T11:10:31Z</time>
      </trkpt>
      <trkpt lat="46.53568" lon="5.50751">
        <ele>515.8</ele>
        <time>2021-08-09T11:10:38Z</time>
      </trkpt>
      <trkpt lat="46.53574" lon="5.50763">
        <ele>516</ele>
        <time>2021-08-09T11:10:40Z</time>
      </trkpt>
      <trkpt lat="46.5359" lon="5.50794">
        <ele>516.8</ele>
        <time>2021-08-09T11:10:45Z</time>
      </trkpt>
      <trkpt lat="46.53602" lon="5.50817">
        <ele>518</ele>
        <time>2021-08-09T11:10:49Z</time>
      </trkpt>
      <trkpt lat="46.53634" lon="5.50885">
        <ele>519.4</ele>
        <time>2021-08-09T11:11:00Z</time>
      </trkpt>
      <trkpt lat="46.53637" lon="5.50891">
        <ele>519.8</ele>
        <time>2021-08-09T11:11:01Z</time>
      </trkpt>
      <trkpt lat="46.53653" lon="5.50927">
        <ele>520.6</ele>
        <time>2021-08-09T11:11:07Z</time>
      </trkpt>
      <trkpt lat="46.53661" lon="5.50944">
        <ele>521.2</ele>
        <time>2021-08-09T11:11:10Z</time>
      </trkpt>
      <trkpt lat="46.53675" lon="5.50973">
        <ele>522</ele>
        <time>2021-08-09T11:11:15Z</time>
      </trkpt>
      <trkpt lat="46.53691" lon="5.51006">
        <ele>523</ele>
        <time>2021-08-09T11:11:21Z</time>
      </trkpt>
      <trkpt lat="46.537" lon="5.51023">
        <ele>524</ele>
        <time>2021-08-09T11:11:24Z</time>
      </trkpt>
      <trkpt lat="46.53714" lon="5.5105">
        <ele>525</ele>
        <time>2021-08-09T11:11:29Z</time>
      </trkpt>
      <trkpt lat="46.53725" lon="5.51072">
        <ele>526</ele>
        <time>2021-08-09T11:11:33Z</time>
      </trkpt>
      <trkpt lat="46.53728" lon="5.51077">
        <ele>526.2</ele>
        <time>2021-08-09T11:11:34Z</time>
      </trkpt>
      <trkpt lat="46.53744" lon="5.51111">
        <ele>527.2</ele>
        <time>2021-08-09T11:11:40Z</time>
      </trkpt>
      <trkpt lat="46.53755" lon="5.51132">
        <ele>528.2</ele>
        <time>2021-08-09T11:11:44Z</time>
      </trkpt>
      <trkpt lat="46.53757" lon="5.51138">
        <ele>528.4</ele>
        <time>2021-08-09T11:11:45Z</time>
      </trkpt>
      <trkpt lat="46.5377" lon="5.51164">
        <ele>529.6</ele>
        <time>2021-08-09T11:11:50Z</time>
      </trkpt>
      <trkpt lat="46.5378" lon="5.51185">
        <ele>530.6</ele>
        <time>2021-08-09T11:11:54Z</time>
      </trkpt>
      <trkpt lat="46.53782" lon="5.5119">
        <ele>530.6</ele>
        <time>2021-08-09T11:11:55Z</time>
      </trkpt>
      <trkpt lat="46.53796" lon="5.51215">
        <ele>531.8</ele>
        <time>2021-08-09T11:12:00Z</time>
      </trkpt>
      <trkpt lat="46.53807" lon="5.51235">
        <ele>532.4</ele>
        <time>2021-08-09T11:12:04Z</time>
      </trkpt>
      <trkpt lat="46.5381" lon="5.51239">
        <ele>532.8</ele>
        <time>2021-08-09T11:12:05Z</time>
      </trkpt>
      <trkpt lat="46.53832" lon="5.51268">
        <ele>533.8</ele>
        <time>2021-08-09T11:12:11Z</time>
      </trkpt>
      <trkpt lat="46.53862" lon="5.51304">
        <ele>533.6</ele>
        <time>2021-08-09T11:12:17Z</time>
      </trkpt>
      <trkpt lat="46.53893" lon="5.51338">
        <ele>532.6</ele>
        <time>2021-08-09T11:12:22Z</time>
      </trkpt>
      <trkpt lat="46.53906" lon="5.51352">
        <ele>532.2</ele>
        <time>2021-08-09T11:12:24Z</time>
      </trkpt>
      <trkpt lat="46.53919" lon="5.51366">
        <ele>531.6</ele>
        <time>2021-08-09T11:12:26Z</time>
      </trkpt>
      <trkpt lat="46.53953" lon="5.51403">
        <ele>530.6</ele>
        <time>2021-08-09T11:12:31Z</time>
      </trkpt>
      <trkpt lat="46.53967" lon="5.51419">
        <ele>529.8</ele>
        <time>2021-08-09T11:12:33Z</time>
      </trkpt>
      <trkpt lat="46.53974" lon="5.51427">
        <ele>529.6</ele>
        <time>2021-08-09T11:12:34Z</time>
      </trkpt>
      <trkpt lat="46.54005" lon="5.51462">
        <ele>528</ele>
        <time>2021-08-09T11:12:38Z</time>
      </trkpt>
      <trkpt lat="46.54021" lon="5.51482">
        <ele>527</ele>
        <time>2021-08-09T11:12:40Z</time>
      </trkpt>
      <trkpt lat="46.54044" lon="5.5151">
        <ele>525</ele>
        <time>2021-08-09T11:12:43Z</time>
      </trkpt>
      <trkpt lat="46.54066" lon="5.51537">
        <ele>524</ele>
        <time>2021-08-09T11:12:46Z</time>
      </trkpt>
      <trkpt lat="46.5408" lon="5.51554">
        <ele>524</ele>
        <time>2021-08-09T11:12:48Z</time>
      </trkpt>
      <trkpt lat="46.5411" lon="5.51593">
        <ele>523.8</ele>
        <time>2021-08-09T11:12:53Z</time>
      </trkpt>
      <trkpt lat="46.54144" lon="5.51636">
        <ele>525</ele>
        <time>2021-08-09T11:12:59Z</time>
      </trkpt>
      <trkpt lat="46.5415" lon="5.51643">
        <ele>525</ele>
        <time>2021-08-09T11:13:00Z</time>
      </trkpt>
      <trkpt lat="46.54187" lon="5.51688">
        <ele>525.2</ele>
        <time>2021-08-09T11:13:06Z</time>
      </trkpt>
      <trkpt lat="46.54233" lon="5.51738">
        <ele>524.4</ele>
        <time>2021-08-09T11:13:13Z</time>
      </trkpt>
      <trkpt lat="46.5427" lon="5.5176">
        <ele>524.4</ele>
        <time>2021-08-09T11:13:18Z</time>
      </trkpt>
      <trkpt lat="46.54302" lon="5.51773">
        <ele>523.6</ele>
        <time>2021-08-09T11:13:22Z</time>
      </trkpt>
      <trkpt lat="46.54328" lon="5.51783">
        <ele>522.8</ele>
        <time>2021-08-09T11:13:25Z</time>
      </trkpt>
      <trkpt lat="46.54352" lon="5.518">
        <ele>522.4</ele>
        <time>2021-08-09T11:13:28Z</time>
      </trkpt>
      <trkpt lat="46.5436" lon="5.51808">
        <ele>522</ele>
        <time>2021-08-09T11:13:29Z</time>
      </trkpt>
      <trkpt lat="46.54375" lon="5.51824">
        <ele>521.2</ele>
        <time>2021-08-09T11:13:31Z</time>
      </trkpt>
      <trkpt lat="46.54406" lon="5.51859">
        <ele>519.6</ele>
        <time>2021-08-09T11:13:35Z</time>
      </trkpt>
      <trkpt lat="46.54446" lon="5.51904">
        <ele>517.8</ele>
        <time>2021-08-09T11:13:40Z</time>
      </trkpt>
      <trkpt lat="46.54469" lon="5.51929">
        <ele>516.6</ele>
        <time>2021-08-09T11:13:43Z</time>
      </trkpt>
      <trkpt lat="46.54484" lon="5.51945">
        <ele>516.2</ele>
        <time>2021-08-09T11:13:45Z</time>
      </trkpt>
      <trkpt lat="46.54511" lon="5.51975">
        <ele>516</ele>
        <time>2021-08-09T11:13:49Z</time>
      </trkpt>
      <trkpt lat="46.54554" lon="5.52024">
        <ele>517.2</ele>
        <time>2021-08-09T11:13:56Z</time>
      </trkpt>
      <trkpt lat="46.54598" lon="5.52073">
        <ele>517.4</ele>
        <time>2021-08-09T11:14:03Z</time>
      </trkpt>
      <trkpt lat="46.54618" lon="5.52093">
        <ele>517.2</ele>
        <time>2021-08-09T11:14:06Z</time>
      </trkpt>
      <trkpt lat="46.54658" lon="5.52124">
        <ele>517</ele>
        <time>2021-08-09T11:14:11Z</time>
      </trkpt>
      <trkpt lat="46.54685" lon="5.52137">
        <ele>515.4</ele>
        <time>2021-08-09T11:14:14Z</time>
      </trkpt>
      <trkpt lat="46.54695" lon="5.52141">
        <ele>514</ele>
        <time>2021-08-09T11:14:15Z</time>
      </trkpt>
      <trkpt lat="46.54705" lon="5.52144">
        <ele>513.8</ele>
        <time>2021-08-09T11:14:16Z</time>
      </trkpt>
      <trkpt lat="46.54727" lon="5.5215">
        <ele>513</ele>
        <time>2021-08-09T11:14:18Z</time>
      </trkpt>
      <trkpt lat="46.54748" lon="5.5216">
        <ele>511.8</ele>
        <time>2021-08-09T11:14:20Z</time>
      </trkpt>
      <trkpt lat="46.54758" lon="5.52167">
        <ele>511.4</ele>
        <time>2021-08-09T11:14:21Z</time>
      </trkpt>
      <trkpt lat="46.54769" lon="5.52174">
        <ele>510.2</ele>
        <time>2021-08-09T11:14:22Z</time>
      </trkpt>
      <trkpt lat="46.548" lon="5.52199">
        <ele>508.8</ele>
        <time>2021-08-09T11:14:25Z</time>
      </trkpt>
      <trkpt lat="46.5481" lon="5.52207">
        <ele>508.2</ele>
        <time>2021-08-09T11:14:26Z</time>
      </trkpt>
      <trkpt lat="46.54821" lon="5.52215">
        <ele>506.6</ele>
        <time>2021-08-09T11:14:27Z</time>
      </trkpt>
      <trkpt lat="46.54844" lon="5.52228">
        <ele>504.8</ele>
        <time>2021-08-09T11:14:29Z</time>
      </trkpt>
      <trkpt lat="46.54867" lon="5.52239">
        <ele>503.8</ele>
        <time>2021-08-09T11:14:31Z</time>
      </trkpt>
      <trkpt lat="46.5488" lon="5.52244">
        <ele>503.8</ele>
        <time>2021-08-09T11:14:32Z</time>
      </trkpt>
      <trkpt lat="46.54904" lon="5.52252">
        <ele>502</ele>
        <time>2021-08-09T11:14:34Z</time>
      </trkpt>
      <trkpt lat="46.54941" lon="5.52266">
        <ele>500.6</ele>
        <time>2021-08-09T11:14:37Z</time>
      </trkpt>
      <trkpt lat="46.54953" lon="5.52273">
        <ele>499.6</ele>
        <time>2021-08-09T11:14:38Z</time>
      </trkpt>
      <trkpt lat="46.54964" lon="5.52281">
        <ele>499.2</ele>
        <time>2021-08-09T11:14:39Z</time>
      </trkpt>
      <trkpt lat="46.54975" lon="5.52291">
        <ele>498.2</ele>
        <time>2021-08-09T11:14:40Z</time>
      </trkpt>
      <trkpt lat="46.54986" lon="5.52303">
        <ele>497.2</ele>
        <time>2021-08-09T11:14:41Z</time>
      </trkpt>
      <trkpt lat="46.54995" lon="5.52316">
        <ele>496.8</ele>
        <time>2021-08-09T11:14:42Z</time>
      </trkpt>
      <trkpt lat="46.55004" lon="5.5233">
        <ele>496</ele>
        <time>2021-08-09T11:14:43Z</time>
      </trkpt>
      <trkpt lat="46.55011" lon="5.52346">
        <ele>495.4</ele>
        <time>2021-08-09T11:14:44Z</time>
      </trkpt>
      <trkpt lat="46.55017" lon="5.52363">
        <ele>494</ele>
        <time>2021-08-09T11:14:45Z</time>
      </trkpt>
      <trkpt lat="46.55023" lon="5.5238">
        <ele>493.6</ele>
        <time>2021-08-09T11:14:46Z</time>
      </trkpt>
      <trkpt lat="46.55028" lon="5.52397">
        <ele>492.2</ele>
        <time>2021-08-09T11:14:47Z</time>
      </trkpt>
      <trkpt lat="46.5504" lon="5.52431">
        <ele>491.2</ele>
        <time>2021-08-09T11:14:49Z</time>
      </trkpt>
      <trkpt lat="46.55056" lon="5.52482">
        <ele>489</ele>
        <time>2021-08-09T11:14:52Z</time>
      </trkpt>
      <trkpt lat="46.55066" lon="5.52516">
        <ele>487.8</ele>
        <time>2021-08-09T11:14:54Z</time>
      </trkpt>
      <trkpt lat="46.55071" lon="5.52532">
        <ele>486.6</ele>
        <time>2021-08-09T11:14:55Z</time>
      </trkpt>
      <trkpt lat="46.55083" lon="5.52565">
        <ele>485.2</ele>
        <time>2021-08-09T11:14:57Z</time>
      </trkpt>
      <trkpt lat="46.55093" lon="5.52599">
        <ele>484</ele>
        <time>2021-08-09T11:14:59Z</time>
      </trkpt>
      <trkpt lat="46.55095" lon="5.52617">
        <ele>483.8</ele>
        <time>2021-08-09T11:15:00Z</time>
      </trkpt>
      <trkpt lat="46.55096" lon="5.52635">
        <ele>483.2</ele>
        <time>2021-08-09T11:15:01Z</time>
      </trkpt>
      <trkpt lat="46.55094" lon="5.52653">
        <ele>482.8</ele>
        <time>2021-08-09T11:15:02Z</time>
      </trkpt>
      <trkpt lat="46.55088" lon="5.52669">
        <ele>481.6</ele>
        <time>2021-08-09T11:15:03Z</time>
      </trkpt>
      <trkpt lat="46.55075" lon="5.52699">
        <ele>480.4</ele>
        <time>2021-08-09T11:15:05Z</time>
      </trkpt>
      <trkpt lat="46.55063" lon="5.52727">
        <ele>479.2</ele>
        <time>2021-08-09T11:15:07Z</time>
      </trkpt>
      <trkpt lat="46.55057" lon="5.5274">
        <ele>478.4</ele>
        <time>2021-08-09T11:15:08Z</time>
      </trkpt>
      <trkpt lat="46.55051" lon="5.52752">
        <ele>478</ele>
        <time>2021-08-09T11:15:09Z</time>
      </trkpt>
      <trkpt lat="46.55026" lon="5.52797">
        <ele>477.2</ele>
        <time>2021-08-09T11:15:13Z</time>
      </trkpt>
      <trkpt lat="46.54986" lon="5.52848">
        <ele>478</ele>
        <time>2021-08-09T11:15:19Z</time>
      </trkpt>
      <trkpt lat="46.54971" lon="5.52879">
        <ele>478.4</ele>
        <time>2021-08-09T11:15:22Z</time>
      </trkpt>
      <trkpt lat="46.54963" lon="5.529">
        <ele>478.4</ele>
        <time>2021-08-09T11:15:24Z</time>
      </trkpt>
      <trkpt lat="46.5495" lon="5.5295">
        <ele>479</ele>
        <time>2021-08-09T11:15:29Z</time>
      </trkpt>
      <trkpt lat="46.54944" lon="5.52978">
        <ele>479.2</ele>
        <time>2021-08-09T11:15:32Z</time>
      </trkpt>
      <trkpt lat="46.5494" lon="5.52994">
        <ele>479.6</ele>
        <time>2021-08-09T11:15:34Z</time>
      </trkpt>
      <trkpt lat="46.54931" lon="5.53017">
        <ele>480.4</ele>
        <time>2021-08-09T11:15:37Z</time>
      </trkpt>
      <trkpt lat="46.5492" lon="5.53044">
        <ele>481.2</ele>
        <time>2021-08-09T11:15:41Z</time>
      </trkpt>
      <trkpt lat="46.54915" lon="5.53056">
        <ele>481.6</ele>
        <time>2021-08-09T11:15:43Z</time>
      </trkpt>
      <trkpt lat="46.54901" lon="5.53085">
        <ele>482.8</ele>
        <time>2021-08-09T11:15:48Z</time>
      </trkpt>
      <trkpt lat="46.5489" lon="5.53108">
        <ele>484.2</ele>
        <time>2021-08-09T11:15:52Z</time>
      </trkpt>
      <trkpt lat="46.54887" lon="5.53114">
        <ele>484.4</ele>
        <time>2021-08-09T11:15:53Z</time>
      </trkpt>
      <trkpt lat="46.54878" lon="5.53127">
        <ele>485</ele>
        <time>2021-08-09T11:15:56Z</time>
      </trkpt>
      <trkpt lat="46.54874" lon="5.53131">
        <ele>485.2</ele>
        <time>2021-08-09T11:15:57Z</time>
      </trkpt>
      <trkpt lat="46.5487" lon="5.53135">
        <ele>485.4</ele>
        <time>2021-08-09T11:15:58Z</time>
      </trkpt>
      <trkpt lat="46.54852" lon="5.53149">
        <ele>486.4</ele>
        <time>2021-08-09T11:16:02Z</time>
      </trkpt>
      <trkpt lat="46.54848" lon="5.53152">
        <ele>486.6</ele>
        <time>2021-08-09T11:16:03Z</time>
      </trkpt>
      <trkpt lat="46.5482" lon="5.53167">
        <ele>487.6</ele>
        <time>2021-08-09T11:16:09Z</time>
      </trkpt>
      <trkpt lat="46.54811" lon="5.53172">
        <ele>487.6</ele>
        <time>2021-08-09T11:16:11Z</time>
      </trkpt>
      <trkpt lat="46.54778" lon="5.53188">
        <ele>488.6</ele>
        <time>2021-08-09T11:16:18Z</time>
      </trkpt>
      <trkpt lat="46.54765" lon="5.53193">
        <ele>488.8</ele>
        <time>2021-08-09T11:16:21Z</time>
      </trkpt>
      <trkpt lat="46.54743" lon="5.53196">
        <ele>489.6</ele>
        <time>2021-08-09T11:16:26Z</time>
      </trkpt>
      <trkpt lat="46.54734" lon="5.53196">
        <ele>490.2</ele>
        <time>2021-08-09T11:16:28Z</time>
      </trkpt>
      <trkpt lat="46.54721" lon="5.53195">
        <ele>490.8</ele>
        <time>2021-08-09T11:16:31Z</time>
      </trkpt>
      <trkpt lat="46.54698" lon="5.53193">
        <ele>491.8</ele>
        <time>2021-08-09T11:16:37Z</time>
      </trkpt>
      <trkpt lat="46.54694" lon="5.53192">
        <ele>492.2</ele>
        <time>2021-08-09T11:16:38Z</time>
      </trkpt>
      <trkpt lat="46.54673" lon="5.5319">
        <ele>493.4</ele>
        <time>2021-08-09T11:16:44Z</time>
      </trkpt>
      <trkpt lat="46.54656" lon="5.53192">
        <ele>494.6</ele>
        <time>2021-08-09T11:16:49Z</time>
      </trkpt>
      <trkpt lat="46.54643" lon="5.53195">
        <ele>495.6</ele>
        <time>2021-08-09T11:16:53Z</time>
      </trkpt>
      <trkpt lat="46.5464" lon="5.53196">
        <ele>495.8</ele>
        <time>2021-08-09T11:16:54Z</time>
      </trkpt>
      <trkpt lat="46.54623" lon="5.53202">
        <ele>496.6</ele>
        <time>2021-08-09T11:16:59Z</time>
      </trkpt>
      <trkpt lat="46.54609" lon="5.53209">
        <ele>497.8</ele>
        <time>2021-08-09T11:17:03Z</time>
      </trkpt>
      <trkpt lat="46.54602" lon="5.53212">
        <ele>498</ele>
        <time>2021-08-09T11:17:05Z</time>
      </trkpt>
      <trkpt lat="46.54584" lon="5.53219">
        <ele>498.8</ele>
        <time>2021-08-09T11:17:10Z</time>
      </trkpt>
      <trkpt lat="46.54562" lon="5.53226">
        <ele>500</ele>
        <time>2021-08-09T11:17:16Z</time>
      </trkpt>
      <trkpt lat="46.5454" lon="5.53232">
        <ele>501.2</ele>
        <time>2021-08-09T11:17:22Z</time>
      </trkpt>
      <trkpt lat="46.54522" lon="5.53237">
        <ele>502.2</ele>
        <time>2021-08-09T11:17:27Z</time>
      </trkpt>
      <trkpt lat="46.545" lon="5.53242">
        <ele>503.4</ele>
        <time>2021-08-09T11:17:33Z</time>
      </trkpt>
      <trkpt lat="46.54479" lon="5.53247">
        <ele>504.6</ele>
        <time>2021-08-09T11:17:39Z</time>
      </trkpt>
      <trkpt lat="46.54458" lon="5.53251">
        <ele>506</ele>
        <time>2021-08-09T11:17:45Z</time>
      </trkpt>
      <trkpt lat="46.54451" lon="5.53252">
        <ele>506.4</ele>
        <time>2021-08-09T11:17:47Z</time>
      </trkpt>
      <trkpt lat="46.54441" lon="5.53254">
        <ele>507.2</ele>
        <time>2021-08-09T11:17:50Z</time>
      </trkpt>
      <trkpt lat="46.54418" lon="5.53261">
        <ele>508.6</ele>
        <time>2021-08-09T11:17:57Z</time>
      </trkpt>
      <trkpt lat="46.54401" lon="5.53267">
        <ele>509.8</ele>
        <time>2021-08-09T11:18:02Z</time>
      </trkpt>
      <trkpt lat="46.54391" lon="5.53274">
        <ele>510.6</ele>
        <time>2021-08-09T11:18:05Z</time>
      </trkpt>
      <trkpt lat="46.54382" lon="5.53284">
        <ele>511</ele>
        <time>2021-08-09T11:18:08Z</time>
      </trkpt>
      <trkpt lat="46.54371" lon="5.533">
        <ele>511.4</ele>
        <time>2021-08-09T11:18:12Z</time>
      </trkpt>
      <trkpt lat="46.54365" lon="5.53314">
        <ele>512</ele>
        <time>2021-08-09T11:18:15Z</time>
      </trkpt>
      <trkpt lat="46.54359" lon="5.53335">
        <ele>512.8</ele>
        <time>2021-08-09T11:18:19Z</time>
      </trkpt>
      <trkpt lat="46.54358" lon="5.53341">
        <ele>513.2</ele>
        <time>2021-08-09T11:18:20Z</time>
      </trkpt>
      <trkpt lat="46.54351" lon="5.5338">
        <ele>514</ele>
        <time>2021-08-09T11:18:26Z</time>
      </trkpt>
      <trkpt lat="46.54345" lon="5.53401">
        <ele>514.2</ele>
        <time>2021-08-09T11:18:29Z</time>
      </trkpt>
      <trkpt lat="46.54342" lon="5.53407">
        <ele>514.2</ele>
        <time>2021-08-09T11:18:30Z</time>
      </trkpt>
      <trkpt lat="46.54338" lon="5.53413">
        <ele>514.4</ele>
        <time>2021-08-09T11:18:31Z</time>
      </trkpt>
      <trkpt lat="46.54316" lon="5.53441">
        <ele>515</ele>
        <time>2021-08-09T11:18:37Z</time>
      </trkpt>
      <trkpt lat="46.54308" lon="5.5345">
        <ele>515.4</ele>
        <time>2021-08-09T11:18:39Z</time>
      </trkpt>
      <trkpt lat="46.54293" lon="5.53474">
        <ele>516.2</ele>
        <time>2021-08-09T11:18:44Z</time>
      </trkpt>
      <trkpt lat="46.54288" lon="5.53486">
        <ele>516.6</ele>
        <time>2021-08-09T11:18:46Z</time>
      </trkpt>
      <trkpt lat="46.5428" lon="5.53514">
        <ele>516.8</ele>
        <time>2021-08-09T11:18:50Z</time>
      </trkpt>
      <trkpt lat="46.5426" lon="5.53563">
        <ele>517</ele>
        <time>2021-08-09T11:18:57Z</time>
      </trkpt>
      <trkpt lat="46.54257" lon="5.5357">
        <ele>517.2</ele>
        <time>2021-08-09T11:18:58Z</time>
      </trkpt>
      <trkpt lat="46.54247" lon="5.53589">
        <ele>517.6</ele>
        <time>2021-08-09T11:19:01Z</time>
      </trkpt>
      <trkpt lat="46.54238" lon="5.53609">
        <ele>518</ele>
        <time>2021-08-09T11:19:04Z</time>
      </trkpt>
      <trkpt lat="46.54219" lon="5.53645">
        <ele>518.4</ele>
        <time>2021-08-09T11:19:10Z</time>
      </trkpt>
      <trkpt lat="46.54211" lon="5.53665">
        <ele>518.8</ele>
        <time>2021-08-09T11:19:13Z</time>
      </trkpt>
      <trkpt lat="46.54203" lon="5.53701">
        <ele>519.2</ele>
        <time>2021-08-09T11:19:18Z</time>
      </trkpt>
      <trkpt lat="46.54202" lon="5.53709">
        <ele>519.2</ele>
        <time>2021-08-09T11:19:19Z</time>
      </trkpt>
      <trkpt lat="46.54201" lon="5.53736">
        <ele>519.4</ele>
        <time>2021-08-09T11:19:22Z</time>
      </trkpt>
      <trkpt lat="46.542" lon="5.53745">
        <ele>519.4</ele>
        <time>2021-08-09T11:19:23Z</time>
      </trkpt>
      <trkpt lat="46.54198" lon="5.53796">
        <ele>520</ele>
        <time>2021-08-09T11:19:29Z</time>
      </trkpt>
      <trkpt lat="46.54196" lon="5.53848">
        <ele>520.4</ele>
        <time>2021-08-09T11:19:35Z</time>
      </trkpt>
      <trkpt lat="46.54196" lon="5.53865">
        <ele>520.6</ele>
        <time>2021-08-09T11:19:37Z</time>
      </trkpt>
      <trkpt lat="46.54194" lon="5.53935">
        <ele>521.2</ele>
        <time>2021-08-09T11:19:45Z</time>
      </trkpt>
      <trkpt lat="46.54185" lon="5.53987">
        <ele>521</ele>
        <time>2021-08-09T11:19:51Z</time>
      </trkpt>
      <trkpt lat="46.5418" lon="5.54003">
        <ele>521.2</ele>
        <time>2021-08-09T11:19:53Z</time>
      </trkpt>
      <trkpt lat="46.54163" lon="5.54066">
        <ele>521.8</ele>
        <time>2021-08-09T11:20:01Z</time>
      </trkpt>
      <trkpt lat="46.5415" lon="5.54111">
        <ele>522</ele>
        <time>2021-08-09T11:20:07Z</time>
      </trkpt>
      <trkpt lat="46.54146" lon="5.54127">
        <ele>522.4</ele>
        <time>2021-08-09T11:20:09Z</time>
      </trkpt>
      <trkpt lat="46.54135" lon="5.54169">
        <ele>523.4</ele>
        <time>2021-08-09T11:20:15Z</time>
      </trkpt>
      <trkpt lat="46.54131" lon="5.54181">
        <ele>523.6</ele>
        <time>2021-08-09T11:20:17Z</time>
      </trkpt>
      <trkpt lat="46.54129" lon="5.54187">
        <ele>523.8</ele>
        <time>2021-08-09T11:20:18Z</time>
      </trkpt>
      <trkpt lat="46.54123" lon="5.54207">
        <ele>524.6</ele>
        <time>2021-08-09T11:20:21Z</time>
      </trkpt>
      <trkpt lat="46.5412" lon="5.5422">
        <ele>525</ele>
        <time>2021-08-09T11:20:23Z</time>
      </trkpt>
      <trkpt lat="46.54115" lon="5.54239">
        <ele>525.4</ele>
        <time>2021-08-09T11:20:26Z</time>
      </trkpt>
      <trkpt lat="46.5411" lon="5.54259">
        <ele>525.6</ele>
        <time>2021-08-09T11:20:29Z</time>
      </trkpt>
      <trkpt lat="46.54105" lon="5.54276">
        <ele>526.2</ele>
        <time>2021-08-09T11:20:32Z</time>
      </trkpt>
      <trkpt lat="46.54103" lon="5.54284">
        <ele>526.6</ele>
        <time>2021-08-09T11:20:33Z</time>
      </trkpt>
      <trkpt lat="46.54099" lon="5.54296">
        <ele>527</ele>
        <time>2021-08-09T11:20:35Z</time>
      </trkpt>
      <trkpt lat="46.54094" lon="5.54314">
        <ele>527.6</ele>
        <time>2021-08-09T11:20:38Z</time>
      </trkpt>
      <trkpt lat="46.54093" lon="5.54321">
        <ele>528.2</ele>
        <time>2021-08-09T11:20:39Z</time>
      </trkpt>
      <trkpt lat="46.54092" lon="5.54328">
        <ele>528.6</ele>
        <time>2021-08-09T11:20:40Z</time>
      </trkpt>
      <trkpt lat="46.54085" lon="5.54352">
        <ele>529.6</ele>
        <time>2021-08-09T11:20:44Z</time>
      </trkpt>
      <trkpt lat="46.54079" lon="5.54376">
        <ele>530.4</ele>
        <time>2021-08-09T11:20:48Z</time>
      </trkpt>
      <trkpt lat="46.54077" lon="5.54381">
        <ele>531</ele>
        <time>2021-08-09T11:20:49Z</time>
      </trkpt>
      <trkpt lat="46.54071" lon="5.54406">
        <ele>532.2</ele>
        <time>2021-08-09T11:20:53Z</time>
      </trkpt>
      <trkpt lat="46.54068" lon="5.54419">
        <ele>532.6</ele>
        <time>2021-08-09T11:20:55Z</time>
      </trkpt>
      <trkpt lat="46.54062" lon="5.5444">
        <ele>533.2</ele>
        <time>2021-08-09T11:20:58Z</time>
      </trkpt>
      <trkpt lat="46.54052" lon="5.54474">
        <ele>533.6</ele>
        <time>2021-08-09T11:21:03Z</time>
      </trkpt>
      <trkpt lat="46.54042" lon="5.54511">
        <ele>534.2</ele>
        <time>2021-08-09T11:21:08Z</time>
      </trkpt>
      <trkpt lat="46.54038" lon="5.54526">
        <ele>534.4</ele>
        <time>2021-08-09T11:21:10Z</time>
      </trkpt>
      <trkpt lat="46.54018" lon="5.54595">
        <ele>535</ele>
        <time>2021-08-09T11:21:19Z</time>
      </trkpt>
      <trkpt lat="46.54003" lon="5.54654">
        <ele>535</ele>
        <time>2021-08-09T11:21:27Z</time>
      </trkpt>
      <trkpt lat="46.53994" lon="5.54684">
        <ele>535.8</ele>
        <time>2021-08-09T11:21:31Z</time>
      </trkpt>
      <trkpt lat="46.53992" lon="5.54691">
        <ele>536</ele>
        <time>2021-08-09T11:21:32Z</time>
      </trkpt>
      <trkpt lat="46.53986" lon="5.54704">
        <ele>536.4</ele>
        <time>2021-08-09T11:21:34Z</time>
      </trkpt>
      <trkpt lat="46.53979" lon="5.54717">
        <ele>536.4</ele>
        <time>2021-08-09T11:21:36Z</time>
      </trkpt>
      <trkpt lat="46.53963" lon="5.54739">
        <ele>536.6</ele>
        <time>2021-08-09T11:21:40Z</time>
      </trkpt>
      <trkpt lat="46.53932" lon="5.5477">
        <ele>536.8</ele>
        <time>2021-08-09T11:21:46Z</time>
      </trkpt>
      <trkpt lat="46.53899" lon="5.5479">
        <ele>536.2</ele>
        <time>2021-08-09T11:21:51Z</time>
      </trkpt>
      <trkpt lat="46.53892" lon="5.54792">
        <ele>536</ele>
        <time>2021-08-09T11:21:52Z</time>
      </trkpt>
      <trkpt lat="46.53863" lon="5.548">
        <ele>535.8</ele>
        <time>2021-08-09T11:21:56Z</time>
      </trkpt>
      <trkpt lat="46.53809" lon="5.54813">
        <ele>534.6</ele>
        <time>2021-08-09T11:22:03Z</time>
      </trkpt>
      <trkpt lat="46.53793" lon="5.54817">
        <ele>534.4</ele>
        <time>2021-08-09T11:22:05Z</time>
      </trkpt>
      <trkpt lat="46.5376" lon="5.54817">
        <ele>533.6</ele>
        <time>2021-08-09T11:22:09Z</time>
      </trkpt>
      <trkpt lat="46.53751" lon="5.54816">
        <ele>533.2</ele>
        <time>2021-08-09T11:22:10Z</time>
      </trkpt>
      <trkpt lat="46.53694" lon="5.54795">
        <ele>532.4</ele>
        <time>2021-08-09T11:22:17Z</time>
      </trkpt>
      <trkpt lat="46.53685" lon="5.54792">
        <ele>532.2</ele>
        <time>2021-08-09T11:22:18Z</time>
      </trkpt>
      <trkpt lat="46.53659" lon="5.54782">
        <ele>531.2</ele>
        <time>2021-08-09T11:22:21Z</time>
      </trkpt>
      <trkpt lat="46.53631" lon="5.54773">
        <ele>530</ele>
        <time>2021-08-09T11:22:24Z</time>
      </trkpt>
      <trkpt lat="46.53613" lon="5.54768">
        <ele>529.4</ele>
        <time>2021-08-09T11:22:26Z</time>
      </trkpt>
      <trkpt lat="46.53594" lon="5.54762">
        <ele>529</ele>
        <time>2021-08-09T11:22:28Z</time>
      </trkpt>
      <trkpt lat="46.53557" lon="5.54749">
        <ele>528</ele>
        <time>2021-08-09T11:22:32Z</time>
      </trkpt>
      <trkpt lat="46.53538" lon="5.54743">
        <ele>526.8</ele>
        <time>2021-08-09T11:22:34Z</time>
      </trkpt>
      <trkpt lat="46.53528" lon="5.54739">
        <ele>526.6</ele>
        <time>2021-08-09T11:22:35Z</time>
      </trkpt>
      <trkpt lat="46.53489" lon="5.54726">
        <ele>525.6</ele>
        <time>2021-08-09T11:22:39Z</time>
      </trkpt>
      <trkpt lat="46.5346" lon="5.54716">
        <ele>524.4</ele>
        <time>2021-08-09T11:22:42Z</time>
      </trkpt>
      <trkpt lat="46.53441" lon="5.54709">
        <ele>523.6</ele>
        <time>2021-08-09T11:22:44Z</time>
      </trkpt>
      <trkpt lat="46.53431" lon="5.54706">
        <ele>523.2</ele>
        <time>2021-08-09T11:22:45Z</time>
      </trkpt>
      <trkpt lat="46.53394" lon="5.54694">
        <ele>522.2</ele>
        <time>2021-08-09T11:22:49Z</time>
      </trkpt>
      <trkpt lat="46.53366" lon="5.54685">
        <ele>520.8</ele>
        <time>2021-08-09T11:22:52Z</time>
      </trkpt>
      <trkpt lat="46.53311" lon="5.54666">
        <ele>520</ele>
        <time>2021-08-09T11:22:58Z</time>
      </trkpt>
      <trkpt lat="46.53303" lon="5.54664">
        <ele>519.8</ele>
        <time>2021-08-09T11:22:59Z</time>
      </trkpt>
      <trkpt lat="46.53248" lon="5.54649">
        <ele>518.6</ele>
        <time>2021-08-09T11:23:05Z</time>
      </trkpt>
      <trkpt lat="46.5322" lon="5.54645">
        <ele>517.8</ele>
        <time>2021-08-09T11:23:08Z</time>
      </trkpt>
      <trkpt lat="46.532" lon="5.54643">
        <ele>517.4</ele>
        <time>2021-08-09T11:23:10Z</time>
      </trkpt>
      <trkpt lat="46.53181" lon="5.54641">
        <ele>516.4</ele>
        <time>2021-08-09T11:23:12Z</time>
      </trkpt>
      <trkpt lat="46.5314" lon="5.54633">
        <ele>515.4</ele>
        <time>2021-08-09T11:23:16Z</time>
      </trkpt>
      <trkpt lat="46.5313" lon="5.54631">
        <ele>515</ele>
        <time>2021-08-09T11:23:17Z</time>
      </trkpt>
      <trkpt lat="46.53119" lon="5.54629">
        <ele>514</ele>
        <time>2021-08-09T11:23:18Z</time>
      </trkpt>
      <trkpt lat="46.53088" lon="5.54627">
        <ele>512.8</ele>
        <time>2021-08-09T11:23:21Z</time>
      </trkpt>
      <trkpt lat="46.53067" lon="5.54625">
        <ele>511.8</ele>
        <time>2021-08-09T11:23:23Z</time>
      </trkpt>
      <trkpt lat="46.53027" lon="5.54621">
        <ele>510.6</ele>
        <time>2021-08-09T11:23:27Z</time>
      </trkpt>
      <trkpt lat="46.53017" lon="5.54619">
        <ele>510.2</ele>
        <time>2021-08-09T11:23:28Z</time>
      </trkpt>
      <trkpt lat="46.52996" lon="5.54616">
        <ele>509.4</ele>
        <time>2021-08-09T11:23:30Z</time>
      </trkpt>
      <trkpt lat="46.52966" lon="5.54614">
        <ele>508.2</ele>
        <time>2021-08-09T11:23:33Z</time>
      </trkpt>
      <trkpt lat="46.52936" lon="5.54612">
        <ele>507</ele>
        <time>2021-08-09T11:23:36Z</time>
      </trkpt>
      <trkpt lat="46.52907" lon="5.5461">
        <ele>506</ele>
        <time>2021-08-09T11:23:39Z</time>
      </trkpt>
      <trkpt lat="46.52888" lon="5.54608">
        <ele>505.6</ele>
        <time>2021-08-09T11:23:41Z</time>
      </trkpt>
      <trkpt lat="46.52839" lon="5.54604">
        <ele>504.6</ele>
        <time>2021-08-09T11:23:46Z</time>
      </trkpt>
      <trkpt lat="46.52819" lon="5.54604">
        <ele>503.4</ele>
        <time>2021-08-09T11:23:48Z</time>
      </trkpt>
      <trkpt lat="46.52766" lon="5.54602">
        <ele>502</ele>
        <time>2021-08-09T11:23:53Z</time>
      </trkpt>
      <trkpt lat="46.52755" lon="5.54603">
        <ele>501</ele>
        <time>2021-08-09T11:23:54Z</time>
      </trkpt>
      <trkpt lat="46.52745" lon="5.54606">
        <ele>500.6</ele>
        <time>2021-08-09T11:23:55Z</time>
      </trkpt>
      <trkpt lat="46.52735" lon="5.54615">
        <ele>500.2</ele>
        <time>2021-08-09T11:23:56Z</time>
      </trkpt>
      <trkpt lat="46.52724" lon="5.54644">
        <ele>499.4</ele>
        <time>2021-08-09T11:23:58Z</time>
      </trkpt>
      <trkpt lat="46.52722" lon="5.5466">
        <ele>497.8</ele>
        <time>2021-08-09T11:23:59Z</time>
      </trkpt>
      <trkpt lat="46.5272" lon="5.54692">
        <ele>496.4</ele>
        <time>2021-08-09T11:24:01Z</time>
      </trkpt>
      <trkpt lat="46.52716" lon="5.5474">
        <ele>495.2</ele>
        <time>2021-08-09T11:24:04Z</time>
      </trkpt>
      <trkpt lat="46.52713" lon="5.54787">
        <ele>494</ele>
        <time>2021-08-09T11:24:07Z</time>
      </trkpt>
      <trkpt lat="46.52711" lon="5.54818">
        <ele>493.2</ele>
        <time>2021-08-09T11:24:09Z</time>
      </trkpt>
      <trkpt lat="46.52708" lon="5.54849">
        <ele>492.8</ele>
        <time>2021-08-09T11:24:11Z</time>
      </trkpt>
      <trkpt lat="46.52703" lon="5.54911">
        <ele>491.6</ele>
        <time>2021-08-09T11:24:15Z</time>
      </trkpt>
      <trkpt lat="46.52699" lon="5.54958">
        <ele>490.6</ele>
        <time>2021-08-09T11:24:18Z</time>
      </trkpt>
      <trkpt lat="46.52694" lon="5.55023">
        <ele>489.2</ele>
        <time>2021-08-09T11:24:22Z</time>
      </trkpt>
      <trkpt lat="46.52692" lon="5.55055">
        <ele>488</ele>
        <time>2021-08-09T11:24:24Z</time>
      </trkpt>
      <trkpt lat="46.52691" lon="5.55071">
        <ele>487.4</ele>
        <time>2021-08-09T11:24:25Z</time>
      </trkpt>
      <trkpt lat="46.52688" lon="5.55102">
        <ele>486.4</ele>
        <time>2021-08-09T11:24:27Z</time>
      </trkpt>
      <trkpt lat="46.52681" lon="5.5519">
        <ele>485.6</ele>
        <time>2021-08-09T11:24:33Z</time>
      </trkpt>
      <trkpt lat="46.52675" lon="5.55272">
        <ele>485.6</ele>
        <time>2021-08-09T11:24:39Z</time>
      </trkpt>
      <trkpt lat="46.52675" lon="5.55283">
        <ele>485.6</ele>
        <time>2021-08-09T11:24:40Z</time>
      </trkpt>
      <trkpt lat="46.52668" lon="5.55363">
        <ele>485.6</ele>
        <time>2021-08-09T11:24:46Z</time>
      </trkpt>
      <trkpt lat="46.52666" lon="5.55393">
        <ele>485.4</ele>
        <time>2021-08-09T11:24:48Z</time>
      </trkpt>
      <trkpt lat="46.52662" lon="5.55445">
        <ele>484.4</ele>
        <time>2021-08-09T11:24:52Z</time>
      </trkpt>
      <trkpt lat="46.52656" lon="5.55529">
        <ele>483.4</ele>
        <time>2021-08-09T11:24:58Z</time>
      </trkpt>
      <trkpt lat="46.52655" lon="5.55543">
        <ele>483.2</ele>
        <time>2021-08-09T11:24:59Z</time>
      </trkpt>
      <trkpt lat="46.52654" lon="5.55556">
        <ele>483.2</ele>
        <time>2021-08-09T11:25:00Z</time>
      </trkpt>
      <trkpt lat="46.52647" lon="5.55646">
        <ele>482.6</ele>
        <time>2021-08-09T11:25:07Z</time>
      </trkpt>
      <trkpt lat="46.52644" lon="5.55683">
        <ele>482.6</ele>
        <time>2021-08-09T11:25:10Z</time>
      </trkpt>
      <trkpt lat="46.52637" lon="5.55766">
        <ele>482.8</ele>
        <time>2021-08-09T11:25:17Z</time>
      </trkpt>
      <trkpt lat="46.52636" lon="5.5578">
        <ele>482.8</ele>
        <time>2021-08-09T11:25:18Z</time>
      </trkpt>
      <trkpt lat="46.52631" lon="5.55862">
        <ele>482.6</ele>
        <time>2021-08-09T11:25:25Z</time>
      </trkpt>
      <trkpt lat="46.5263" lon="5.55871">
        <ele>482.6</ele>
        <time>2021-08-09T11:25:26Z</time>
      </trkpt>
      <trkpt lat="46.52625" lon="5.5594">
        <ele>482.6</ele>
        <time>2021-08-09T11:25:32Z</time>
      </trkpt>
      <trkpt lat="46.52618" lon="5.56021">
        <ele>482.6</ele>
        <time>2021-08-09T11:25:39Z</time>
      </trkpt>
      <trkpt lat="46.52611" lon="5.56106">
        <ele>482.6</ele>
        <time>2021-08-09T11:25:47Z</time>
      </trkpt>
      <trkpt lat="46.5261" lon="5.56118">
        <ele>482.8</ele>
        <time>2021-08-09T11:25:48Z</time>
      </trkpt>
      <trkpt lat="46.52604" lon="5.56193">
        <ele>483.2</ele>
        <time>2021-08-09T11:25:55Z</time>
      </trkpt>
      <trkpt lat="46.52599" lon="5.56263">
        <ele>484</ele>
        <time>2021-08-09T11:26:02Z</time>
      </trkpt>
      <trkpt lat="46.52597" lon="5.5628">
        <ele>484.2</ele>
        <time>2021-08-09T11:26:04Z</time>
      </trkpt>
      <trkpt lat="46.52595" lon="5.56319">
        <ele>485.4</ele>
        <time>2021-08-09T11:26:08Z</time>
      </trkpt>
      <trkpt lat="46.52594" lon="5.56335">
        <ele>485.8</ele>
        <time>2021-08-09T11:26:10Z</time>
      </trkpt>
      <trkpt lat="46.52592" lon="5.56364">
        <ele>486.4</ele>
        <time>2021-08-09T11:26:13Z</time>
      </trkpt>
      <trkpt lat="46.52588" lon="5.56408">
        <ele>487.6</ele>
        <time>2021-08-09T11:26:18Z</time>
      </trkpt>
      <trkpt lat="46.52583" lon="5.56469">
        <ele>488.6</ele>
        <time>2021-08-09T11:26:25Z</time>
      </trkpt>
      <trkpt lat="46.52582" lon="5.5649">
        <ele>488.6</ele>
        <time>2021-08-09T11:26:27Z</time>
      </trkpt>
      <trkpt lat="46.52577" lon="5.56544">
        <ele>488.2</ele>
        <time>2021-08-09T11:26:32Z</time>
      </trkpt>
      <trkpt lat="46.52572" lon="5.56602">
        <ele>487.6</ele>
        <time>2021-08-09T11:26:37Z</time>
      </trkpt>
      <trkpt lat="46.52571" lon="5.56623">
        <ele>487</ele>
        <time>2021-08-09T11:26:39Z</time>
      </trkpt>
      <trkpt lat="46.52566" lon="5.56683">
        <ele>486.2</ele>
        <time>2021-08-09T11:26:44Z</time>
      </trkpt>
      <trkpt lat="46.52561" lon="5.56743">
        <ele>485.2</ele>
        <time>2021-08-09T11:26:49Z</time>
      </trkpt>
      <trkpt lat="46.5256" lon="5.56754">
        <ele>485.2</ele>
        <time>2021-08-09T11:26:50Z</time>
      </trkpt>
      <trkpt lat="46.52553" lon="5.56838">
        <ele>484.6</ele>
        <time>2021-08-09T11:26:57Z</time>
      </trkpt>
      <trkpt lat="46.52551" lon="5.5687">
        <ele>484.6</ele>
        <time>2021-08-09T11:27:00Z</time>
      </trkpt>
      <trkpt lat="46.52545" lon="5.5695">
        <ele>484.6</ele>
        <time>2021-08-09T11:27:07Z</time>
      </trkpt>
      <trkpt lat="46.52542" lon="5.5698">
        <ele>484.6</ele>
        <time>2021-08-09T11:27:10Z</time>
      </trkpt>
      <trkpt lat="46.52536" lon="5.57068">
        <ele>484.8</ele>
        <time>2021-08-09T11:27:18Z</time>
      </trkpt>
      <trkpt lat="46.52535" lon="5.57079">
        <ele>484.8</ele>
        <time>2021-08-09T11:27:19Z</time>
      </trkpt>
      <trkpt lat="46.52528" lon="5.57163">
        <ele>484.6</ele>
        <time>2021-08-09T11:27:27Z</time>
      </trkpt>
      <trkpt lat="46.52526" lon="5.57196">
        <ele>484.6</ele>
        <time>2021-08-09T11:27:30Z</time>
      </trkpt>
      <trkpt lat="46.52519" lon="5.57283">
        <ele>484.8</ele>
        <time>2021-08-09T11:27:38Z</time>
      </trkpt>
      <trkpt lat="46.52515" lon="5.57337">
        <ele>484.4</ele>
        <time>2021-08-09T11:27:43Z</time>
      </trkpt>
      <trkpt lat="46.52509" lon="5.57419">
        <ele>484.6</ele>
        <time>2021-08-09T11:27:51Z</time>
      </trkpt>
      <trkpt lat="46.52506" lon="5.57452">
        <ele>484.8</ele>
        <time>2021-08-09T11:27:54Z</time>
      </trkpt>
      <trkpt lat="46.525" lon="5.57536">
        <ele>485.2</ele>
        <time>2021-08-09T11:28:02Z</time>
      </trkpt>
      <trkpt lat="46.52494" lon="5.57616">
        <ele>485.2</ele>
        <time>2021-08-09T11:28:09Z</time>
      </trkpt>
      <trkpt lat="46.52488" lon="5.57694">
        <ele>484.4</ele>
        <time>2021-08-09T11:28:16Z</time>
      </trkpt>
      <trkpt lat="46.52487" lon="5.57713">
        <ele>484.2</ele>
        <time>2021-08-09T11:28:18Z</time>
      </trkpt>
      <trkpt lat="46.52481" lon="5.57792">
        <ele>484.2</ele>
        <time>2021-08-09T11:28:25Z</time>
      </trkpt>
      <trkpt lat="46.52479" lon="5.57812">
        <ele>484.2</ele>
        <time>2021-08-09T11:28:27Z</time>
      </trkpt>
      <trkpt lat="46.52472" lon="5.57899">
        <ele>484.4</ele>
        <time>2021-08-09T11:28:35Z</time>
      </trkpt>
      <trkpt lat="46.52466" lon="5.57983">
        <ele>484.4</ele>
        <time>2021-08-09T11:28:43Z</time>
      </trkpt>
      <trkpt lat="46.52465" lon="5.58006">
        <ele>484.2</ele>
        <time>2021-08-09T11:28:45Z</time>
      </trkpt>
      <trkpt lat="46.52458" lon="5.58087">
        <ele>483.8</ele>
        <time>2021-08-09T11:28:53Z</time>
      </trkpt>
      <trkpt lat="46.52455" lon="5.58137">
        <ele>484</ele>
        <time>2021-08-09T11:28:58Z</time>
      </trkpt>
      <trkpt lat="46.52453" lon="5.58159">
        <ele>484</ele>
        <time>2021-08-09T11:29:00Z</time>
      </trkpt>
      <trkpt lat="46.52451" lon="5.58187">
        <ele>484.2</ele>
        <time>2021-08-09T11:29:03Z</time>
      </trkpt>
      <trkpt lat="46.52445" lon="5.58268">
        <ele>485</ele>
        <time>2021-08-09T11:29:11Z</time>
      </trkpt>
      <trkpt lat="46.52443" lon="5.58285">
        <ele>485.4</ele>
        <time>2021-08-09T11:29:13Z</time>
      </trkpt>
      <trkpt lat="46.52442" lon="5.58307">
        <ele>485.6</ele>
        <time>2021-08-09T11:29:15Z</time>
      </trkpt>
      <trkpt lat="46.52436" lon="5.58384">
        <ele>485.4</ele>
        <time>2021-08-09T11:29:23Z</time>
      </trkpt>
      <trkpt lat="46.5243" lon="5.58466">
        <ele>485</ele>
        <time>2021-08-09T11:29:31Z</time>
      </trkpt>
      <trkpt lat="46.52428" lon="5.58495">
        <ele>485.2</ele>
        <time>2021-08-09T11:29:34Z</time>
      </trkpt>
      <trkpt lat="46.52421" lon="5.5858">
        <ele>485.4</ele>
        <time>2021-08-09T11:29:42Z</time>
      </trkpt>
      <trkpt lat="46.52419" lon="5.58612">
        <ele>485.6</ele>
        <time>2021-08-09T11:29:45Z</time>
      </trkpt>
      <trkpt lat="46.52412" lon="5.58692">
        <ele>485.4</ele>
        <time>2021-08-09T11:29:53Z</time>
      </trkpt>
      <trkpt lat="46.5241" lon="5.58725">
        <ele>485.4</ele>
        <time>2021-08-09T11:29:56Z</time>
      </trkpt>
      <trkpt lat="46.52404" lon="5.58806">
        <ele>485.2</ele>
        <time>2021-08-09T11:30:04Z</time>
      </trkpt>
      <trkpt lat="46.52401" lon="5.5884">
        <ele>485.4</ele>
        <time>2021-08-09T11:30:07Z</time>
      </trkpt>
      <trkpt lat="46.52395" lon="5.5892">
        <ele>485.8</ele>
        <time>2021-08-09T11:30:15Z</time>
      </trkpt>
      <trkpt lat="46.52392" lon="5.58951">
        <ele>485.8</ele>
        <time>2021-08-09T11:30:18Z</time>
      </trkpt>
      <trkpt lat="46.52386" lon="5.59034">
        <ele>486.2</ele>
        <time>2021-08-09T11:30:26Z</time>
      </trkpt>
      <trkpt lat="46.52381" lon="5.59103">
        <ele>486.6</ele>
        <time>2021-08-09T11:30:33Z</time>
      </trkpt>
      <trkpt lat="46.5238" lon="5.59112">
        <ele>486.8</ele>
        <time>2021-08-09T11:30:34Z</time>
      </trkpt>
      <trkpt lat="46.52374" lon="5.59191">
        <ele>487.4</ele>
        <time>2021-08-09T11:30:42Z</time>
      </trkpt>
      <trkpt lat="46.52368" lon="5.59275">
        <ele>488</ele>
        <time>2021-08-09T11:30:51Z</time>
      </trkpt>
      <trkpt lat="46.52367" lon="5.59292">
        <ele>488.2</ele>
        <time>2021-08-09T11:30:53Z</time>
      </trkpt>
      <trkpt lat="46.52362" lon="5.59362">
        <ele>489</ele>
        <time>2021-08-09T11:31:01Z</time>
      </trkpt>
      <trkpt lat="46.52362" lon="5.5937">
        <ele>489</ele>
        <time>2021-08-09T11:31:02Z</time>
      </trkpt>
      <trkpt lat="46.52358" lon="5.59419">
        <ele>490</ele>
        <time>2021-08-09T11:31:08Z</time>
      </trkpt>
      <trkpt lat="46.52357" lon="5.59435">
        <ele>490.4</ele>
        <time>2021-08-09T11:31:10Z</time>
      </trkpt>
      <trkpt lat="46.52355" lon="5.59473">
        <ele>491.2</ele>
        <time>2021-08-09T11:31:15Z</time>
      </trkpt>
      <trkpt lat="46.52353" lon="5.59499">
        <ele>492</ele>
        <time>2021-08-09T11:31:18Z</time>
      </trkpt>
      <trkpt lat="46.52352" lon="5.59513">
        <ele>492.4</ele>
        <time>2021-08-09T11:31:20Z</time>
      </trkpt>
      <trkpt lat="46.52349" lon="5.59552">
        <ele>493</ele>
        <time>2021-08-09T11:31:25Z</time>
      </trkpt>
      <trkpt lat="46.52347" lon="5.59586">
        <ele>493.6</ele>
        <time>2021-08-09T11:31:29Z</time>
      </trkpt>
      <trkpt lat="46.52343" lon="5.59634">
        <ele>494.6</ele>
        <time>2021-08-09T11:31:35Z</time>
      </trkpt>
      <trkpt lat="46.52337" lon="5.59712">
        <ele>495.8</ele>
        <time>2021-08-09T11:31:44Z</time>
      </trkpt>
      <trkpt lat="46.52336" lon="5.59721">
        <ele>495.8</ele>
        <time>2021-08-09T11:31:45Z</time>
      </trkpt>
      <trkpt lat="46.52331" lon="5.59783">
        <ele>496.2</ele>
        <time>2021-08-09T11:31:52Z</time>
      </trkpt>
      <trkpt lat="46.52325" lon="5.59858">
        <ele>496.4</ele>
        <time>2021-08-09T11:32:00Z</time>
      </trkpt>
      <trkpt lat="46.52319" lon="5.59945">
        <ele>496.6</ele>
        <time>2021-08-09T11:32:09Z</time>
      </trkpt>
      <trkpt lat="46.52317" lon="5.59964">
        <ele>497</ele>
        <time>2021-08-09T11:32:11Z</time>
      </trkpt>
      <trkpt lat="46.52311" lon="5.60036">
        <ele>497.6</ele>
        <time>2021-08-09T11:32:19Z</time>
      </trkpt>
      <trkpt lat="46.52309" lon="5.60062">
        <ele>498.2</ele>
        <time>2021-08-09T11:32:22Z</time>
      </trkpt>
      <trkpt lat="46.52303" lon="5.60147">
        <ele>499</ele>
        <time>2021-08-09T11:32:31Z</time>
      </trkpt>
      <trkpt lat="46.52302" lon="5.60158">
        <ele>499</ele>
        <time>2021-08-09T11:32:32Z</time>
      </trkpt>
      <trkpt lat="46.52296" lon="5.60227">
        <ele>499.2</ele>
        <time>2021-08-09T11:32:39Z</time>
      </trkpt>
      <trkpt lat="46.52295" lon="5.60246">
        <ele>499.2</ele>
        <time>2021-08-09T11:32:41Z</time>
      </trkpt>
      <trkpt lat="46.52288" lon="5.60325">
        <ele>499.6</ele>
        <time>2021-08-09T11:32:49Z</time>
      </trkpt>
      <trkpt lat="46.52286" lon="5.60352">
        <ele>500</ele>
        <time>2021-08-09T11:32:52Z</time>
      </trkpt>
      <trkpt lat="46.52284" lon="5.6038">
        <ele>500.2</ele>
        <time>2021-08-09T11:32:55Z</time>
      </trkpt>
      <trkpt lat="46.52279" lon="5.60447">
        <ele>500.6</ele>
        <time>2021-08-09T11:33:02Z</time>
      </trkpt>
      <trkpt lat="46.52273" lon="5.60527">
        <ele>501</ele>
        <time>2021-08-09T11:33:10Z</time>
      </trkpt>
      <trkpt lat="46.52271" lon="5.60547">
        <ele>501.2</ele>
        <time>2021-08-09T11:33:12Z</time>
      </trkpt>
      <trkpt lat="46.5227" lon="5.60568">
        <ele>501.2</ele>
        <time>2021-08-09T11:33:14Z</time>
      </trkpt>
      <trkpt lat="46.52265" lon="5.60639">
        <ele>502</ele>
        <time>2021-08-09T11:33:22Z</time>
      </trkpt>
      <trkpt lat="46.52264" lon="5.60649">
        <ele>502.4</ele>
        <time>2021-08-09T11:33:23Z</time>
      </trkpt>
      <trkpt lat="46.52263" lon="5.60656">
        <ele>502.4</ele>
        <time>2021-08-09T11:33:24Z</time>
      </trkpt>
      <trkpt lat="46.52258" lon="5.60673">
        <ele>502.6</ele>
        <time>2021-08-09T11:33:26Z</time>
      </trkpt>
      <trkpt lat="46.52255" lon="5.6068">
        <ele>503</ele>
        <time>2021-08-09T11:33:27Z</time>
      </trkpt>
      <trkpt lat="46.52252" lon="5.60685">
        <ele>503.2</ele>
        <time>2021-08-09T11:33:28Z</time>
      </trkpt>
      <trkpt lat="46.52247" lon="5.60692">
        <ele>503.4</ele>
        <time>2021-08-09T11:33:29Z</time>
      </trkpt>
      <trkpt lat="46.52244" lon="5.60696">
        <ele>503.6</ele>
        <time>2021-08-09T11:33:30Z</time>
      </trkpt>
      <trkpt lat="46.52239" lon="5.60701">
        <ele>503.6</ele>
        <time>2021-08-09T11:33:31Z</time>
      </trkpt>
      <trkpt lat="46.52228" lon="5.60707">
        <ele>503.8</ele>
        <time>2021-08-09T11:33:33Z</time>
      </trkpt>
      <trkpt lat="46.52222" lon="5.6071">
        <ele>504.2</ele>
        <time>2021-08-09T11:33:34Z</time>
      </trkpt>
      <trkpt lat="46.52217" lon="5.6071">
        <ele>504.4</ele>
        <time>2021-08-09T11:33:35Z</time>
      </trkpt>
      <trkpt lat="46.52211" lon="5.6071">
        <ele>504.6</ele>
        <time>2021-08-09T11:33:36Z</time>
      </trkpt>
      <trkpt lat="46.52193" lon="5.60712">
        <ele>505.4</ele>
        <time>2021-08-09T11:33:39Z</time>
      </trkpt>
      <trkpt lat="46.52189" lon="5.60713">
        <ele>505.6</ele>
        <time>2021-08-09T11:33:40Z</time>
      </trkpt>
      <trkpt lat="46.52178" lon="5.60716">
        <ele>505.8</ele>
        <time>2021-08-09T11:33:42Z</time>
      </trkpt>
      <trkpt lat="46.52168" lon="5.60722">
        <ele>506</ele>
        <time>2021-08-09T11:33:44Z</time>
      </trkpt>
      <trkpt lat="46.52164" lon="5.60726">
        <ele>506.2</ele>
        <time>2021-08-09T11:33:45Z</time>
      </trkpt>
      <trkpt lat="46.52161" lon="5.6073">
        <ele>506.4</ele>
        <time>2021-08-09T11:33:46Z</time>
      </trkpt>
      <trkpt lat="46.52159" lon="5.60735">
        <ele>506.6</ele>
        <time>2021-08-09T11:33:47Z</time>
      </trkpt>
      <trkpt lat="46.52156" lon="5.60743">
        <ele>507.2</ele>
        <time>2021-08-09T11:33:48Z</time>
      </trkpt>
      <trkpt lat="46.52156" lon="5.60748">
        <ele>507.6</ele>
        <time>2021-08-09T11:33:49Z</time>
      </trkpt>
      <trkpt lat="46.52155" lon="5.60755">
        <ele>508.4</ele>
        <time>2021-08-09T11:33:50Z</time>
      </trkpt>
      <trkpt lat="46.52156" lon="5.60785">
        <ele>509.4</ele>
        <time>2021-08-09T11:33:54Z</time>
      </trkpt>
      <trkpt lat="46.52157" lon="5.6081">
        <ele>510.8</ele>
        <time>2021-08-09T11:33:57Z</time>
      </trkpt>
      <trkpt lat="46.52156" lon="5.6082">
        <ele>511</ele>
        <time>2021-08-09T11:33:58Z</time>
      </trkpt>
      <trkpt lat="46.52155" lon="5.60827">
        <ele>511</ele>
        <time>2021-08-09T11:33:59Z</time>
      </trkpt>
      <trkpt lat="46.52144" lon="5.60894">
        <ele>510.4</ele>
        <time>2021-08-09T11:34:06Z</time>
      </trkpt>
      <trkpt lat="46.52143" lon="5.60914">
        <ele>509.8</ele>
        <time>2021-08-09T11:34:08Z</time>
      </trkpt>
      <trkpt lat="46.52139" lon="5.60956">
        <ele>509.2</ele>
        <time>2021-08-09T11:34:12Z</time>
      </trkpt>
      <trkpt lat="46.52137" lon="5.60968">
        <ele>508.8</ele>
        <time>2021-08-09T11:34:13Z</time>
      </trkpt>
      <trkpt lat="46.52134" lon="5.60978">
        <ele>508.6</ele>
        <time>2021-08-09T11:34:14Z</time>
      </trkpt>
      <trkpt lat="46.5213" lon="5.60988">
        <ele>508.6</ele>
        <time>2021-08-09T11:34:15Z</time>
      </trkpt>
      <trkpt lat="46.52126" lon="5.60994">
        <ele>508.4</ele>
        <time>2021-08-09T11:34:16Z</time>
      </trkpt>
      <trkpt lat="46.52099" lon="5.61027">
        <ele>507.6</ele>
        <time>2021-08-09T11:34:21Z</time>
      </trkpt>
      <trkpt lat="46.52091" lon="5.61041">
        <ele>507.6</ele>
        <time>2021-08-09T11:34:23Z</time>
      </trkpt>
      <trkpt lat="46.52085" lon="5.61058">
        <ele>507.4</ele>
        <time>2021-08-09T11:34:25Z</time>
      </trkpt>
      <trkpt lat="46.52084" lon="5.61065">
        <ele>507.2</ele>
        <time>2021-08-09T11:34:26Z</time>
      </trkpt>
      <trkpt lat="46.52085" lon="5.61074">
        <ele>507.2</ele>
        <time>2021-08-09T11:34:27Z</time>
      </trkpt>
      <trkpt lat="46.52091" lon="5.61093">
        <ele>507</ele>
        <time>2021-08-09T11:34:29Z</time>
      </trkpt>
      <trkpt lat="46.52092" lon="5.6113">
        <ele>506.8</ele>
        <time>2021-08-09T11:34:33Z</time>
      </trkpt>
      <trkpt lat="46.52093" lon="5.61141">
        <ele>506.8</ele>
        <time>2021-08-09T11:34:34Z</time>
      </trkpt>
      <trkpt lat="46.52095" lon="5.61162">
        <ele>506.4</ele>
        <time>2021-08-09T11:34:36Z</time>
      </trkpt>
      <trkpt lat="46.52096" lon="5.61173">
        <ele>506.4</ele>
        <time>2021-08-09T11:34:37Z</time>
      </trkpt>
      <trkpt lat="46.52098" lon="5.61246">
        <ele>505.6</ele>
        <time>2021-08-09T11:34:43Z</time>
      </trkpt>
      <trkpt lat="46.52098" lon="5.61256">
        <ele>505.4</ele>
        <time>2021-08-09T11:34:44Z</time>
      </trkpt>
      <trkpt lat="46.52097" lon="5.61293">
        <ele>505</ele>
        <time>2021-08-09T11:34:47Z</time>
      </trkpt>
      <trkpt lat="46.52099" lon="5.61306">
        <ele>504.6</ele>
        <time>2021-08-09T11:34:48Z</time>
      </trkpt>
      <trkpt lat="46.52101" lon="5.61321">
        <ele>504.2</ele>
        <time>2021-08-09T11:34:49Z</time>
      </trkpt>
      <trkpt lat="46.52111" lon="5.61382">
        <ele>503.2</ele>
        <time>2021-08-09T11:34:54Z</time>
      </trkpt>
      <trkpt lat="46.52114" lon="5.61394">
        <ele>502.8</ele>
        <time>2021-08-09T11:34:55Z</time>
      </trkpt>
      <trkpt lat="46.52118" lon="5.61405">
        <ele>502.6</ele>
        <time>2021-08-09T11:34:56Z</time>
      </trkpt>
      <trkpt lat="46.52128" lon="5.61421">
        <ele>502.4</ele>
        <time>2021-08-09T11:34:58Z</time>
      </trkpt>
      <trkpt lat="46.52135" lon="5.6143">
        <ele>502</ele>
        <time>2021-08-09T11:34:59Z</time>
      </trkpt>
      <trkpt lat="46.52142" lon="5.61438">
        <ele>501.8</ele>
        <time>2021-08-09T11:35:00Z</time>
      </trkpt>
      <trkpt lat="46.5217" lon="5.61469">
        <ele>500.8</ele>
        <time>2021-08-09T11:35:04Z</time>
      </trkpt>
      <trkpt lat="46.52207" lon="5.61507">
        <ele>500.6</ele>
        <time>2021-08-09T11:35:09Z</time>
      </trkpt>
      <trkpt lat="46.52254" lon="5.6156">
        <ele>499.8</ele>
        <time>2021-08-09T11:35:16Z</time>
      </trkpt>
      <trkpt lat="46.52267" lon="5.61574">
        <ele>499.8</ele>
        <time>2021-08-09T11:35:18Z</time>
      </trkpt>
      <trkpt lat="46.52307" lon="5.6161">
        <ele>499.8</ele>
        <time>2021-08-09T11:35:24Z</time>
      </trkpt>
      <trkpt lat="46.52342" lon="5.6164">
        <ele>499.8</ele>
        <time>2021-08-09T11:35:29Z</time>
      </trkpt>
      <trkpt lat="46.52348" lon="5.61648">
        <ele>499.8</ele>
        <time>2021-08-09T11:35:30Z</time>
      </trkpt>
      <trkpt lat="46.52352" lon="5.61656">
        <ele>499.8</ele>
        <time>2021-08-09T11:35:31Z</time>
      </trkpt>
      <trkpt lat="46.5236" lon="5.61682">
        <ele>498.6</ele>
        <time>2021-08-09T11:35:33Z</time>
      </trkpt>
      <trkpt lat="46.52369" lon="5.61725">
        <ele>497.6</ele>
        <time>2021-08-09T11:35:36Z</time>
      </trkpt>
      <trkpt lat="46.52372" lon="5.61741">
        <ele>497</ele>
        <time>2021-08-09T11:35:37Z</time>
      </trkpt>
      <trkpt lat="46.52374" lon="5.61753">
        <ele>496.4</ele>
        <time>2021-08-09T11:35:38Z</time>
      </trkpt>
      <trkpt lat="46.52379" lon="5.61784">
        <ele>494.4</ele>
        <time>2021-08-09T11:35:40Z</time>
      </trkpt>
      <trkpt lat="46.52386" lon="5.61819">
        <ele>492.8</ele>
        <time>2021-08-09T11:35:42Z</time>
      </trkpt>
      <trkpt lat="46.5239" lon="5.61853">
        <ele>491.6</ele>
        <time>2021-08-09T11:35:44Z</time>
      </trkpt>
      <trkpt lat="46.52391" lon="5.61885">
        <ele>489.6</ele>
        <time>2021-08-09T11:35:46Z</time>
      </trkpt>
      <trkpt lat="46.5239" lon="5.61903">
        <ele>489.2</ele>
        <time>2021-08-09T11:35:47Z</time>
      </trkpt>
      <trkpt lat="46.52389" lon="5.6192">
        <ele>488.4</ele>
        <time>2021-08-09T11:35:48Z</time>
      </trkpt>
      <trkpt lat="46.52387" lon="5.61953">
        <ele>487.2</ele>
        <time>2021-08-09T11:35:50Z</time>
      </trkpt>
      <trkpt lat="46.52385" lon="5.62002">
        <ele>486</ele>
        <time>2021-08-09T11:35:53Z</time>
      </trkpt>
      <trkpt lat="46.52383" lon="5.62051">
        <ele>485.2</ele>
        <time>2021-08-09T11:35:56Z</time>
      </trkpt>
      <trkpt lat="46.52382" lon="5.62066">
        <ele>485</ele>
        <time>2021-08-09T11:35:57Z</time>
      </trkpt>
      <trkpt lat="46.52378" lon="5.62124">
        <ele>484.6</ele>
        <time>2021-08-09T11:36:01Z</time>
      </trkpt>
      <trkpt lat="46.52374" lon="5.62207">
        <ele>484.4</ele>
        <time>2021-08-09T11:36:07Z</time>
      </trkpt>
      <trkpt lat="46.52372" lon="5.62233">
        <ele>484.4</ele>
        <time>2021-08-09T11:36:09Z</time>
      </trkpt>
      <trkpt lat="46.52368" lon="5.623">
        <ele>485</ele>
        <time>2021-08-09T11:36:15Z</time>
      </trkpt>
      <trkpt lat="46.52367" lon="5.6233">
        <ele>486.2</ele>
        <time>2021-08-09T11:36:18Z</time>
      </trkpt>
      <trkpt lat="46.52369" lon="5.62348">
        <ele>486.6</ele>
        <time>2021-08-09T11:36:20Z</time>
      </trkpt>
      <trkpt lat="46.5237" lon="5.62357">
        <ele>487.2</ele>
        <time>2021-08-09T11:36:21Z</time>
      </trkpt>
      <trkpt lat="46.52373" lon="5.62381">
        <ele>488.6</ele>
        <time>2021-08-09T11:36:24Z</time>
      </trkpt>
      <trkpt lat="46.52377" lon="5.62396">
        <ele>489.2</ele>
        <time>2021-08-09T11:36:26Z</time>
      </trkpt>
      <trkpt lat="46.5238" lon="5.6241">
        <ele>489.8</ele>
        <time>2021-08-09T11:36:28Z</time>
      </trkpt>
      <trkpt lat="46.52386" lon="5.62429">
        <ele>491</ele>
        <time>2021-08-09T11:36:31Z</time>
      </trkpt>
      <trkpt lat="46.52388" lon="5.62436">
        <ele>491.2</ele>
        <time>2021-08-09T11:36:32Z</time>
      </trkpt>
      <trkpt lat="46.52395" lon="5.62452">
        <ele>492</ele>
        <time>2021-08-09T11:36:35Z</time>
      </trkpt>
      <trkpt lat="46.52402" lon="5.62469">
        <ele>492.8</ele>
        <time>2021-08-09T11:36:38Z</time>
      </trkpt>
      <trkpt lat="46.52404" lon="5.62474">
        <ele>493.2</ele>
        <time>2021-08-09T11:36:39Z</time>
      </trkpt>
      <trkpt lat="46.52412" lon="5.62487">
        <ele>494.6</ele>
        <time>2021-08-09T11:36:42Z</time>
      </trkpt>
      <trkpt lat="46.52423" lon="5.62506">
        <ele>496</ele>
        <time>2021-08-09T11:36:46Z</time>
      </trkpt>
      <trkpt lat="46.52433" lon="5.62519">
        <ele>497.2</ele>
        <time>2021-08-09T11:36:49Z</time>
      </trkpt>
      <trkpt lat="46.52442" lon="5.62531">
        <ele>498.2</ele>
        <time>2021-08-09T11:36:52Z</time>
      </trkpt>
      <trkpt lat="46.52451" lon="5.62544">
        <ele>499</ele>
        <time>2021-08-09T11:36:55Z</time>
      </trkpt>
      <trkpt lat="46.52454" lon="5.62548">
        <ele>499.4</ele>
        <time>2021-08-09T11:36:56Z</time>
      </trkpt>
      <trkpt lat="46.52467" lon="5.62572">
        <ele>500.8</ele>
        <time>2021-08-09T11:37:01Z</time>
      </trkpt>
      <trkpt lat="46.5247" lon="5.62576">
        <ele>501</ele>
        <time>2021-08-09T11:37:02Z</time>
      </trkpt>
      <trkpt lat="46.52472" lon="5.62581">
        <ele>501.4</ele>
        <time>2021-08-09T11:37:03Z</time>
      </trkpt>
      <trkpt lat="46.52477" lon="5.62592">
        <ele>501.8</ele>
        <time>2021-08-09T11:37:05Z</time>
      </trkpt>
      <trkpt lat="46.52485" lon="5.62611">
        <ele>502.8</ele>
        <time>2021-08-09T11:37:09Z</time>
      </trkpt>
      <trkpt lat="46.52491" lon="5.6263">
        <ele>504</ele>
        <time>2021-08-09T11:37:13Z</time>
      </trkpt>
      <trkpt lat="46.52497" lon="5.6265">
        <ele>505.4</ele>
        <time>2021-08-09T11:37:17Z</time>
      </trkpt>
      <trkpt lat="46.52505" lon="5.62676">
        <ele>506.2</ele>
        <time>2021-08-09T11:37:22Z</time>
      </trkpt>
      <trkpt lat="46.52508" lon="5.62686">
        <ele>506.4</ele>
        <time>2021-08-09T11:37:24Z</time>
      </trkpt>
      <trkpt lat="46.52517" lon="5.62716">
        <ele>507.6</ele>
        <time>2021-08-09T11:37:30Z</time>
      </trkpt>
      <trkpt lat="46.5252" lon="5.62726">
        <ele>508.4</ele>
        <time>2021-08-09T11:37:32Z</time>
      </trkpt>
      <trkpt lat="46.52522" lon="5.62735">
        <ele>508.8</ele>
        <time>2021-08-09T11:37:34Z</time>
      </trkpt>
      <trkpt lat="46.52529" lon="5.62757">
        <ele>509.8</ele>
        <time>2021-08-09T11:37:38Z</time>
      </trkpt>
      <trkpt lat="46.52539" lon="5.62789">
        <ele>510.8</ele>
        <time>2021-08-09T11:37:44Z</time>
      </trkpt>
      <trkpt lat="46.5254" lon="5.62795">
        <ele>511</ele>
        <time>2021-08-09T11:37:45Z</time>
      </trkpt>
      <trkpt lat="46.5255" lon="5.62827">
        <ele>512</ele>
        <time>2021-08-09T11:37:51Z</time>
      </trkpt>
      <trkpt lat="46.52555" lon="5.62844">
        <ele>512.4</ele>
        <time>2021-08-09T11:37:54Z</time>
      </trkpt>
      <trkpt lat="46.52566" lon="5.62882">
        <ele>513</ele>
        <time>2021-08-09T11:38:00Z</time>
      </trkpt>
      <trkpt lat="46.52573" lon="5.62908">
        <ele>513.4</ele>
        <time>2021-08-09T11:38:04Z</time>
      </trkpt>
      <trkpt lat="46.52583" lon="5.62948">
        <ele>514.2</ele>
        <time>2021-08-09T11:38:10Z</time>
      </trkpt>
      <trkpt lat="46.52588" lon="5.62969">
        <ele>514.6</ele>
        <time>2021-08-09T11:38:13Z</time>
      </trkpt>
      <trkpt lat="46.52605" lon="5.63035">
        <ele>515.4</ele>
        <time>2021-08-09T11:38:22Z</time>
      </trkpt>
      <trkpt lat="46.52607" lon="5.63043">
        <ele>515.4</ele>
        <time>2021-08-09T11:38:23Z</time>
      </trkpt>
      <trkpt lat="46.52622" lon="5.63111">
        <ele>515.8</ele>
        <time>2021-08-09T11:38:31Z</time>
      </trkpt>
      <trkpt lat="46.52643" lon="5.63194">
        <ele>515.4</ele>
        <time>2021-08-09T11:38:40Z</time>
      </trkpt>
      <trkpt lat="46.52647" lon="5.63213">
        <ele>515.2</ele>
        <time>2021-08-09T11:38:42Z</time>
      </trkpt>
      <trkpt lat="46.52659" lon="5.63272">
        <ele>514.4</ele>
        <time>2021-08-09T11:38:48Z</time>
      </trkpt>
      <trkpt lat="46.52662" lon="5.63292">
        <ele>514</ele>
        <time>2021-08-09T11:38:50Z</time>
      </trkpt>
      <trkpt lat="46.52675" lon="5.63376">
        <ele>514.6</ele>
        <time>2021-08-09T11:38:59Z</time>
      </trkpt>
      <trkpt lat="46.52676" lon="5.63384">
        <ele>514.8</ele>
        <time>2021-08-09T11:39:00Z</time>
      </trkpt>
      <trkpt lat="46.52683" lon="5.63434">
        <ele>515.6</ele>
        <time>2021-08-09T11:39:06Z</time>
      </trkpt>
      <trkpt lat="46.52685" lon="5.6345">
        <ele>516</ele>
        <time>2021-08-09T11:39:08Z</time>
      </trkpt>
      <trkpt lat="46.52687" lon="5.63473">
        <ele>516.8</ele>
        <time>2021-08-09T11:39:11Z</time>
      </trkpt>
      <trkpt lat="46.52687" lon="5.63502">
        <ele>518</ele>
        <time>2021-08-09T11:39:15Z</time>
      </trkpt>
      <trkpt lat="46.52684" lon="5.63539">
        <ele>519.2</ele>
        <time>2021-08-09T11:39:20Z</time>
      </trkpt>
      <trkpt lat="46.5268" lon="5.63566">
        <ele>520.2</ele>
        <time>2021-08-09T11:39:24Z</time>
      </trkpt>
      <trkpt lat="46.52677" lon="5.63587">
        <ele>521.2</ele>
        <time>2021-08-09T11:39:27Z</time>
      </trkpt>
      <trkpt lat="46.5267" lon="5.63624">
        <ele>522</ele>
        <time>2021-08-09T11:39:32Z</time>
      </trkpt>
      <trkpt lat="46.52669" lon="5.63631">
        <ele>522.4</ele>
        <time>2021-08-09T11:39:33Z</time>
      </trkpt>
      <trkpt lat="46.52661" lon="5.63665">
        <ele>523.4</ele>
        <time>2021-08-09T11:39:38Z</time>
      </trkpt>
      <trkpt lat="46.52656" lon="5.63686">
        <ele>524.2</ele>
        <time>2021-08-09T11:39:41Z</time>
      </trkpt>
      <trkpt lat="46.52653" lon="5.63699">
        <ele>524.6</ele>
        <time>2021-08-09T11:39:43Z</time>
      </trkpt>
      <trkpt lat="46.52648" lon="5.63721">
        <ele>525.2</ele>
        <time>2021-08-09T11:39:46Z</time>
      </trkpt>
      <trkpt lat="46.52645" lon="5.63744">
        <ele>525.4</ele>
        <time>2021-08-09T11:39:49Z</time>
      </trkpt>
      <trkpt lat="46.52644" lon="5.6376">
        <ele>525.6</ele>
        <time>2021-08-09T11:39:51Z</time>
      </trkpt>
      <trkpt lat="46.52644" lon="5.63804">
        <ele>526</ele>
        <time>2021-08-09T11:39:56Z</time>
      </trkpt>
      <trkpt lat="46.52646" lon="5.63826">
        <ele>526</ele>
        <time>2021-08-09T11:39:59Z</time>
      </trkpt>
      <trkpt lat="46.52647" lon="5.63844">
        <ele>526</ele>
        <time>2021-08-09T11:40:01Z</time>
      </trkpt>
      <trkpt lat="46.52648" lon="5.63862">
        <ele>526</ele>
        <time>2021-08-09T11:40:03Z</time>
      </trkpt>
      <trkpt lat="46.52666" lon="5.63909">
        <ele>525.8</ele>
        <time>2021-08-09T11:40:08Z</time>
      </trkpt>
      <trkpt lat="46.52679" lon="5.63938">
        <ele>525.4</ele>
        <time>2021-08-09T11:40:11Z</time>
      </trkpt>
      <trkpt lat="46.5269" lon="5.63955">
        <ele>525.2</ele>
        <time>2021-08-09T11:40:13Z</time>
      </trkpt>
      <trkpt lat="46.52729" lon="5.64009">
        <ele>524.2</ele>
        <time>2021-08-09T11:40:19Z</time>
      </trkpt>
      <trkpt lat="46.52735" lon="5.64018">
        <ele>523.8</ele>
        <time>2021-08-09T11:40:20Z</time>
      </trkpt>
      <trkpt lat="46.52746" lon="5.64036">
        <ele>523.4</ele>
        <time>2021-08-09T11:40:22Z</time>
      </trkpt>
      <trkpt lat="46.52753" lon="5.64042">
        <ele>523.2</ele>
        <time>2021-08-09T11:40:23Z</time>
      </trkpt>
      <trkpt lat="46.5276" lon="5.64044">
        <ele>523.2</ele>
        <time>2021-08-09T11:40:24Z</time>
      </trkpt>
      <trkpt lat="46.52773" lon="5.64038">
        <ele>523</ele>
        <time>2021-08-09T11:40:26Z</time>
      </trkpt>
      <trkpt lat="46.52779" lon="5.64033">
        <ele>523</ele>
        <time>2021-08-09T11:40:27Z</time>
      </trkpt>
      <trkpt lat="46.52785" lon="5.6403">
        <ele>523</ele>
        <time>2021-08-09T11:40:28Z</time>
      </trkpt>
      <trkpt lat="46.52797" lon="5.64028">
        <ele>523</ele>
        <time>2021-08-09T11:40:30Z</time>
      </trkpt>
      <trkpt lat="46.52802" lon="5.64029">
        <ele>523.4</ele>
        <time>2021-08-09T11:40:31Z</time>
      </trkpt>
      <trkpt lat="46.52812" lon="5.64032">
        <ele>523.8</ele>
        <time>2021-08-09T11:40:33Z</time>
      </trkpt>
      <trkpt lat="46.52817" lon="5.64034">
        <ele>524.4</ele>
        <time>2021-08-09T11:40:34Z</time>
      </trkpt>
      <trkpt lat="46.52825" lon="5.6404">
        <ele>525.4</ele>
        <time>2021-08-09T11:40:36Z</time>
      </trkpt>
      <trkpt lat="46.52829" lon="5.64043">
        <ele>525.6</ele>
        <time>2021-08-09T11:40:37Z</time>
      </trkpt>
      <trkpt lat="46.5284" lon="5.64051">
        <ele>526.6</ele>
        <time>2021-08-09T11:40:40Z</time>
      </trkpt>
      <trkpt lat="46.5285" lon="5.64059">
        <ele>527.6</ele>
        <time>2021-08-09T11:40:43Z</time>
      </trkpt>
      <trkpt lat="46.52854" lon="5.64061">
        <ele>527.8</ele>
        <time>2021-08-09T11:40:44Z</time>
      </trkpt>
      <trkpt lat="46.52864" lon="5.64067">
        <ele>529</ele>
        <time>2021-08-09T11:40:47Z</time>
      </trkpt>
      <trkpt lat="46.52878" lon="5.64075">
        <ele>530.4</ele>
        <time>2021-08-09T11:40:50Z</time>
      </trkpt>
      <trkpt lat="46.52878" lon="5.64075">
        <ele>530.6</ele>
        <time>2021-08-09T11:40:51Z</time>
      </trkpt>
      <trkpt lat="46.5289" lon="5.64081">
        <ele>531.6</ele>
        <time>2021-08-09T11:40:54Z</time>
      </trkpt>
      <trkpt lat="46.52904" lon="5.6409">
        <ele>532.6</ele>
        <time>2021-08-09T11:40:58Z</time>
      </trkpt>
      <trkpt lat="46.52909" lon="5.64092">
        <ele>533</ele>
        <time>2021-08-09T11:40:59Z</time>
      </trkpt>
      <trkpt lat="46.52916" lon="5.64096">
        <ele>533.6</ele>
        <time>2021-08-09T11:41:01Z</time>
      </trkpt>
      <trkpt lat="46.52935" lon="5.64106">
        <ele>534.8</ele>
        <time>2021-08-09T11:41:06Z</time>
      </trkpt>
      <trkpt lat="46.5294" lon="5.64108">
        <ele>535</ele>
        <time>2021-08-09T11:41:07Z</time>
      </trkpt>
      <trkpt lat="46.52948" lon="5.64113">
        <ele>536</ele>
        <time>2021-08-09T11:41:09Z</time>
      </trkpt>
      <trkpt lat="46.52966" lon="5.64123">
        <ele>536.6</ele>
        <time>2021-08-09T11:41:13Z</time>
      </trkpt>
      <trkpt lat="46.52996" lon="5.64139">
        <ele>537</ele>
        <time>2021-08-09T11:41:19Z</time>
      </trkpt>
      <trkpt lat="46.53016" lon="5.64151">
        <ele>537.6</ele>
        <time>2021-08-09T11:41:23Z</time>
      </trkpt>
      <trkpt lat="46.5306" lon="5.64175">
        <ele>538</ele>
        <time>2021-08-09T11:41:32Z</time>
      </trkpt>
      <trkpt lat="46.53088" lon="5.64191">
        <ele>539</ele>
        <time>2021-08-09T11:41:38Z</time>
      </trkpt>
      <trkpt lat="46.53105" lon="5.64203">
        <ele>539.8</ele>
        <time>2021-08-09T11:41:42Z</time>
      </trkpt>
      <trkpt lat="46.53109" lon="5.64206">
        <ele>540.2</ele>
        <time>2021-08-09T11:41:43Z</time>
      </trkpt>
      <trkpt lat="46.53153" lon="5.6424">
        <ele>541.2</ele>
        <time>2021-08-09T11:41:52Z</time>
      </trkpt>
      <trkpt lat="46.53158" lon="5.64244">
        <ele>541.4</ele>
        <time>2021-08-09T11:41:53Z</time>
      </trkpt>
      <trkpt lat="46.53192" lon="5.64272">
        <ele>541.6</ele>
        <time>2021-08-09T11:42:00Z</time>
      </trkpt>
      <trkpt lat="46.53245" lon="5.64315">
        <ele>542.2</ele>
        <time>2021-08-09T11:42:09Z</time>
      </trkpt>
      <trkpt lat="46.5329" lon="5.64351">
        <ele>541.6</ele>
        <time>2021-08-09T11:42:17Z</time>
      </trkpt>
      <trkpt lat="46.53342" lon="5.64393">
        <ele>541</ele>
        <time>2021-08-09T11:42:25Z</time>
      </trkpt>
      <trkpt lat="46.53362" lon="5.64409">
        <ele>541</ele>
        <time>2021-08-09T11:42:28Z</time>
      </trkpt>
      <trkpt lat="46.53407" lon="5.64446">
        <ele>541</ele>
        <time>2021-08-09T11:42:35Z</time>
      </trkpt>
      <trkpt lat="46.53455" lon="5.64487">
        <ele>541.4</ele>
        <time>2021-08-09T11:42:42Z</time>
      </trkpt>
      <trkpt lat="46.53467" lon="5.64497">
        <ele>541.6</ele>
        <time>2021-08-09T11:42:44Z</time>
      </trkpt>
      <trkpt lat="46.53515" lon="5.64537">
        <ele>542</ele>
        <time>2021-08-09T11:42:52Z</time>
      </trkpt>
      <trkpt lat="46.53541" lon="5.64559">
        <ele>541.6</ele>
        <time>2021-08-09T11:42:56Z</time>
      </trkpt>
      <trkpt lat="46.53593" lon="5.64604">
        <ele>541.2</ele>
        <time>2021-08-09T11:43:04Z</time>
      </trkpt>
      <trkpt lat="46.536" lon="5.64609">
        <ele>541</ele>
        <time>2021-08-09T11:43:05Z</time>
      </trkpt>
      <trkpt lat="46.5365" lon="5.64653">
        <ele>540.8</ele>
        <time>2021-08-09T11:43:13Z</time>
      </trkpt>
      <trkpt lat="46.53662" lon="5.64664">
        <ele>541</ele>
        <time>2021-08-09T11:43:15Z</time>
      </trkpt>
      <trkpt lat="46.5371" lon="5.64708">
        <ele>541</ele>
        <time>2021-08-09T11:43:23Z</time>
      </trkpt>
      <trkpt lat="46.53734" lon="5.64728">
        <ele>541.2</ele>
        <time>2021-08-09T11:43:27Z</time>
      </trkpt>
      <trkpt lat="46.53781" lon="5.64769">
        <ele>541.8</ele>
        <time>2021-08-09T11:43:35Z</time>
      </trkpt>
      <trkpt lat="46.53793" lon="5.6478">
        <ele>541.8</ele>
        <time>2021-08-09T11:43:37Z</time>
      </trkpt>
      <trkpt lat="46.53833" lon="5.64816">
        <ele>541.6</ele>
        <time>2021-08-09T11:43:43Z</time>
      </trkpt>
      <trkpt lat="46.53869" lon="5.64849">
        <ele>540.2</ele>
        <time>2021-08-09T11:43:48Z</time>
      </trkpt>
      <trkpt lat="46.53908" lon="5.64882">
        <ele>539</ele>
        <time>2021-08-09T11:43:53Z</time>
      </trkpt>
      <trkpt lat="46.53923" lon="5.64895">
        <ele>538.8</ele>
        <time>2021-08-09T11:43:55Z</time>
      </trkpt>
      <trkpt lat="46.53955" lon="5.64922">
        <ele>539</ele>
        <time>2021-08-09T11:44:00Z</time>
      </trkpt>
      <trkpt lat="46.53994" lon="5.64956">
        <ele>540</ele>
        <time>2021-08-09T11:44:07Z</time>
      </trkpt>
      <trkpt lat="46.54" lon="5.64961">
        <ele>540</ele>
        <time>2021-08-09T11:44:08Z</time>
      </trkpt>
      <trkpt lat="46.54019" lon="5.64978">
        <ele>541.4</ele>
        <time>2021-08-09T11:44:12Z</time>
      </trkpt>
      <trkpt lat="46.54029" lon="5.64987">
        <ele>542.2</ele>
        <time>2021-08-09T11:44:14Z</time>
      </trkpt>
      <trkpt lat="46.54034" lon="5.64992">
        <ele>542.8</ele>
        <time>2021-08-09T11:44:16Z</time>
      </trkpt>
      <trkpt lat="46.54059" lon="5.65013">
        <ele>543.8</ele>
        <time>2021-08-09T11:44:20Z</time>
      </trkpt>
      <trkpt lat="46.54088" lon="5.65036">
        <ele>544.4</ele>
        <time>2021-08-09T11:44:25Z</time>
      </trkpt>
      <trkpt lat="46.54138" lon="5.65078">
        <ele>544.6</ele>
        <time>2021-08-09T11:44:33Z</time>
      </trkpt>
      <trkpt lat="46.54144" lon="5.65085">
        <ele>544.4</ele>
        <time>2021-08-09T11:44:34Z</time>
      </trkpt>
      <trkpt lat="46.54174" lon="5.65118">
        <ele>544.6</ele>
        <time>2021-08-09T11:44:40Z</time>
      </trkpt>
      <trkpt lat="46.54182" lon="5.65128">
        <ele>544.8</ele>
        <time>2021-08-09T11:44:42Z</time>
      </trkpt>
      <trkpt lat="46.54204" lon="5.65157">
        <ele>545.8</ele>
        <time>2021-08-09T11:44:47Z</time>
      </trkpt>
      <trkpt lat="46.54208" lon="5.65163">
        <ele>546.2</ele>
        <time>2021-08-09T11:44:48Z</time>
      </trkpt>
      <trkpt lat="46.54242" lon="5.65214">
        <ele>547.2</ele>
        <time>2021-08-09T11:44:56Z</time>
      </trkpt>
      <trkpt lat="46.54257" lon="5.65234">
        <ele>547.2</ele>
        <time>2021-08-09T11:44:59Z</time>
      </trkpt>
      <trkpt lat="46.54274" lon="5.65255">
        <ele>547.2</ele>
        <time>2021-08-09T11:45:02Z</time>
      </trkpt>
      <trkpt lat="46.54305" lon="5.65291">
        <ele>546.2</ele>
        <time>2021-08-09T11:45:07Z</time>
      </trkpt>
      <trkpt lat="46.54323" lon="5.65311">
        <ele>545.4</ele>
        <time>2021-08-09T11:45:10Z</time>
      </trkpt>
      <trkpt lat="46.54336" lon="5.65326">
        <ele>544.8</ele>
        <time>2021-08-09T11:45:12Z</time>
      </trkpt>
      <trkpt lat="46.54371" lon="5.65366">
        <ele>544</ele>
        <time>2021-08-09T11:45:17Z</time>
      </trkpt>
      <trkpt lat="46.54387" lon="5.65381">
        <ele>543.6</ele>
        <time>2021-08-09T11:45:19Z</time>
      </trkpt>
      <trkpt lat="46.54414" lon="5.65402">
        <ele>542.2</ele>
        <time>2021-08-09T11:45:22Z</time>
      </trkpt>
      <trkpt lat="46.54433" lon="5.65416">
        <ele>541</ele>
        <time>2021-08-09T11:45:24Z</time>
      </trkpt>
      <trkpt lat="46.54453" lon="5.6543">
        <ele>539.6</ele>
        <time>2021-08-09T11:45:26Z</time>
      </trkpt>
      <trkpt lat="46.54472" lon="5.65444">
        <ele>538.4</ele>
        <time>2021-08-09T11:45:28Z</time>
      </trkpt>
      <trkpt lat="46.54482" lon="5.65451">
        <ele>538</ele>
        <time>2021-08-09T11:45:29Z</time>
      </trkpt>
      <trkpt lat="46.54493" lon="5.6546">
        <ele>537.4</ele>
        <time>2021-08-09T11:45:30Z</time>
      </trkpt>
      <trkpt lat="46.5452" lon="5.65478">
        <ele>536</ele>
        <time>2021-08-09T11:45:33Z</time>
      </trkpt>
      <trkpt lat="46.54554" lon="5.65503">
        <ele>535.4</ele>
        <time>2021-08-09T11:45:37Z</time>
      </trkpt>
      <trkpt lat="46.54595" lon="5.65527">
        <ele>535.2</ele>
        <time>2021-08-09T11:45:42Z</time>
      </trkpt>
      <trkpt lat="46.54621" lon="5.65531">
        <ele>535.6</ele>
        <time>2021-08-09T11:45:45Z</time>
      </trkpt>
      <trkpt lat="46.54629" lon="5.65531">
        <ele>535.8</ele>
        <time>2021-08-09T11:45:46Z</time>
      </trkpt>
      <trkpt lat="46.54689" lon="5.65515">
        <ele>536</ele>
        <time>2021-08-09T11:45:53Z</time>
      </trkpt>
      <trkpt lat="46.54706" lon="5.6551">
        <ele>535.8</ele>
        <time>2021-08-09T11:45:55Z</time>
      </trkpt>
      <trkpt lat="46.54765" lon="5.65494">
        <ele>535.6</ele>
        <time>2021-08-09T11:46:02Z</time>
      </trkpt>
      <trkpt lat="46.54826" lon="5.65489">
        <ele>535.4</ele>
        <time>2021-08-09T11:46:09Z</time>
      </trkpt>
      <trkpt lat="46.5487" lon="5.65488">
        <ele>535</ele>
        <time>2021-08-09T11:46:14Z</time>
      </trkpt>
      <trkpt lat="46.54914" lon="5.65488">
        <ele>533.8</ele>
        <time>2021-08-09T11:46:19Z</time>
      </trkpt>
      <trkpt lat="46.54977" lon="5.65486">
        <ele>533.2</ele>
        <time>2021-08-09T11:46:26Z</time>
      </trkpt>
      <trkpt lat="46.55003" lon="5.65489">
        <ele>532.4</ele>
        <time>2021-08-09T11:46:29Z</time>
      </trkpt>
      <trkpt lat="46.55048" lon="5.65497">
        <ele>531.4</ele>
        <time>2021-08-09T11:46:34Z</time>
      </trkpt>
      <trkpt lat="46.55093" lon="5.65506">
        <ele>530.2</ele>
        <time>2021-08-09T11:46:39Z</time>
      </trkpt>
      <trkpt lat="46.55137" lon="5.65515">
        <ele>529.2</ele>
        <time>2021-08-09T11:46:44Z</time>
      </trkpt>
      <trkpt lat="46.55173" lon="5.65524">
        <ele>528.8</ele>
        <time>2021-08-09T11:46:48Z</time>
      </trkpt>
      <trkpt lat="46.55199" lon="5.65537">
        <ele>528</ele>
        <time>2021-08-09T11:46:51Z</time>
      </trkpt>
      <trkpt lat="46.55216" lon="5.65547">
        <ele>527.8</ele>
        <time>2021-08-09T11:46:53Z</time>
      </trkpt>
      <trkpt lat="46.5525" lon="5.65571">
        <ele>527</ele>
        <time>2021-08-09T11:46:57Z</time>
      </trkpt>
      <trkpt lat="46.55289" lon="5.65597">
        <ele>525.8</ele>
        <time>2021-08-09T11:47:01Z</time>
      </trkpt>
      <trkpt lat="46.55327" lon="5.65621">
        <ele>524.4</ele>
        <time>2021-08-09T11:47:05Z</time>
      </trkpt>
      <trkpt lat="46.55354" lon="5.65638">
        <ele>523</ele>
        <time>2021-08-09T11:47:08Z</time>
      </trkpt>
      <trkpt lat="46.55383" lon="5.65654">
        <ele>521.6</ele>
        <time>2021-08-09T11:47:11Z</time>
      </trkpt>
      <trkpt lat="46.55422" lon="5.65679">
        <ele>520</ele>
        <time>2021-08-09T11:47:15Z</time>
      </trkpt>
      <trkpt lat="46.55431" lon="5.65685">
        <ele>519.6</ele>
        <time>2021-08-09T11:47:16Z</time>
      </trkpt>
      <trkpt lat="46.55441" lon="5.65692">
        <ele>518.8</ele>
        <time>2021-08-09T11:47:17Z</time>
      </trkpt>
      <trkpt lat="46.55471" lon="5.65712">
        <ele>517.8</ele>
        <time>2021-08-09T11:47:20Z</time>
      </trkpt>
      <trkpt lat="46.555" lon="5.65732">
        <ele>516.6</ele>
        <time>2021-08-09T11:47:23Z</time>
      </trkpt>
      <trkpt lat="46.55519" lon="5.65747">
        <ele>515.4</ele>
        <time>2021-08-09T11:47:25Z</time>
      </trkpt>
      <trkpt lat="46.55539" lon="5.6576">
        <ele>514.8</ele>
        <time>2021-08-09T11:47:27Z</time>
      </trkpt>
      <trkpt lat="46.55549" lon="5.65767">
        <ele>514</ele>
        <time>2021-08-09T11:47:28Z</time>
      </trkpt>
      <trkpt lat="46.5557" lon="5.6578">
        <ele>512.8</ele>
        <time>2021-08-09T11:47:30Z</time>
      </trkpt>
      <trkpt lat="46.55591" lon="5.65793">
        <ele>511.4</ele>
        <time>2021-08-09T11:47:32Z</time>
      </trkpt>
      <trkpt lat="46.55615" lon="5.65806">
        <ele>510.4</ele>
        <time>2021-08-09T11:47:34Z</time>
      </trkpt>
      <trkpt lat="46.55623" lon="5.65812">
        <ele>509.8</ele>
        <time>2021-08-09T11:47:35Z</time>
      </trkpt>
      <trkpt lat="46.55633" lon="5.65819">
        <ele>509</ele>
        <time>2021-08-09T11:47:36Z</time>
      </trkpt>
      <trkpt lat="46.55655" lon="5.65836">
        <ele>507.6</ele>
        <time>2021-08-09T11:47:38Z</time>
      </trkpt>
      <trkpt lat="46.55664" lon="5.65847">
        <ele>507.2</ele>
        <time>2021-08-09T11:47:39Z</time>
      </trkpt>
      <trkpt lat="46.5567" lon="5.65858">
        <ele>506.2</ele>
        <time>2021-08-09T11:47:40Z</time>
      </trkpt>
      <trkpt lat="46.5568" lon="5.65891">
        <ele>505.2</ele>
        <time>2021-08-09T11:47:42Z</time>
      </trkpt>
      <trkpt lat="46.55681" lon="5.65909">
        <ele>504.4</ele>
        <time>2021-08-09T11:47:43Z</time>
      </trkpt>
      <trkpt lat="46.5568" lon="5.65931">
        <ele>504</ele>
        <time>2021-08-09T11:47:44Z</time>
      </trkpt>
      <trkpt lat="46.55675" lon="5.65944">
        <ele>503.4</ele>
        <time>2021-08-09T11:47:45Z</time>
      </trkpt>
      <trkpt lat="46.5566" lon="5.65978">
        <ele>501.6</ele>
        <time>2021-08-09T11:47:47Z</time>
      </trkpt>
      <trkpt lat="46.5565" lon="5.66007">
        <ele>499</ele>
        <time>2021-08-09T11:47:49Z</time>
      </trkpt>
      <trkpt lat="46.55643" lon="5.66042">
        <ele>497.6</ele>
        <time>2021-08-09T11:47:51Z</time>
      </trkpt>
      <trkpt lat="46.55645" lon="5.66082">
        <ele>496.6</ele>
        <time>2021-08-09T11:47:53Z</time>
      </trkpt>
      <trkpt lat="46.55648" lon="5.66095">
        <ele>495.6</ele>
        <time>2021-08-09T11:47:54Z</time>
      </trkpt>
      <trkpt lat="46.55654" lon="5.6611">
        <ele>495.2</ele>
        <time>2021-08-09T11:47:55Z</time>
      </trkpt>
      <trkpt lat="46.55661" lon="5.66123">
        <ele>494.6</ele>
        <time>2021-08-09T11:47:56Z</time>
      </trkpt>
      <trkpt lat="46.55669" lon="5.66135">
        <ele>494.4</ele>
        <time>2021-08-09T11:47:57Z</time>
      </trkpt>
      <trkpt lat="46.55678" lon="5.66145">
        <ele>493.2</ele>
        <time>2021-08-09T11:47:58Z</time>
      </trkpt>
      <trkpt lat="46.55687" lon="5.66155">
        <ele>492.2</ele>
        <time>2021-08-09T11:47:59Z</time>
      </trkpt>
      <trkpt lat="46.55697" lon="5.66164">
        <ele>492</ele>
        <time>2021-08-09T11:48:00Z</time>
      </trkpt>
      <trkpt lat="46.55742" lon="5.66211">
        <ele>491.2</ele>
        <time>2021-08-09T11:48:05Z</time>
      </trkpt>
      <trkpt lat="46.55751" lon="5.66221">
        <ele>490.6</ele>
        <time>2021-08-09T11:48:06Z</time>
      </trkpt>
      <trkpt lat="46.55761" lon="5.6623">
        <ele>490.4</ele>
        <time>2021-08-09T11:48:07Z</time>
      </trkpt>
      <trkpt lat="46.55779" lon="5.6625">
        <ele>489.4</ele>
        <time>2021-08-09T11:48:09Z</time>
      </trkpt>
      <trkpt lat="46.55807" lon="5.66277">
        <ele>487.8</ele>
        <time>2021-08-09T11:48:12Z</time>
      </trkpt>
      <trkpt lat="46.55824" lon="5.66294">
        <ele>487.2</ele>
        <time>2021-08-09T11:48:14Z</time>
      </trkpt>
      <trkpt lat="46.55848" lon="5.66319">
        <ele>486.6</ele>
        <time>2021-08-09T11:48:17Z</time>
      </trkpt>
      <trkpt lat="46.55864" lon="5.66335">
        <ele>486.4</ele>
        <time>2021-08-09T11:48:19Z</time>
      </trkpt>
      <trkpt lat="46.55908" lon="5.6638">
        <ele>486.2</ele>
        <time>2021-08-09T11:48:25Z</time>
      </trkpt>
      <trkpt lat="46.55939" lon="5.66424">
        <ele>486.2</ele>
        <time>2021-08-09T11:48:30Z</time>
      </trkpt>
      <trkpt lat="46.5596" lon="5.66476">
        <ele>486.2</ele>
        <time>2021-08-09T11:48:35Z</time>
      </trkpt>
      <trkpt lat="46.55986" lon="5.6654">
        <ele>486.6</ele>
        <time>2021-08-09T11:48:41Z</time>
      </trkpt>
      <trkpt lat="46.56006" lon="5.66581">
        <ele>486.8</ele>
        <time>2021-08-09T11:48:45Z</time>
      </trkpt>
      <trkpt lat="46.56035" lon="5.66645">
        <ele>486.8</ele>
        <time>2021-08-09T11:48:51Z</time>
      </trkpt>
      <trkpt lat="46.56072" lon="5.66718">
        <ele>486.2</ele>
        <time>2021-08-09T11:48:58Z</time>
      </trkpt>
      <trkpt lat="46.561" lon="5.66746">
        <ele>486</ele>
        <time>2021-08-09T11:49:02Z</time>
      </trkpt>
      <trkpt lat="46.56152" lon="5.66784">
        <ele>485.8</ele>
        <time>2021-08-09T11:49:09Z</time>
      </trkpt>
      <trkpt lat="46.56184" lon="5.668">
        <ele>485.4</ele>
        <time>2021-08-09T11:49:13Z</time>
      </trkpt>
      <trkpt lat="46.56219" lon="5.66816">
        <ele>485</ele>
        <time>2021-08-09T11:49:17Z</time>
      </trkpt>
      <trkpt lat="46.56255" lon="5.66837">
        <ele>484.2</ele>
        <time>2021-08-09T11:49:21Z</time>
      </trkpt>
      <trkpt lat="46.56273" lon="5.66848">
        <ele>483.8</ele>
        <time>2021-08-09T11:49:23Z</time>
      </trkpt>
      <trkpt lat="46.56291" lon="5.66862">
        <ele>483.2</ele>
        <time>2021-08-09T11:49:25Z</time>
      </trkpt>
      <trkpt lat="46.56307" lon="5.66878">
        <ele>482.4</ele>
        <time>2021-08-09T11:49:27Z</time>
      </trkpt>
      <trkpt lat="46.56315" lon="5.66886">
        <ele>481.8</ele>
        <time>2021-08-09T11:49:28Z</time>
      </trkpt>
      <trkpt lat="46.5635" lon="5.66931">
        <ele>480.8</ele>
        <time>2021-08-09T11:49:33Z</time>
      </trkpt>
      <trkpt lat="46.5639" lon="5.66986">
        <ele>480.6</ele>
        <time>2021-08-09T11:49:39Z</time>
      </trkpt>
      <trkpt lat="46.56423" lon="5.67031">
        <ele>480.4</ele>
        <time>2021-08-09T11:49:44Z</time>
      </trkpt>
      <trkpt lat="46.56468" lon="5.67095">
        <ele>480.2</ele>
        <time>2021-08-09T11:49:51Z</time>
      </trkpt>
      <trkpt lat="46.5648" lon="5.67112">
        <ele>480</ele>
        <time>2021-08-09T11:49:53Z</time>
      </trkpt>
      <trkpt lat="46.56523" lon="5.67172">
        <ele>480</ele>
        <time>2021-08-09T11:50:00Z</time>
      </trkpt>
      <trkpt lat="46.5654" lon="5.67197">
        <ele>480</ele>
        <time>2021-08-09T11:50:03Z</time>
      </trkpt>
      <trkpt lat="46.56581" lon="5.67253">
        <ele>480.2</ele>
        <time>2021-08-09T11:50:10Z</time>
      </trkpt>
      <trkpt lat="46.56581" lon="5.67253">
        <ele>480.2</ele>
        <time>2021-08-09T11:50:11Z</time>
      </trkpt>
      <trkpt lat="46.56627" lon="5.67302">
        <ele>480.2</ele>
        <time>2021-08-09T11:50:17Z</time>
      </trkpt>
      <trkpt lat="46.56656" lon="5.67329">
        <ele>479.8</ele>
        <time>2021-08-09T11:50:21Z</time>
      </trkpt>
      <trkpt lat="46.56687" lon="5.67358">
        <ele>479</ele>
        <time>2021-08-09T11:50:25Z</time>
      </trkpt>
      <trkpt lat="46.56721" lon="5.67394">
        <ele>478.8</ele>
        <time>2021-08-09T11:50:30Z</time>
      </trkpt>
      <trkpt lat="46.56743" lon="5.6742">
        <ele>478.4</ele>
        <time>2021-08-09T11:50:33Z</time>
      </trkpt>
      <trkpt lat="46.56786" lon="5.6748">
        <ele>478.2</ele>
        <time>2021-08-09T11:50:40Z</time>
      </trkpt>
      <trkpt lat="46.56828" lon="5.67538">
        <ele>478.8</ele>
        <time>2021-08-09T11:50:47Z</time>
      </trkpt>
      <trkpt lat="46.5684" lon="5.67555">
        <ele>478.8</ele>
        <time>2021-08-09T11:50:49Z</time>
      </trkpt>
      <trkpt lat="46.56885" lon="5.67617">
        <ele>478.2</ele>
        <time>2021-08-09T11:50:56Z</time>
      </trkpt>
      <trkpt lat="46.56898" lon="5.67635">
        <ele>478</ele>
        <time>2021-08-09T11:50:58Z</time>
      </trkpt>
      <trkpt lat="46.56905" lon="5.67644">
        <ele>477.8</ele>
        <time>2021-08-09T11:50:59Z</time>
      </trkpt>
      <trkpt lat="46.56945" lon="5.67698">
        <ele>476.8</ele>
        <time>2021-08-09T11:51:05Z</time>
      </trkpt>
      <trkpt lat="46.56952" lon="5.67707">
        <ele>476.6</ele>
        <time>2021-08-09T11:51:06Z</time>
      </trkpt>
      <trkpt lat="46.56965" lon="5.67725">
        <ele>476.4</ele>
        <time>2021-08-09T11:51:08Z</time>
      </trkpt>
      <trkpt lat="46.5701" lon="5.67786">
        <ele>475.6</ele>
        <time>2021-08-09T11:51:15Z</time>
      </trkpt>
      <trkpt lat="46.57023" lon="5.67804">
        <ele>475.6</ele>
        <time>2021-08-09T11:51:17Z</time>
      </trkpt>
      <trkpt lat="46.57042" lon="5.6783">
        <ele>475</ele>
        <time>2021-08-09T11:51:20Z</time>
      </trkpt>
      <trkpt lat="46.57086" lon="5.6789">
        <ele>474.6</ele>
        <time>2021-08-09T11:51:27Z</time>
      </trkpt>
      <trkpt lat="46.57112" lon="5.67925">
        <ele>474.6</ele>
        <time>2021-08-09T11:51:31Z</time>
      </trkpt>
      <trkpt lat="46.57156" lon="5.67985">
        <ele>474</ele>
        <time>2021-08-09T11:51:38Z</time>
      </trkpt>
      <trkpt lat="46.57175" lon="5.6801">
        <ele>474</ele>
        <time>2021-08-09T11:51:41Z</time>
      </trkpt>
      <trkpt lat="46.57216" lon="5.68067">
        <ele>473.6</ele>
        <time>2021-08-09T11:51:48Z</time>
      </trkpt>
      <trkpt lat="46.57222" lon="5.68075">
        <ele>473.8</ele>
        <time>2021-08-09T11:51:49Z</time>
      </trkpt>
      <trkpt lat="46.57264" lon="5.68131">
        <ele>474.4</ele>
        <time>2021-08-09T11:51:56Z</time>
      </trkpt>
      <trkpt lat="46.57269" lon="5.68139">
        <ele>474.6</ele>
        <time>2021-08-09T11:51:57Z</time>
      </trkpt>
      <trkpt lat="46.57311" lon="5.68195">
        <ele>475.2</ele>
        <time>2021-08-09T11:52:04Z</time>
      </trkpt>
      <trkpt lat="46.57325" lon="5.68212">
        <ele>475.2</ele>
        <time>2021-08-09T11:52:06Z</time>
      </trkpt>
      <trkpt lat="46.57369" lon="5.68269">
        <ele>474.4</ele>
        <time>2021-08-09T11:52:12Z</time>
      </trkpt>
      <trkpt lat="46.57377" lon="5.68278">
        <ele>474.2</ele>
        <time>2021-08-09T11:52:13Z</time>
      </trkpt>
      <trkpt lat="46.57392" lon="5.68297">
        <ele>473.2</ele>
        <time>2021-08-09T11:52:15Z</time>
      </trkpt>
      <trkpt lat="46.57408" lon="5.68316">
        <ele>472</ele>
        <time>2021-08-09T11:52:17Z</time>
      </trkpt>
      <trkpt lat="46.57431" lon="5.68345">
        <ele>471</ele>
        <time>2021-08-09T11:52:20Z</time>
      </trkpt>
      <trkpt lat="46.57462" lon="5.68384">
        <ele>469.8</ele>
        <time>2021-08-09T11:52:24Z</time>
      </trkpt>
      <trkpt lat="46.57493" lon="5.68423">
        <ele>468.6</ele>
        <time>2021-08-09T11:52:28Z</time>
      </trkpt>
      <trkpt lat="46.57524" lon="5.68462">
        <ele>467</ele>
        <time>2021-08-09T11:52:32Z</time>
      </trkpt>
      <trkpt lat="46.57547" lon="5.68491">
        <ele>466</ele>
        <time>2021-08-09T11:52:35Z</time>
      </trkpt>
      <trkpt lat="46.57555" lon="5.68501">
        <ele>466</ele>
        <time>2021-08-09T11:52:36Z</time>
      </trkpt>
      <trkpt lat="46.57593" lon="5.68547">
        <ele>464.8</ele>
        <time>2021-08-09T11:52:41Z</time>
      </trkpt>
      <trkpt lat="46.5762" lon="5.68582">
        <ele>464.8</ele>
        <time>2021-08-09T11:52:45Z</time>
      </trkpt>
      <trkpt lat="46.57663" lon="5.68637">
        <ele>465.8</ele>
        <time>2021-08-09T11:52:52Z</time>
      </trkpt>
      <trkpt lat="46.57669" lon="5.68645">
        <ele>465.8</ele>
        <time>2021-08-09T11:52:53Z</time>
      </trkpt>
      <trkpt lat="46.57681" lon="5.6866">
        <ele>466</ele>
        <time>2021-08-09T11:52:55Z</time>
      </trkpt>
      <trkpt lat="46.57722" lon="5.68714">
        <ele>466.6</ele>
        <time>2021-08-09T11:53:02Z</time>
      </trkpt>
      <trkpt lat="46.57767" lon="5.68769">
        <ele>466.2</ele>
        <time>2021-08-09T11:53:09Z</time>
      </trkpt>
      <trkpt lat="46.57794" lon="5.68802">
        <ele>466</ele>
        <time>2021-08-09T11:53:13Z</time>
      </trkpt>
      <trkpt lat="46.57839" lon="5.68857">
        <ele>465.4</ele>
        <time>2021-08-09T11:53:20Z</time>
      </trkpt>
      <trkpt lat="46.57846" lon="5.68865">
        <ele>465.4</ele>
        <time>2021-08-09T11:53:21Z</time>
      </trkpt>
      <trkpt lat="46.57886" lon="5.68916">
        <ele>465.8</ele>
        <time>2021-08-09T11:53:28Z</time>
      </trkpt>
      <trkpt lat="46.57898" lon="5.68931">
        <ele>466</ele>
        <time>2021-08-09T11:53:30Z</time>
      </trkpt>
      <trkpt lat="46.57944" lon="5.68988">
        <ele>466.6</ele>
        <time>2021-08-09T11:53:38Z</time>
      </trkpt>
      <trkpt lat="46.5795" lon="5.68996">
        <ele>466.6</ele>
        <time>2021-08-09T11:53:39Z</time>
      </trkpt>
      <trkpt lat="46.57995" lon="5.69051">
        <ele>466</ele>
        <time>2021-08-09T11:53:46Z</time>
      </trkpt>
      <trkpt lat="46.58002" lon="5.6906">
        <ele>466</ele>
        <time>2021-08-09T11:53:47Z</time>
      </trkpt>
      <trkpt lat="46.58029" lon="5.69093">
        <ele>464.8</ele>
        <time>2021-08-09T11:53:51Z</time>
      </trkpt>
      <trkpt lat="46.58056" lon="5.69127">
        <ele>464</ele>
        <time>2021-08-09T11:53:55Z</time>
      </trkpt>
      <trkpt lat="46.5807" lon="5.69143">
        <ele>463.8</ele>
        <time>2021-08-09T11:53:57Z</time>
      </trkpt>
      <trkpt lat="46.58103" lon="5.69184">
        <ele>462.6</ele>
        <time>2021-08-09T11:54:02Z</time>
      </trkpt>
      <trkpt lat="46.58129" lon="5.69218">
        <ele>461.8</ele>
        <time>2021-08-09T11:54:06Z</time>
      </trkpt>
      <trkpt lat="46.58149" lon="5.69242">
        <ele>461.2</ele>
        <time>2021-08-09T11:54:09Z</time>
      </trkpt>
      <trkpt lat="46.58177" lon="5.69274">
        <ele>460.4</ele>
        <time>2021-08-09T11:54:13Z</time>
      </trkpt>
      <trkpt lat="46.58183" lon="5.69282">
        <ele>460.2</ele>
        <time>2021-08-09T11:54:14Z</time>
      </trkpt>
      <trkpt lat="46.58188" lon="5.69291">
        <ele>460.2</ele>
        <time>2021-08-09T11:54:15Z</time>
      </trkpt>
      <trkpt lat="46.58195" lon="5.6931">
        <ele>459.6</ele>
        <time>2021-08-09T11:54:17Z</time>
      </trkpt>
      <trkpt lat="46.58199" lon="5.69319">
        <ele>459.2</ele>
        <time>2021-08-09T11:54:18Z</time>
      </trkpt>
      <trkpt lat="46.58204" lon="5.69327">
        <ele>459</ele>
        <time>2021-08-09T11:54:19Z</time>
      </trkpt>
      <trkpt lat="46.58217" lon="5.69334">
        <ele>458.4</ele>
        <time>2021-08-09T11:54:21Z</time>
      </trkpt>
      <trkpt lat="46.58224" lon="5.69338">
        <ele>458.2</ele>
        <time>2021-08-09T11:54:22Z</time>
      </trkpt>
      <trkpt lat="46.58231" lon="5.69344">
        <ele>458</ele>
        <time>2021-08-09T11:54:23Z</time>
      </trkpt>
      <trkpt lat="46.58238" lon="5.69351">
        <ele>457.8</ele>
        <time>2021-08-09T11:54:24Z</time>
      </trkpt>
      <trkpt lat="46.58259" lon="5.69374">
        <ele>456.8</ele>
        <time>2021-08-09T11:54:27Z</time>
      </trkpt>
      <trkpt lat="46.58288" lon="5.69409">
        <ele>455.6</ele>
        <time>2021-08-09T11:54:31Z</time>
      </trkpt>
      <trkpt lat="46.58312" lon="5.69436">
        <ele>454.4</ele>
        <time>2021-08-09T11:54:34Z</time>
      </trkpt>
      <trkpt lat="46.58336" lon="5.69464">
        <ele>453.2</ele>
        <time>2021-08-09T11:54:37Z</time>
      </trkpt>
      <trkpt lat="46.58352" lon="5.69482">
        <ele>452.2</ele>
        <time>2021-08-09T11:54:39Z</time>
      </trkpt>
      <trkpt lat="46.58369" lon="5.69502">
        <ele>451</ele>
        <time>2021-08-09T11:54:41Z</time>
      </trkpt>
      <trkpt lat="46.58393" lon="5.69531">
        <ele>449.2</ele>
        <time>2021-08-09T11:54:44Z</time>
      </trkpt>
      <trkpt lat="46.58402" lon="5.69541">
        <ele>448.8</ele>
        <time>2021-08-09T11:54:45Z</time>
      </trkpt>
      <trkpt lat="46.58426" lon="5.6957">
        <ele>448</ele>
        <time>2021-08-09T11:54:48Z</time>
      </trkpt>
      <trkpt lat="46.58443" lon="5.69591">
        <ele>446.4</ele>
        <time>2021-08-09T11:54:50Z</time>
      </trkpt>
      <trkpt lat="46.5846" lon="5.69611">
        <ele>445.6</ele>
        <time>2021-08-09T11:54:52Z</time>
      </trkpt>
      <trkpt lat="46.58468" lon="5.6962">
        <ele>445.2</ele>
        <time>2021-08-09T11:54:53Z</time>
      </trkpt>
      <trkpt lat="46.58492" lon="5.69649">
        <ele>444.2</ele>
        <time>2021-08-09T11:54:56Z</time>
      </trkpt>
      <trkpt lat="46.58508" lon="5.69667">
        <ele>443.2</ele>
        <time>2021-08-09T11:54:58Z</time>
      </trkpt>
      <trkpt lat="46.58532" lon="5.69694">
        <ele>442</ele>
        <time>2021-08-09T11:55:01Z</time>
      </trkpt>
      <trkpt lat="46.5855" lon="5.69716">
        <ele>441</ele>
        <time>2021-08-09T11:55:04Z</time>
      </trkpt>
      <trkpt lat="46.58555" lon="5.69721">
        <ele>440.8</ele>
        <time>2021-08-09T11:55:05Z</time>
      </trkpt>
      <trkpt lat="46.58561" lon="5.69729">
        <ele>440.6</ele>
        <time>2021-08-09T11:55:08Z</time>
      </trkpt>
      <trkpt lat="46.58561" lon="5.6973">
        <ele>440.4</ele>
        <time>2021-08-09T11:55:12Z</time>
      </trkpt>
      <trkpt lat="46.58561" lon="5.69736">
        <ele>440.4</ele>
        <time>2021-08-09T11:55:19Z</time>
      </trkpt>
      <trkpt lat="46.58559" lon="5.69745">
        <ele>440.2</ele>
        <time>2021-08-09T11:55:21Z</time>
      </trkpt>
      <trkpt lat="46.58548" lon="5.69781">
        <ele>440.2</ele>
        <time>2021-08-09T11:55:27Z</time>
      </trkpt>
      <trkpt lat="46.58535" lon="5.69824">
        <ele>440</ele>
        <time>2021-08-09T11:55:33Z</time>
      </trkpt>
      <trkpt lat="46.5853" lon="5.69839">
        <ele>440</ele>
        <time>2021-08-09T11:55:35Z</time>
      </trkpt>
      <trkpt lat="46.58515" lon="5.69887">
        <ele>439.8</ele>
        <time>2021-08-09T11:55:41Z</time>
      </trkpt>
      <trkpt lat="46.58497" lon="5.69948">
        <ele>439.8</ele>
        <time>2021-08-09T11:55:48Z</time>
      </trkpt>
      <trkpt lat="46.58496" lon="5.69968">
        <ele>440</ele>
        <time>2021-08-09T11:55:50Z</time>
      </trkpt>
      <trkpt lat="46.58497" lon="5.69987">
        <ele>440</ele>
        <time>2021-08-09T11:55:52Z</time>
      </trkpt>
      <trkpt lat="46.58502" lon="5.70039">
        <ele>440.4</ele>
        <time>2021-08-09T11:55:58Z</time>
      </trkpt>
      <trkpt lat="46.58503" lon="5.70056">
        <ele>441</ele>
        <time>2021-08-09T11:56:00Z</time>
      </trkpt>
      <trkpt lat="46.5851" lon="5.70121">
        <ele>442</ele>
        <time>2021-08-09T11:56:07Z</time>
      </trkpt>
      <trkpt lat="46.58513" lon="5.70138">
        <ele>442.2</ele>
        <time>2021-08-09T11:56:09Z</time>
      </trkpt>
      <trkpt lat="46.58515" lon="5.70154">
        <ele>442.2</ele>
        <time>2021-08-09T11:56:11Z</time>
      </trkpt>
      <trkpt lat="46.58514" lon="5.7016">
        <ele>442.4</ele>
        <time>2021-08-09T11:56:12Z</time>
      </trkpt>
      <trkpt lat="46.58511" lon="5.70162">
        <ele>442.4</ele>
        <time>2021-08-09T11:56:13Z</time>
      </trkpt>
      <trkpt lat="46.58507" lon="5.70163">
        <ele>442.4</ele>
        <time>2021-08-09T11:56:14Z</time>
      </trkpt>
      <trkpt lat="46.58477" lon="5.70166">
        <ele>442.4</ele>
        <time>2021-08-09T11:56:19Z</time>
      </trkpt>
      <trkpt lat="46.58464" lon="5.70166">
        <ele>442.6</ele>
        <time>2021-08-09T11:56:21Z</time>
      </trkpt>
      <trkpt lat="46.58444" lon="5.7017">
        <ele>442.8</ele>
        <time>2021-08-09T11:56:24Z</time>
      </trkpt>
      <trkpt lat="46.58401" lon="5.70185">
        <ele>442.4</ele>
        <time>2021-08-09T11:56:30Z</time>
      </trkpt>
      <trkpt lat="46.58362" lon="5.70208">
        <ele>441.6</ele>
        <time>2021-08-09T11:56:35Z</time>
      </trkpt>
      <trkpt lat="46.58332" lon="5.70228">
        <ele>441</ele>
        <time>2021-08-09T11:56:39Z</time>
      </trkpt>
      <trkpt lat="46.5831" lon="5.70246">
        <ele>440.4</ele>
        <time>2021-08-09T11:56:42Z</time>
      </trkpt>
      <trkpt lat="46.58296" lon="5.70257">
        <ele>439.8</ele>
        <time>2021-08-09T11:56:44Z</time>
      </trkpt>
      <trkpt lat="46.58281" lon="5.70268">
        <ele>439.4</ele>
        <time>2021-08-09T11:56:46Z</time>
      </trkpt>
      <trkpt lat="46.58261" lon="5.70284">
        <ele>439.4</ele>
        <time>2021-08-09T11:56:49Z</time>
      </trkpt>
      <trkpt lat="46.58219" lon="5.70319">
        <ele>439.4</ele>
        <time>2021-08-09T11:56:56Z</time>
      </trkpt>
      <trkpt lat="46.58207" lon="5.70328">
        <ele>439.8</ele>
        <time>2021-08-09T11:56:58Z</time>
      </trkpt>
      <trkpt lat="46.58189" lon="5.70339">
        <ele>440.4</ele>
        <time>2021-08-09T11:57:01Z</time>
      </trkpt>
      <trkpt lat="46.58179" lon="5.70348">
        <ele>440.8</ele>
        <time>2021-08-09T11:57:03Z</time>
      </trkpt>
      <trkpt lat="46.58173" lon="5.70351">
        <ele>441</ele>
        <time>2021-08-09T11:57:04Z</time>
      </trkpt>
      <trkpt lat="46.58162" lon="5.7036">
        <ele>441.2</ele>
        <time>2021-08-09T11:57:06Z</time>
      </trkpt>
      <trkpt lat="46.58117" lon="5.70394">
        <ele>442</ele>
        <time>2021-08-09T11:57:14Z</time>
      </trkpt>
      <trkpt lat="46.58111" lon="5.70398">
        <ele>442</ele>
        <time>2021-08-09T11:57:15Z</time>
      </trkpt>
      <trkpt lat="46.58085" lon="5.70406">
        <ele>442</ele>
        <time>2021-08-09T11:57:19Z</time>
      </trkpt>
      <trkpt lat="46.58027" lon="5.70416">
        <ele>442.2</ele>
        <time>2021-08-09T11:57:28Z</time>
      </trkpt>
      <trkpt lat="46.57998" lon="5.70416">
        <ele>443.4</ele>
        <time>2021-08-09T11:57:33Z</time>
      </trkpt>
      <trkpt lat="46.57977" lon="5.70419">
        <ele>444.6</ele>
        <time>2021-08-09T11:57:37Z</time>
      </trkpt>
      <trkpt lat="46.57963" lon="5.70421">
        <ele>445.2</ele>
        <time>2021-08-09T11:57:40Z</time>
      </trkpt>
      <trkpt lat="46.57958" lon="5.70421">
        <ele>445.8</ele>
        <time>2021-08-09T11:57:41Z</time>
      </trkpt>
      <trkpt lat="46.57944" lon="5.70423">
        <ele>446.8</ele>
        <time>2021-08-09T11:57:44Z</time>
      </trkpt>
      <trkpt lat="46.57925" lon="5.70429">
        <ele>448</ele>
        <time>2021-08-09T11:57:48Z</time>
      </trkpt>
      <trkpt lat="46.57913" lon="5.70435">
        <ele>449.2</ele>
        <time>2021-08-09T11:57:51Z</time>
      </trkpt>
      <trkpt lat="46.57904" lon="5.70441">
        <ele>449.4</ele>
        <time>2021-08-09T11:57:53Z</time>
      </trkpt>
      <trkpt lat="46.57896" lon="5.70448">
        <ele>450.2</ele>
        <time>2021-08-09T11:57:55Z</time>
      </trkpt>
      <trkpt lat="46.57891" lon="5.70452">
        <ele>450.4</ele>
        <time>2021-08-09T11:57:56Z</time>
      </trkpt>
      <trkpt lat="46.57882" lon="5.70458">
        <ele>450.6</ele>
        <time>2021-08-09T11:57:58Z</time>
      </trkpt>
      <trkpt lat="46.57876" lon="5.70461">
        <ele>450.8</ele>
        <time>2021-08-09T11:57:59Z</time>
      </trkpt>
      <trkpt lat="46.5786" lon="5.70469">
        <ele>451.4</ele>
        <time>2021-08-09T11:58:02Z</time>
      </trkpt>
      <trkpt lat="46.57833" lon="5.70482">
        <ele>452.2</ele>
        <time>2021-08-09T11:58:07Z</time>
      </trkpt>
      <trkpt lat="46.57829" lon="5.70483">
        <ele>452.4</ele>
        <time>2021-08-09T11:58:08Z</time>
      </trkpt>
      <trkpt lat="46.5781" lon="5.70485">
        <ele>453.4</ele>
        <time>2021-08-09T11:58:12Z</time>
      </trkpt>
      <trkpt lat="46.57806" lon="5.70485">
        <ele>453.6</ele>
        <time>2021-08-09T11:58:13Z</time>
      </trkpt>
      <trkpt lat="46.57789" lon="5.70485">
        <ele>454.8</ele>
        <time>2021-08-09T11:58:17Z</time>
      </trkpt>
      <trkpt lat="46.57775" lon="5.70485">
        <ele>455.8</ele>
        <time>2021-08-09T11:58:21Z</time>
      </trkpt>
      <trkpt lat="46.57771" lon="5.70485">
        <ele>456</ele>
        <time>2021-08-09T11:58:22Z</time>
      </trkpt>
      <trkpt lat="46.57757" lon="5.70487">
        <ele>457.2</ele>
        <time>2021-08-09T11:58:26Z</time>
      </trkpt>
      <trkpt lat="46.57754" lon="5.70488">
        <ele>457.4</ele>
        <time>2021-08-09T11:58:27Z</time>
      </trkpt>
      <trkpt lat="46.57748" lon="5.70493">
        <ele>458.4</ele>
        <time>2021-08-09T11:58:29Z</time>
      </trkpt>
      <trkpt lat="46.57736" lon="5.70503">
        <ele>459.6</ele>
        <time>2021-08-09T11:58:32Z</time>
      </trkpt>
      <trkpt lat="46.57732" lon="5.70506">
        <ele>459.6</ele>
        <time>2021-08-09T11:58:33Z</time>
      </trkpt>
      <trkpt lat="46.57713" lon="5.70527">
        <ele>461</ele>
        <time>2021-08-09T11:58:39Z</time>
      </trkpt>
      <trkpt lat="46.577" lon="5.70541">
        <ele>461.6</ele>
        <time>2021-08-09T11:58:43Z</time>
      </trkpt>
      <trkpt lat="46.5769" lon="5.70551">
        <ele>462.2</ele>
        <time>2021-08-09T11:58:46Z</time>
      </trkpt>
      <trkpt lat="46.57671" lon="5.7057">
        <ele>463.4</ele>
        <time>2021-08-09T11:58:52Z</time>
      </trkpt>
      <trkpt lat="46.57665" lon="5.70576">
        <ele>464</ele>
        <time>2021-08-09T11:58:54Z</time>
      </trkpt>
      <trkpt lat="46.57654" lon="5.70587">
        <ele>464.4</ele>
        <time>2021-08-09T11:58:57Z</time>
      </trkpt>
      <trkpt lat="46.57642" lon="5.70601">
        <ele>465.6</ele>
        <time>2021-08-09T11:59:01Z</time>
      </trkpt>
      <trkpt lat="46.57625" lon="5.70617">
        <ele>466</ele>
        <time>2021-08-09T11:59:06Z</time>
      </trkpt>
      <trkpt lat="46.57618" lon="5.70625">
        <ele>466.8</ele>
        <time>2021-08-09T11:59:08Z</time>
      </trkpt>
      <trkpt lat="46.57598" lon="5.70646">
        <ele>467.8</ele>
        <time>2021-08-09T11:59:14Z</time>
      </trkpt>
      <trkpt lat="46.57595" lon="5.70649">
        <ele>468</ele>
        <time>2021-08-09T11:59:15Z</time>
      </trkpt>
      <trkpt lat="46.57581" lon="5.70663">
        <ele>469</ele>
        <time>2021-08-09T11:59:19Z</time>
      </trkpt>
      <trkpt lat="46.57564" lon="5.70676">
        <ele>469.8</ele>
        <time>2021-08-09T11:59:24Z</time>
      </trkpt>
      <trkpt lat="46.57557" lon="5.7068">
        <ele>470.2</ele>
        <time>2021-08-09T11:59:26Z</time>
      </trkpt>
      <trkpt lat="46.57538" lon="5.70686">
        <ele>471.8</ele>
        <time>2021-08-09T11:59:31Z</time>
      </trkpt>
      <trkpt lat="46.57531" lon="5.70688">
        <ele>472.2</ele>
        <time>2021-08-09T11:59:33Z</time>
      </trkpt>
      <trkpt lat="46.57523" lon="5.70691">
        <ele>472.8</ele>
        <time>2021-08-09T11:59:35Z</time>
      </trkpt>
      <trkpt lat="46.57504" lon="5.70702">
        <ele>473.6</ele>
        <time>2021-08-09T11:59:40Z</time>
      </trkpt>
      <trkpt lat="46.575" lon="5.70704">
        <ele>473.8</ele>
        <time>2021-08-09T11:59:41Z</time>
      </trkpt>
      <trkpt lat="46.57484" lon="5.70714">
        <ele>475</ele>
        <time>2021-08-09T11:59:45Z</time>
      </trkpt>
      <trkpt lat="46.57474" lon="5.70724">
        <ele>475.8</ele>
        <time>2021-08-09T11:59:48Z</time>
      </trkpt>
      <trkpt lat="46.5747" lon="5.70727">
        <ele>476</ele>
        <time>2021-08-09T11:59:49Z</time>
      </trkpt>
      <trkpt lat="46.57451" lon="5.70741">
        <ele>477.2</ele>
        <time>2021-08-09T11:59:54Z</time>
      </trkpt>
      <trkpt lat="46.57432" lon="5.70758">
        <ele>478.4</ele>
        <time>2021-08-09T11:59:59Z</time>
      </trkpt>
      <trkpt lat="46.57428" lon="5.70762">
        <ele>478.8</ele>
        <time>2021-08-09T12:00:00Z</time>
      </trkpt>
      <trkpt lat="46.57417" lon="5.70771">
        <ele>479.6</ele>
        <time>2021-08-09T12:00:03Z</time>
      </trkpt>
      <trkpt lat="46.57405" lon="5.70782">
        <ele>480</ele>
        <time>2021-08-09T12:00:06Z</time>
      </trkpt>
      <trkpt lat="46.5739" lon="5.70795">
        <ele>480.8</ele>
        <time>2021-08-09T12:00:10Z</time>
      </trkpt>
      <trkpt lat="46.57358" lon="5.70822">
        <ele>481.8</ele>
        <time>2021-08-09T12:00:18Z</time>
      </trkpt>
      <trkpt lat="46.57353" lon="5.70825">
        <ele>482</ele>
        <time>2021-08-09T12:00:19Z</time>
      </trkpt>
      <trkpt lat="46.57323" lon="5.70849">
        <ele>482.8</ele>
        <time>2021-08-09T12:00:26Z</time>
      </trkpt>
      <trkpt lat="46.57315" lon="5.70855">
        <ele>483.2</ele>
        <time>2021-08-09T12:00:28Z</time>
      </trkpt>
      <trkpt lat="46.57312" lon="5.70858">
        <ele>483.4</ele>
        <time>2021-08-09T12:00:29Z</time>
      </trkpt>
      <trkpt lat="46.57299" lon="5.70868">
        <ele>483.8</ele>
        <time>2021-08-09T12:00:32Z</time>
      </trkpt>
      <trkpt lat="46.57276" lon="5.70884">
        <ele>484.2</ele>
        <time>2021-08-09T12:00:37Z</time>
      </trkpt>
      <trkpt lat="46.57258" lon="5.70899">
        <ele>484.6</ele>
        <time>2021-08-09T12:00:41Z</time>
      </trkpt>
      <trkpt lat="46.57239" lon="5.70913">
        <ele>485</ele>
        <time>2021-08-09T12:00:45Z</time>
      </trkpt>
      <trkpt lat="46.57224" lon="5.70922">
        <ele>485.2</ele>
        <time>2021-08-09T12:00:48Z</time>
      </trkpt>
      <trkpt lat="46.57219" lon="5.70925">
        <ele>485.4</ele>
        <time>2021-08-09T12:00:49Z</time>
      </trkpt>
      <trkpt lat="46.57177" lon="5.70946">
        <ele>486.4</ele>
        <time>2021-08-09T12:00:57Z</time>
      </trkpt>
      <trkpt lat="46.57172" lon="5.70949">
        <ele>486.4</ele>
        <time>2021-08-09T12:00:58Z</time>
      </trkpt>
      <trkpt lat="46.57125" lon="5.70971">
        <ele>487.4</ele>
        <time>2021-08-09T12:01:07Z</time>
      </trkpt>
      <trkpt lat="46.57094" lon="5.70986">
        <ele>488.6</ele>
        <time>2021-08-09T12:01:13Z</time>
      </trkpt>
      <trkpt lat="46.57079" lon="5.70993">
        <ele>488.8</ele>
        <time>2021-08-09T12:01:16Z</time>
      </trkpt>
      <trkpt lat="46.57058" lon="5.71002">
        <ele>489.6</ele>
        <time>2021-08-09T12:01:20Z</time>
      </trkpt>
      <trkpt lat="46.57036" lon="5.71009">
        <ele>490</ele>
        <time>2021-08-09T12:01:24Z</time>
      </trkpt>
      <trkpt lat="46.56999" lon="5.71025">
        <ele>490</ele>
        <time>2021-08-09T12:01:30Z</time>
      </trkpt>
      <trkpt lat="46.56994" lon="5.7103">
        <ele>490</ele>
        <time>2021-08-09T12:01:31Z</time>
      </trkpt>
      <trkpt lat="46.56985" lon="5.71045">
        <ele>490</ele>
        <time>2021-08-09T12:01:33Z</time>
      </trkpt>
      <trkpt lat="46.56981" lon="5.71065">
        <ele>490</ele>
        <time>2021-08-09T12:01:35Z</time>
      </trkpt>
      <trkpt lat="46.56979" lon="5.71086">
        <ele>489.6</ele>
        <time>2021-08-09T12:01:37Z</time>
      </trkpt>
      <trkpt lat="46.56977" lon="5.71174">
        <ele>489.4</ele>
        <time>2021-08-09T12:01:45Z</time>
      </trkpt>
      <trkpt lat="46.56975" lon="5.71195">
        <ele>489</ele>
        <time>2021-08-09T12:01:47Z</time>
      </trkpt>
      <trkpt lat="46.56971" lon="5.71283">
        <ele>489.2</ele>
        <time>2021-08-09T12:01:55Z</time>
      </trkpt>
      <trkpt lat="46.56969" lon="5.71304">
        <ele>489.4</ele>
        <time>2021-08-09T12:01:57Z</time>
      </trkpt>
      <trkpt lat="46.5696" lon="5.71386">
        <ele>489.8</ele>
        <time>2021-08-09T12:02:05Z</time>
      </trkpt>
      <trkpt lat="46.56958" lon="5.71396">
        <ele>490</ele>
        <time>2021-08-09T12:02:06Z</time>
      </trkpt>
      <trkpt lat="46.56943" lon="5.71451">
        <ele>490.4</ele>
        <time>2021-08-09T12:02:12Z</time>
      </trkpt>
      <trkpt lat="46.56913" lon="5.71523">
        <ele>490.8</ele>
        <time>2021-08-09T12:02:20Z</time>
      </trkpt>
      <trkpt lat="46.56881" lon="5.71592">
        <ele>490.2</ele>
        <time>2021-08-09T12:02:27Z</time>
      </trkpt>
      <trkpt lat="46.5685" lon="5.71662">
        <ele>489.2</ele>
        <time>2021-08-09T12:02:34Z</time>
      </trkpt>
      <trkpt lat="46.56836" lon="5.7169">
        <ele>489.2</ele>
        <time>2021-08-09T12:02:37Z</time>
      </trkpt>
      <trkpt lat="46.56804" lon="5.71758">
        <ele>488.8</ele>
        <time>2021-08-09T12:02:44Z</time>
      </trkpt>
      <trkpt lat="46.568" lon="5.71768">
        <ele>488.8</ele>
        <time>2021-08-09T12:02:45Z</time>
      </trkpt>
      <trkpt lat="46.56786" lon="5.71798">
        <ele>488.4</ele>
        <time>2021-08-09T12:02:48Z</time>
      </trkpt>
      <trkpt lat="46.56754" lon="5.71869">
        <ele>487.8</ele>
        <time>2021-08-09T12:02:55Z</time>
      </trkpt>
      <trkpt lat="46.56749" lon="5.71879">
        <ele>487.8</ele>
        <time>2021-08-09T12:02:56Z</time>
      </trkpt>
      <trkpt lat="46.56726" lon="5.71927">
        <ele>487.2</ele>
        <time>2021-08-09T12:03:01Z</time>
      </trkpt>
      <trkpt lat="46.56704" lon="5.71977">
        <ele>486.8</ele>
        <time>2021-08-09T12:03:06Z</time>
      </trkpt>
      <trkpt lat="46.56686" lon="5.72015">
        <ele>486.4</ele>
        <time>2021-08-09T12:03:10Z</time>
      </trkpt>
      <trkpt lat="46.56656" lon="5.72074">
        <ele>486.2</ele>
        <time>2021-08-09T12:03:17Z</time>
      </trkpt>
      <trkpt lat="46.56618" lon="5.72133">
        <ele>486.6</ele>
        <time>2021-08-09T12:03:25Z</time>
      </trkpt>
      <trkpt lat="46.56613" lon="5.7214">
        <ele>486.6</ele>
        <time>2021-08-09T12:03:26Z</time>
      </trkpt>
      <trkpt lat="46.56567" lon="5.72194">
        <ele>486.8</ele>
        <time>2021-08-09T12:03:34Z</time>
      </trkpt>
      <trkpt lat="46.56529" lon="5.7223">
        <ele>486.8</ele>
        <time>2021-08-09T12:03:40Z</time>
      </trkpt>
      <trkpt lat="46.56477" lon="5.72265">
        <ele>486.4</ele>
        <time>2021-08-09T12:03:48Z</time>
      </trkpt>
      <trkpt lat="46.56464" lon="5.72274">
        <ele>486.4</ele>
        <time>2021-08-09T12:03:50Z</time>
      </trkpt>
      <trkpt lat="46.56411" lon="5.72311">
        <ele>486.2</ele>
        <time>2021-08-09T12:03:58Z</time>
      </trkpt>
      <trkpt lat="46.56397" lon="5.72321">
        <ele>486.2</ele>
        <time>2021-08-09T12:04:00Z</time>
      </trkpt>
      <trkpt lat="46.56344" lon="5.72356">
        <ele>486.2</ele>
        <time>2021-08-09T12:04:08Z</time>
      </trkpt>
      <trkpt lat="46.5632" lon="5.72372">
        <ele>486.6</ele>
        <time>2021-08-09T12:04:12Z</time>
      </trkpt>
      <trkpt lat="46.56267" lon="5.72407">
        <ele>487.4</ele>
        <time>2021-08-09T12:04:21Z</time>
      </trkpt>
      <trkpt lat="46.56261" lon="5.72411">
        <ele>487.4</ele>
        <time>2021-08-09T12:04:22Z</time>
      </trkpt>
      <trkpt lat="46.56244" lon="5.72422">
        <ele>488</ele>
        <time>2021-08-09T12:04:25Z</time>
      </trkpt>
      <trkpt lat="46.56215" lon="5.72442">
        <ele>488.4</ele>
        <time>2021-08-09T12:04:30Z</time>
      </trkpt>
      <trkpt lat="46.56162" lon="5.72477">
        <ele>488.8</ele>
        <time>2021-08-09T12:04:39Z</time>
      </trkpt>
      <trkpt lat="46.5615" lon="5.72485">
        <ele>489</ele>
        <time>2021-08-09T12:04:41Z</time>
      </trkpt>
      <trkpt lat="46.56144" lon="5.72489">
        <ele>489</ele>
        <time>2021-08-09T12:04:42Z</time>
      </trkpt>
      <trkpt lat="46.56092" lon="5.72524">
        <ele>489.8</ele>
        <time>2021-08-09T12:04:51Z</time>
      </trkpt>
      <trkpt lat="46.56057" lon="5.72548">
        <ele>490.2</ele>
        <time>2021-08-09T12:04:57Z</time>
      </trkpt>
      <trkpt lat="46.56036" lon="5.72562">
        <ele>490.6</ele>
        <time>2021-08-09T12:05:01Z</time>
      </trkpt>
      <trkpt lat="46.5601" lon="5.72579">
        <ele>491.2</ele>
        <time>2021-08-09T12:05:06Z</time>
      </trkpt>
      <trkpt lat="46.55989" lon="5.72593">
        <ele>491.6</ele>
        <time>2021-08-09T12:05:10Z</time>
      </trkpt>
      <trkpt lat="46.55973" lon="5.72603">
        <ele>492.2</ele>
        <time>2021-08-09T12:05:13Z</time>
      </trkpt>
      <trkpt lat="46.55964" lon="5.72612">
        <ele>492.8</ele>
        <time>2021-08-09T12:05:15Z</time>
      </trkpt>
      <trkpt lat="46.55957" lon="5.72624">
        <ele>493.2</ele>
        <time>2021-08-09T12:05:17Z</time>
      </trkpt>
      <trkpt lat="46.55961" lon="5.72638">
        <ele>493.4</ele>
        <time>2021-08-09T12:05:19Z</time>
      </trkpt>
      <trkpt lat="46.55987" lon="5.72674">
        <ele>494</ele>
        <time>2021-08-09T12:05:25Z</time>
      </trkpt>
      <trkpt lat="46.56012" lon="5.72706">
        <ele>494.4</ele>
        <time>2021-08-09T12:05:30Z</time>
      </trkpt>
      <trkpt lat="46.56031" lon="5.72731">
        <ele>494.4</ele>
        <time>2021-08-09T12:05:34Z</time>
      </trkpt>
      <trkpt lat="46.56056" lon="5.72765">
        <ele>495</ele>
        <time>2021-08-09T12:05:40Z</time>
      </trkpt>
      <trkpt lat="46.56065" lon="5.72776">
        <ele>495.4</ele>
        <time>2021-08-09T12:05:42Z</time>
      </trkpt>
      <trkpt lat="46.56086" lon="5.72804">
        <ele>496.6</ele>
        <time>2021-08-09T12:05:47Z</time>
      </trkpt>
      <trkpt lat="46.56095" lon="5.72815">
        <ele>497</ele>
        <time>2021-08-09T12:05:49Z</time>
      </trkpt>
      <trkpt lat="46.56111" lon="5.72837">
        <ele>497.8</ele>
        <time>2021-08-09T12:05:53Z</time>
      </trkpt>
      <trkpt lat="46.56122" lon="5.72853">
        <ele>498.4</ele>
        <time>2021-08-09T12:05:56Z</time>
      </trkpt>
      <trkpt lat="46.56133" lon="5.72868">
        <ele>498.8</ele>
        <time>2021-08-09T12:05:59Z</time>
      </trkpt>
      <trkpt lat="46.56142" lon="5.7288">
        <ele>499.6</ele>
        <time>2021-08-09T12:06:02Z</time>
      </trkpt>
      <trkpt lat="46.56145" lon="5.72883">
        <ele>500</ele>
        <time>2021-08-09T12:06:03Z</time>
      </trkpt>
      <trkpt lat="46.56153" lon="5.72893">
        <ele>500.8</ele>
        <time>2021-08-09T12:06:08Z</time>
      </trkpt>
      <trkpt lat="46.56153" lon="5.72893">
        <ele>501</ele>
        <time>2021-08-09T12:06:09Z</time>
      </trkpt>
      <trkpt lat="46.56153" lon="5.72893">
        <ele>501.2</ele>
        <time>2021-08-09T12:06:10Z</time>
      </trkpt>
      <trkpt lat="46.5616" lon="5.729">
        <ele>501.2</ele>
        <time>2021-08-09T12:06:46Z</time>
      </trkpt>
      <trkpt lat="46.56163" lon="5.72903">
        <ele>501.2</ele>
        <time>2021-08-09T12:06:47Z</time>
      </trkpt>
      <trkpt lat="46.5618" lon="5.72918">
        <ele>501.2</ele>
        <time>2021-08-09T12:06:51Z</time>
      </trkpt>
      <trkpt lat="46.56185" lon="5.7292">
        <ele>501.2</ele>
        <time>2021-08-09T12:06:52Z</time>
      </trkpt>
      <trkpt lat="46.56196" lon="5.72924">
        <ele>501.2</ele>
        <time>2021-08-09T12:06:54Z</time>
      </trkpt>
      <trkpt lat="46.56207" lon="5.72925">
        <ele>501</ele>
        <time>2021-08-09T12:06:56Z</time>
      </trkpt>
      <trkpt lat="46.56251" lon="5.72926">
        <ele>500.8</ele>
        <time>2021-08-09T12:07:04Z</time>
      </trkpt>
      <trkpt lat="46.56274" lon="5.72928">
        <ele>501.8</ele>
        <time>2021-08-09T12:07:09Z</time>
      </trkpt>
      <trkpt lat="46.56282" lon="5.7293">
        <ele>502</ele>
        <time>2021-08-09T12:07:11Z</time>
      </trkpt>
      <trkpt lat="46.56294" lon="5.72932">
        <ele>503.2</ele>
        <time>2021-08-09T12:07:14Z</time>
      </trkpt>
      <trkpt lat="46.56301" lon="5.72934">
        <ele>504</ele>
        <time>2021-08-09T12:07:16Z</time>
      </trkpt>
      <trkpt lat="46.56305" lon="5.72935">
        <ele>504.6</ele>
        <time>2021-08-09T12:07:17Z</time>
      </trkpt>
      <trkpt lat="46.5632" lon="5.72939">
        <ele>505.8</ele>
        <time>2021-08-09T12:07:21Z</time>
      </trkpt>
      <trkpt lat="46.56333" lon="5.72944">
        <ele>506.4</ele>
        <time>2021-08-09T12:07:24Z</time>
      </trkpt>
      <trkpt lat="46.56349" lon="5.72953">
        <ele>507</ele>
        <time>2021-08-09T12:07:28Z</time>
      </trkpt>
      <trkpt lat="46.56352" lon="5.72957">
        <ele>507.4</ele>
        <time>2021-08-09T12:07:29Z</time>
      </trkpt>
      <trkpt lat="46.56354" lon="5.72962">
        <ele>507.8</ele>
        <time>2021-08-09T12:07:30Z</time>
      </trkpt>
      <trkpt lat="46.56353" lon="5.72973">
        <ele>508</ele>
        <time>2021-08-09T12:07:32Z</time>
      </trkpt>
      <trkpt lat="46.56351" lon="5.72977">
        <ele>508.2</ele>
        <time>2021-08-09T12:07:33Z</time>
      </trkpt>
      <trkpt lat="46.56345" lon="5.72982">
        <ele>508.8</ele>
        <time>2021-08-09T12:07:35Z</time>
      </trkpt>
      <trkpt lat="46.56337" lon="5.72984">
        <ele>509.4</ele>
        <time>2021-08-09T12:07:37Z</time>
      </trkpt>
      <trkpt lat="46.56325" lon="5.72986">
        <ele>510.4</ele>
        <time>2021-08-09T12:07:40Z</time>
      </trkpt>
      <trkpt lat="46.56317" lon="5.72988">
        <ele>511</ele>
        <time>2021-08-09T12:07:42Z</time>
      </trkpt>
      <trkpt lat="46.56306" lon="5.72992">
        <ele>511.6</ele>
        <time>2021-08-09T12:07:45Z</time>
      </trkpt>
      <trkpt lat="46.56289" lon="5.73003">
        <ele>512.6</ele>
        <time>2021-08-09T12:07:50Z</time>
      </trkpt>
      <trkpt lat="46.56279" lon="5.73021">
        <ele>513.6</ele>
        <time>2021-08-09T12:07:54Z</time>
      </trkpt>
      <trkpt lat="46.56276" lon="5.73052">
        <ele>514.6</ele>
        <time>2021-08-09T12:08:00Z</time>
      </trkpt>
      <trkpt lat="46.56277" lon="5.73079">
        <ele>515.8</ele>
        <time>2021-08-09T12:08:05Z</time>
      </trkpt>
      <trkpt lat="46.56277" lon="5.73115">
        <ele>516.8</ele>
        <time>2021-08-09T12:08:11Z</time>
      </trkpt>
      <trkpt lat="46.56277" lon="5.73136">
        <ele>518</ele>
        <time>2021-08-09T12:08:15Z</time>
      </trkpt>
      <trkpt lat="46.56277" lon="5.73141">
        <ele>518.2</ele>
        <time>2021-08-09T12:08:16Z</time>
      </trkpt>
      <trkpt lat="46.56283" lon="5.73167">
        <ele>519.2</ele>
        <time>2021-08-09T12:08:21Z</time>
      </trkpt>
      <trkpt lat="46.56287" lon="5.73182">
        <ele>520</ele>
        <time>2021-08-09T12:08:24Z</time>
      </trkpt>
      <trkpt lat="46.56289" lon="5.73187">
        <ele>520.2</ele>
        <time>2021-08-09T12:08:25Z</time>
      </trkpt>
      <trkpt lat="46.56304" lon="5.73218">
        <ele>521.2</ele>
        <time>2021-08-09T12:08:31Z</time>
      </trkpt>
      <trkpt lat="46.56306" lon="5.73223">
        <ele>521.2</ele>
        <time>2021-08-09T12:08:32Z</time>
      </trkpt>
      <trkpt lat="46.56313" lon="5.7324">
        <ele>521.6</ele>
        <time>2021-08-09T12:08:35Z</time>
      </trkpt>
      <trkpt lat="46.56317" lon="5.73259">
        <ele>522</ele>
        <time>2021-08-09T12:08:38Z</time>
      </trkpt>
      <trkpt lat="46.56319" lon="5.73266">
        <ele>522.2</ele>
        <time>2021-08-09T12:08:39Z</time>
      </trkpt>
      <trkpt lat="46.56319" lon="5.73273">
        <ele>522.4</ele>
        <time>2021-08-09T12:08:40Z</time>
      </trkpt>
      <trkpt lat="46.5632" lon="5.7328">
        <ele>522.4</ele>
        <time>2021-08-09T12:08:41Z</time>
      </trkpt>
      <trkpt lat="46.5632" lon="5.73293">
        <ele>522.8</ele>
        <time>2021-08-09T12:08:43Z</time>
      </trkpt>
      <trkpt lat="46.56319" lon="5.73307">
        <ele>523</ele>
        <time>2021-08-09T12:08:45Z</time>
      </trkpt>
      <trkpt lat="46.56317" lon="5.7332">
        <ele>523.6</ele>
        <time>2021-08-09T12:08:47Z</time>
      </trkpt>
      <trkpt lat="46.56316" lon="5.73333">
        <ele>524</ele>
        <time>2021-08-09T12:08:49Z</time>
      </trkpt>
      <trkpt lat="46.5631" lon="5.73373">
        <ele>524.6</ele>
        <time>2021-08-09T12:08:55Z</time>
      </trkpt>
      <trkpt lat="46.56308" lon="5.73393">
        <ele>525</ele>
        <time>2021-08-09T12:08:58Z</time>
      </trkpt>
      <trkpt lat="46.56304" lon="5.7343">
        <ele>525.8</ele>
        <time>2021-08-09T12:09:03Z</time>
      </trkpt>
      <trkpt lat="46.56304" lon="5.73453">
        <ele>526.4</ele>
        <time>2021-08-09T12:09:06Z</time>
      </trkpt>
      <trkpt lat="46.56305" lon="5.73484">
        <ele>527</ele>
        <time>2021-08-09T12:09:10Z</time>
      </trkpt>
      <trkpt lat="46.56304" lon="5.73514">
        <ele>527.4</ele>
        <time>2021-08-09T12:09:14Z</time>
      </trkpt>
      <trkpt lat="46.56302" lon="5.73522">
        <ele>527.4</ele>
        <time>2021-08-09T12:09:15Z</time>
      </trkpt>
      <trkpt lat="46.56299" lon="5.73537">
        <ele>527.6</ele>
        <time>2021-08-09T12:09:17Z</time>
      </trkpt>
      <trkpt lat="46.56295" lon="5.7355">
        <ele>527.6</ele>
        <time>2021-08-09T12:09:19Z</time>
      </trkpt>
      <trkpt lat="46.56287" lon="5.73571">
        <ele>528.2</ele>
        <time>2021-08-09T12:09:22Z</time>
      </trkpt>
      <trkpt lat="46.56273" lon="5.736">
        <ele>529</ele>
        <time>2021-08-09T12:09:27Z</time>
      </trkpt>
      <trkpt lat="46.56261" lon="5.73623">
        <ele>529.2</ele>
        <time>2021-08-09T12:09:31Z</time>
      </trkpt>
      <trkpt lat="46.56251" lon="5.73647">
        <ele>530</ele>
        <time>2021-08-09T12:09:35Z</time>
      </trkpt>
      <trkpt lat="46.56249" lon="5.73653">
        <ele>530.4</ele>
        <time>2021-08-09T12:09:36Z</time>
      </trkpt>
      <trkpt lat="46.56243" lon="5.73682">
        <ele>530.8</ele>
        <time>2021-08-09T12:09:40Z</time>
      </trkpt>
      <trkpt lat="46.56247" lon="5.7372">
        <ele>531.2</ele>
        <time>2021-08-09T12:09:45Z</time>
      </trkpt>
      <trkpt lat="46.56252" lon="5.7374">
        <ele>531.4</ele>
        <time>2021-08-09T12:09:48Z</time>
      </trkpt>
      <trkpt lat="46.56257" lon="5.73753">
        <ele>531.8</ele>
        <time>2021-08-09T12:09:50Z</time>
      </trkpt>
      <trkpt lat="46.56261" lon="5.73759">
        <ele>532</ele>
        <time>2021-08-09T12:09:51Z</time>
      </trkpt>
      <trkpt lat="46.56265" lon="5.73763">
        <ele>532.4</ele>
        <time>2021-08-09T12:09:52Z</time>
      </trkpt>
      <trkpt lat="46.56269" lon="5.73767">
        <ele>532.6</ele>
        <time>2021-08-09T12:09:53Z</time>
      </trkpt>
      <trkpt lat="46.56278" lon="5.73775">
        <ele>533</ele>
        <time>2021-08-09T12:09:55Z</time>
      </trkpt>
      <trkpt lat="46.56297" lon="5.73798">
        <ele>533.6</ele>
        <time>2021-08-09T12:10:00Z</time>
      </trkpt>
      <trkpt lat="46.56327" lon="5.7383">
        <ele>534.6</ele>
        <time>2021-08-09T12:10:07Z</time>
      </trkpt>
      <trkpt lat="46.56331" lon="5.73835">
        <ele>534.8</ele>
        <time>2021-08-09T12:10:08Z</time>
      </trkpt>
      <trkpt lat="46.56367" lon="5.73877">
        <ele>535.8</ele>
        <time>2021-08-09T12:10:16Z</time>
      </trkpt>
      <trkpt lat="46.56371" lon="5.73882">
        <ele>536</ele>
        <time>2021-08-09T12:10:17Z</time>
      </trkpt>
      <trkpt lat="46.56405" lon="5.73923">
        <ele>536</ele>
        <time>2021-08-09T12:10:24Z</time>
      </trkpt>
      <trkpt lat="46.5641" lon="5.73926">
        <ele>536</ele>
        <time>2021-08-09T12:10:25Z</time>
      </trkpt>
      <trkpt lat="46.56423" lon="5.73933">
        <ele>536</ele>
        <time>2021-08-09T12:10:27Z</time>
      </trkpt>
      <trkpt lat="46.56429" lon="5.73934">
        <ele>535.8</ele>
        <time>2021-08-09T12:10:28Z</time>
      </trkpt>
      <trkpt lat="46.56458" lon="5.73932">
        <ele>536.2</ele>
        <time>2021-08-09T12:10:33Z</time>
      </trkpt>
      <trkpt lat="46.56489" lon="5.73926">
        <ele>537</ele>
        <time>2021-08-09T12:10:39Z</time>
      </trkpt>
      <trkpt lat="46.56498" lon="5.73924">
        <ele>537.6</ele>
        <time>2021-08-09T12:10:41Z</time>
      </trkpt>
      <trkpt lat="46.56518" lon="5.73924">
        <ele>538.4</ele>
        <time>2021-08-09T12:10:45Z</time>
      </trkpt>
      <trkpt lat="46.56536" lon="5.73926">
        <ele>539.2</ele>
        <time>2021-08-09T12:10:49Z</time>
      </trkpt>
      <trkpt lat="46.56541" lon="5.73927">
        <ele>539.6</ele>
        <time>2021-08-09T12:10:50Z</time>
      </trkpt>
      <trkpt lat="46.5656" lon="5.73932">
        <ele>540.8</ele>
        <time>2021-08-09T12:10:54Z</time>
      </trkpt>
      <trkpt lat="46.56573" lon="5.73939">
        <ele>541.8</ele>
        <time>2021-08-09T12:10:57Z</time>
      </trkpt>
      <trkpt lat="46.5658" lon="5.73944">
        <ele>542.6</ele>
        <time>2021-08-09T12:10:59Z</time>
      </trkpt>
      <trkpt lat="46.56583" lon="5.73947">
        <ele>543.2</ele>
        <time>2021-08-09T12:11:00Z</time>
      </trkpt>
      <trkpt lat="46.56593" lon="5.73956">
        <ele>543.6</ele>
        <time>2021-08-09T12:11:03Z</time>
      </trkpt>
      <trkpt lat="46.56599" lon="5.73963">
        <ele>544.2</ele>
        <time>2021-08-09T12:11:05Z</time>
      </trkpt>
      <trkpt lat="46.56614" lon="5.73981">
        <ele>545.4</ele>
        <time>2021-08-09T12:11:10Z</time>
      </trkpt>
      <trkpt lat="46.56623" lon="5.73993">
        <ele>546.2</ele>
        <time>2021-08-09T12:11:13Z</time>
      </trkpt>
      <trkpt lat="46.56626" lon="5.73996">
        <ele>546.4</ele>
        <time>2021-08-09T12:11:14Z</time>
      </trkpt>
      <trkpt lat="46.56645" lon="5.74016">
        <ele>547.6</ele>
        <time>2021-08-09T12:11:20Z</time>
      </trkpt>
      <trkpt lat="46.56655" lon="5.74024">
        <ele>547.8</ele>
        <time>2021-08-09T12:11:23Z</time>
      </trkpt>
      <trkpt lat="46.56664" lon="5.74032">
        <ele>548.8</ele>
        <time>2021-08-09T12:11:26Z</time>
      </trkpt>
      <trkpt lat="46.56677" lon="5.74042">
        <ele>550</ele>
        <time>2021-08-09T12:11:30Z</time>
      </trkpt>
      <trkpt lat="46.56681" lon="5.74044">
        <ele>550</ele>
        <time>2021-08-09T12:11:31Z</time>
      </trkpt>
      <trkpt lat="46.56698" lon="5.74055">
        <ele>551</ele>
        <time>2021-08-09T12:11:36Z</time>
      </trkpt>
      <trkpt lat="46.56706" lon="5.74059">
        <ele>551.2</ele>
        <time>2021-08-09T12:11:38Z</time>
      </trkpt>
      <trkpt lat="46.56725" lon="5.74072">
        <ele>551.8</ele>
        <time>2021-08-09T12:11:43Z</time>
      </trkpt>
      <trkpt lat="46.56739" lon="5.74084">
        <ele>552.8</ele>
        <time>2021-08-09T12:11:47Z</time>
      </trkpt>
      <trkpt lat="46.56742" lon="5.74087">
        <ele>553</ele>
        <time>2021-08-09T12:11:48Z</time>
      </trkpt>
      <trkpt lat="46.56756" lon="5.741">
        <ele>554</ele>
        <time>2021-08-09T12:11:52Z</time>
      </trkpt>
      <trkpt lat="46.56765" lon="5.74109">
        <ele>554.8</ele>
        <time>2021-08-09T12:11:55Z</time>
      </trkpt>
      <trkpt lat="46.56772" lon="5.74116">
        <ele>555</ele>
        <time>2021-08-09T12:11:57Z</time>
      </trkpt>
      <trkpt lat="46.56792" lon="5.74138">
        <ele>555.8</ele>
        <time>2021-08-09T12:12:03Z</time>
      </trkpt>
      <trkpt lat="46.56795" lon="5.74142">
        <ele>556</ele>
        <time>2021-08-09T12:12:04Z</time>
      </trkpt>
      <trkpt lat="46.56804" lon="5.74153">
        <ele>556.4</ele>
        <time>2021-08-09T12:12:07Z</time>
      </trkpt>
      <trkpt lat="46.56812" lon="5.74164">
        <ele>556.8</ele>
        <time>2021-08-09T12:12:10Z</time>
      </trkpt>
      <trkpt lat="46.56815" lon="5.74168">
        <ele>557.4</ele>
        <time>2021-08-09T12:12:11Z</time>
      </trkpt>
      <trkpt lat="46.56829" lon="5.74189">
        <ele>558.6</ele>
        <time>2021-08-09T12:12:16Z</time>
      </trkpt>
      <trkpt lat="46.56838" lon="5.74205">
        <ele>559.2</ele>
        <time>2021-08-09T12:12:20Z</time>
      </trkpt>
      <trkpt lat="46.5684" lon="5.7421">
        <ele>559.8</ele>
        <time>2021-08-09T12:12:21Z</time>
      </trkpt>
      <trkpt lat="46.56848" lon="5.74229">
        <ele>560.8</ele>
        <time>2021-08-09T12:12:25Z</time>
      </trkpt>
      <trkpt lat="46.56851" lon="5.7424">
        <ele>561.2</ele>
        <time>2021-08-09T12:12:27Z</time>
      </trkpt>
      <trkpt lat="46.56856" lon="5.74257">
        <ele>562.2</ele>
        <time>2021-08-09T12:12:30Z</time>
      </trkpt>
      <trkpt lat="46.56864" lon="5.74284">
        <ele>563.2</ele>
        <time>2021-08-09T12:12:35Z</time>
      </trkpt>
      <trkpt lat="46.56866" lon="5.7429">
        <ele>563.4</ele>
        <time>2021-08-09T12:12:36Z</time>
      </trkpt>
      <trkpt lat="46.56882" lon="5.74326">
        <ele>564.2</ele>
        <time>2021-08-09T12:12:42Z</time>
      </trkpt>
      <trkpt lat="46.56888" lon="5.74338">
        <ele>564.4</ele>
        <time>2021-08-09T12:12:44Z</time>
      </trkpt>
      <trkpt lat="46.56894" lon="5.74349">
        <ele>564.4</ele>
        <time>2021-08-09T12:12:46Z</time>
      </trkpt>
      <trkpt lat="46.56906" lon="5.74366">
        <ele>564.2</ele>
        <time>2021-08-09T12:12:49Z</time>
      </trkpt>
      <trkpt lat="46.5693" lon="5.74391">
        <ele>563.2</ele>
        <time>2021-08-09T12:12:53Z</time>
      </trkpt>
      <trkpt lat="46.56938" lon="5.74397">
        <ele>563</ele>
        <time>2021-08-09T12:12:54Z</time>
      </trkpt>
      <trkpt lat="46.56955" lon="5.74407">
        <ele>561.6</ele>
        <time>2021-08-09T12:12:56Z</time>
      </trkpt>
      <trkpt lat="46.56975" lon="5.74416">
        <ele>560.6</ele>
        <time>2021-08-09T12:12:58Z</time>
      </trkpt>
      <trkpt lat="46.56985" lon="5.74421">
        <ele>560.2</ele>
        <time>2021-08-09T12:12:59Z</time>
      </trkpt>
      <trkpt lat="46.57007" lon="5.74429">
        <ele>558.8</ele>
        <time>2021-08-09T12:13:01Z</time>
      </trkpt>
      <trkpt lat="46.5703" lon="5.74438">
        <ele>556</ele>
        <time>2021-08-09T12:13:03Z</time>
      </trkpt>
      <trkpt lat="46.57054" lon="5.74447">
        <ele>554.2</ele>
        <time>2021-08-09T12:13:05Z</time>
      </trkpt>
      <trkpt lat="46.57077" lon="5.7446">
        <ele>552.8</ele>
        <time>2021-08-09T12:13:07Z</time>
      </trkpt>
      <trkpt lat="46.571" lon="5.74475">
        <ele>551.2</ele>
        <time>2021-08-09T12:13:09Z</time>
      </trkpt>
      <trkpt lat="46.57123" lon="5.74491">
        <ele>549.4</ele>
        <time>2021-08-09T12:13:11Z</time>
      </trkpt>
      <trkpt lat="46.57135" lon="5.745">
        <ele>548.2</ele>
        <time>2021-08-09T12:13:12Z</time>
      </trkpt>
      <trkpt lat="46.57147" lon="5.74507">
        <ele>547.2</ele>
        <time>2021-08-09T12:13:13Z</time>
      </trkpt>
      <trkpt lat="46.57158" lon="5.74515">
        <ele>545.8</ele>
        <time>2021-08-09T12:13:14Z</time>
      </trkpt>
      <trkpt lat="46.57193" lon="5.7454">
        <ele>544.6</ele>
        <time>2021-08-09T12:13:17Z</time>
      </trkpt>
      <trkpt lat="46.57216" lon="5.74553">
        <ele>542.8</ele>
        <time>2021-08-09T12:13:19Z</time>
      </trkpt>
      <trkpt lat="46.57237" lon="5.74567">
        <ele>541.4</ele>
        <time>2021-08-09T12:13:21Z</time>
      </trkpt>
      <trkpt lat="46.57247" lon="5.74575">
        <ele>540.6</ele>
        <time>2021-08-09T12:13:22Z</time>
      </trkpt>
      <trkpt lat="46.57256" lon="5.74583">
        <ele>539.6</ele>
        <time>2021-08-09T12:13:23Z</time>
      </trkpt>
      <trkpt lat="46.57281" lon="5.74608">
        <ele>538.2</ele>
        <time>2021-08-09T12:13:26Z</time>
      </trkpt>
      <trkpt lat="46.57297" lon="5.7462">
        <ele>537</ele>
        <time>2021-08-09T12:13:28Z</time>
      </trkpt>
      <trkpt lat="46.57311" lon="5.74632">
        <ele>535.6</ele>
        <time>2021-08-09T12:13:30Z</time>
      </trkpt>
      <trkpt lat="46.57327" lon="5.74648">
        <ele>534.6</ele>
        <time>2021-08-09T12:13:32Z</time>
      </trkpt>
      <trkpt lat="46.57332" lon="5.74654">
        <ele>533.8</ele>
        <time>2021-08-09T12:13:33Z</time>
      </trkpt>
      <trkpt lat="46.57339" lon="5.74662">
        <ele>533.2</ele>
        <time>2021-08-09T12:13:34Z</time>
      </trkpt>
      <trkpt lat="46.57353" lon="5.74676">
        <ele>532.2</ele>
        <time>2021-08-09T12:13:36Z</time>
      </trkpt>
      <trkpt lat="46.5736" lon="5.74683">
        <ele>531.4</ele>
        <time>2021-08-09T12:13:37Z</time>
      </trkpt>
      <trkpt lat="46.57367" lon="5.74691">
        <ele>531.2</ele>
        <time>2021-08-09T12:13:38Z</time>
      </trkpt>
      <trkpt lat="46.57387" lon="5.74711">
        <ele>530</ele>
        <time>2021-08-09T12:13:41Z</time>
      </trkpt>
      <trkpt lat="46.57393" lon="5.74719">
        <ele>529.8</ele>
        <time>2021-08-09T12:13:42Z</time>
      </trkpt>
      <trkpt lat="46.57398" lon="5.74726">
        <ele>529.8</ele>
        <time>2021-08-09T12:13:43Z</time>
      </trkpt>
      <trkpt lat="46.57403" lon="5.74735">
        <ele>529.6</ele>
        <time>2021-08-09T12:13:44Z</time>
      </trkpt>
      <trkpt lat="46.57407" lon="5.74757">
        <ele>529.6</ele>
        <time>2021-08-09T12:13:46Z</time>
      </trkpt>
      <trkpt lat="46.57409" lon="5.74768">
        <ele>529.2</ele>
        <time>2021-08-09T12:13:47Z</time>
      </trkpt>
      <trkpt lat="46.57417" lon="5.748">
        <ele>529.6</ele>
        <time>2021-08-09T12:13:50Z</time>
      </trkpt>
      <trkpt lat="46.57433" lon="5.7485">
        <ele>529.4</ele>
        <time>2021-08-09T12:13:55Z</time>
      </trkpt>
      <trkpt lat="46.57451" lon="5.74905">
        <ele>529.8</ele>
        <time>2021-08-09T12:14:01Z</time>
      </trkpt>
      <trkpt lat="46.57454" lon="5.74913">
        <ele>530</ele>
        <time>2021-08-09T12:14:02Z</time>
      </trkpt>
      <trkpt lat="46.57462" lon="5.74936">
        <ele>531.2</ele>
        <time>2021-08-09T12:14:05Z</time>
      </trkpt>
      <trkpt lat="46.57468" lon="5.74951">
        <ele>531.6</ele>
        <time>2021-08-09T12:14:07Z</time>
      </trkpt>
      <trkpt lat="46.57475" lon="5.74963">
        <ele>532.2</ele>
        <time>2021-08-09T12:14:09Z</time>
      </trkpt>
      <trkpt lat="46.57484" lon="5.74968">
        <ele>532.4</ele>
        <time>2021-08-09T12:14:11Z</time>
      </trkpt>
      <trkpt lat="46.575" lon="5.74972">
        <ele>533.8</ele>
        <time>2021-08-09T12:14:14Z</time>
      </trkpt>
      <trkpt lat="46.57519" lon="5.74975">
        <ele>535.2</ele>
        <time>2021-08-09T12:14:18Z</time>
      </trkpt>
      <trkpt lat="46.57533" lon="5.74978">
        <ele>536.4</ele>
        <time>2021-08-09T12:14:21Z</time>
      </trkpt>
      <trkpt lat="46.57541" lon="5.74978">
        <ele>537.6</ele>
        <time>2021-08-09T12:14:23Z</time>
      </trkpt>
      <trkpt lat="46.57545" lon="5.7498">
        <ele>537.8</ele>
        <time>2021-08-09T12:14:24Z</time>
      </trkpt>
      <trkpt lat="46.57549" lon="5.74991">
        <ele>538.4</ele>
        <time>2021-08-09T12:14:26Z</time>
      </trkpt>
      <trkpt lat="46.57549" lon="5.74997">
        <ele>538.6</ele>
        <time>2021-08-09T12:14:27Z</time>
      </trkpt>
      <trkpt lat="46.57547" lon="5.75004">
        <ele>539</ele>
        <time>2021-08-09T12:14:28Z</time>
      </trkpt>
      <trkpt lat="46.57544" lon="5.75017">
        <ele>539.6</ele>
        <time>2021-08-09T12:14:30Z</time>
      </trkpt>
      <trkpt lat="46.57541" lon="5.75032">
        <ele>540.2</ele>
        <time>2021-08-09T12:14:32Z</time>
      </trkpt>
      <trkpt lat="46.57537" lon="5.75045">
        <ele>540.8</ele>
        <time>2021-08-09T12:14:34Z</time>
      </trkpt>
      <trkpt lat="46.57531" lon="5.75057">
        <ele>541.2</ele>
        <time>2021-08-09T12:14:36Z</time>
      </trkpt>
      <trkpt lat="46.57523" lon="5.75067">
        <ele>541.4</ele>
        <time>2021-08-09T12:14:38Z</time>
      </trkpt>
      <trkpt lat="46.57508" lon="5.75087">
        <ele>541.8</ele>
        <time>2021-08-09T12:14:42Z</time>
      </trkpt>
      <trkpt lat="46.575" lon="5.75098">
        <ele>541.8</ele>
        <time>2021-08-09T12:14:44Z</time>
      </trkpt>
      <trkpt lat="46.57472" lon="5.75134">
        <ele>542.4</ele>
        <time>2021-08-09T12:14:51Z</time>
      </trkpt>
      <trkpt lat="46.57452" lon="5.75161">
        <ele>543</ele>
        <time>2021-08-09T12:14:56Z</time>
      </trkpt>
      <trkpt lat="46.5744" lon="5.75176">
        <ele>543.2</ele>
        <time>2021-08-09T12:14:59Z</time>
      </trkpt>
      <trkpt lat="46.57424" lon="5.75195">
        <ele>543.6</ele>
        <time>2021-08-09T12:15:03Z</time>
      </trkpt>
      <trkpt lat="46.57412" lon="5.7521">
        <ele>543.8</ele>
        <time>2021-08-09T12:15:06Z</time>
      </trkpt>
      <trkpt lat="46.57403" lon="5.7522">
        <ele>544</ele>
        <time>2021-08-09T12:15:08Z</time>
      </trkpt>
      <trkpt lat="46.57383" lon="5.75243">
        <ele>544.8</ele>
        <time>2021-08-09T12:15:13Z</time>
      </trkpt>
      <trkpt lat="46.57371" lon="5.75256">
        <ele>545</ele>
        <time>2021-08-09T12:15:16Z</time>
      </trkpt>
      <trkpt lat="46.57367" lon="5.75261">
        <ele>545.2</ele>
        <time>2021-08-09T12:15:17Z</time>
      </trkpt>
      <trkpt lat="46.57355" lon="5.75275">
        <ele>545.6</ele>
        <time>2021-08-09T12:15:20Z</time>
      </trkpt>
      <trkpt lat="46.57336" lon="5.75298">
        <ele>546.2</ele>
        <time>2021-08-09T12:15:25Z</time>
      </trkpt>
      <trkpt lat="46.57326" lon="5.75311">
        <ele>546.6</ele>
        <time>2021-08-09T12:15:28Z</time>
      </trkpt>
      <trkpt lat="46.57316" lon="5.75323">
        <ele>547.2</ele>
        <time>2021-08-09T12:15:32Z</time>
      </trkpt>
      <trkpt lat="46.57314" lon="5.75327">
        <ele>547.6</ele>
        <time>2021-08-09T12:15:33Z</time>
      </trkpt>
      <trkpt lat="46.57316" lon="5.75338">
        <ele>547.8</ele>
        <time>2021-08-09T12:15:35Z</time>
      </trkpt>
      <trkpt lat="46.57318" lon="5.75344">
        <ele>547.8</ele>
        <time>2021-08-09T12:15:36Z</time>
      </trkpt>
      <trkpt lat="46.57323" lon="5.75359">
        <ele>548</ele>
        <time>2021-08-09T12:15:38Z</time>
      </trkpt>
      <trkpt lat="46.57325" lon="5.75375">
        <ele>548.2</ele>
        <time>2021-08-09T12:15:40Z</time>
      </trkpt>
      <trkpt lat="46.57324" lon="5.75392">
        <ele>548.4</ele>
        <time>2021-08-09T12:15:42Z</time>
      </trkpt>
      <trkpt lat="46.5732" lon="5.7541">
        <ele>548.4</ele>
        <time>2021-08-09T12:15:44Z</time>
      </trkpt>
      <trkpt lat="46.57314" lon="5.75435">
        <ele>548.8</ele>
        <time>2021-08-09T12:15:47Z</time>
      </trkpt>
      <trkpt lat="46.57312" lon="5.75454">
        <ele>549</ele>
        <time>2021-08-09T12:15:49Z</time>
      </trkpt>
      <trkpt lat="46.57312" lon="5.75464">
        <ele>549</ele>
        <time>2021-08-09T12:15:50Z</time>
      </trkpt>
      <trkpt lat="46.57314" lon="5.75483">
        <ele>549</ele>
        <time>2021-08-09T12:15:52Z</time>
      </trkpt>
      <trkpt lat="46.57315" lon="5.75493">
        <ele>549</ele>
        <time>2021-08-09T12:15:53Z</time>
      </trkpt>
      <trkpt lat="46.57331" lon="5.75566">
        <ele>548.2</ele>
        <time>2021-08-09T12:16:00Z</time>
      </trkpt>
      <trkpt lat="46.57333" lon="5.75588">
        <ele>548</ele>
        <time>2021-08-09T12:16:02Z</time>
      </trkpt>
      <trkpt lat="46.57332" lon="5.75622">
        <ele>547.8</ele>
        <time>2021-08-09T12:16:05Z</time>
      </trkpt>
      <trkpt lat="46.57326" lon="5.75676">
        <ele>547.4</ele>
        <time>2021-08-09T12:16:10Z</time>
      </trkpt>
      <trkpt lat="46.57325" lon="5.75687">
        <ele>547.4</ele>
        <time>2021-08-09T12:16:11Z</time>
      </trkpt>
      <trkpt lat="46.57325" lon="5.75697">
        <ele>547.4</ele>
        <time>2021-08-09T12:16:12Z</time>
      </trkpt>
      <trkpt lat="46.57329" lon="5.75729">
        <ele>547.4</ele>
        <time>2021-08-09T12:16:15Z</time>
      </trkpt>
      <trkpt lat="46.57337" lon="5.7576">
        <ele>547.4</ele>
        <time>2021-08-09T12:16:18Z</time>
      </trkpt>
      <trkpt lat="46.57341" lon="5.7577">
        <ele>547.2</ele>
        <time>2021-08-09T12:16:19Z</time>
      </trkpt>
      <trkpt lat="46.57351" lon="5.758">
        <ele>547.2</ele>
        <time>2021-08-09T12:16:22Z</time>
      </trkpt>
      <trkpt lat="46.57355" lon="5.75823">
        <ele>546.6</ele>
        <time>2021-08-09T12:16:24Z</time>
      </trkpt>
      <trkpt lat="46.57356" lon="5.75857">
        <ele>546.4</ele>
        <time>2021-08-09T12:16:27Z</time>
      </trkpt>
      <trkpt lat="46.57356" lon="5.75868">
        <ele>546.2</ele>
        <time>2021-08-09T12:16:28Z</time>
      </trkpt>
      <trkpt lat="46.57348" lon="5.75935">
        <ele>545.4</ele>
        <time>2021-08-09T12:16:34Z</time>
      </trkpt>
      <trkpt lat="46.57349" lon="5.75946">
        <ele>545.2</ele>
        <time>2021-08-09T12:16:35Z</time>
      </trkpt>
      <trkpt lat="46.57352" lon="5.75992">
        <ele>545.4</ele>
        <time>2021-08-09T12:16:39Z</time>
      </trkpt>
      <trkpt lat="46.57365" lon="5.76045">
        <ele>546.6</ele>
        <time>2021-08-09T12:16:44Z</time>
      </trkpt>
      <trkpt lat="46.57372" lon="5.76098">
        <ele>547.4</ele>
        <time>2021-08-09T12:16:49Z</time>
      </trkpt>
      <trkpt lat="46.57372" lon="5.76109">
        <ele>547.4</ele>
        <time>2021-08-09T12:16:50Z</time>
      </trkpt>
      <trkpt lat="46.57372" lon="5.76152">
        <ele>547.4</ele>
        <time>2021-08-09T12:16:54Z</time>
      </trkpt>
      <trkpt lat="46.57373" lon="5.76163">
        <ele>547.4</ele>
        <time>2021-08-09T12:16:55Z</time>
      </trkpt>
      <trkpt lat="46.57377" lon="5.76184">
        <ele>547.4</ele>
        <time>2021-08-09T12:16:57Z</time>
      </trkpt>
      <trkpt lat="46.5738" lon="5.76195">
        <ele>547.4</ele>
        <time>2021-08-09T12:16:58Z</time>
      </trkpt>
      <trkpt lat="46.57387" lon="5.76215">
        <ele>547.4</ele>
        <time>2021-08-09T12:17:00Z</time>
      </trkpt>
      <trkpt lat="46.57395" lon="5.76235">
        <ele>547.6</ele>
        <time>2021-08-09T12:17:02Z</time>
      </trkpt>
      <trkpt lat="46.57403" lon="5.76254">
        <ele>547.4</ele>
        <time>2021-08-09T12:17:04Z</time>
      </trkpt>
      <trkpt lat="46.57421" lon="5.76302">
        <ele>547.2</ele>
        <time>2021-08-09T12:17:09Z</time>
      </trkpt>
      <trkpt lat="46.57424" lon="5.76312">
        <ele>547.2</ele>
        <time>2021-08-09T12:17:10Z</time>
      </trkpt>
      <trkpt lat="46.57434" lon="5.76354">
        <ele>547</ele>
        <time>2021-08-09T12:17:14Z</time>
      </trkpt>
      <trkpt lat="46.57443" lon="5.76398">
        <ele>546.8</ele>
        <time>2021-08-09T12:17:18Z</time>
      </trkpt>
      <trkpt lat="46.5745" lon="5.76418">
        <ele>546.8</ele>
        <time>2021-08-09T12:17:20Z</time>
      </trkpt>
      <trkpt lat="46.57471" lon="5.76466">
        <ele>546.8</ele>
        <time>2021-08-09T12:17:25Z</time>
      </trkpt>
      <trkpt lat="46.57481" lon="5.76496">
        <ele>546.4</ele>
        <time>2021-08-09T12:17:28Z</time>
      </trkpt>
      <trkpt lat="46.57484" lon="5.76518">
        <ele>546.4</ele>
        <time>2021-08-09T12:17:30Z</time>
      </trkpt>
      <trkpt lat="46.57488" lon="5.76588">
        <ele>546.6</ele>
        <time>2021-08-09T12:17:37Z</time>
      </trkpt>
      <trkpt lat="46.57488" lon="5.76656">
        <ele>548.2</ele>
        <time>2021-08-09T12:17:44Z</time>
      </trkpt>
      <trkpt lat="46.57493" lon="5.76739">
        <ele>548.4</ele>
        <time>2021-08-09T12:17:52Z</time>
      </trkpt>
      <trkpt lat="46.57506" lon="5.76806">
        <ele>547.4</ele>
        <time>2021-08-09T12:17:58Z</time>
      </trkpt>
      <trkpt lat="46.57519" lon="5.76865">
        <ele>546.6</ele>
        <time>2021-08-09T12:18:03Z</time>
      </trkpt>
      <trkpt lat="46.57526" lon="5.76901">
        <ele>546</ele>
        <time>2021-08-09T12:18:06Z</time>
      </trkpt>
      <trkpt lat="46.57531" lon="5.76939">
        <ele>545.6</ele>
        <time>2021-08-09T12:18:09Z</time>
      </trkpt>
      <trkpt lat="46.5754" lon="5.77002">
        <ele>544.6</ele>
        <time>2021-08-09T12:18:14Z</time>
      </trkpt>
      <trkpt lat="46.57544" lon="5.77027">
        <ele>544.2</ele>
        <time>2021-08-09T12:18:16Z</time>
      </trkpt>
      <trkpt lat="46.57548" lon="5.77052">
        <ele>543.6</ele>
        <time>2021-08-09T12:18:18Z</time>
      </trkpt>
      <trkpt lat="46.57556" lon="5.77102">
        <ele>542.2</ele>
        <time>2021-08-09T12:18:22Z</time>
      </trkpt>
      <trkpt lat="46.57564" lon="5.77153">
        <ele>541.6</ele>
        <time>2021-08-09T12:18:26Z</time>
      </trkpt>
      <trkpt lat="46.57575" lon="5.77237">
        <ele>541.8</ele>
        <time>2021-08-09T12:18:33Z</time>
      </trkpt>
      <trkpt lat="46.57579" lon="5.77259">
        <ele>541.8</ele>
        <time>2021-08-09T12:18:35Z</time>
      </trkpt>
      <trkpt lat="46.57589" lon="5.77323">
        <ele>542.4</ele>
        <time>2021-08-09T12:18:41Z</time>
      </trkpt>
      <trkpt lat="46.57598" lon="5.77385">
        <ele>543</ele>
        <time>2021-08-09T12:18:47Z</time>
      </trkpt>
      <trkpt lat="46.57601" lon="5.77404">
        <ele>543.2</ele>
        <time>2021-08-09T12:18:49Z</time>
      </trkpt>
      <trkpt lat="46.57609" lon="5.77463">
        <ele>543.8</ele>
        <time>2021-08-09T12:18:55Z</time>
      </trkpt>
      <trkpt lat="46.57617" lon="5.7753">
        <ele>543.8</ele>
        <time>2021-08-09T12:19:02Z</time>
      </trkpt>
      <trkpt lat="46.5762" lon="5.77568">
        <ele>544</ele>
        <time>2021-08-09T12:19:06Z</time>
      </trkpt>
      <trkpt lat="46.57621" lon="5.77587">
        <ele>544</ele>
        <time>2021-08-09T12:19:08Z</time>
      </trkpt>
      <trkpt lat="46.57625" lon="5.7766">
        <ele>544</ele>
        <time>2021-08-09T12:19:15Z</time>
      </trkpt>
      <trkpt lat="46.57622" lon="5.7774">
        <ele>542.8</ele>
        <time>2021-08-09T12:19:22Z</time>
      </trkpt>
      <trkpt lat="46.57615" lon="5.77785">
        <ele>542.6</ele>
        <time>2021-08-09T12:19:27Z</time>
      </trkpt>
      <trkpt lat="46.57614" lon="5.77793">
        <ele>542.6</ele>
        <time>2021-08-09T12:19:28Z</time>
      </trkpt>
      <trkpt lat="46.57612" lon="5.77825">
        <ele>542.6</ele>
        <time>2021-08-09T12:19:31Z</time>
      </trkpt>
      <trkpt lat="46.57611" lon="5.77911">
        <ele>542.4</ele>
        <time>2021-08-09T12:19:38Z</time>
      </trkpt>
      <trkpt lat="46.57608" lon="5.77966">
        <ele>541.4</ele>
        <time>2021-08-09T12:19:42Z</time>
      </trkpt>
      <trkpt lat="46.57606" lon="5.77978">
        <ele>541</ele>
        <time>2021-08-09T12:19:43Z</time>
      </trkpt>
      <trkpt lat="46.57605" lon="5.77989">
        <ele>540.8</ele>
        <time>2021-08-09T12:19:44Z</time>
      </trkpt>
      <trkpt lat="46.57603" lon="5.78026">
        <ele>540.4</ele>
        <time>2021-08-09T12:19:47Z</time>
      </trkpt>
      <trkpt lat="46.57599" lon="5.7806">
        <ele>540.6</ele>
        <time>2021-08-09T12:19:50Z</time>
      </trkpt>
      <trkpt lat="46.57598" lon="5.7807">
        <ele>540.6</ele>
        <time>2021-08-09T12:19:51Z</time>
      </trkpt>
      <trkpt lat="46.57592" lon="5.78109">
        <ele>541.4</ele>
        <time>2021-08-09T12:19:55Z</time>
      </trkpt>
      <trkpt lat="46.57589" lon="5.78128">
        <ele>542</ele>
        <time>2021-08-09T12:19:57Z</time>
      </trkpt>
      <trkpt lat="46.57586" lon="5.78145">
        <ele>542.6</ele>
        <time>2021-08-09T12:19:59Z</time>
      </trkpt>
      <trkpt lat="46.57583" lon="5.78175">
        <ele>542.6</ele>
        <time>2021-08-09T12:20:02Z</time>
      </trkpt>
      <trkpt lat="46.57578" lon="5.78212">
        <ele>543.4</ele>
        <time>2021-08-09T12:20:06Z</time>
      </trkpt>
      <trkpt lat="46.57577" lon="5.78221">
        <ele>543.4</ele>
        <time>2021-08-09T12:20:07Z</time>
      </trkpt>
      <trkpt lat="46.57577" lon="5.78232">
        <ele>543.6</ele>
        <time>2021-08-09T12:20:08Z</time>
      </trkpt>
      <trkpt lat="46.57571" lon="5.78272">
        <ele>543.6</ele>
        <time>2021-08-09T12:20:12Z</time>
      </trkpt>
      <trkpt lat="46.57564" lon="5.78317">
        <ele>543</ele>
        <time>2021-08-09T12:20:16Z</time>
      </trkpt>
      <trkpt lat="46.57555" lon="5.78363">
        <ele>541.8</ele>
        <time>2021-08-09T12:20:20Z</time>
      </trkpt>
      <trkpt lat="46.57549" lon="5.78386">
        <ele>541.4</ele>
        <time>2021-08-09T12:20:22Z</time>
      </trkpt>
      <trkpt lat="46.57545" lon="5.78399">
        <ele>541.2</ele>
        <time>2021-08-09T12:20:23Z</time>
      </trkpt>
      <trkpt lat="46.57532" lon="5.78429">
        <ele>541</ele>
        <time>2021-08-09T12:20:26Z</time>
      </trkpt>
      <trkpt lat="46.57514" lon="5.78469">
        <ele>540.6</ele>
        <time>2021-08-09T12:20:30Z</time>
      </trkpt>
      <trkpt lat="46.57504" lon="5.7849">
        <ele>540.2</ele>
        <time>2021-08-09T12:20:32Z</time>
      </trkpt>
      <trkpt lat="46.57483" lon="5.78545">
        <ele>540.2</ele>
        <time>2021-08-09T12:20:38Z</time>
      </trkpt>
      <trkpt lat="46.57465" lon="5.78613">
        <ele>540.6</ele>
        <time>2021-08-09T12:20:45Z</time>
      </trkpt>
      <trkpt lat="46.57462" lon="5.78624">
        <ele>540.8</ele>
        <time>2021-08-09T12:20:46Z</time>
      </trkpt>
      <trkpt lat="46.57451" lon="5.7865">
        <ele>540.8</ele>
        <time>2021-08-09T12:20:49Z</time>
      </trkpt>
      <trkpt lat="46.57447" lon="5.78656">
        <ele>541</ele>
        <time>2021-08-09T12:20:50Z</time>
      </trkpt>
      <trkpt lat="46.57425" lon="5.78684">
        <ele>541.4</ele>
        <time>2021-08-09T12:20:54Z</time>
      </trkpt>
      <trkpt lat="46.57414" lon="5.78697">
        <ele>541.6</ele>
        <time>2021-08-09T12:20:56Z</time>
      </trkpt>
      <trkpt lat="46.57409" lon="5.78704">
        <ele>541.4</ele>
        <time>2021-08-09T12:20:57Z</time>
      </trkpt>
      <trkpt lat="46.57388" lon="5.7873">
        <ele>541.4</ele>
        <time>2021-08-09T12:21:01Z</time>
      </trkpt>
      <trkpt lat="46.57373" lon="5.78758">
        <ele>541.2</ele>
        <time>2021-08-09T12:21:05Z</time>
      </trkpt>
      <trkpt lat="46.57365" lon="5.78774">
        <ele>541.4</ele>
        <time>2021-08-09T12:21:07Z</time>
      </trkpt>
      <trkpt lat="46.57356" lon="5.78797">
        <ele>541.8</ele>
        <time>2021-08-09T12:21:10Z</time>
      </trkpt>
      <trkpt lat="46.57346" lon="5.78822">
        <ele>541.8</ele>
        <time>2021-08-09T12:21:13Z</time>
      </trkpt>
      <trkpt lat="46.57338" lon="5.78837">
        <ele>542</ele>
        <time>2021-08-09T12:21:15Z</time>
      </trkpt>
      <trkpt lat="46.57325" lon="5.78858">
        <ele>542</ele>
        <time>2021-08-09T12:21:18Z</time>
      </trkpt>
      <trkpt lat="46.57321" lon="5.78864">
        <ele>542.2</ele>
        <time>2021-08-09T12:21:19Z</time>
      </trkpt>
      <trkpt lat="46.57311" lon="5.78876">
        <ele>542.2</ele>
        <time>2021-08-09T12:21:21Z</time>
      </trkpt>
      <trkpt lat="46.57301" lon="5.78889">
        <ele>542.4</ele>
        <time>2021-08-09T12:21:23Z</time>
      </trkpt>
      <trkpt lat="46.57293" lon="5.789">
        <ele>542.8</ele>
        <time>2021-08-09T12:21:25Z</time>
      </trkpt>
      <trkpt lat="46.5728" lon="5.78923">
        <ele>543.2</ele>
        <time>2021-08-09T12:21:28Z</time>
      </trkpt>
      <trkpt lat="46.57262" lon="5.78951">
        <ele>543.2</ele>
        <time>2021-08-09T12:21:32Z</time>
      </trkpt>
      <trkpt lat="46.57259" lon="5.78958">
        <ele>543.4</ele>
        <time>2021-08-09T12:21:33Z</time>
      </trkpt>
      <trkpt lat="46.57255" lon="5.78965">
        <ele>543.4</ele>
        <time>2021-08-09T12:21:34Z</time>
      </trkpt>
      <trkpt lat="46.57242" lon="5.78993">
        <ele>543.8</ele>
        <time>2021-08-09T12:21:38Z</time>
      </trkpt>
      <trkpt lat="46.57238" lon="5.79">
        <ele>543.8</ele>
        <time>2021-08-09T12:21:39Z</time>
      </trkpt>
      <trkpt lat="46.57235" lon="5.79005">
        <ele>544</ele>
        <time>2021-08-09T12:21:40Z</time>
      </trkpt>
      <trkpt lat="46.57226" lon="5.79028">
        <ele>544.2</ele>
        <time>2021-08-09T12:21:43Z</time>
      </trkpt>
      <trkpt lat="46.5722" lon="5.79043">
        <ele>544.4</ele>
        <time>2021-08-09T12:21:45Z</time>
      </trkpt>
      <trkpt lat="46.57204" lon="5.79075">
        <ele>545.2</ele>
        <time>2021-08-09T12:21:50Z</time>
      </trkpt>
      <trkpt lat="46.57198" lon="5.79081">
        <ele>545.2</ele>
        <time>2021-08-09T12:21:51Z</time>
      </trkpt>
      <trkpt lat="46.57192" lon="5.79086">
        <ele>545.6</ele>
        <time>2021-08-09T12:21:52Z</time>
      </trkpt>
      <trkpt lat="46.57185" lon="5.79095">
        <ele>546</ele>
        <time>2021-08-09T12:21:54Z</time>
      </trkpt>
      <trkpt lat="46.57181" lon="5.79099">
        <ele>546.2</ele>
        <time>2021-08-09T12:21:55Z</time>
      </trkpt>
      <trkpt lat="46.57176" lon="5.79104">
        <ele>546.2</ele>
        <time>2021-08-09T12:21:56Z</time>
      </trkpt>
      <trkpt lat="46.57162" lon="5.7912">
        <ele>546.6</ele>
        <time>2021-08-09T12:21:59Z</time>
      </trkpt>
      <trkpt lat="46.57159" lon="5.79125">
        <ele>546.8</ele>
        <time>2021-08-09T12:22:00Z</time>
      </trkpt>
      <trkpt lat="46.57147" lon="5.79144">
        <ele>547.4</ele>
        <time>2021-08-09T12:22:03Z</time>
      </trkpt>
      <trkpt lat="46.57145" lon="5.7915">
        <ele>547.6</ele>
        <time>2021-08-09T12:22:04Z</time>
      </trkpt>
      <trkpt lat="46.57139" lon="5.79165">
        <ele>548.4</ele>
        <time>2021-08-09T12:22:06Z</time>
      </trkpt>
      <trkpt lat="46.5713" lon="5.79189">
        <ele>548.6</ele>
        <time>2021-08-09T12:22:09Z</time>
      </trkpt>
      <trkpt lat="46.57116" lon="5.79225">
        <ele>549</ele>
        <time>2021-08-09T12:22:14Z</time>
      </trkpt>
      <trkpt lat="46.57115" lon="5.7923">
        <ele>549.4</ele>
        <time>2021-08-09T12:22:15Z</time>
      </trkpt>
      <trkpt lat="46.57102" lon="5.79256">
        <ele>550.2</ele>
        <time>2021-08-09T12:22:19Z</time>
      </trkpt>
      <trkpt lat="46.57096" lon="5.79268">
        <ele>550.6</ele>
        <time>2021-08-09T12:22:21Z</time>
      </trkpt>
      <trkpt lat="46.57075" lon="5.79303">
        <ele>550.8</ele>
        <time>2021-08-09T12:22:26Z</time>
      </trkpt>
      <trkpt lat="46.57054" lon="5.79341">
        <ele>550.6</ele>
        <time>2021-08-09T12:22:31Z</time>
      </trkpt>
      <trkpt lat="46.5705" lon="5.79352">
        <ele>550.6</ele>
        <time>2021-08-09T12:22:32Z</time>
      </trkpt>
      <trkpt lat="46.57044" lon="5.7937">
        <ele>550.4</ele>
        <time>2021-08-09T12:22:34Z</time>
      </trkpt>
      <trkpt lat="46.57032" lon="5.79402">
        <ele>550.2</ele>
        <time>2021-08-09T12:22:37Z</time>
      </trkpt>
      <trkpt lat="46.57023" lon="5.79433">
        <ele>549</ele>
        <time>2021-08-09T12:22:40Z</time>
      </trkpt>
      <trkpt lat="46.57009" lon="5.79478">
        <ele>548.2</ele>
        <time>2021-08-09T12:22:44Z</time>
      </trkpt>
      <trkpt lat="46.57005" lon="5.79488">
        <ele>548</ele>
        <time>2021-08-09T12:22:45Z</time>
      </trkpt>
      <trkpt lat="46.56979" lon="5.79545">
        <ele>547</ele>
        <time>2021-08-09T12:22:51Z</time>
      </trkpt>
      <trkpt lat="46.56972" lon="5.79564">
        <ele>547</ele>
        <time>2021-08-09T12:22:53Z</time>
      </trkpt>
      <trkpt lat="46.56969" lon="5.79584">
        <ele>547</ele>
        <time>2021-08-09T12:22:55Z</time>
      </trkpt>
      <trkpt lat="46.5697" lon="5.79606">
        <ele>546.8</ele>
        <time>2021-08-09T12:22:57Z</time>
      </trkpt>
      <trkpt lat="46.56974" lon="5.79626">
        <ele>547.2</ele>
        <time>2021-08-09T12:22:59Z</time>
      </trkpt>
      <trkpt lat="46.56985" lon="5.79697">
        <ele>546.8</ele>
        <time>2021-08-09T12:23:06Z</time>
      </trkpt>
      <trkpt lat="46.56983" lon="5.79719">
        <ele>546.8</ele>
        <time>2021-08-09T12:23:08Z</time>
      </trkpt>
      <trkpt lat="46.56977" lon="5.79739">
        <ele>546.8</ele>
        <time>2021-08-09T12:23:10Z</time>
      </trkpt>
      <trkpt lat="46.5695" lon="5.79794">
        <ele>546.8</ele>
        <time>2021-08-09T12:23:17Z</time>
      </trkpt>
      <trkpt lat="46.56936" lon="5.79832">
        <ele>548.4</ele>
        <time>2021-08-09T12:23:22Z</time>
      </trkpt>
      <trkpt lat="46.5693" lon="5.79848">
        <ele>549</ele>
        <time>2021-08-09T12:23:24Z</time>
      </trkpt>
      <trkpt lat="46.56905" lon="5.79919">
        <ele>548.8</ele>
        <time>2021-08-09T12:23:32Z</time>
      </trkpt>
      <trkpt lat="46.56902" lon="5.79927">
        <ele>548.6</ele>
        <time>2021-08-09T12:23:33Z</time>
      </trkpt>
      <trkpt lat="46.56882" lon="5.79987">
        <ele>548.8</ele>
        <time>2021-08-09T12:23:40Z</time>
      </trkpt>
      <trkpt lat="46.56877" lon="5.79994">
        <ele>548.8</ele>
        <time>2021-08-09T12:23:41Z</time>
      </trkpt>
      <trkpt lat="46.56841" lon="5.80033">
        <ele>548.4</ele>
        <time>2021-08-09T12:23:47Z</time>
      </trkpt>
      <trkpt lat="46.56792" lon="5.80081">
        <ele>548.2</ele>
        <time>2021-08-09T12:23:55Z</time>
      </trkpt>
      <trkpt lat="46.56751" lon="5.80125">
        <ele>548.8</ele>
        <time>2021-08-09T12:24:02Z</time>
      </trkpt>
      <trkpt lat="46.5674" lon="5.80137">
        <ele>549.2</ele>
        <time>2021-08-09T12:24:04Z</time>
      </trkpt>
      <trkpt lat="46.56698" lon="5.80183">
        <ele>549.4</ele>
        <time>2021-08-09T12:24:11Z</time>
      </trkpt>
      <trkpt lat="46.56675" lon="5.8021">
        <ele>549.2</ele>
        <time>2021-08-09T12:24:15Z</time>
      </trkpt>
      <trkpt lat="46.56657" lon="5.80227">
        <ele>549.2</ele>
        <time>2021-08-09T12:24:18Z</time>
      </trkpt>
      <trkpt lat="46.56612" lon="5.80278">
        <ele>549.4</ele>
        <time>2021-08-09T12:24:26Z</time>
      </trkpt>
      <trkpt lat="46.5659" lon="5.80316">
        <ele>550</ele>
        <time>2021-08-09T12:24:31Z</time>
      </trkpt>
      <trkpt lat="46.56581" lon="5.80332">
        <ele>549.8</ele>
        <time>2021-08-09T12:24:33Z</time>
      </trkpt>
      <trkpt lat="46.56572" lon="5.80349">
        <ele>549.8</ele>
        <time>2021-08-09T12:24:35Z</time>
      </trkpt>
      <trkpt lat="46.56557" lon="5.80371">
        <ele>549.8</ele>
        <time>2021-08-09T12:24:38Z</time>
      </trkpt>
      <trkpt lat="46.56524" lon="5.80423">
        <ele>550.2</ele>
        <time>2021-08-09T12:24:45Z</time>
      </trkpt>
      <trkpt lat="46.56484" lon="5.80485">
        <ele>550.8</ele>
        <time>2021-08-09T12:24:53Z</time>
      </trkpt>
      <trkpt lat="46.56478" lon="5.80492">
        <ele>550.8</ele>
        <time>2021-08-09T12:24:54Z</time>
      </trkpt>
      <trkpt lat="46.56442" lon="5.8053">
        <ele>550.8</ele>
        <time>2021-08-09T12:25:00Z</time>
      </trkpt>
      <trkpt lat="46.56398" lon="5.80581">
        <ele>550.6</ele>
        <time>2021-08-09T12:25:08Z</time>
      </trkpt>
      <trkpt lat="46.56369" lon="5.80621">
        <ele>550.8</ele>
        <time>2021-08-09T12:25:14Z</time>
      </trkpt>
      <trkpt lat="46.56364" lon="5.80627">
        <ele>551</ele>
        <time>2021-08-09T12:25:15Z</time>
      </trkpt>
      <trkpt lat="46.56327" lon="5.80673">
        <ele>551.8</ele>
        <time>2021-08-09T12:25:23Z</time>
      </trkpt>
      <trkpt lat="46.56322" lon="5.80678">
        <ele>552</ele>
        <time>2021-08-09T12:25:24Z</time>
      </trkpt>
      <trkpt lat="46.5631" lon="5.80697">
        <ele>552.6</ele>
        <time>2021-08-09T12:25:27Z</time>
      </trkpt>
      <trkpt lat="46.56307" lon="5.80704">
        <ele>552.8</ele>
        <time>2021-08-09T12:25:28Z</time>
      </trkpt>
      <trkpt lat="46.56304" lon="5.80711">
        <ele>553.2</ele>
        <time>2021-08-09T12:25:29Z</time>
      </trkpt>
      <trkpt lat="46.56301" lon="5.80718">
        <ele>553.2</ele>
        <time>2021-08-09T12:25:30Z</time>
      </trkpt>
      <trkpt lat="46.56289" lon="5.80743">
        <ele>553.6</ele>
        <time>2021-08-09T12:25:34Z</time>
      </trkpt>
      <trkpt lat="46.56283" lon="5.80755">
        <ele>553.8</ele>
        <time>2021-08-09T12:25:36Z</time>
      </trkpt>
      <trkpt lat="46.56281" lon="5.80768">
        <ele>554</ele>
        <time>2021-08-09T12:25:38Z</time>
      </trkpt>
      <trkpt lat="46.56283" lon="5.80788">
        <ele>554.8</ele>
        <time>2021-08-09T12:25:42Z</time>
      </trkpt>
      <trkpt lat="46.56289" lon="5.80795">
        <ele>556</ele>
        <time>2021-08-09T12:25:45Z</time>
      </trkpt>
      <trkpt lat="46.56292" lon="5.80795">
        <ele>556.6</ele>
        <time>2021-08-09T12:25:46Z</time>
      </trkpt>
      <trkpt lat="46.56298" lon="5.80794">
        <ele>557.2</ele>
        <time>2021-08-09T12:25:48Z</time>
      </trkpt>
      <trkpt lat="46.56306" lon="5.8079">
        <ele>558</ele>
        <time>2021-08-09T12:25:51Z</time>
      </trkpt>
      <trkpt lat="46.56309" lon="5.8079">
        <ele>558.2</ele>
        <time>2021-08-09T12:25:52Z</time>
      </trkpt>
      <trkpt lat="46.56319" lon="5.80784">
        <ele>559.6</ele>
        <time>2021-08-09T12:25:56Z</time>
      </trkpt>
      <trkpt lat="46.56325" lon="5.80781">
        <ele>560.2</ele>
        <time>2021-08-09T12:25:58Z</time>
      </trkpt>
      <trkpt lat="46.5633" lon="5.80778">
        <ele>560.6</ele>
        <time>2021-08-09T12:26:00Z</time>
      </trkpt>
      <trkpt lat="46.5634" lon="5.80776">
        <ele>561.6</ele>
        <time>2021-08-09T12:26:04Z</time>
      </trkpt>
      <trkpt lat="46.56351" lon="5.80771">
        <ele>562.8</ele>
        <time>2021-08-09T12:26:08Z</time>
      </trkpt>
      <trkpt lat="46.56356" lon="5.80768">
        <ele>563.2</ele>
        <time>2021-08-09T12:26:10Z</time>
      </trkpt>
      <trkpt lat="46.56361" lon="5.80765">
        <ele>563.6</ele>
        <time>2021-08-09T12:26:12Z</time>
      </trkpt>
      <trkpt lat="46.56364" lon="5.80764">
        <ele>564.2</ele>
        <time>2021-08-09T12:26:13Z</time>
      </trkpt>
      <trkpt lat="46.56367" lon="5.80763">
        <ele>564.4</ele>
        <time>2021-08-09T12:26:14Z</time>
      </trkpt>
      <trkpt lat="46.56373" lon="5.80759">
        <ele>565.2</ele>
        <time>2021-08-09T12:26:16Z</time>
      </trkpt>
      <trkpt lat="46.56381" lon="5.80751">
        <ele>565.8</ele>
        <time>2021-08-09T12:26:19Z</time>
      </trkpt>
      <trkpt lat="46.56386" lon="5.80746">
        <ele>566.2</ele>
        <time>2021-08-09T12:26:21Z</time>
      </trkpt>
      <trkpt lat="46.56391" lon="5.80741">
        <ele>566.8</ele>
        <time>2021-08-09T12:26:23Z</time>
      </trkpt>
      <trkpt lat="46.56393" lon="5.80739">
        <ele>567</ele>
        <time>2021-08-09T12:26:24Z</time>
      </trkpt>
      <trkpt lat="46.56396" lon="5.80737">
        <ele>567.4</ele>
        <time>2021-08-09T12:26:25Z</time>
      </trkpt>
      <trkpt lat="46.56406" lon="5.80728">
        <ele>568</ele>
        <time>2021-08-09T12:26:29Z</time>
      </trkpt>
      <trkpt lat="46.56412" lon="5.80724">
        <ele>568.8</ele>
        <time>2021-08-09T12:26:31Z</time>
      </trkpt>
      <trkpt lat="46.56421" lon="5.80715">
        <ele>569.6</ele>
        <time>2021-08-09T12:26:35Z</time>
      </trkpt>
      <trkpt lat="46.56423" lon="5.80713">
        <ele>569.8</ele>
        <time>2021-08-09T12:26:36Z</time>
      </trkpt>
      <trkpt lat="46.56429" lon="5.80699">
        <ele>570.4</ele>
        <time>2021-08-09T12:26:39Z</time>
      </trkpt>
      <trkpt lat="46.56432" lon="5.80695">
        <ele>570.8</ele>
        <time>2021-08-09T12:26:41Z</time>
      </trkpt>
      <trkpt lat="46.5644" lon="5.80681">
        <ele>571.8</ele>
        <time>2021-08-09T12:26:45Z</time>
      </trkpt>
      <trkpt lat="46.56451" lon="5.80667">
        <ele>573.2</ele>
        <time>2021-08-09T12:26:50Z</time>
      </trkpt>
      <trkpt lat="46.56456" lon="5.80662">
        <ele>574</ele>
        <time>2021-08-09T12:26:53Z</time>
      </trkpt>
      <trkpt lat="46.56457" lon="5.8066">
        <ele>574.2</ele>
        <time>2021-08-09T12:26:54Z</time>
      </trkpt>
      <trkpt lat="46.56463" lon="5.80651">
        <ele>575.4</ele>
        <time>2021-08-09T12:26:58Z</time>
      </trkpt>
      <trkpt lat="46.56468" lon="5.80646">
        <ele>576.6</ele>
        <time>2021-08-09T12:27:01Z</time>
      </trkpt>
      <trkpt lat="46.56474" lon="5.80641">
        <ele>577.6</ele>
        <time>2021-08-09T12:27:04Z</time>
      </trkpt>
      <trkpt lat="46.56476" lon="5.8064">
        <ele>577.8</ele>
        <time>2021-08-09T12:27:05Z</time>
      </trkpt>
      <trkpt lat="46.56482" lon="5.80636">
        <ele>579</ele>
        <time>2021-08-09T12:27:08Z</time>
      </trkpt>
      <trkpt lat="46.56491" lon="5.80629">
        <ele>580</ele>
        <time>2021-08-09T12:27:12Z</time>
      </trkpt>
      <trkpt lat="46.56494" lon="5.80628">
        <ele>580</ele>
        <time>2021-08-09T12:27:13Z</time>
      </trkpt>
      <trkpt lat="46.56505" lon="5.80619">
        <ele>581</ele>
        <time>2021-08-09T12:27:18Z</time>
      </trkpt>
      <trkpt lat="46.5651" lon="5.80615">
        <ele>581.6</ele>
        <time>2021-08-09T12:27:20Z</time>
      </trkpt>
      <trkpt lat="46.56514" lon="5.80611">
        <ele>582</ele>
        <time>2021-08-09T12:27:22Z</time>
      </trkpt>
      <trkpt lat="46.56524" lon="5.806">
        <ele>583.4</ele>
        <time>2021-08-09T12:27:27Z</time>
      </trkpt>
      <trkpt lat="46.56535" lon="5.80588">
        <ele>584.2</ele>
        <time>2021-08-09T12:27:32Z</time>
      </trkpt>
      <trkpt lat="46.56536" lon="5.80586">
        <ele>584.4</ele>
        <time>2021-08-09T12:27:33Z</time>
      </trkpt>
      <trkpt lat="46.56541" lon="5.80579">
        <ele>585.6</ele>
        <time>2021-08-09T12:27:36Z</time>
      </trkpt>
      <trkpt lat="46.56542" lon="5.80578">
        <ele>585.4</ele>
        <time>2021-08-09T12:27:37Z</time>
      </trkpt>
      <trkpt lat="46.56549" lon="5.80574">
        <ele>586.4</ele>
        <time>2021-08-09T12:27:40Z</time>
      </trkpt>
      <trkpt lat="46.56554" lon="5.80569">
        <ele>587.6</ele>
        <time>2021-08-09T12:27:43Z</time>
      </trkpt>
      <trkpt lat="46.56555" lon="5.80568">
        <ele>588</ele>
        <time>2021-08-09T12:27:44Z</time>
      </trkpt>
      <trkpt lat="46.56563" lon="5.80563">
        <ele>589</ele>
        <time>2021-08-09T12:27:48Z</time>
      </trkpt>
      <trkpt lat="46.56567" lon="5.80558">
        <ele>589.4</ele>
        <time>2021-08-09T12:27:51Z</time>
      </trkpt>
      <trkpt lat="46.56571" lon="5.80553">
        <ele>590.2</ele>
        <time>2021-08-09T12:27:53Z</time>
      </trkpt>
      <trkpt lat="46.56577" lon="5.80543">
        <ele>591.4</ele>
        <time>2021-08-09T12:27:57Z</time>
      </trkpt>
      <trkpt lat="46.56583" lon="5.80534">
        <ele>592</ele>
        <time>2021-08-09T12:28:00Z</time>
      </trkpt>
      <trkpt lat="46.56587" lon="5.80527">
        <ele>592.4</ele>
        <time>2021-08-09T12:28:02Z</time>
      </trkpt>
      <trkpt lat="46.56596" lon="5.80514">
        <ele>593.2</ele>
        <time>2021-08-09T12:28:06Z</time>
      </trkpt>
      <trkpt lat="46.56598" lon="5.80513">
        <ele>593.4</ele>
        <time>2021-08-09T12:28:07Z</time>
      </trkpt>
      <trkpt lat="46.56606" lon="5.80502">
        <ele>594.6</ele>
        <time>2021-08-09T12:28:11Z</time>
      </trkpt>
      <trkpt lat="46.56615" lon="5.8049">
        <ele>595.6</ele>
        <time>2021-08-09T12:28:15Z</time>
      </trkpt>
      <trkpt lat="46.56617" lon="5.80489">
        <ele>595.8</ele>
        <time>2021-08-09T12:28:16Z</time>
      </trkpt>
      <trkpt lat="46.56625" lon="5.80477">
        <ele>596.6</ele>
        <time>2021-08-09T12:28:20Z</time>
      </trkpt>
      <trkpt lat="46.56627" lon="5.80471">
        <ele>596.8</ele>
        <time>2021-08-09T12:28:21Z</time>
      </trkpt>
      <trkpt lat="46.56629" lon="5.80468">
        <ele>597</ele>
        <time>2021-08-09T12:28:22Z</time>
      </trkpt>
      <trkpt lat="46.56638" lon="5.80455">
        <ele>597.6</ele>
        <time>2021-08-09T12:28:26Z</time>
      </trkpt>
      <trkpt lat="46.5664" lon="5.80452">
        <ele>597.8</ele>
        <time>2021-08-09T12:28:27Z</time>
      </trkpt>
      <trkpt lat="46.56647" lon="5.80443">
        <ele>598.4</ele>
        <time>2021-08-09T12:28:30Z</time>
      </trkpt>
      <trkpt lat="46.56652" lon="5.80437">
        <ele>598.8</ele>
        <time>2021-08-09T12:28:32Z</time>
      </trkpt>
      <trkpt lat="46.56659" lon="5.80432">
        <ele>599.2</ele>
        <time>2021-08-09T12:28:35Z</time>
      </trkpt>
      <trkpt lat="46.56663" lon="5.80428">
        <ele>599.6</ele>
        <time>2021-08-09T12:28:37Z</time>
      </trkpt>
      <trkpt lat="46.56677" lon="5.80413">
        <ele>600.8</ele>
        <time>2021-08-09T12:28:43Z</time>
      </trkpt>
      <trkpt lat="46.5668" lon="5.80411">
        <ele>601</ele>
        <time>2021-08-09T12:28:44Z</time>
      </trkpt>
      <trkpt lat="46.56698" lon="5.80391">
        <ele>601.8</ele>
        <time>2021-08-09T12:28:50Z</time>
      </trkpt>
      <trkpt lat="46.56701" lon="5.80388">
        <ele>601.8</ele>
        <time>2021-08-09T12:28:51Z</time>
      </trkpt>
      <trkpt lat="46.56719" lon="5.80369">
        <ele>602.8</ele>
        <time>2021-08-09T12:28:56Z</time>
      </trkpt>
      <trkpt lat="46.56723" lon="5.80367">
        <ele>603</ele>
        <time>2021-08-09T12:28:57Z</time>
      </trkpt>
      <trkpt lat="46.56738" lon="5.80354">
        <ele>603.6</ele>
        <time>2021-08-09T12:29:01Z</time>
      </trkpt>
      <trkpt lat="46.5675" lon="5.80341">
        <ele>604.2</ele>
        <time>2021-08-09T12:29:04Z</time>
      </trkpt>
      <trkpt lat="46.56762" lon="5.8033">
        <ele>604.4</ele>
        <time>2021-08-09T12:29:07Z</time>
      </trkpt>
      <trkpt lat="46.5679" lon="5.80301">
        <ele>605.4</ele>
        <time>2021-08-09T12:29:14Z</time>
      </trkpt>
      <trkpt lat="46.56794" lon="5.80298">
        <ele>605.4</ele>
        <time>2021-08-09T12:29:15Z</time>
      </trkpt>
      <trkpt lat="46.56808" lon="5.80286">
        <ele>606.2</ele>
        <time>2021-08-09T12:29:19Z</time>
      </trkpt>
      <trkpt lat="46.56812" lon="5.80283">
        <ele>606.4</ele>
        <time>2021-08-09T12:29:20Z</time>
      </trkpt>
      <trkpt lat="46.56815" lon="5.80281">
        <ele>606.6</ele>
        <time>2021-08-09T12:29:21Z</time>
      </trkpt>
      <trkpt lat="46.56832" lon="5.80267">
        <ele>607.6</ele>
        <time>2021-08-09T12:29:26Z</time>
      </trkpt>
      <trkpt lat="46.56835" lon="5.80264">
        <ele>607.8</ele>
        <time>2021-08-09T12:29:27Z</time>
      </trkpt>
      <trkpt lat="46.56851" lon="5.80252">
        <ele>608.4</ele>
        <time>2021-08-09T12:29:32Z</time>
      </trkpt>
      <trkpt lat="46.56854" lon="5.8025">
        <ele>608.8</ele>
        <time>2021-08-09T12:29:33Z</time>
      </trkpt>
      <trkpt lat="46.5686" lon="5.80245">
        <ele>609.6</ele>
        <time>2021-08-09T12:29:35Z</time>
      </trkpt>
      <trkpt lat="46.56873" lon="5.80237">
        <ele>609.8</ele>
        <time>2021-08-09T12:29:39Z</time>
      </trkpt>
      <trkpt lat="46.56885" lon="5.80229">
        <ele>610.8</ele>
        <time>2021-08-09T12:29:43Z</time>
      </trkpt>
      <trkpt lat="46.56893" lon="5.80223">
        <ele>611.4</ele>
        <time>2021-08-09T12:29:46Z</time>
      </trkpt>
      <trkpt lat="46.56898" lon="5.80217">
        <ele>612</ele>
        <time>2021-08-09T12:29:48Z</time>
      </trkpt>
      <trkpt lat="46.56912" lon="5.802">
        <ele>613.4</ele>
        <time>2021-08-09T12:29:54Z</time>
      </trkpt>
      <trkpt lat="46.5692" lon="5.80196">
        <ele>614.8</ele>
        <time>2021-08-09T12:29:57Z</time>
      </trkpt>
      <trkpt lat="46.56925" lon="5.8019">
        <ele>615.2</ele>
        <time>2021-08-09T12:29:59Z</time>
      </trkpt>
      <trkpt lat="46.5693" lon="5.80186">
        <ele>615.8</ele>
        <time>2021-08-09T12:30:01Z</time>
      </trkpt>
      <trkpt lat="46.56932" lon="5.80183">
        <ele>616</ele>
        <time>2021-08-09T12:30:02Z</time>
      </trkpt>
      <trkpt lat="46.56939" lon="5.80177">
        <ele>617.4</ele>
        <time>2021-08-09T12:30:05Z</time>
      </trkpt>
      <trkpt lat="46.56952" lon="5.80165">
        <ele>618.8</ele>
        <time>2021-08-09T12:30:09Z</time>
      </trkpt>
      <trkpt lat="46.56953" lon="5.80163">
        <ele>618.8</ele>
        <time>2021-08-09T12:30:10Z</time>
      </trkpt>
      <trkpt lat="46.56954" lon="5.80162">
        <ele>619</ele>
        <time>2021-08-09T12:30:11Z</time>
      </trkpt>
      <trkpt lat="46.56965" lon="5.80152">
        <ele>619.6</ele>
        <time>2021-08-09T12:30:15Z</time>
      </trkpt>
      <trkpt lat="46.56969" lon="5.80148">
        <ele>620.2</ele>
        <time>2021-08-09T12:30:17Z</time>
      </trkpt>
      <trkpt lat="46.56975" lon="5.80142">
        <ele>621.2</ele>
        <time>2021-08-09T12:30:20Z</time>
      </trkpt>
      <trkpt lat="46.56979" lon="5.80143">
        <ele>622.2</ele>
        <time>2021-08-09T12:30:22Z</time>
      </trkpt>
      <trkpt lat="46.56985" lon="5.80134">
        <ele>623.2</ele>
        <time>2021-08-09T12:30:25Z</time>
      </trkpt>
      <trkpt lat="46.56988" lon="5.80133">
        <ele>623.4</ele>
        <time>2021-08-09T12:30:27Z</time>
      </trkpt>
      <trkpt lat="46.5699" lon="5.80132">
        <ele>623.8</ele>
        <time>2021-08-09T12:30:28Z</time>
      </trkpt>
      <trkpt lat="46.56993" lon="5.80131">
        <ele>624</ele>
        <time>2021-08-09T12:30:29Z</time>
      </trkpt>
      <trkpt lat="46.56997" lon="5.80131">
        <ele>624.6</ele>
        <time>2021-08-09T12:30:31Z</time>
      </trkpt>
      <trkpt lat="46.57007" lon="5.80122">
        <ele>625.8</ele>
        <time>2021-08-09T12:30:34Z</time>
      </trkpt>
      <trkpt lat="46.57012" lon="5.8012">
        <ele>626.4</ele>
        <time>2021-08-09T12:30:36Z</time>
      </trkpt>
      <trkpt lat="46.57015" lon="5.80118">
        <ele>627</ele>
        <time>2021-08-09T12:30:38Z</time>
      </trkpt>
      <trkpt lat="46.57022" lon="5.8011">
        <ele>628.4</ele>
        <time>2021-08-09T12:30:42Z</time>
      </trkpt>
      <trkpt lat="46.57033" lon="5.801">
        <ele>629.2</ele>
        <time>2021-08-09T12:30:47Z</time>
      </trkpt>
      <trkpt lat="46.57034" lon="5.80098">
        <ele>629.8</ele>
        <time>2021-08-09T12:30:48Z</time>
      </trkpt>
      <trkpt lat="46.57042" lon="5.80098">
        <ele>630.4</ele>
        <time>2021-08-09T12:30:51Z</time>
      </trkpt>
      <trkpt lat="46.57045" lon="5.80097">
        <ele>630.6</ele>
        <time>2021-08-09T12:30:52Z</time>
      </trkpt>
      <trkpt lat="46.57049" lon="5.80095">
        <ele>631</ele>
        <time>2021-08-09T12:30:54Z</time>
      </trkpt>
      <trkpt lat="46.57053" lon="5.80088">
        <ele>632</ele>
        <time>2021-08-09T12:30:56Z</time>
      </trkpt>
      <trkpt lat="46.57059" lon="5.80082">
        <ele>633.2</ele>
        <time>2021-08-09T12:31:00Z</time>
      </trkpt>
      <trkpt lat="46.57065" lon="5.80079">
        <ele>634.2</ele>
        <time>2021-08-09T12:31:04Z</time>
      </trkpt>
      <trkpt lat="46.57068" lon="5.8008">
        <ele>634.6</ele>
        <time>2021-08-09T12:31:06Z</time>
      </trkpt>
      <trkpt lat="46.57071" lon="5.8008">
        <ele>635.2</ele>
        <time>2021-08-09T12:31:07Z</time>
      </trkpt>
      <trkpt lat="46.57073" lon="5.80079">
        <ele>635.4</ele>
        <time>2021-08-09T12:31:08Z</time>
      </trkpt>
      <trkpt lat="46.57076" lon="5.80077">
        <ele>635.8</ele>
        <time>2021-08-09T12:31:09Z</time>
      </trkpt>
      <trkpt lat="46.57084" lon="5.80071">
        <ele>636.4</ele>
        <time>2021-08-09T12:31:12Z</time>
      </trkpt>
      <trkpt lat="46.57092" lon="5.80068">
        <ele>637.2</ele>
        <time>2021-08-09T12:31:15Z</time>
      </trkpt>
      <trkpt lat="46.57093" lon="5.80067">
        <ele>637.6</ele>
        <time>2021-08-09T12:31:16Z</time>
      </trkpt>
      <trkpt lat="46.57099" lon="5.80064">
        <ele>638.4</ele>
        <time>2021-08-09T12:31:19Z</time>
      </trkpt>
      <trkpt lat="46.571" lon="5.80062">
        <ele>638.6</ele>
        <time>2021-08-09T12:31:20Z</time>
      </trkpt>
      <trkpt lat="46.57111" lon="5.80056">
        <ele>639.8</ele>
        <time>2021-08-09T12:31:25Z</time>
      </trkpt>
      <trkpt lat="46.57116" lon="5.80054">
        <ele>640.8</ele>
        <time>2021-08-09T12:31:28Z</time>
      </trkpt>
      <trkpt lat="46.57118" lon="5.80053">
        <ele>641</ele>
        <time>2021-08-09T12:31:29Z</time>
      </trkpt>
      <trkpt lat="46.57125" lon="5.80049">
        <ele>642</ele>
        <time>2021-08-09T12:31:33Z</time>
      </trkpt>
      <trkpt lat="46.57129" lon="5.80049">
        <ele>642.4</ele>
        <time>2021-08-09T12:31:35Z</time>
      </trkpt>
      <trkpt lat="46.57137" lon="5.80047">
        <ele>643.4</ele>
        <time>2021-08-09T12:31:39Z</time>
      </trkpt>
      <trkpt lat="46.57147" lon="5.80045">
        <ele>644.8</ele>
        <time>2021-08-09T12:31:44Z</time>
      </trkpt>
      <trkpt lat="46.57151" lon="5.80045">
        <ele>645.2</ele>
        <time>2021-08-09T12:31:46Z</time>
      </trkpt>
      <trkpt lat="46.57158" lon="5.80044">
        <ele>646</ele>
        <time>2021-08-09T12:31:49Z</time>
      </trkpt>
      <trkpt lat="46.57172" lon="5.80034">
        <ele>647.2</ele>
        <time>2021-08-09T12:31:55Z</time>
      </trkpt>
      <trkpt lat="46.57175" lon="5.80033">
        <ele>647.4</ele>
        <time>2021-08-09T12:31:56Z</time>
      </trkpt>
      <trkpt lat="46.57182" lon="5.8003">
        <ele>648.2</ele>
        <time>2021-08-09T12:31:59Z</time>
      </trkpt>
      <trkpt lat="46.57186" lon="5.80024">
        <ele>648.6</ele>
        <time>2021-08-09T12:32:01Z</time>
      </trkpt>
      <trkpt lat="46.57196" lon="5.80016">
        <ele>649.6</ele>
        <time>2021-08-09T12:32:05Z</time>
      </trkpt>
      <trkpt lat="46.57203" lon="5.80012">
        <ele>650.8</ele>
        <time>2021-08-09T12:32:08Z</time>
      </trkpt>
      <trkpt lat="46.57206" lon="5.80011">
        <ele>651</ele>
        <time>2021-08-09T12:32:09Z</time>
      </trkpt>
      <trkpt lat="46.57216" lon="5.80007">
        <ele>651.8</ele>
        <time>2021-08-09T12:32:13Z</time>
      </trkpt>
      <trkpt lat="46.57221" lon="5.80004">
        <ele>652.2</ele>
        <time>2021-08-09T12:32:15Z</time>
      </trkpt>
      <trkpt lat="46.57227" lon="5.80001">
        <ele>652.8</ele>
        <time>2021-08-09T12:32:17Z</time>
      </trkpt>
      <trkpt lat="46.57236" lon="5.79998">
        <ele>653.2</ele>
        <time>2021-08-09T12:32:20Z</time>
      </trkpt>
      <trkpt lat="46.57248" lon="5.79995">
        <ele>653.8</ele>
        <time>2021-08-09T12:32:24Z</time>
      </trkpt>
      <trkpt lat="46.5725" lon="5.79995">
        <ele>654</ele>
        <time>2021-08-09T12:32:25Z</time>
      </trkpt>
      <trkpt lat="46.57258" lon="5.79993">
        <ele>654.6</ele>
        <time>2021-08-09T12:32:28Z</time>
      </trkpt>
      <trkpt lat="46.57265" lon="5.79991">
        <ele>655</ele>
        <time>2021-08-09T12:32:31Z</time>
      </trkpt>
      <trkpt lat="46.57268" lon="5.79991">
        <ele>655.4</ele>
        <time>2021-08-09T12:32:32Z</time>
      </trkpt>
      <trkpt lat="46.57271" lon="5.79985">
        <ele>656</ele>
        <time>2021-08-09T12:32:34Z</time>
      </trkpt>
      <trkpt lat="46.57273" lon="5.79989">
        <ele>656.2</ele>
        <time>2021-08-09T12:32:35Z</time>
      </trkpt>
      <trkpt lat="46.57278" lon="5.79993">
        <ele>656.4</ele>
        <time>2021-08-09T12:32:37Z</time>
      </trkpt>
      <trkpt lat="46.57284" lon="5.79991">
        <ele>657.2</ele>
        <time>2021-08-09T12:32:39Z</time>
      </trkpt>
      <trkpt lat="46.57287" lon="5.7999">
        <ele>657.6</ele>
        <time>2021-08-09T12:32:40Z</time>
      </trkpt>
      <trkpt lat="46.5729" lon="5.79988">
        <ele>657.8</ele>
        <time>2021-08-09T12:32:41Z</time>
      </trkpt>
      <trkpt lat="46.57294" lon="5.79987">
        <ele>658.2</ele>
        <time>2021-08-09T12:32:43Z</time>
      </trkpt>
      <trkpt lat="46.57297" lon="5.79986">
        <ele>658.6</ele>
        <time>2021-08-09T12:32:44Z</time>
      </trkpt>
      <trkpt lat="46.57302" lon="5.79982">
        <ele>659</ele>
        <time>2021-08-09T12:32:46Z</time>
      </trkpt>
      <trkpt lat="46.57303" lon="5.79983">
        <ele>659</ele>
        <time>2021-08-09T12:32:47Z</time>
      </trkpt>
      <trkpt lat="46.57306" lon="5.79984">
        <ele>659.6</ele>
        <time>2021-08-09T12:32:48Z</time>
      </trkpt>
      <trkpt lat="46.57309" lon="5.79985">
        <ele>660</ele>
        <time>2021-08-09T12:32:49Z</time>
      </trkpt>
      <trkpt lat="46.57314" lon="5.79987">
        <ele>660.6</ele>
        <time>2021-08-09T12:32:51Z</time>
      </trkpt>
      <trkpt lat="46.57318" lon="5.79989">
        <ele>661</ele>
        <time>2021-08-09T12:32:53Z</time>
      </trkpt>
      <trkpt lat="46.57323" lon="5.79989">
        <ele>661.6</ele>
        <time>2021-08-09T12:32:55Z</time>
      </trkpt>
      <trkpt lat="46.57325" lon="5.7999">
        <ele>662.2</ele>
        <time>2021-08-09T12:32:56Z</time>
      </trkpt>
      <trkpt lat="46.57327" lon="5.79991">
        <ele>662.4</ele>
        <time>2021-08-09T12:32:57Z</time>
      </trkpt>
      <trkpt lat="46.5733" lon="5.79995">
        <ele>662.8</ele>
        <time>2021-08-09T12:32:59Z</time>
      </trkpt>
      <trkpt lat="46.57331" lon="5.79999">
        <ele>663</ele>
        <time>2021-08-09T12:33:00Z</time>
      </trkpt>
      <trkpt lat="46.57333" lon="5.80003">
        <ele>663.2</ele>
        <time>2021-08-09T12:33:01Z</time>
      </trkpt>
      <trkpt lat="46.57343" lon="5.80017">
        <ele>663.8</ele>
        <time>2021-08-09T12:33:05Z</time>
      </trkpt>
      <trkpt lat="46.57349" lon="5.80025">
        <ele>663.8</ele>
        <time>2021-08-09T12:33:07Z</time>
      </trkpt>
      <trkpt lat="46.57357" lon="5.80033">
        <ele>663.8</ele>
        <time>2021-08-09T12:33:09Z</time>
      </trkpt>
      <trkpt lat="46.57364" lon="5.80042">
        <ele>663.4</ele>
        <time>2021-08-09T12:33:11Z</time>
      </trkpt>
      <trkpt lat="46.57366" lon="5.80055">
        <ele>662.8</ele>
        <time>2021-08-09T12:33:13Z</time>
      </trkpt>
      <trkpt lat="46.57366" lon="5.80076">
        <ele>662.4</ele>
        <time>2021-08-09T12:33:16Z</time>
      </trkpt>
      <trkpt lat="46.57365" lon="5.80083">
        <ele>662.2</ele>
        <time>2021-08-09T12:33:17Z</time>
      </trkpt>
      <trkpt lat="46.57363" lon="5.80089">
        <ele>662.2</ele>
        <time>2021-08-09T12:33:18Z</time>
      </trkpt>
      <trkpt lat="46.57362" lon="5.80096">
        <ele>662.2</ele>
        <time>2021-08-09T12:33:19Z</time>
      </trkpt>
      <trkpt lat="46.57357" lon="5.80142">
        <ele>662</ele>
        <time>2021-08-09T12:33:25Z</time>
      </trkpt>
      <trkpt lat="46.57354" lon="5.80165">
        <ele>662</ele>
        <time>2021-08-09T12:33:28Z</time>
      </trkpt>
      <trkpt lat="46.57348" lon="5.80191">
        <ele>661.6</ele>
        <time>2021-08-09T12:33:32Z</time>
      </trkpt>
      <trkpt lat="46.57346" lon="5.80197">
        <ele>661.6</ele>
        <time>2021-08-09T12:33:33Z</time>
      </trkpt>
      <trkpt lat="46.57348" lon="5.80204">
        <ele>661.8</ele>
        <time>2021-08-09T12:33:35Z</time>
      </trkpt>
      <trkpt lat="46.57365" lon="5.80213">
        <ele>662</ele>
        <time>2021-08-09T12:33:39Z</time>
      </trkpt>
      <trkpt lat="46.57369" lon="5.80216">
        <ele>662</ele>
        <time>2021-08-09T12:33:40Z</time>
      </trkpt>
      <trkpt lat="46.57381" lon="5.80226">
        <ele>662</ele>
        <time>2021-08-09T12:33:43Z</time>
      </trkpt>
      <trkpt lat="46.57383" lon="5.8023">
        <ele>662</ele>
        <time>2021-08-09T12:33:44Z</time>
      </trkpt>
      <trkpt lat="46.57385" lon="5.80234">
        <ele>661.8</ele>
        <time>2021-08-09T12:33:45Z</time>
      </trkpt>
      <trkpt lat="46.57384" lon="5.8025">
        <ele>661.8</ele>
        <time>2021-08-09T12:33:48Z</time>
      </trkpt>
      <trkpt lat="46.5738" lon="5.80287">
        <ele>662.4</ele>
        <time>2021-08-09T12:33:54Z</time>
      </trkpt>
      <trkpt lat="46.57377" lon="5.80324">
        <ele>663.8</ele>
        <time>2021-08-09T12:34:00Z</time>
      </trkpt>
      <trkpt lat="46.57375" lon="5.80343">
        <ele>664.6</ele>
        <time>2021-08-09T12:34:03Z</time>
      </trkpt>
      <trkpt lat="46.57374" lon="5.80354">
        <ele>665</ele>
        <time>2021-08-09T12:34:05Z</time>
      </trkpt>
      <trkpt lat="46.5737" lon="5.8038">
        <ele>666.2</ele>
        <time>2021-08-09T12:34:10Z</time>
      </trkpt>
      <trkpt lat="46.57368" lon="5.80391">
        <ele>666.8</ele>
        <time>2021-08-09T12:34:12Z</time>
      </trkpt>
      <trkpt lat="46.57366" lon="5.80407">
        <ele>667.4</ele>
        <time>2021-08-09T12:34:15Z</time>
      </trkpt>
      <trkpt lat="46.57364" lon="5.8043">
        <ele>668.8</ele>
        <time>2021-08-09T12:34:19Z</time>
      </trkpt>
      <trkpt lat="46.57363" lon="5.80446">
        <ele>669.4</ele>
        <time>2021-08-09T12:34:22Z</time>
      </trkpt>
      <trkpt lat="46.57361" lon="5.80457">
        <ele>670</ele>
        <time>2021-08-09T12:34:24Z</time>
      </trkpt>
      <trkpt lat="46.57358" lon="5.80486">
        <ele>671.2</ele>
        <time>2021-08-09T12:34:29Z</time>
      </trkpt>
      <trkpt lat="46.57357" lon="5.80497">
        <ele>671.4</ele>
        <time>2021-08-09T12:34:31Z</time>
      </trkpt>
      <trkpt lat="46.57353" lon="5.80523">
        <ele>672.2</ele>
        <time>2021-08-09T12:34:36Z</time>
      </trkpt>
      <trkpt lat="46.5735" lon="5.80538">
        <ele>672.8</ele>
        <time>2021-08-09T12:34:39Z</time>
      </trkpt>
      <trkpt lat="46.57346" lon="5.8056">
        <ele>673.4</ele>
        <time>2021-08-09T12:34:43Z</time>
      </trkpt>
      <trkpt lat="46.57341" lon="5.80575">
        <ele>674</ele>
        <time>2021-08-09T12:34:46Z</time>
      </trkpt>
      <trkpt lat="46.57334" lon="5.80588">
        <ele>674.6</ele>
        <time>2021-08-09T12:34:49Z</time>
      </trkpt>
      <trkpt lat="46.57318" lon="5.80611">
        <ele>675.8</ele>
        <time>2021-08-09T12:34:55Z</time>
      </trkpt>
      <trkpt lat="46.57304" lon="5.80628">
        <ele>677</ele>
        <time>2021-08-09T12:35:00Z</time>
      </trkpt>
      <trkpt lat="46.57297" lon="5.80635">
        <ele>677.6</ele>
        <time>2021-08-09T12:35:02Z</time>
      </trkpt>
      <trkpt lat="46.5729" lon="5.80644">
        <ele>678.2</ele>
        <time>2021-08-09T12:35:05Z</time>
      </trkpt>
      <trkpt lat="46.57281" lon="5.80654">
        <ele>678.8</ele>
        <time>2021-08-09T12:35:08Z</time>
      </trkpt>
      <trkpt lat="46.5727" lon="5.80669">
        <ele>679.4</ele>
        <time>2021-08-09T12:35:12Z</time>
      </trkpt>
      <trkpt lat="46.57259" lon="5.80685">
        <ele>680</ele>
        <time>2021-08-09T12:35:16Z</time>
      </trkpt>
      <trkpt lat="46.57257" lon="5.8069">
        <ele>680.4</ele>
        <time>2021-08-09T12:35:17Z</time>
      </trkpt>
      <trkpt lat="46.57248" lon="5.80704">
        <ele>681</ele>
        <time>2021-08-09T12:35:20Z</time>
      </trkpt>
      <trkpt lat="46.57238" lon="5.80725">
        <ele>681.6</ele>
        <time>2021-08-09T12:35:24Z</time>
      </trkpt>
      <trkpt lat="46.57235" lon="5.8073">
        <ele>681.8</ele>
        <time>2021-08-09T12:35:25Z</time>
      </trkpt>
      <trkpt lat="46.57233" lon="5.80735">
        <ele>682.4</ele>
        <time>2021-08-09T12:35:26Z</time>
      </trkpt>
      <trkpt lat="46.5723" lon="5.8074">
        <ele>682.8</ele>
        <time>2021-08-09T12:35:27Z</time>
      </trkpt>
      <trkpt lat="46.57225" lon="5.80752">
        <ele>683.2</ele>
        <time>2021-08-09T12:35:29Z</time>
      </trkpt>
      <trkpt lat="46.57217" lon="5.80766">
        <ele>683.6</ele>
        <time>2021-08-09T12:35:32Z</time>
      </trkpt>
      <trkpt lat="46.57214" lon="5.80771">
        <ele>683.8</ele>
        <time>2021-08-09T12:35:33Z</time>
      </trkpt>
      <trkpt lat="46.57208" lon="5.80786">
        <ele>685</ele>
        <time>2021-08-09T12:35:36Z</time>
      </trkpt>
      <trkpt lat="46.57203" lon="5.80796">
        <ele>685.6</ele>
        <time>2021-08-09T12:35:38Z</time>
      </trkpt>
      <trkpt lat="46.57198" lon="5.80807">
        <ele>686.2</ele>
        <time>2021-08-09T12:35:40Z</time>
      </trkpt>
      <trkpt lat="46.57188" lon="5.8083">
        <ele>687.2</ele>
        <time>2021-08-09T12:35:44Z</time>
      </trkpt>
      <trkpt lat="46.57186" lon="5.80835">
        <ele>687.4</ele>
        <time>2021-08-09T12:35:45Z</time>
      </trkpt>
      <trkpt lat="46.5717" lon="5.80864">
        <ele>688.2</ele>
        <time>2021-08-09T12:35:51Z</time>
      </trkpt>
      <trkpt lat="46.57168" lon="5.80869">
        <ele>688.4</ele>
        <time>2021-08-09T12:35:52Z</time>
      </trkpt>
      <trkpt lat="46.57158" lon="5.80887">
        <ele>689.2</ele>
        <time>2021-08-09T12:35:56Z</time>
      </trkpt>
      <trkpt lat="46.57155" lon="5.80891">
        <ele>689.6</ele>
        <time>2021-08-09T12:35:57Z</time>
      </trkpt>
      <trkpt lat="46.57148" lon="5.80904">
        <ele>690.4</ele>
        <time>2021-08-09T12:36:00Z</time>
      </trkpt>
      <trkpt lat="46.57142" lon="5.80911">
        <ele>690.6</ele>
        <time>2021-08-09T12:36:02Z</time>
      </trkpt>
      <trkpt lat="46.57132" lon="5.80922">
        <ele>691</ele>
        <time>2021-08-09T12:36:05Z</time>
      </trkpt>
      <trkpt lat="46.57122" lon="5.80931">
        <ele>691.8</ele>
        <time>2021-08-09T12:36:08Z</time>
      </trkpt>
      <trkpt lat="46.57106" lon="5.80948">
        <ele>692.6</ele>
        <time>2021-08-09T12:36:13Z</time>
      </trkpt>
      <trkpt lat="46.571" lon="5.80956">
        <ele>692.8</ele>
        <time>2021-08-09T12:36:15Z</time>
      </trkpt>
      <trkpt lat="46.57093" lon="5.8097">
        <ele>694</ele>
        <time>2021-08-09T12:36:18Z</time>
      </trkpt>
      <trkpt lat="46.5709" lon="5.80975">
        <ele>694.2</ele>
        <time>2021-08-09T12:36:19Z</time>
      </trkpt>
      <trkpt lat="46.57083" lon="5.8099">
        <ele>695.2</ele>
        <time>2021-08-09T12:36:22Z</time>
      </trkpt>
      <trkpt lat="46.5707" lon="5.81015">
        <ele>696.2</ele>
        <time>2021-08-09T12:36:27Z</time>
      </trkpt>
      <trkpt lat="46.57053" lon="5.81046">
        <ele>697.4</ele>
        <time>2021-08-09T12:36:34Z</time>
      </trkpt>
      <trkpt lat="46.57051" lon="5.8105">
        <ele>697.6</ele>
        <time>2021-08-09T12:36:35Z</time>
      </trkpt>
      <trkpt lat="46.57043" lon="5.81061">
        <ele>698.4</ele>
        <time>2021-08-09T12:36:38Z</time>
      </trkpt>
      <trkpt lat="46.57029" lon="5.81082">
        <ele>699.4</ele>
        <time>2021-08-09T12:36:44Z</time>
      </trkpt>
      <trkpt lat="46.57022" lon="5.81093">
        <ele>700.4</ele>
        <time>2021-08-09T12:36:47Z</time>
      </trkpt>
      <trkpt lat="46.57011" lon="5.81107">
        <ele>701.6</ele>
        <time>2021-08-09T12:36:51Z</time>
      </trkpt>
      <trkpt lat="46.57001" lon="5.8112">
        <ele>702.8</ele>
        <time>2021-08-09T12:36:55Z</time>
      </trkpt>
      <trkpt lat="46.56999" lon="5.81123">
        <ele>703</ele>
        <time>2021-08-09T12:36:56Z</time>
      </trkpt>
      <trkpt lat="46.56987" lon="5.8114">
        <ele>703.8</ele>
        <time>2021-08-09T12:37:01Z</time>
      </trkpt>
      <trkpt lat="46.56979" lon="5.81151">
        <ele>705</ele>
        <time>2021-08-09T12:37:05Z</time>
      </trkpt>
      <trkpt lat="46.56973" lon="5.8116">
        <ele>706</ele>
        <time>2021-08-09T12:37:08Z</time>
      </trkpt>
      <trkpt lat="46.56965" lon="5.81175">
        <ele>707</ele>
        <time>2021-08-09T12:37:12Z</time>
      </trkpt>
      <trkpt lat="46.56963" lon="5.81179">
        <ele>707.4</ele>
        <time>2021-08-09T12:37:13Z</time>
      </trkpt>
      <trkpt lat="46.56958" lon="5.81189">
        <ele>708.4</ele>
        <time>2021-08-09T12:37:16Z</time>
      </trkpt>
      <trkpt lat="46.56952" lon="5.81209">
        <ele>709.4</ele>
        <time>2021-08-09T12:37:21Z</time>
      </trkpt>
      <trkpt lat="46.56948" lon="5.81231">
        <ele>710.6</ele>
        <time>2021-08-09T12:37:26Z</time>
      </trkpt>
      <trkpt lat="46.56947" lon="5.81246">
        <ele>711.6</ele>
        <time>2021-08-09T12:37:29Z</time>
      </trkpt>
      <trkpt lat="46.56947" lon="5.8125">
        <ele>712</ele>
        <time>2021-08-09T12:37:30Z</time>
      </trkpt>
      <trkpt lat="46.56945" lon="5.81269">
        <ele>713</ele>
        <time>2021-08-09T12:37:34Z</time>
      </trkpt>
      <trkpt lat="46.56944" lon="5.81295">
        <ele>714</ele>
        <time>2021-08-09T12:37:40Z</time>
      </trkpt>
      <trkpt lat="46.56946" lon="5.81323">
        <ele>715.2</ele>
        <time>2021-08-09T12:37:46Z</time>
      </trkpt>
      <trkpt lat="46.56947" lon="5.81337">
        <ele>716</ele>
        <time>2021-08-09T12:37:49Z</time>
      </trkpt>
      <trkpt lat="46.56948" lon="5.81343">
        <ele>716.4</ele>
        <time>2021-08-09T12:37:50Z</time>
      </trkpt>
      <trkpt lat="46.56951" lon="5.81366">
        <ele>717.4</ele>
        <time>2021-08-09T12:37:55Z</time>
      </trkpt>
      <trkpt lat="46.56954" lon="5.81374">
        <ele>717.8</ele>
        <time>2021-08-09T12:37:57Z</time>
      </trkpt>
      <trkpt lat="46.56958" lon="5.81386">
        <ele>718.6</ele>
        <time>2021-08-09T12:38:00Z</time>
      </trkpt>
      <trkpt lat="46.56965" lon="5.81401">
        <ele>719.8</ele>
        <time>2021-08-09T12:38:04Z</time>
      </trkpt>
      <trkpt lat="46.56978" lon="5.81421">
        <ele>720.8</ele>
        <time>2021-08-09T12:38:10Z</time>
      </trkpt>
      <trkpt lat="46.56988" lon="5.81434">
        <ele>722</ele>
        <time>2021-08-09T12:38:14Z</time>
      </trkpt>
      <trkpt lat="46.56992" lon="5.81441">
        <ele>722.4</ele>
        <time>2021-08-09T12:38:16Z</time>
      </trkpt>
      <trkpt lat="46.57001" lon="5.81455">
        <ele>723.2</ele>
        <time>2021-08-09T12:38:20Z</time>
      </trkpt>
      <trkpt lat="46.57007" lon="5.81465">
        <ele>724.2</ele>
        <time>2021-08-09T12:38:23Z</time>
      </trkpt>
      <trkpt lat="46.57017" lon="5.81484">
        <ele>725.2</ele>
        <time>2021-08-09T12:38:28Z</time>
      </trkpt>
      <trkpt lat="46.57019" lon="5.81488">
        <ele>725.6</ele>
        <time>2021-08-09T12:38:29Z</time>
      </trkpt>
      <trkpt lat="46.57029" lon="5.81508">
        <ele>726.6</ele>
        <time>2021-08-09T12:38:34Z</time>
      </trkpt>
      <trkpt lat="46.57039" lon="5.81528">
        <ele>727.2</ele>
        <time>2021-08-09T12:38:39Z</time>
      </trkpt>
      <trkpt lat="46.57046" lon="5.81546">
        <ele>728.2</ele>
        <time>2021-08-09T12:38:43Z</time>
      </trkpt>
      <trkpt lat="46.57057" lon="5.81568">
        <ele>729.4</ele>
        <time>2021-08-09T12:38:48Z</time>
      </trkpt>
      <trkpt lat="46.57059" lon="5.81572">
        <ele>729.6</ele>
        <time>2021-08-09T12:38:49Z</time>
      </trkpt>
      <trkpt lat="46.57068" lon="5.81589">
        <ele>730.6</ele>
        <time>2021-08-09T12:38:53Z</time>
      </trkpt>
      <trkpt lat="46.57074" lon="5.81602">
        <ele>731.2</ele>
        <time>2021-08-09T12:38:56Z</time>
      </trkpt>
      <trkpt lat="46.57084" lon="5.81621">
        <ele>731.8</ele>
        <time>2021-08-09T12:39:00Z</time>
      </trkpt>
      <trkpt lat="46.57093" lon="5.8164">
        <ele>732.4</ele>
        <time>2021-08-09T12:39:04Z</time>
      </trkpt>
      <trkpt lat="46.571" lon="5.81657">
        <ele>733</ele>
        <time>2021-08-09T12:39:07Z</time>
      </trkpt>
      <trkpt lat="46.57115" lon="5.817">
        <ele>733.8</ele>
        <time>2021-08-09T12:39:14Z</time>
      </trkpt>
      <trkpt lat="46.57121" lon="5.8172">
        <ele>734</ele>
        <time>2021-08-09T12:39:17Z</time>
      </trkpt>
      <trkpt lat="46.57129" lon="5.81749">
        <ele>734.4</ele>
        <time>2021-08-09T12:39:21Z</time>
      </trkpt>
      <trkpt lat="46.57138" lon="5.81804">
        <ele>734.6</ele>
        <time>2021-08-09T12:39:28Z</time>
      </trkpt>
      <trkpt lat="46.57139" lon="5.81821">
        <ele>734.4</ele>
        <time>2021-08-09T12:39:30Z</time>
      </trkpt>
      <trkpt lat="46.57138" lon="5.81869">
        <ele>734.4</ele>
        <time>2021-08-09T12:39:36Z</time>
      </trkpt>
      <trkpt lat="46.57138" lon="5.819">
        <ele>735.2</ele>
        <time>2021-08-09T12:39:40Z</time>
      </trkpt>
      <trkpt lat="46.57138" lon="5.81945">
        <ele>736.4</ele>
        <time>2021-08-09T12:39:46Z</time>
      </trkpt>
      <trkpt lat="46.57142" lon="5.82003">
        <ele>737.2</ele>
        <time>2021-08-09T12:39:53Z</time>
      </trkpt>
      <trkpt lat="46.5715" lon="5.82064">
        <ele>737.2</ele>
        <time>2021-08-09T12:40:00Z</time>
      </trkpt>
      <trkpt lat="46.5716" lon="5.82141">
        <ele>736.6</ele>
        <time>2021-08-09T12:40:09Z</time>
      </trkpt>
      <trkpt lat="46.57169" lon="5.82216">
        <ele>736.4</ele>
        <time>2021-08-09T12:40:17Z</time>
      </trkpt>
      <trkpt lat="46.57176" lon="5.82278">
        <ele>736.6</ele>
        <time>2021-08-09T12:40:24Z</time>
      </trkpt>
      <trkpt lat="46.57183" lon="5.82329">
        <ele>737.4</ele>
        <time>2021-08-09T12:40:30Z</time>
      </trkpt>
      <trkpt lat="46.57186" lon="5.82352">
        <ele>737.8</ele>
        <time>2021-08-09T12:40:33Z</time>
      </trkpt>
      <trkpt lat="46.57189" lon="5.82383">
        <ele>738.6</ele>
        <time>2021-08-09T12:40:37Z</time>
      </trkpt>
      <trkpt lat="46.57192" lon="5.82405">
        <ele>739.6</ele>
        <time>2021-08-09T12:40:40Z</time>
      </trkpt>
      <trkpt lat="46.57193" lon="5.82412">
        <ele>739.6</ele>
        <time>2021-08-09T12:40:41Z</time>
      </trkpt>
      <trkpt lat="46.57198" lon="5.82456">
        <ele>740.8</ele>
        <time>2021-08-09T12:40:47Z</time>
      </trkpt>
      <trkpt lat="46.57199" lon="5.82463">
        <ele>741</ele>
        <time>2021-08-09T12:40:48Z</time>
      </trkpt>
      <trkpt lat="46.57203" lon="5.8251">
        <ele>741.8</ele>
        <time>2021-08-09T12:40:55Z</time>
      </trkpt>
      <trkpt lat="46.57203" lon="5.82523">
        <ele>742.2</ele>
        <time>2021-08-09T12:40:57Z</time>
      </trkpt>
      <trkpt lat="46.57202" lon="5.82542">
        <ele>743</ele>
        <time>2021-08-09T12:41:00Z</time>
      </trkpt>
      <trkpt lat="46.572" lon="5.82568">
        <ele>743.8</ele>
        <time>2021-08-09T12:41:04Z</time>
      </trkpt>
      <trkpt lat="46.57199" lon="5.82574">
        <ele>744.2</ele>
        <time>2021-08-09T12:41:05Z</time>
      </trkpt>
      <trkpt lat="46.57197" lon="5.82604">
        <ele>745.4</ele>
        <time>2021-08-09T12:41:10Z</time>
      </trkpt>
      <trkpt lat="46.57197" lon="5.8261">
        <ele>745.6</ele>
        <time>2021-08-09T12:41:11Z</time>
      </trkpt>
      <trkpt lat="46.57197" lon="5.82616">
        <ele>745.8</ele>
        <time>2021-08-09T12:41:12Z</time>
      </trkpt>
      <trkpt lat="46.57199" lon="5.82633">
        <ele>747</ele>
        <time>2021-08-09T12:41:15Z</time>
      </trkpt>
      <trkpt lat="46.57201" lon="5.82644">
        <ele>747.4</ele>
        <time>2021-08-09T12:41:17Z</time>
      </trkpt>
      <trkpt lat="46.57205" lon="5.82657">
        <ele>747.8</ele>
        <time>2021-08-09T12:41:19Z</time>
      </trkpt>
      <trkpt lat="46.57206" lon="5.82662">
        <ele>748</ele>
        <time>2021-08-09T12:41:20Z</time>
      </trkpt>
      <trkpt lat="46.57208" lon="5.82668">
        <ele>748.2</ele>
        <time>2021-08-09T12:41:21Z</time>
      </trkpt>
      <trkpt lat="46.5721" lon="5.82686">
        <ele>749</ele>
        <time>2021-08-09T12:41:24Z</time>
      </trkpt>
      <trkpt lat="46.57211" lon="5.82691">
        <ele>749</ele>
        <time>2021-08-09T12:41:25Z</time>
      </trkpt>
      <trkpt lat="46.57217" lon="5.82723">
        <ele>750.4</ele>
        <time>2021-08-09T12:41:31Z</time>
      </trkpt>
      <trkpt lat="46.57219" lon="5.82733">
        <ele>750.8</ele>
        <time>2021-08-09T12:41:33Z</time>
      </trkpt>
      <trkpt lat="46.5722" lon="5.82744">
        <ele>751.6</ele>
        <time>2021-08-09T12:41:35Z</time>
      </trkpt>
      <trkpt lat="46.57218" lon="5.82765">
        <ele>752.2</ele>
        <time>2021-08-09T12:41:39Z</time>
      </trkpt>
      <trkpt lat="46.57214" lon="5.82778">
        <ele>752.8</ele>
        <time>2021-08-09T12:41:42Z</time>
      </trkpt>
      <trkpt lat="46.57208" lon="5.8279">
        <ele>753.8</ele>
        <time>2021-08-09T12:41:45Z</time>
      </trkpt>
      <trkpt lat="46.57206" lon="5.82794">
        <ele>754</ele>
        <time>2021-08-09T12:41:46Z</time>
      </trkpt>
      <trkpt lat="46.57198" lon="5.82817">
        <ele>755</ele>
        <time>2021-08-09T12:41:51Z</time>
      </trkpt>
      <trkpt lat="46.57197" lon="5.82843">
        <ele>756</ele>
        <time>2021-08-09T12:41:56Z</time>
      </trkpt>
      <trkpt lat="46.57198" lon="5.82848">
        <ele>756.2</ele>
        <time>2021-08-09T12:41:57Z</time>
      </trkpt>
      <trkpt lat="46.57202" lon="5.82871">
        <ele>757.2</ele>
        <time>2021-08-09T12:42:02Z</time>
      </trkpt>
      <trkpt lat="46.57203" lon="5.82876">
        <ele>757.6</ele>
        <time>2021-08-09T12:42:03Z</time>
      </trkpt>
      <trkpt lat="46.57204" lon="5.82886">
        <ele>758.4</ele>
        <time>2021-08-09T12:42:05Z</time>
      </trkpt>
      <trkpt lat="46.57206" lon="5.82912">
        <ele>759.6</ele>
        <time>2021-08-09T12:42:10Z</time>
      </trkpt>
      <trkpt lat="46.57205" lon="5.82916">
        <ele>759.6</ele>
        <time>2021-08-09T12:42:11Z</time>
      </trkpt>
      <trkpt lat="46.57202" lon="5.82933">
        <ele>761</ele>
        <time>2021-08-09T12:42:16Z</time>
      </trkpt>
      <trkpt lat="46.572" lon="5.82942">
        <ele>761.4</ele>
        <time>2021-08-09T12:42:18Z</time>
      </trkpt>
      <trkpt lat="46.572" lon="5.82952">
        <ele>762</ele>
        <time>2021-08-09T12:42:20Z</time>
      </trkpt>
      <trkpt lat="46.57199" lon="5.82966">
        <ele>762.6</ele>
        <time>2021-08-09T12:42:23Z</time>
      </trkpt>
      <trkpt lat="46.57198" lon="5.82977">
        <ele>763.2</ele>
        <time>2021-08-09T12:42:25Z</time>
      </trkpt>
      <trkpt lat="46.57194" lon="5.83003">
        <ele>764.2</ele>
        <time>2021-08-09T12:42:30Z</time>
      </trkpt>
      <trkpt lat="46.57194" lon="5.83007">
        <ele>764.2</ele>
        <time>2021-08-09T12:42:31Z</time>
      </trkpt>
      <trkpt lat="46.57187" lon="5.83025">
        <ele>765.4</ele>
        <time>2021-08-09T12:42:35Z</time>
      </trkpt>
      <trkpt lat="46.57183" lon="5.83032">
        <ele>765.8</ele>
        <time>2021-08-09T12:42:37Z</time>
      </trkpt>
      <trkpt lat="46.5718" lon="5.83041">
        <ele>766.4</ele>
        <time>2021-08-09T12:42:39Z</time>
      </trkpt>
      <trkpt lat="46.5717" lon="5.83055">
        <ele>767.4</ele>
        <time>2021-08-09T12:42:43Z</time>
      </trkpt>
      <trkpt lat="46.57167" lon="5.83058">
        <ele>768</ele>
        <time>2021-08-09T12:42:44Z</time>
      </trkpt>
      <trkpt lat="46.57158" lon="5.83067">
        <ele>768.4</ele>
        <time>2021-08-09T12:42:47Z</time>
      </trkpt>
      <trkpt lat="46.57145" lon="5.83078">
        <ele>769.2</ele>
        <time>2021-08-09T12:42:51Z</time>
      </trkpt>
      <trkpt lat="46.57142" lon="5.8308">
        <ele>769.4</ele>
        <time>2021-08-09T12:42:52Z</time>
      </trkpt>
      <trkpt lat="46.57129" lon="5.83089">
        <ele>770.6</ele>
        <time>2021-08-09T12:42:56Z</time>
      </trkpt>
      <trkpt lat="46.57114" lon="5.83097">
        <ele>771.2</ele>
        <time>2021-08-09T12:43:00Z</time>
      </trkpt>
      <trkpt lat="46.57087" lon="5.83102">
        <ele>771.8</ele>
        <time>2021-08-09T12:43:06Z</time>
      </trkpt>
      <trkpt lat="46.57082" lon="5.83102">
        <ele>772</ele>
        <time>2021-08-09T12:43:07Z</time>
      </trkpt>
      <trkpt lat="46.5706" lon="5.83102">
        <ele>772.4</ele>
        <time>2021-08-09T12:43:12Z</time>
      </trkpt>
      <trkpt lat="46.57052" lon="5.83105">
        <ele>772.8</ele>
        <time>2021-08-09T12:43:14Z</time>
      </trkpt>
      <trkpt lat="46.57048" lon="5.83107">
        <ele>772.8</ele>
        <time>2021-08-09T12:43:15Z</time>
      </trkpt>
      <trkpt lat="46.5704" lon="5.83113">
        <ele>773</ele>
        <time>2021-08-09T12:43:17Z</time>
      </trkpt>
      <trkpt lat="46.57034" lon="5.83121">
        <ele>773.4</ele>
        <time>2021-08-09T12:43:19Z</time>
      </trkpt>
      <trkpt lat="46.57023" lon="5.83139">
        <ele>774</ele>
        <time>2021-08-09T12:43:23Z</time>
      </trkpt>
      <trkpt lat="46.57014" lon="5.83152">
        <ele>774.4</ele>
        <time>2021-08-09T12:43:26Z</time>
      </trkpt>
      <trkpt lat="46.57006" lon="5.83164">
        <ele>775</ele>
        <time>2021-08-09T12:43:29Z</time>
      </trkpt>
      <trkpt lat="46.56996" lon="5.83179">
        <ele>776.2</ele>
        <time>2021-08-09T12:43:33Z</time>
      </trkpt>
      <trkpt lat="46.56993" lon="5.83182">
        <ele>776.4</ele>
        <time>2021-08-09T12:43:34Z</time>
      </trkpt>
      <trkpt lat="46.56985" lon="5.83191">
        <ele>777.4</ele>
        <time>2021-08-09T12:43:37Z</time>
      </trkpt>
      <trkpt lat="46.56973" lon="5.832">
        <ele>778.2</ele>
        <time>2021-08-09T12:43:41Z</time>
      </trkpt>
      <trkpt lat="46.56969" lon="5.83202">
        <ele>778.8</ele>
        <time>2021-08-09T12:43:42Z</time>
      </trkpt>
      <trkpt lat="46.56953" lon="5.83209">
        <ele>779.8</ele>
        <time>2021-08-09T12:43:47Z</time>
      </trkpt>
      <trkpt lat="46.56947" lon="5.83213">
        <ele>781</ele>
        <time>2021-08-09T12:43:49Z</time>
      </trkpt>
      <trkpt lat="46.56935" lon="5.83219">
        <ele>782</ele>
        <time>2021-08-09T12:43:53Z</time>
      </trkpt>
      <trkpt lat="46.56922" lon="5.83226">
        <ele>783.2</ele>
        <time>2021-08-09T12:43:57Z</time>
      </trkpt>
      <trkpt lat="46.56919" lon="5.83228">
        <ele>783.4</ele>
        <time>2021-08-09T12:43:58Z</time>
      </trkpt>
      <trkpt lat="46.5691" lon="5.83235">
        <ele>784.4</ele>
        <time>2021-08-09T12:44:01Z</time>
      </trkpt>
      <trkpt lat="46.56899" lon="5.83241">
        <ele>785.6</ele>
        <time>2021-08-09T12:44:04Z</time>
      </trkpt>
      <trkpt lat="46.56888" lon="5.83246">
        <ele>786.2</ele>
        <time>2021-08-09T12:44:07Z</time>
      </trkpt>
      <trkpt lat="46.56878" lon="5.83249">
        <ele>786.8</ele>
        <time>2021-08-09T12:44:10Z</time>
      </trkpt>
      <trkpt lat="46.56859" lon="5.83252">
        <ele>788</ele>
        <time>2021-08-09T12:44:15Z</time>
      </trkpt>
      <trkpt lat="46.56855" lon="5.83253">
        <ele>788.4</ele>
        <time>2021-08-09T12:44:16Z</time>
      </trkpt>
      <trkpt lat="46.56835" lon="5.83258">
        <ele>789</ele>
        <time>2021-08-09T12:44:21Z</time>
      </trkpt>
      <trkpt lat="46.56823" lon="5.8326">
        <ele>789.4</ele>
        <time>2021-08-09T12:44:24Z</time>
      </trkpt>
      <trkpt lat="46.56811" lon="5.83262">
        <ele>790.2</ele>
        <time>2021-08-09T12:44:27Z</time>
      </trkpt>
      <trkpt lat="46.56789" lon="5.83267">
        <ele>791.4</ele>
        <time>2021-08-09T12:44:32Z</time>
      </trkpt>
      <trkpt lat="46.56755" lon="5.83275">
        <ele>792.4</ele>
        <time>2021-08-09T12:44:40Z</time>
      </trkpt>
      <trkpt lat="46.56751" lon="5.83276">
        <ele>792.4</ele>
        <time>2021-08-09T12:44:41Z</time>
      </trkpt>
      <trkpt lat="46.56743" lon="5.83279">
        <ele>792.6</ele>
        <time>2021-08-09T12:44:43Z</time>
      </trkpt>
      <trkpt lat="46.56723" lon="5.83291">
        <ele>793.4</ele>
        <time>2021-08-09T12:44:48Z</time>
      </trkpt>
      <trkpt lat="46.56711" lon="5.83298">
        <ele>793.6</ele>
        <time>2021-08-09T12:44:51Z</time>
      </trkpt>
      <trkpt lat="46.56683" lon="5.83315">
        <ele>794.6</ele>
        <time>2021-08-09T12:44:58Z</time>
      </trkpt>
      <trkpt lat="46.56663" lon="5.83331">
        <ele>795.8</ele>
        <time>2021-08-09T12:45:03Z</time>
      </trkpt>
      <trkpt lat="46.56646" lon="5.83345">
        <ele>796.2</ele>
        <time>2021-08-09T12:45:07Z</time>
      </trkpt>
      <trkpt lat="46.56612" lon="5.83371">
        <ele>797</ele>
        <time>2021-08-09T12:45:15Z</time>
      </trkpt>
      <trkpt lat="46.56608" lon="5.83374">
        <ele>797.2</ele>
        <time>2021-08-09T12:45:16Z</time>
      </trkpt>
      <trkpt lat="46.56586" lon="5.83392">
        <ele>798</ele>
        <time>2021-08-09T12:45:21Z</time>
      </trkpt>
      <trkpt lat="46.56569" lon="5.83405">
        <ele>798.6</ele>
        <time>2021-08-09T12:45:25Z</time>
      </trkpt>
      <trkpt lat="46.56545" lon="5.83429">
        <ele>799.2</ele>
        <time>2021-08-09T12:45:31Z</time>
      </trkpt>
      <trkpt lat="46.56538" lon="5.83437">
        <ele>799.2</ele>
        <time>2021-08-09T12:45:33Z</time>
      </trkpt>
      <trkpt lat="46.56535" lon="5.83442">
        <ele>799.4</ele>
        <time>2021-08-09T12:45:34Z</time>
      </trkpt>
      <trkpt lat="46.56518" lon="5.83464">
        <ele>800</ele>
        <time>2021-08-09T12:45:39Z</time>
      </trkpt>
      <trkpt lat="46.56515" lon="5.83467">
        <ele>800.2</ele>
        <time>2021-08-09T12:45:40Z</time>
      </trkpt>
      <trkpt lat="46.56508" lon="5.83475">
        <ele>800.4</ele>
        <time>2021-08-09T12:45:42Z</time>
      </trkpt>
      <trkpt lat="46.56489" lon="5.83498">
        <ele>801.2</ele>
        <time>2021-08-09T12:45:47Z</time>
      </trkpt>
      <trkpt lat="46.56479" lon="5.8351">
        <ele>801.6</ele>
        <time>2021-08-09T12:45:50Z</time>
      </trkpt>
      <trkpt lat="46.56468" lon="5.83522">
        <ele>802.4</ele>
        <time>2021-08-09T12:45:53Z</time>
      </trkpt>
      <trkpt lat="46.56447" lon="5.83538">
        <ele>803.6</ele>
        <time>2021-08-09T12:45:58Z</time>
      </trkpt>
      <trkpt lat="46.56429" lon="5.83548">
        <ele>804.6</ele>
        <time>2021-08-09T12:46:02Z</time>
      </trkpt>
      <trkpt lat="46.56406" lon="5.83563">
        <ele>806</ele>
        <time>2021-08-09T12:46:08Z</time>
      </trkpt>
      <trkpt lat="46.56402" lon="5.83566">
        <ele>806</ele>
        <time>2021-08-09T12:46:09Z</time>
      </trkpt>
      <trkpt lat="46.56391" lon="5.83573">
        <ele>807</ele>
        <time>2021-08-09T12:46:12Z</time>
      </trkpt>
      <trkpt lat="46.56387" lon="5.83576">
        <ele>807.4</ele>
        <time>2021-08-09T12:46:13Z</time>
      </trkpt>
      <trkpt lat="46.56378" lon="5.83581">
        <ele>807.6</ele>
        <time>2021-08-09T12:46:15Z</time>
      </trkpt>
      <trkpt lat="46.56362" lon="5.83592">
        <ele>808.4</ele>
        <time>2021-08-09T12:46:19Z</time>
      </trkpt>
      <trkpt lat="46.56332" lon="5.83609">
        <ele>809.4</ele>
        <time>2021-08-09T12:46:26Z</time>
      </trkpt>
      <trkpt lat="46.56327" lon="5.83611">
        <ele>809.6</ele>
        <time>2021-08-09T12:46:27Z</time>
      </trkpt>
      <trkpt lat="46.56301" lon="5.83624">
        <ele>810.2</ele>
        <time>2021-08-09T12:46:33Z</time>
      </trkpt>
      <trkpt lat="46.56292" lon="5.83628">
        <ele>810.4</ele>
        <time>2021-08-09T12:46:35Z</time>
      </trkpt>
      <trkpt lat="46.56262" lon="5.83642">
        <ele>811.4</ele>
        <time>2021-08-09T12:46:41Z</time>
      </trkpt>
      <trkpt lat="46.56232" lon="5.83655">
        <ele>812.4</ele>
        <time>2021-08-09T12:46:47Z</time>
      </trkpt>
      <trkpt lat="46.56229" lon="5.83657">
        <ele>812.4</ele>
        <time>2021-08-09T12:46:48Z</time>
      </trkpt>
      <trkpt lat="46.56225" lon="5.83658">
        <ele>812.6</ele>
        <time>2021-08-09T12:46:49Z</time>
      </trkpt>
      <trkpt lat="46.56214" lon="5.83659">
        <ele>812.8</ele>
        <time>2021-08-09T12:46:51Z</time>
      </trkpt>
      <trkpt lat="46.56201" lon="5.83656">
        <ele>813.4</ele>
        <time>2021-08-09T12:46:54Z</time>
      </trkpt>
      <trkpt lat="46.56191" lon="5.83653">
        <ele>813.8</ele>
        <time>2021-08-09T12:46:56Z</time>
      </trkpt>
      <trkpt lat="46.56177" lon="5.83647">
        <ele>814.4</ele>
        <time>2021-08-09T12:46:59Z</time>
      </trkpt>
      <trkpt lat="46.56168" lon="5.83641">
        <ele>814.6</ele>
        <time>2021-08-09T12:47:01Z</time>
      </trkpt>
      <trkpt lat="46.5616" lon="5.83636">
        <ele>814.8</ele>
        <time>2021-08-09T12:47:03Z</time>
      </trkpt>
      <trkpt lat="46.56143" lon="5.83629">
        <ele>815.4</ele>
        <time>2021-08-09T12:47:07Z</time>
      </trkpt>
      <trkpt lat="46.56138" lon="5.83626">
        <ele>816</ele>
        <time>2021-08-09T12:47:08Z</time>
      </trkpt>
      <trkpt lat="46.56115" lon="5.83616">
        <ele>817.2</ele>
        <time>2021-08-09T12:47:13Z</time>
      </trkpt>
      <trkpt lat="46.56111" lon="5.83614">
        <ele>817.2</ele>
        <time>2021-08-09T12:47:14Z</time>
      </trkpt>
      <trkpt lat="46.56103" lon="5.83612">
        <ele>817.8</ele>
        <time>2021-08-09T12:47:16Z</time>
      </trkpt>
      <trkpt lat="46.56098" lon="5.8361">
        <ele>817.8</ele>
        <time>2021-08-09T12:47:17Z</time>
      </trkpt>
      <trkpt lat="46.56094" lon="5.8361">
        <ele>818.2</ele>
        <time>2021-08-09T12:47:18Z</time>
      </trkpt>
      <trkpt lat="46.56089" lon="5.8361">
        <ele>818.4</ele>
        <time>2021-08-09T12:47:19Z</time>
      </trkpt>
      <trkpt lat="46.5608" lon="5.83611">
        <ele>819.4</ele>
        <time>2021-08-09T12:47:21Z</time>
      </trkpt>
      <trkpt lat="46.56076" lon="5.83613">
        <ele>820</ele>
        <time>2021-08-09T12:47:22Z</time>
      </trkpt>
      <trkpt lat="46.56072" lon="5.83615">
        <ele>820.2</ele>
        <time>2021-08-09T12:47:23Z</time>
      </trkpt>
      <trkpt lat="46.56069" lon="5.83618">
        <ele>820.6</ele>
        <time>2021-08-09T12:47:24Z</time>
      </trkpt>
      <trkpt lat="46.56054" lon="5.83633">
        <ele>821.2</ele>
        <time>2021-08-09T12:47:28Z</time>
      </trkpt>
      <trkpt lat="46.5605" lon="5.83637">
        <ele>821.4</ele>
        <time>2021-08-09T12:47:29Z</time>
      </trkpt>
      <trkpt lat="46.56027" lon="5.83661">
        <ele>821.4</ele>
        <time>2021-08-09T12:47:35Z</time>
      </trkpt>
      <trkpt lat="46.55999" lon="5.83683">
        <ele>822.6</ele>
        <time>2021-08-09T12:47:42Z</time>
      </trkpt>
      <trkpt lat="46.5599" lon="5.83686">
        <ele>823</ele>
        <time>2021-08-09T12:47:44Z</time>
      </trkpt>
      <trkpt lat="46.55979" lon="5.8369">
        <ele>823.4</ele>
        <time>2021-08-09T12:47:47Z</time>
      </trkpt>
      <trkpt lat="46.55974" lon="5.83691">
        <ele>823.6</ele>
        <time>2021-08-09T12:47:48Z</time>
      </trkpt>
      <trkpt lat="46.5595" lon="5.83689">
        <ele>824.2</ele>
        <time>2021-08-09T12:47:54Z</time>
      </trkpt>
      <trkpt lat="46.55946" lon="5.83688">
        <ele>824.8</ele>
        <time>2021-08-09T12:47:55Z</time>
      </trkpt>
      <trkpt lat="46.55932" lon="5.83686">
        <ele>825.6</ele>
        <time>2021-08-09T12:47:58Z</time>
      </trkpt>
      <trkpt lat="46.55928" lon="5.83686">
        <ele>826</ele>
        <time>2021-08-09T12:47:59Z</time>
      </trkpt>
      <trkpt lat="46.5592" lon="5.83684">
        <ele>826.4</ele>
        <time>2021-08-09T12:48:01Z</time>
      </trkpt>
      <trkpt lat="46.5591" lon="5.83684">
        <ele>826.4</ele>
        <time>2021-08-09T12:48:03Z</time>
      </trkpt>
      <trkpt lat="46.55907" lon="5.83684">
        <ele>826.6</ele>
        <time>2021-08-09T12:48:04Z</time>
      </trkpt>
      <trkpt lat="46.55903" lon="5.83684">
        <ele>826.8</ele>
        <time>2021-08-09T12:48:05Z</time>
      </trkpt>
      <trkpt lat="46.55888" lon="5.83683">
        <ele>827.2</ele>
        <time>2021-08-09T12:48:08Z</time>
      </trkpt>
      <trkpt lat="46.55884" lon="5.83684">
        <ele>827.4</ele>
        <time>2021-08-09T12:48:09Z</time>
      </trkpt>
      <trkpt lat="46.55871" lon="5.83684">
        <ele>827.8</ele>
        <time>2021-08-09T12:48:12Z</time>
      </trkpt>
      <trkpt lat="46.55868" lon="5.83684">
        <ele>827.8</ele>
        <time>2021-08-09T12:48:13Z</time>
      </trkpt>
      <trkpt lat="46.55861" lon="5.83686">
        <ele>828</ele>
        <time>2021-08-09T12:48:15Z</time>
      </trkpt>
      <trkpt lat="46.55857" lon="5.83688">
        <ele>828.2</ele>
        <time>2021-08-09T12:48:16Z</time>
      </trkpt>
      <trkpt lat="46.55849" lon="5.83691">
        <ele>828.8</ele>
        <time>2021-08-09T12:48:18Z</time>
      </trkpt>
      <trkpt lat="46.55837" lon="5.83699">
        <ele>829.2</ele>
        <time>2021-08-09T12:48:21Z</time>
      </trkpt>
      <trkpt lat="46.55825" lon="5.8371">
        <ele>830</ele>
        <time>2021-08-09T12:48:24Z</time>
      </trkpt>
      <trkpt lat="46.55813" lon="5.83721">
        <ele>830.8</ele>
        <time>2021-08-09T12:48:27Z</time>
      </trkpt>
      <trkpt lat="46.55805" lon="5.8373">
        <ele>831.2</ele>
        <time>2021-08-09T12:48:29Z</time>
      </trkpt>
      <trkpt lat="46.55795" lon="5.83742">
        <ele>831.6</ele>
        <time>2021-08-09T12:48:32Z</time>
      </trkpt>
      <trkpt lat="46.55792" lon="5.83747">
        <ele>831.6</ele>
        <time>2021-08-09T12:48:33Z</time>
      </trkpt>
      <trkpt lat="46.55788" lon="5.83752">
        <ele>831.8</ele>
        <time>2021-08-09T12:48:34Z</time>
      </trkpt>
      <trkpt lat="46.55777" lon="5.83765">
        <ele>831.8</ele>
        <time>2021-08-09T12:48:37Z</time>
      </trkpt>
      <trkpt lat="46.55768" lon="5.83772">
        <ele>832.2</ele>
        <time>2021-08-09T12:48:39Z</time>
      </trkpt>
      <trkpt lat="46.55764" lon="5.83775">
        <ele>832.4</ele>
        <time>2021-08-09T12:48:40Z</time>
      </trkpt>
      <trkpt lat="46.55756" lon="5.83783">
        <ele>832.6</ele>
        <time>2021-08-09T12:48:42Z</time>
      </trkpt>
      <trkpt lat="46.55746" lon="5.83794">
        <ele>833</ele>
        <time>2021-08-09T12:48:45Z</time>
      </trkpt>
      <trkpt lat="46.55741" lon="5.83798">
        <ele>833</ele>
        <time>2021-08-09T12:48:46Z</time>
      </trkpt>
      <trkpt lat="46.55733" lon="5.83805">
        <ele>833</ele>
        <time>2021-08-09T12:48:48Z</time>
      </trkpt>
      <trkpt lat="46.55722" lon="5.83818">
        <ele>833.6</ele>
        <time>2021-08-09T12:48:51Z</time>
      </trkpt>
      <trkpt lat="46.55713" lon="5.83829">
        <ele>834.4</ele>
        <time>2021-08-09T12:48:54Z</time>
      </trkpt>
      <trkpt lat="46.55703" lon="5.8385">
        <ele>835.2</ele>
        <time>2021-08-09T12:48:58Z</time>
      </trkpt>
      <trkpt lat="46.557" lon="5.83857">
        <ele>835.4</ele>
        <time>2021-08-09T12:48:59Z</time>
      </trkpt>
      <trkpt lat="46.55698" lon="5.83863">
        <ele>835.6</ele>
        <time>2021-08-09T12:49:00Z</time>
      </trkpt>
      <trkpt lat="46.55695" lon="5.83877">
        <ele>836</ele>
        <time>2021-08-09T12:49:02Z</time>
      </trkpt>
      <trkpt lat="46.55695" lon="5.83884">
        <ele>836.2</ele>
        <time>2021-08-09T12:49:03Z</time>
      </trkpt>
      <trkpt lat="46.55695" lon="5.83892">
        <ele>836.4</ele>
        <time>2021-08-09T12:49:04Z</time>
      </trkpt>
      <trkpt lat="46.55697" lon="5.83908">
        <ele>836.6</ele>
        <time>2021-08-09T12:49:06Z</time>
      </trkpt>
      <trkpt lat="46.55698" lon="5.83913">
        <ele>836.6</ele>
        <time>2021-08-09T12:49:07Z</time>
      </trkpt>
      <trkpt lat="46.557" lon="5.8392">
        <ele>836.6</ele>
        <time>2021-08-09T12:49:08Z</time>
      </trkpt>
      <trkpt lat="46.55712" lon="5.83944">
        <ele>837</ele>
        <time>2021-08-09T12:49:12Z</time>
      </trkpt>
      <trkpt lat="46.55719" lon="5.83953">
        <ele>837.2</ele>
        <time>2021-08-09T12:49:14Z</time>
      </trkpt>
      <trkpt lat="46.55731" lon="5.83963">
        <ele>837.6</ele>
        <time>2021-08-09T12:49:17Z</time>
      </trkpt>
      <trkpt lat="46.55745" lon="5.83971">
        <ele>838.2</ele>
        <time>2021-08-09T12:49:20Z</time>
      </trkpt>
      <trkpt lat="46.55754" lon="5.83975">
        <ele>838.8</ele>
        <time>2021-08-09T12:49:22Z</time>
      </trkpt>
      <trkpt lat="46.55758" lon="5.83977">
        <ele>839</ele>
        <time>2021-08-09T12:49:23Z</time>
      </trkpt>
      <trkpt lat="46.55782" lon="5.8398">
        <ele>839.6</ele>
        <time>2021-08-09T12:49:28Z</time>
      </trkpt>
      <trkpt lat="46.55793" lon="5.83979">
        <ele>839.8</ele>
        <time>2021-08-09T12:49:30Z</time>
      </trkpt>
      <trkpt lat="46.55798" lon="5.83978">
        <ele>840</ele>
        <time>2021-08-09T12:49:31Z</time>
      </trkpt>
      <trkpt lat="46.55803" lon="5.83978">
        <ele>840.2</ele>
        <time>2021-08-09T12:49:32Z</time>
      </trkpt>
      <trkpt lat="46.55822" lon="5.83979">
        <ele>840.6</ele>
        <time>2021-08-09T12:49:36Z</time>
      </trkpt>
      <trkpt lat="46.55827" lon="5.83978">
        <ele>840.8</ele>
        <time>2021-08-09T12:49:37Z</time>
      </trkpt>
      <trkpt lat="46.55831" lon="5.83978">
        <ele>841</ele>
        <time>2021-08-09T12:49:38Z</time>
      </trkpt>
      <trkpt lat="46.55846" lon="5.83975">
        <ele>841.6</ele>
        <time>2021-08-09T12:49:41Z</time>
      </trkpt>
      <trkpt lat="46.55856" lon="5.83974">
        <ele>842</ele>
        <time>2021-08-09T12:49:43Z</time>
      </trkpt>
      <trkpt lat="46.55861" lon="5.83973">
        <ele>842.2</ele>
        <time>2021-08-09T12:49:44Z</time>
      </trkpt>
      <trkpt lat="46.55902" lon="5.8397">
        <ele>842.8</ele>
        <time>2021-08-09T12:49:52Z</time>
      </trkpt>
      <trkpt lat="46.55926" lon="5.83972">
        <ele>843.2</ele>
        <time>2021-08-09T12:49:57Z</time>
      </trkpt>
      <trkpt lat="46.55935" lon="5.83974">
        <ele>843.6</ele>
        <time>2021-08-09T12:49:59Z</time>
      </trkpt>
      <trkpt lat="46.55941" lon="5.83976">
        <ele>843.6</ele>
        <time>2021-08-09T12:50:00Z</time>
      </trkpt>
      <trkpt lat="46.55945" lon="5.83978">
        <ele>844.2</ele>
        <time>2021-08-09T12:50:01Z</time>
      </trkpt>
      <trkpt lat="46.55949" lon="5.83981">
        <ele>844.6</ele>
        <time>2021-08-09T12:50:02Z</time>
      </trkpt>
      <trkpt lat="46.55957" lon="5.83989">
        <ele>844.8</ele>
        <time>2021-08-09T12:50:04Z</time>
      </trkpt>
      <trkpt lat="46.55974" lon="5.84004">
        <ele>845.4</ele>
        <time>2021-08-09T12:50:08Z</time>
      </trkpt>
      <trkpt lat="46.55985" lon="5.84017">
        <ele>846.2</ele>
        <time>2021-08-09T12:50:11Z</time>
      </trkpt>
      <trkpt lat="46.55992" lon="5.84023">
        <ele>846.6</ele>
        <time>2021-08-09T12:50:13Z</time>
      </trkpt>
      <trkpt lat="46.55996" lon="5.84027">
        <ele>846.6</ele>
        <time>2021-08-09T12:50:14Z</time>
      </trkpt>
      <trkpt lat="46.56" lon="5.84033">
        <ele>846.6</ele>
        <time>2021-08-09T12:50:15Z</time>
      </trkpt>
      <trkpt lat="46.56002" lon="5.84037">
        <ele>846.8</ele>
        <time>2021-08-09T12:50:16Z</time>
      </trkpt>
      <trkpt lat="46.56015" lon="5.84051">
        <ele>847</ele>
        <time>2021-08-09T12:50:19Z</time>
      </trkpt>
      <trkpt lat="46.56037" lon="5.84074">
        <ele>847.6</ele>
        <time>2021-08-09T12:50:24Z</time>
      </trkpt>
      <trkpt lat="46.56059" lon="5.84097">
        <ele>848.8</ele>
        <time>2021-08-09T12:50:29Z</time>
      </trkpt>
      <trkpt lat="46.56064" lon="5.84102">
        <ele>848.8</ele>
        <time>2021-08-09T12:50:30Z</time>
      </trkpt>
      <trkpt lat="46.56081" lon="5.84121">
        <ele>849.8</ele>
        <time>2021-08-09T12:50:34Z</time>
      </trkpt>
      <trkpt lat="46.56089" lon="5.8413">
        <ele>850.2</ele>
        <time>2021-08-09T12:50:36Z</time>
      </trkpt>
      <trkpt lat="46.56105" lon="5.84146">
        <ele>850.6</ele>
        <time>2021-08-09T12:50:40Z</time>
      </trkpt>
      <trkpt lat="46.56115" lon="5.84155">
        <ele>850.6</ele>
        <time>2021-08-09T12:50:42Z</time>
      </trkpt>
      <trkpt lat="46.56118" lon="5.84159">
        <ele>850.8</ele>
        <time>2021-08-09T12:50:43Z</time>
      </trkpt>
      <trkpt lat="46.56128" lon="5.84171">
        <ele>851.8</ele>
        <time>2021-08-09T12:50:45Z</time>
      </trkpt>
      <trkpt lat="46.56137" lon="5.84181">
        <ele>852</ele>
        <time>2021-08-09T12:50:47Z</time>
      </trkpt>
      <trkpt lat="46.56145" lon="5.84191">
        <ele>852.4</ele>
        <time>2021-08-09T12:50:49Z</time>
      </trkpt>
      <trkpt lat="46.56148" lon="5.84209">
        <ele>852.4</ele>
        <time>2021-08-09T12:50:51Z</time>
      </trkpt>
      <trkpt lat="46.56149" lon="5.8422">
        <ele>852.4</ele>
        <time>2021-08-09T12:50:52Z</time>
      </trkpt>
      <trkpt lat="46.56148" lon="5.84227">
        <ele>852.8</ele>
        <time>2021-08-09T12:50:53Z</time>
      </trkpt>
      <trkpt lat="46.56144" lon="5.84244">
        <ele>853</ele>
        <time>2021-08-09T12:50:55Z</time>
      </trkpt>
      <trkpt lat="46.5614" lon="5.84251">
        <ele>853.2</ele>
        <time>2021-08-09T12:50:56Z</time>
      </trkpt>
      <trkpt lat="46.56133" lon="5.84264">
        <ele>853.8</ele>
        <time>2021-08-09T12:50:59Z</time>
      </trkpt>
      <trkpt lat="46.56125" lon="5.84272">
        <ele>854</ele>
        <time>2021-08-09T12:51:01Z</time>
      </trkpt>
      <trkpt lat="46.56108" lon="5.8428">
        <ele>854.6</ele>
        <time>2021-08-09T12:51:05Z</time>
      </trkpt>
      <trkpt lat="46.56098" lon="5.84284">
        <ele>854.8</ele>
        <time>2021-08-09T12:51:07Z</time>
      </trkpt>
      <trkpt lat="46.56093" lon="5.84284">
        <ele>855</ele>
        <time>2021-08-09T12:51:08Z</time>
      </trkpt>
      <trkpt lat="46.56089" lon="5.84284">
        <ele>855.4</ele>
        <time>2021-08-09T12:51:09Z</time>
      </trkpt>
      <trkpt lat="46.56082" lon="5.84287">
        <ele>855.8</ele>
        <time>2021-08-09T12:51:11Z</time>
      </trkpt>
      <trkpt lat="46.56076" lon="5.84295">
        <ele>856</ele>
        <time>2021-08-09T12:51:13Z</time>
      </trkpt>
      <trkpt lat="46.56073" lon="5.84298">
        <ele>856.2</ele>
        <time>2021-08-09T12:51:14Z</time>
      </trkpt>
      <trkpt lat="46.56061" lon="5.84307">
        <ele>857.2</ele>
        <time>2021-08-09T12:51:17Z</time>
      </trkpt>
      <trkpt lat="46.56051" lon="5.84312">
        <ele>858</ele>
        <time>2021-08-09T12:51:20Z</time>
      </trkpt>
      <trkpt lat="46.56044" lon="5.84315">
        <ele>858.6</ele>
        <time>2021-08-09T12:51:22Z</time>
      </trkpt>
      <trkpt lat="46.56027" lon="5.84319">
        <ele>859.6</ele>
        <time>2021-08-09T12:51:27Z</time>
      </trkpt>
      <trkpt lat="46.56021" lon="5.84321">
        <ele>860</ele>
        <time>2021-08-09T12:51:29Z</time>
      </trkpt>
      <trkpt lat="46.56016" lon="5.84322">
        <ele>860.6</ele>
        <time>2021-08-09T12:51:31Z</time>
      </trkpt>
      <trkpt lat="46.56002" lon="5.84327">
        <ele>861.6</ele>
        <time>2021-08-09T12:51:36Z</time>
      </trkpt>
      <trkpt lat="46.55987" lon="5.84328">
        <ele>862.6</ele>
        <time>2021-08-09T12:51:42Z</time>
      </trkpt>
      <trkpt lat="46.55977" lon="5.84328">
        <ele>863.6</ele>
        <time>2021-08-09T12:51:45Z</time>
      </trkpt>
      <trkpt lat="46.55968" lon="5.84327">
        <ele>864.6</ele>
        <time>2021-08-09T12:51:48Z</time>
      </trkpt>
      <trkpt lat="46.55965" lon="5.84326">
        <ele>864.8</ele>
        <time>2021-08-09T12:51:49Z</time>
      </trkpt>
      <trkpt lat="46.55945" lon="5.84318">
        <ele>865.8</ele>
        <time>2021-08-09T12:51:55Z</time>
      </trkpt>
      <trkpt lat="46.55933" lon="5.84316">
        <ele>866.6</ele>
        <time>2021-08-09T12:51:58Z</time>
      </trkpt>
      <trkpt lat="46.55926" lon="5.84314">
        <ele>867</ele>
        <time>2021-08-09T12:52:00Z</time>
      </trkpt>
      <trkpt lat="46.55913" lon="5.84312">
        <ele>867.4</ele>
        <time>2021-08-09T12:52:03Z</time>
      </trkpt>
      <trkpt lat="46.55904" lon="5.8431">
        <ele>868</ele>
        <time>2021-08-09T12:52:06Z</time>
      </trkpt>
      <trkpt lat="46.55892" lon="5.84304">
        <ele>868.6</ele>
        <time>2021-08-09T12:52:10Z</time>
      </trkpt>
      <trkpt lat="46.55884" lon="5.84298">
        <ele>869.4</ele>
        <time>2021-08-09T12:52:13Z</time>
      </trkpt>
      <trkpt lat="46.55882" lon="5.84296">
        <ele>869.8</ele>
        <time>2021-08-09T12:52:14Z</time>
      </trkpt>
      <trkpt lat="46.55876" lon="5.84291">
        <ele>870.6</ele>
        <time>2021-08-09T12:52:16Z</time>
      </trkpt>
      <trkpt lat="46.55867" lon="5.84278">
        <ele>871.4</ele>
        <time>2021-08-09T12:52:20Z</time>
      </trkpt>
      <trkpt lat="46.55863" lon="5.84273">
        <ele>872</ele>
        <time>2021-08-09T12:52:22Z</time>
      </trkpt>
      <trkpt lat="46.55861" lon="5.84271">
        <ele>872.2</ele>
        <time>2021-08-09T12:52:23Z</time>
      </trkpt>
      <trkpt lat="46.55856" lon="5.84268">
        <ele>872.6</ele>
        <time>2021-08-09T12:52:25Z</time>
      </trkpt>
      <trkpt lat="46.55854" lon="5.84267">
        <ele>872.8</ele>
        <time>2021-08-09T12:52:26Z</time>
      </trkpt>
      <trkpt lat="46.55843" lon="5.84257">
        <ele>873.8</ele>
        <time>2021-08-09T12:52:30Z</time>
      </trkpt>
      <trkpt lat="46.5584" lon="5.84255">
        <ele>874.4</ele>
        <time>2021-08-09T12:52:31Z</time>
      </trkpt>
      <trkpt lat="46.55837" lon="5.84253">
        <ele>875</ele>
        <time>2021-08-09T12:52:32Z</time>
      </trkpt>
      <trkpt lat="46.55825" lon="5.84247">
        <ele>876.2</ele>
        <time>2021-08-09T12:52:36Z</time>
      </trkpt>
      <trkpt lat="46.55817" lon="5.84239">
        <ele>876.6</ele>
        <time>2021-08-09T12:52:39Z</time>
      </trkpt>
      <trkpt lat="46.55814" lon="5.84237">
        <ele>876.8</ele>
        <time>2021-08-09T12:52:40Z</time>
      </trkpt>
      <trkpt lat="46.55812" lon="5.84235">
        <ele>877.2</ele>
        <time>2021-08-09T12:52:41Z</time>
      </trkpt>
      <trkpt lat="46.55799" lon="5.84232">
        <ele>878.2</ele>
        <time>2021-08-09T12:52:46Z</time>
      </trkpt>
      <trkpt lat="46.55797" lon="5.8423">
        <ele>878.2</ele>
        <time>2021-08-09T12:52:47Z</time>
      </trkpt>
      <trkpt lat="46.55784" lon="5.84225">
        <ele>879.2</ele>
        <time>2021-08-09T12:52:51Z</time>
      </trkpt>
      <trkpt lat="46.55782" lon="5.84224">
        <ele>879.4</ele>
        <time>2021-08-09T12:52:52Z</time>
      </trkpt>
      <trkpt lat="46.55769" lon="5.84219">
        <ele>880.8</ele>
        <time>2021-08-09T12:52:57Z</time>
      </trkpt>
      <trkpt lat="46.55751" lon="5.84211">
        <ele>881.8</ele>
        <time>2021-08-09T12:53:03Z</time>
      </trkpt>
      <trkpt lat="46.55736" lon="5.84205">
        <ele>883.4</ele>
        <time>2021-08-09T12:53:08Z</time>
      </trkpt>
      <trkpt lat="46.55729" lon="5.84201">
        <ele>884.2</ele>
        <time>2021-08-09T12:53:11Z</time>
      </trkpt>
      <trkpt lat="46.55726" lon="5.84197">
        <ele>884.4</ele>
        <time>2021-08-09T12:53:12Z</time>
      </trkpt>
      <trkpt lat="46.55724" lon="5.84194">
        <ele>884.8</ele>
        <time>2021-08-09T12:53:13Z</time>
      </trkpt>
      <trkpt lat="46.55718" lon="5.84191">
        <ele>885.4</ele>
        <time>2021-08-09T12:53:15Z</time>
      </trkpt>
      <trkpt lat="46.55704" lon="5.84185">
        <ele>886.6</ele>
        <time>2021-08-09T12:53:20Z</time>
      </trkpt>
      <trkpt lat="46.55697" lon="5.84181">
        <ele>887.8</ele>
        <time>2021-08-09T12:53:23Z</time>
      </trkpt>
      <trkpt lat="46.55692" lon="5.84177">
        <ele>888.2</ele>
        <time>2021-08-09T12:53:25Z</time>
      </trkpt>
      <trkpt lat="46.55685" lon="5.84174">
        <ele>888.8</ele>
        <time>2021-08-09T12:53:27Z</time>
      </trkpt>
      <trkpt lat="46.55671" lon="5.84166">
        <ele>889.8</ele>
        <time>2021-08-09T12:53:32Z</time>
      </trkpt>
      <trkpt lat="46.55658" lon="5.84158">
        <ele>890.8</ele>
        <time>2021-08-09T12:53:36Z</time>
      </trkpt>
      <trkpt lat="46.55656" lon="5.84158">
        <ele>891.2</ele>
        <time>2021-08-09T12:53:37Z</time>
      </trkpt>
      <trkpt lat="46.55645" lon="5.84157">
        <ele>892.2</ele>
        <time>2021-08-09T12:53:41Z</time>
      </trkpt>
      <trkpt lat="46.55637" lon="5.84158">
        <ele>893.2</ele>
        <time>2021-08-09T12:53:44Z</time>
      </trkpt>
      <trkpt lat="46.55627" lon="5.84158">
        <ele>894.2</ele>
        <time>2021-08-09T12:53:48Z</time>
      </trkpt>
      <trkpt lat="46.55624" lon="5.84157">
        <ele>894.4</ele>
        <time>2021-08-09T12:53:49Z</time>
      </trkpt>
      <trkpt lat="46.55613" lon="5.84158">
        <ele>895.6</ele>
        <time>2021-08-09T12:53:54Z</time>
      </trkpt>
      <trkpt lat="46.55606" lon="5.84159">
        <ele>896.2</ele>
        <time>2021-08-09T12:53:57Z</time>
      </trkpt>
      <trkpt lat="46.55598" lon="5.84161">
        <ele>896.6</ele>
        <time>2021-08-09T12:54:00Z</time>
      </trkpt>
      <trkpt lat="46.55589" lon="5.84165">
        <ele>897.6</ele>
        <time>2021-08-09T12:54:04Z</time>
      </trkpt>
      <trkpt lat="46.55586" lon="5.84167">
        <ele>897.8</ele>
        <time>2021-08-09T12:54:05Z</time>
      </trkpt>
      <trkpt lat="46.55578" lon="5.84173">
        <ele>898.8</ele>
        <time>2021-08-09T12:54:08Z</time>
      </trkpt>
      <trkpt lat="46.55568" lon="5.84181">
        <ele>899.6</ele>
        <time>2021-08-09T12:54:11Z</time>
      </trkpt>
      <trkpt lat="46.55565" lon="5.84184">
        <ele>899.8</ele>
        <time>2021-08-09T12:54:12Z</time>
      </trkpt>
      <trkpt lat="46.55545" lon="5.842">
        <ele>900.4</ele>
        <time>2021-08-09T12:54:18Z</time>
      </trkpt>
      <trkpt lat="46.55542" lon="5.84202">
        <ele>900.8</ele>
        <time>2021-08-09T12:54:19Z</time>
      </trkpt>
      <trkpt lat="46.55529" lon="5.84214">
        <ele>902</ele>
        <time>2021-08-09T12:54:25Z</time>
      </trkpt>
      <trkpt lat="46.55519" lon="5.84226">
        <ele>903</ele>
        <time>2021-08-09T12:54:30Z</time>
      </trkpt>
      <trkpt lat="46.55516" lon="5.84228">
        <ele>903</ele>
        <time>2021-08-09T12:54:31Z</time>
      </trkpt>
      <trkpt lat="46.55498" lon="5.84244">
        <ele>903.8</ele>
        <time>2021-08-09T12:54:36Z</time>
      </trkpt>
      <trkpt lat="46.55475" lon="5.84259">
        <ele>905.2</ele>
        <time>2021-08-09T12:54:43Z</time>
      </trkpt>
      <trkpt lat="46.55473" lon="5.84262">
        <ele>905.6</ele>
        <time>2021-08-09T12:54:44Z</time>
      </trkpt>
      <trkpt lat="46.55462" lon="5.84268">
        <ele>906</ele>
        <time>2021-08-09T12:54:47Z</time>
      </trkpt>
      <trkpt lat="46.55459" lon="5.8427">
        <ele>906.4</ele>
        <time>2021-08-09T12:54:48Z</time>
      </trkpt>
      <trkpt lat="46.55443" lon="5.84283">
        <ele>907.4</ele>
        <time>2021-08-09T12:54:53Z</time>
      </trkpt>
      <trkpt lat="46.5544" lon="5.84285">
        <ele>907.4</ele>
        <time>2021-08-09T12:54:54Z</time>
      </trkpt>
      <trkpt lat="46.55425" lon="5.84294">
        <ele>908.2</ele>
        <time>2021-08-09T12:54:58Z</time>
      </trkpt>
      <trkpt lat="46.55418" lon="5.84302">
        <ele>909.2</ele>
        <time>2021-08-09T12:55:01Z</time>
      </trkpt>
      <trkpt lat="46.55414" lon="5.84309">
        <ele>909.6</ele>
        <time>2021-08-09T12:55:03Z</time>
      </trkpt>
      <trkpt lat="46.55404" lon="5.84329">
        <ele>910.8</ele>
        <time>2021-08-09T12:55:07Z</time>
      </trkpt>
      <trkpt lat="46.55402" lon="5.84336">
        <ele>911.4</ele>
        <time>2021-08-09T12:55:09Z</time>
      </trkpt>
      <trkpt lat="46.55403" lon="5.84348">
        <ele>911.6</ele>
        <time>2021-08-09T12:55:11Z</time>
      </trkpt>
      <trkpt lat="46.55402" lon="5.84354">
        <ele>911.8</ele>
        <time>2021-08-09T12:55:12Z</time>
      </trkpt>
      <trkpt lat="46.55402" lon="5.8437">
        <ele>912.4</ele>
        <time>2021-08-09T12:55:15Z</time>
      </trkpt>
      <trkpt lat="46.55406" lon="5.8439">
        <ele>912.8</ele>
        <time>2021-08-09T12:55:18Z</time>
      </trkpt>
      <trkpt lat="46.55409" lon="5.84396">
        <ele>912.8</ele>
        <time>2021-08-09T12:55:19Z</time>
      </trkpt>
      <trkpt lat="46.55419" lon="5.84409">
        <ele>913.8</ele>
        <time>2021-08-09T12:55:22Z</time>
      </trkpt>
      <trkpt lat="46.55422" lon="5.84412">
        <ele>914</ele>
        <time>2021-08-09T12:55:23Z</time>
      </trkpt>
      <trkpt lat="46.55433" lon="5.8442">
        <ele>914.8</ele>
        <time>2021-08-09T12:55:26Z</time>
      </trkpt>
      <trkpt lat="46.55441" lon="5.84427">
        <ele>915.4</ele>
        <time>2021-08-09T12:55:28Z</time>
      </trkpt>
      <trkpt lat="46.55443" lon="5.84432">
        <ele>915.8</ele>
        <time>2021-08-09T12:55:29Z</time>
      </trkpt>
      <trkpt lat="46.55454" lon="5.8444">
        <ele>916.4</ele>
        <time>2021-08-09T12:55:32Z</time>
      </trkpt>
      <trkpt lat="46.5547" lon="5.84459">
        <ele>917.2</ele>
        <time>2021-08-09T12:55:37Z</time>
      </trkpt>
      <trkpt lat="46.55474" lon="5.84468">
        <ele>917.4</ele>
        <time>2021-08-09T12:55:39Z</time>
      </trkpt>
      <trkpt lat="46.55484" lon="5.84478">
        <ele>918.2</ele>
        <time>2021-08-09T12:55:42Z</time>
      </trkpt>
      <trkpt lat="46.55497" lon="5.84488">
        <ele>919</ele>
        <time>2021-08-09T12:55:46Z</time>
      </trkpt>
      <trkpt lat="46.55498" lon="5.84492">
        <ele>919</ele>
        <time>2021-08-09T12:55:47Z</time>
      </trkpt>
      <trkpt lat="46.55508" lon="5.84504">
        <ele>919.6</ele>
        <time>2021-08-09T12:55:51Z</time>
      </trkpt>
      <trkpt lat="46.55512" lon="5.84514">
        <ele>920.2</ele>
        <time>2021-08-09T12:55:53Z</time>
      </trkpt>
      <trkpt lat="46.55517" lon="5.84521">
        <ele>920.4</ele>
        <time>2021-08-09T12:55:55Z</time>
      </trkpt>
      <trkpt lat="46.55525" lon="5.84531">
        <ele>921.2</ele>
        <time>2021-08-09T12:55:58Z</time>
      </trkpt>
      <trkpt lat="46.55532" lon="5.84539">
        <ele>921.6</ele>
        <time>2021-08-09T12:56:01Z</time>
      </trkpt>
      <trkpt lat="46.55538" lon="5.84544">
        <ele>922</ele>
        <time>2021-08-09T12:56:03Z</time>
      </trkpt>
      <trkpt lat="46.55542" lon="5.84557">
        <ele>923.2</ele>
        <time>2021-08-09T12:56:06Z</time>
      </trkpt>
      <trkpt lat="46.55543" lon="5.84562">
        <ele>923.4</ele>
        <time>2021-08-09T12:56:07Z</time>
      </trkpt>
      <trkpt lat="46.55543" lon="5.84566">
        <ele>923.6</ele>
        <time>2021-08-09T12:56:08Z</time>
      </trkpt>
      <trkpt lat="46.55542" lon="5.84568">
        <ele>923.8</ele>
        <time>2021-08-09T12:56:10Z</time>
      </trkpt>
      <trkpt lat="46.55536" lon="5.84568">
        <ele>924.4</ele>
        <time>2021-08-09T12:56:13Z</time>
      </trkpt>
      <trkpt lat="46.5553" lon="5.84566">
        <ele>924.8</ele>
        <time>2021-08-09T12:56:15Z</time>
      </trkpt>
      <trkpt lat="46.55521" lon="5.84562">
        <ele>925.6</ele>
        <time>2021-08-09T12:56:18Z</time>
      </trkpt>
      <trkpt lat="46.55518" lon="5.84562">
        <ele>925.8</ele>
        <time>2021-08-09T12:56:19Z</time>
      </trkpt>
      <trkpt lat="46.55508" lon="5.84559">
        <ele>926.6</ele>
        <time>2021-08-09T12:56:22Z</time>
      </trkpt>
      <trkpt lat="46.55497" lon="5.84555">
        <ele>927.6</ele>
        <time>2021-08-09T12:56:25Z</time>
      </trkpt>
      <trkpt lat="46.55494" lon="5.84553">
        <ele>927.8</ele>
        <time>2021-08-09T12:56:26Z</time>
      </trkpt>
      <trkpt lat="46.55475" lon="5.84543">
        <ele>929</ele>
        <time>2021-08-09T12:56:32Z</time>
      </trkpt>
      <trkpt lat="46.55472" lon="5.84541">
        <ele>929.2</ele>
        <time>2021-08-09T12:56:33Z</time>
      </trkpt>
      <trkpt lat="46.55458" lon="5.84533">
        <ele>930.4</ele>
        <time>2021-08-09T12:56:37Z</time>
      </trkpt>
      <trkpt lat="46.5545" lon="5.84529">
        <ele>930.6</ele>
        <time>2021-08-09T12:56:39Z</time>
      </trkpt>
      <trkpt lat="46.55434" lon="5.8452">
        <ele>931.2</ele>
        <time>2021-08-09T12:56:43Z</time>
      </trkpt>
      <trkpt lat="46.55421" lon="5.84514">
        <ele>931.8</ele>
        <time>2021-08-09T12:56:46Z</time>
      </trkpt>
      <trkpt lat="46.5541" lon="5.8451">
        <ele>932</ele>
        <time>2021-08-09T12:56:49Z</time>
      </trkpt>
      <trkpt lat="46.55399" lon="5.84503">
        <ele>932.4</ele>
        <time>2021-08-09T12:56:52Z</time>
      </trkpt>
      <trkpt lat="46.55392" lon="5.84501">
        <ele>933</ele>
        <time>2021-08-09T12:56:54Z</time>
      </trkpt>
      <trkpt lat="46.55385" lon="5.84499">
        <ele>933.6</ele>
        <time>2021-08-09T12:56:56Z</time>
      </trkpt>
      <trkpt lat="46.55376" lon="5.84496">
        <ele>934.6</ele>
        <time>2021-08-09T12:57:00Z</time>
      </trkpt>
      <trkpt lat="46.5537" lon="5.84496">
        <ele>935</ele>
        <time>2021-08-09T12:57:02Z</time>
      </trkpt>
      <trkpt lat="46.55357" lon="5.84495">
        <ele>936</ele>
        <time>2021-08-09T12:57:06Z</time>
      </trkpt>
      <trkpt lat="46.55354" lon="5.84495">
        <ele>936.2</ele>
        <time>2021-08-09T12:57:07Z</time>
      </trkpt>
      <trkpt lat="46.55344" lon="5.845">
        <ele>937.2</ele>
        <time>2021-08-09T12:57:11Z</time>
      </trkpt>
      <trkpt lat="46.55341" lon="5.84502">
        <ele>937.4</ele>
        <time>2021-08-09T12:57:12Z</time>
      </trkpt>
      <trkpt lat="46.55333" lon="5.84509">
        <ele>938.2</ele>
        <time>2021-08-09T12:57:15Z</time>
      </trkpt>
      <trkpt lat="46.55325" lon="5.8452">
        <ele>938.8</ele>
        <time>2021-08-09T12:57:18Z</time>
      </trkpt>
      <trkpt lat="46.5532" lon="5.84527">
        <ele>939.2</ele>
        <time>2021-08-09T12:57:20Z</time>
      </trkpt>
      <trkpt lat="46.55315" lon="5.84537">
        <ele>939.8</ele>
        <time>2021-08-09T12:57:23Z</time>
      </trkpt>
      <trkpt lat="46.5531" lon="5.8455">
        <ele>940.4</ele>
        <time>2021-08-09T12:57:26Z</time>
      </trkpt>
      <trkpt lat="46.55306" lon="5.84558">
        <ele>941</ele>
        <time>2021-08-09T12:57:28Z</time>
      </trkpt>
      <trkpt lat="46.55304" lon="5.84563">
        <ele>941.4</ele>
        <time>2021-08-09T12:57:29Z</time>
      </trkpt>
      <trkpt lat="46.55298" lon="5.8458">
        <ele>942.6</ele>
        <time>2021-08-09T12:57:33Z</time>
      </trkpt>
      <trkpt lat="46.55296" lon="5.84585">
        <ele>943</ele>
        <time>2021-08-09T12:57:34Z</time>
      </trkpt>
      <trkpt lat="46.55288" lon="5.84599">
        <ele>943.6</ele>
        <time>2021-08-09T12:57:38Z</time>
      </trkpt>
      <trkpt lat="46.55285" lon="5.84604">
        <ele>943.8</ele>
        <time>2021-08-09T12:57:39Z</time>
      </trkpt>
      <trkpt lat="46.55277" lon="5.84618">
        <ele>944.2</ele>
        <time>2021-08-09T12:57:42Z</time>
      </trkpt>
      <trkpt lat="46.55276" lon="5.84624">
        <ele>944.4</ele>
        <time>2021-08-09T12:57:43Z</time>
      </trkpt>
      <trkpt lat="46.55274" lon="5.84629">
        <ele>944.4</ele>
        <time>2021-08-09T12:57:44Z</time>
      </trkpt>
      <trkpt lat="46.55265" lon="5.84645">
        <ele>945.4</ele>
        <time>2021-08-09T12:57:48Z</time>
      </trkpt>
      <trkpt lat="46.55262" lon="5.84648">
        <ele>945.4</ele>
        <time>2021-08-09T12:57:49Z</time>
      </trkpt>
      <trkpt lat="46.55256" lon="5.8466">
        <ele>946.6</ele>
        <time>2021-08-09T12:57:52Z</time>
      </trkpt>
      <trkpt lat="46.55252" lon="5.84665">
        <ele>947</ele>
        <time>2021-08-09T12:57:54Z</time>
      </trkpt>
      <trkpt lat="46.55247" lon="5.84669">
        <ele>947.6</ele>
        <time>2021-08-09T12:57:56Z</time>
      </trkpt>
      <trkpt lat="46.55234" lon="5.84671">
        <ele>948.6</ele>
        <time>2021-08-09T12:58:00Z</time>
      </trkpt>
      <trkpt lat="46.55231" lon="5.84671">
        <ele>949</ele>
        <time>2021-08-09T12:58:01Z</time>
      </trkpt>
      <trkpt lat="46.55218" lon="5.8467">
        <ele>950.2</ele>
        <time>2021-08-09T12:58:05Z</time>
      </trkpt>
      <trkpt lat="46.55212" lon="5.8467">
        <ele>951</ele>
        <time>2021-08-09T12:58:07Z</time>
      </trkpt>
      <trkpt lat="46.55209" lon="5.84669">
        <ele>951.2</ele>
        <time>2021-08-09T12:58:08Z</time>
      </trkpt>
      <trkpt lat="46.55192" lon="5.84668">
        <ele>952.4</ele>
        <time>2021-08-09T12:58:13Z</time>
      </trkpt>
      <trkpt lat="46.55176" lon="5.84666">
        <ele>953.4</ele>
        <time>2021-08-09T12:58:19Z</time>
      </trkpt>
      <trkpt lat="46.55171" lon="5.84666">
        <ele>953.6</ele>
        <time>2021-08-09T12:58:21Z</time>
      </trkpt>
      <trkpt lat="46.55163" lon="5.84666">
        <ele>954.4</ele>
        <time>2021-08-09T12:58:24Z</time>
      </trkpt>
      <trkpt lat="46.5515" lon="5.84666">
        <ele>955.2</ele>
        <time>2021-08-09T12:58:28Z</time>
      </trkpt>
      <trkpt lat="46.55147" lon="5.84666">
        <ele>955.4</ele>
        <time>2021-08-09T12:58:29Z</time>
      </trkpt>
      <trkpt lat="46.55129" lon="5.84666">
        <ele>956.4</ele>
        <time>2021-08-09T12:58:34Z</time>
      </trkpt>
      <trkpt lat="46.55123" lon="5.84666">
        <ele>956.4</ele>
        <time>2021-08-09T12:58:36Z</time>
      </trkpt>
      <trkpt lat="46.55107" lon="5.84668">
        <ele>957.8</ele>
        <time>2021-08-09T12:58:41Z</time>
      </trkpt>
      <trkpt lat="46.55099" lon="5.84678">
        <ele>959</ele>
        <time>2021-08-09T12:58:45Z</time>
      </trkpt>
      <trkpt lat="46.55088" lon="5.84689">
        <ele>959.8</ele>
        <time>2021-08-09T12:58:49Z</time>
      </trkpt>
      <trkpt lat="46.55085" lon="5.84692">
        <ele>960.2</ele>
        <time>2021-08-09T12:58:50Z</time>
      </trkpt>
      <trkpt lat="46.55075" lon="5.84707">
        <ele>961.2</ele>
        <time>2021-08-09T12:58:54Z</time>
      </trkpt>
      <trkpt lat="46.55067" lon="5.84723">
        <ele>962.2</ele>
        <time>2021-08-09T12:58:58Z</time>
      </trkpt>
      <trkpt lat="46.55055" lon="5.8474">
        <ele>963.4</ele>
        <time>2021-08-09T12:59:04Z</time>
      </trkpt>
      <trkpt lat="46.55052" lon="5.84742">
        <ele>963.4</ele>
        <time>2021-08-09T12:59:05Z</time>
      </trkpt>
      <trkpt lat="46.55042" lon="5.84753">
        <ele>964.4</ele>
        <time>2021-08-09T12:59:10Z</time>
      </trkpt>
      <trkpt lat="46.55038" lon="5.84757">
        <ele>964.8</ele>
        <time>2021-08-09T12:59:12Z</time>
      </trkpt>
      <trkpt lat="46.55036" lon="5.84759">
        <ele>965.4</ele>
        <time>2021-08-09T12:59:13Z</time>
      </trkpt>
      <trkpt lat="46.55027" lon="5.84766">
        <ele>966.4</ele>
        <time>2021-08-09T12:59:17Z</time>
      </trkpt>
      <trkpt lat="46.55025" lon="5.84767">
        <ele>966.6</ele>
        <time>2021-08-09T12:59:18Z</time>
      </trkpt>
      <trkpt lat="46.55021" lon="5.84771">
        <ele>967.4</ele>
        <time>2021-08-09T12:59:20Z</time>
      </trkpt>
      <trkpt lat="46.55015" lon="5.84782">
        <ele>968.4</ele>
        <time>2021-08-09T12:59:24Z</time>
      </trkpt>
      <trkpt lat="46.55005" lon="5.84791">
        <ele>969.6</ele>
        <time>2021-08-09T12:59:29Z</time>
      </trkpt>
      <trkpt lat="46.54993" lon="5.84805">
        <ele>970.8</ele>
        <time>2021-08-09T12:59:34Z</time>
      </trkpt>
      <trkpt lat="46.5499" lon="5.84808">
        <ele>971</ele>
        <time>2021-08-09T12:59:35Z</time>
      </trkpt>
      <trkpt lat="46.5497" lon="5.84813">
        <ele>972</ele>
        <time>2021-08-09T12:59:40Z</time>
      </trkpt>
      <trkpt lat="46.54962" lon="5.84811">
        <ele>972.4</ele>
        <time>2021-08-09T12:59:42Z</time>
      </trkpt>
      <trkpt lat="46.54953" lon="5.84811">
        <ele>973.2</ele>
        <time>2021-08-09T12:59:45Z</time>
      </trkpt>
      <trkpt lat="46.5493" lon="5.84806">
        <ele>974</ele>
        <time>2021-08-09T12:59:50Z</time>
      </trkpt>
      <trkpt lat="46.54926" lon="5.84805">
        <ele>974.2</ele>
        <time>2021-08-09T12:59:51Z</time>
      </trkpt>
      <trkpt lat="46.54918" lon="5.84802">
        <ele>975</ele>
        <time>2021-08-09T12:59:55Z</time>
      </trkpt>
      <trkpt lat="46.54915" lon="5.84801">
        <ele>975</ele>
        <time>2021-08-09T12:59:56Z</time>
      </trkpt>
      <trkpt lat="46.549" lon="5.84797">
        <ele>975.8</ele>
        <time>2021-08-09T13:00:00Z</time>
      </trkpt>
      <trkpt lat="46.54892" lon="5.84795">
        <ele>976</ele>
        <time>2021-08-09T13:00:02Z</time>
      </trkpt>
      <trkpt lat="46.54882" lon="5.84802">
        <ele>976.2</ele>
        <time>2021-08-09T13:00:05Z</time>
      </trkpt>
      <trkpt lat="46.5488" lon="5.84806">
        <ele>976.4</ele>
        <time>2021-08-09T13:00:06Z</time>
      </trkpt>
      <trkpt lat="46.54878" lon="5.84818">
        <ele>976.6</ele>
        <time>2021-08-09T13:00:08Z</time>
      </trkpt>
      <trkpt lat="46.5488" lon="5.84823">
        <ele>976.8</ele>
        <time>2021-08-09T13:00:09Z</time>
      </trkpt>
      <trkpt lat="46.54882" lon="5.84828">
        <ele>977</ele>
        <time>2021-08-09T13:00:10Z</time>
      </trkpt>
      <trkpt lat="46.54886" lon="5.84837">
        <ele>977.6</ele>
        <time>2021-08-09T13:00:12Z</time>
      </trkpt>
      <trkpt lat="46.54889" lon="5.84841">
        <ele>977.8</ele>
        <time>2021-08-09T13:00:13Z</time>
      </trkpt>
      <trkpt lat="46.54906" lon="5.84864">
        <ele>978.8</ele>
        <time>2021-08-09T13:00:19Z</time>
      </trkpt>
      <trkpt lat="46.54908" lon="5.84868">
        <ele>979</ele>
        <time>2021-08-09T13:00:20Z</time>
      </trkpt>
      <trkpt lat="46.54919" lon="5.84889">
        <ele>979.8</ele>
        <time>2021-08-09T13:00:25Z</time>
      </trkpt>
      <trkpt lat="46.54922" lon="5.84899">
        <ele>980.4</ele>
        <time>2021-08-09T13:00:27Z</time>
      </trkpt>
      <trkpt lat="46.54926" lon="5.84908">
        <ele>981</ele>
        <time>2021-08-09T13:00:29Z</time>
      </trkpt>
      <trkpt lat="46.5494" lon="5.84928">
        <ele>981.8</ele>
        <time>2021-08-09T13:00:34Z</time>
      </trkpt>
      <trkpt lat="46.54942" lon="5.84931">
        <ele>982</ele>
        <time>2021-08-09T13:00:35Z</time>
      </trkpt>
      <trkpt lat="46.54961" lon="5.84944">
        <ele>982.8</ele>
        <time>2021-08-09T13:00:41Z</time>
      </trkpt>
      <trkpt lat="46.54964" lon="5.84946">
        <ele>983</ele>
        <time>2021-08-09T13:00:42Z</time>
      </trkpt>
      <trkpt lat="46.54988" lon="5.84957">
        <ele>983.6</ele>
        <time>2021-08-09T13:00:48Z</time>
      </trkpt>
      <trkpt lat="46.54997" lon="5.84961">
        <ele>984.2</ele>
        <time>2021-08-09T13:00:50Z</time>
      </trkpt>
      <trkpt lat="46.55001" lon="5.84963">
        <ele>984.4</ele>
        <time>2021-08-09T13:00:51Z</time>
      </trkpt>
      <trkpt lat="46.5501" lon="5.84968">
        <ele>985</ele>
        <time>2021-08-09T13:00:53Z</time>
      </trkpt>
      <trkpt lat="46.55021" lon="5.84971">
        <ele>985.6</ele>
        <time>2021-08-09T13:00:56Z</time>
      </trkpt>
      <trkpt lat="46.55032" lon="5.84978">
        <ele>986</ele>
        <time>2021-08-09T13:00:59Z</time>
      </trkpt>
      <trkpt lat="46.55041" lon="5.8498">
        <ele>986.4</ele>
        <time>2021-08-09T13:01:01Z</time>
      </trkpt>
      <trkpt lat="46.55048" lon="5.84984">
        <ele>987</ele>
        <time>2021-08-09T13:01:03Z</time>
      </trkpt>
      <trkpt lat="46.55054" lon="5.84989">
        <ele>987.6</ele>
        <time>2021-08-09T13:01:05Z</time>
      </trkpt>
      <trkpt lat="46.55059" lon="5.84997">
        <ele>988</ele>
        <time>2021-08-09T13:01:07Z</time>
      </trkpt>
      <trkpt lat="46.55059" lon="5.85015">
        <ele>988.8</ele>
        <time>2021-08-09T13:01:11Z</time>
      </trkpt>
      <trkpt lat="46.55054" lon="5.8502">
        <ele>989</ele>
        <time>2021-08-09T13:01:12Z</time>
      </trkpt>
      <trkpt lat="46.55047" lon="5.85022">
        <ele>989.6</ele>
        <time>2021-08-09T13:01:14Z</time>
      </trkpt>
      <trkpt lat="46.55032" lon="5.85015">
        <ele>990.2</ele>
        <time>2021-08-09T13:01:18Z</time>
      </trkpt>
      <trkpt lat="46.55019" lon="5.85006">
        <ele>991.2</ele>
        <time>2021-08-09T13:01:22Z</time>
      </trkpt>
      <trkpt lat="46.55009" lon="5.84999">
        <ele>992</ele>
        <time>2021-08-09T13:01:25Z</time>
      </trkpt>
      <trkpt lat="46.55004" lon="5.84997">
        <ele>992.4</ele>
        <time>2021-08-09T13:01:27Z</time>
      </trkpt>
      <trkpt lat="46.55001" lon="5.84997">
        <ele>992.4</ele>
        <time>2021-08-09T13:01:28Z</time>
      </trkpt>
      <trkpt lat="46.54998" lon="5.84996">
        <ele>992.8</ele>
        <time>2021-08-09T13:01:29Z</time>
      </trkpt>
      <trkpt lat="46.54989" lon="5.84994">
        <ele>993.4</ele>
        <time>2021-08-09T13:01:32Z</time>
      </trkpt>
      <trkpt lat="46.5498" lon="5.84991">
        <ele>993.8</ele>
        <time>2021-08-09T13:01:35Z</time>
      </trkpt>
      <trkpt lat="46.54969" lon="5.84991">
        <ele>994.4</ele>
        <time>2021-08-09T13:01:38Z</time>
      </trkpt>
      <trkpt lat="46.54961" lon="5.84991">
        <ele>995.2</ele>
        <time>2021-08-09T13:01:40Z</time>
      </trkpt>
      <trkpt lat="46.54954" lon="5.84993">
        <ele>995.6</ele>
        <time>2021-08-09T13:01:42Z</time>
      </trkpt>
      <trkpt lat="46.54942" lon="5.85">
        <ele>996.2</ele>
        <time>2021-08-09T13:01:45Z</time>
      </trkpt>
      <trkpt lat="46.54929" lon="5.85009">
        <ele>996.8</ele>
        <time>2021-08-09T13:01:48Z</time>
      </trkpt>
      <trkpt lat="46.5492" lon="5.85014">
        <ele>997</ele>
        <time>2021-08-09T13:01:50Z</time>
      </trkpt>
      <trkpt lat="46.54888" lon="5.85025">
        <ele>997.6</ele>
        <time>2021-08-09T13:01:56Z</time>
      </trkpt>
      <trkpt lat="46.54883" lon="5.85025">
        <ele>997.8</ele>
        <time>2021-08-09T13:01:57Z</time>
      </trkpt>
      <trkpt lat="46.54856" lon="5.85033">
        <ele>998</ele>
        <time>2021-08-09T13:02:02Z</time>
      </trkpt>
      <trkpt lat="46.54814" lon="5.85053">
        <ele>998</ele>
        <time>2021-08-09T13:02:10Z</time>
      </trkpt>
      <trkpt lat="46.54789" lon="5.85076">
        <ele>998.6</ele>
        <time>2021-08-09T13:02:16Z</time>
      </trkpt>
      <trkpt lat="46.5478" lon="5.85079">
        <ele>998.8</ele>
        <time>2021-08-09T13:02:18Z</time>
      </trkpt>
      <trkpt lat="46.54775" lon="5.85081">
        <ele>999</ele>
        <time>2021-08-09T13:02:19Z</time>
      </trkpt>
      <trkpt lat="46.5477" lon="5.85082">
        <ele>999.2</ele>
        <time>2021-08-09T13:02:20Z</time>
      </trkpt>
      <trkpt lat="46.54759" lon="5.85083">
        <ele>999.2</ele>
        <time>2021-08-09T13:02:22Z</time>
      </trkpt>
      <trkpt lat="46.54744" lon="5.85083">
        <ele>999.6</ele>
        <time>2021-08-09T13:02:25Z</time>
      </trkpt>
      <trkpt lat="46.54739" lon="5.85083">
        <ele>999.8</ele>
        <time>2021-08-09T13:02:26Z</time>
      </trkpt>
      <trkpt lat="46.54726" lon="5.85082">
        <ele>999.8</ele>
        <time>2021-08-09T13:02:28Z</time>
      </trkpt>
      <trkpt lat="46.54715" lon="5.85085">
        <ele>1000</ele>
        <time>2021-08-09T13:02:30Z</time>
      </trkpt>
      <trkpt lat="46.54705" lon="5.85092">
        <ele>1000</ele>
        <time>2021-08-09T13:02:32Z</time>
      </trkpt>
      <trkpt lat="46.54695" lon="5.85101">
        <ele>1000</ele>
        <time>2021-08-09T13:02:34Z</time>
      </trkpt>
      <trkpt lat="46.54681" lon="5.85122">
        <ele>1001</ele>
        <time>2021-08-09T13:02:38Z</time>
      </trkpt>
      <trkpt lat="46.54678" lon="5.85127">
        <ele>1001.2</ele>
        <time>2021-08-09T13:02:39Z</time>
      </trkpt>
      <trkpt lat="46.54674" lon="5.85133">
        <ele>1001.4</ele>
        <time>2021-08-09T13:02:40Z</time>
      </trkpt>
      <trkpt lat="46.54667" lon="5.85143">
        <ele>1001.8</ele>
        <time>2021-08-09T13:02:42Z</time>
      </trkpt>
      <trkpt lat="46.54655" lon="5.85157">
        <ele>1002.4</ele>
        <time>2021-08-09T13:02:45Z</time>
      </trkpt>
      <trkpt lat="46.54649" lon="5.85161">
        <ele>1002.6</ele>
        <time>2021-08-09T13:02:46Z</time>
      </trkpt>
      <trkpt lat="46.54637" lon="5.85169">
        <ele>1002.8</ele>
        <time>2021-08-09T13:02:48Z</time>
      </trkpt>
      <trkpt lat="46.54624" lon="5.85171">
        <ele>1002.8</ele>
        <time>2021-08-09T13:02:50Z</time>
      </trkpt>
      <trkpt lat="46.54618" lon="5.85171">
        <ele>1003</ele>
        <time>2021-08-09T13:02:51Z</time>
      </trkpt>
      <trkpt lat="46.54596" lon="5.85165">
        <ele>1003.8</ele>
        <time>2021-08-09T13:02:55Z</time>
      </trkpt>
      <trkpt lat="46.54592" lon="5.85162">
        <ele>1004</ele>
        <time>2021-08-09T13:02:56Z</time>
      </trkpt>
      <trkpt lat="46.54583" lon="5.85159">
        <ele>1004.6</ele>
        <time>2021-08-09T13:02:58Z</time>
      </trkpt>
      <trkpt lat="46.54579" lon="5.85159">
        <ele>1004.8</ele>
        <time>2021-08-09T13:02:59Z</time>
      </trkpt>
      <trkpt lat="46.54574" lon="5.8516">
        <ele>1005</ele>
        <time>2021-08-09T13:03:00Z</time>
      </trkpt>
      <trkpt lat="46.5457" lon="5.85159">
        <ele>1005.2</ele>
        <time>2021-08-09T13:03:01Z</time>
      </trkpt>
      <trkpt lat="46.54565" lon="5.85159">
        <ele>1005.8</ele>
        <time>2021-08-09T13:03:02Z</time>
      </trkpt>
      <trkpt lat="46.54561" lon="5.85158">
        <ele>1006</ele>
        <time>2021-08-09T13:03:03Z</time>
      </trkpt>
      <trkpt lat="46.54556" lon="5.85159">
        <ele>1006.2</ele>
        <time>2021-08-09T13:03:04Z</time>
      </trkpt>
      <trkpt lat="46.54544" lon="5.85163">
        <ele>1007</ele>
        <time>2021-08-09T13:03:07Z</time>
      </trkpt>
      <trkpt lat="46.54538" lon="5.85164">
        <ele>1007.6</ele>
        <time>2021-08-09T13:03:09Z</time>
      </trkpt>
      <trkpt lat="46.54535" lon="5.85164">
        <ele>1007.6</ele>
        <time>2021-08-09T13:03:10Z</time>
      </trkpt>
      <trkpt lat="46.54522" lon="5.8516">
        <ele>1008.6</ele>
        <time>2021-08-09T13:03:13Z</time>
      </trkpt>
      <trkpt lat="46.54513" lon="5.85155">
        <ele>1008.8</ele>
        <time>2021-08-09T13:03:15Z</time>
      </trkpt>
      <trkpt lat="46.54501" lon="5.85153">
        <ele>1009</ele>
        <time>2021-08-09T13:03:17Z</time>
      </trkpt>
      <trkpt lat="46.54496" lon="5.85153">
        <ele>1009.2</ele>
        <time>2021-08-09T13:03:18Z</time>
      </trkpt>
      <trkpt lat="46.54483" lon="5.85148">
        <ele>1009.8</ele>
        <time>2021-08-09T13:03:21Z</time>
      </trkpt>
      <trkpt lat="46.54466" lon="5.85148">
        <ele>1010</ele>
        <time>2021-08-09T13:03:24Z</time>
      </trkpt>
      <trkpt lat="46.54453" lon="5.85147">
        <ele>1010.2</ele>
        <time>2021-08-09T13:03:26Z</time>
      </trkpt>
      <trkpt lat="46.54449" lon="5.85144">
        <ele>1010.4</ele>
        <time>2021-08-09T13:03:27Z</time>
      </trkpt>
      <trkpt lat="46.54442" lon="5.85138">
        <ele>1010.6</ele>
        <time>2021-08-09T13:03:29Z</time>
      </trkpt>
      <trkpt lat="46.5444" lon="5.85135">
        <ele>1010.6</ele>
        <time>2021-08-09T13:03:30Z</time>
      </trkpt>
      <trkpt lat="46.54431" lon="5.85128">
        <ele>1010.8</ele>
        <time>2021-08-09T13:03:33Z</time>
      </trkpt>
      <trkpt lat="46.54412" lon="5.85116">
        <ele>1011.6</ele>
        <time>2021-08-09T13:03:38Z</time>
      </trkpt>
      <trkpt lat="46.54406" lon="5.85114">
        <ele>1011.8</ele>
        <time>2021-08-09T13:03:39Z</time>
      </trkpt>
      <trkpt lat="46.54382" lon="5.85103">
        <ele>1012.4</ele>
        <time>2021-08-09T13:03:44Z</time>
      </trkpt>
      <trkpt lat="46.54377" lon="5.85101">
        <ele>1012.8</ele>
        <time>2021-08-09T13:03:46Z</time>
      </trkpt>
      <trkpt lat="46.54366" lon="5.85098">
        <ele>1013</ele>
        <time>2021-08-09T13:03:48Z</time>
      </trkpt>
      <trkpt lat="46.54344" lon="5.85099">
        <ele>1013.6</ele>
        <time>2021-08-09T13:03:53Z</time>
      </trkpt>
      <trkpt lat="46.54339" lon="5.85102">
        <ele>1013.6</ele>
        <time>2021-08-09T13:03:54Z</time>
      </trkpt>
      <trkpt lat="46.54334" lon="5.85106">
        <ele>1013.8</ele>
        <time>2021-08-09T13:03:55Z</time>
      </trkpt>
      <trkpt lat="46.54323" lon="5.85114">
        <ele>1014.6</ele>
        <time>2021-08-09T13:03:58Z</time>
      </trkpt>
      <trkpt lat="46.54318" lon="5.85116">
        <ele>1015</ele>
        <time>2021-08-09T13:03:59Z</time>
      </trkpt>
      <trkpt lat="46.54305" lon="5.85122">
        <ele>1015.8</ele>
        <time>2021-08-09T13:04:01Z</time>
      </trkpt>
      <trkpt lat="46.54299" lon="5.85123">
        <ele>1016.2</ele>
        <time>2021-08-09T13:04:02Z</time>
      </trkpt>
      <trkpt lat="46.5429" lon="5.85123">
        <ele>1016.4</ele>
        <time>2021-08-09T13:04:04Z</time>
      </trkpt>
      <trkpt lat="46.54276" lon="5.85117">
        <ele>1017</ele>
        <time>2021-08-09T13:04:07Z</time>
      </trkpt>
      <trkpt lat="46.54273" lon="5.85115">
        <ele>1017</ele>
        <time>2021-08-09T13:04:08Z</time>
      </trkpt>
      <trkpt lat="46.54255" lon="5.85103">
        <ele>1018.2</ele>
        <time>2021-08-09T13:04:14Z</time>
      </trkpt>
      <trkpt lat="46.54253" lon="5.85101">
        <ele>1019</ele>
        <time>2021-08-09T13:04:18Z</time>
      </trkpt>
      <trkpt lat="46.5425" lon="5.85099">
        <ele>1018.4</ele>
        <time>2021-08-09T13:05:36Z</time>
      </trkpt>
      <trkpt lat="46.54243" lon="5.85093">
        <ele>1018.2</ele>
        <time>2021-08-09T13:05:38Z</time>
      </trkpt>
      <trkpt lat="46.5422" lon="5.85075">
        <ele>1017.8</ele>
        <time>2021-08-09T13:05:43Z</time>
      </trkpt>
      <trkpt lat="46.54202" lon="5.85061">
        <ele>1017</ele>
        <time>2021-08-09T13:05:46Z</time>
      </trkpt>
      <trkpt lat="46.5419" lon="5.85058">
        <ele>1016.4</ele>
        <time>2021-08-09T13:05:48Z</time>
      </trkpt>
      <trkpt lat="46.54183" lon="5.85058">
        <ele>1016.2</ele>
        <time>2021-08-09T13:05:49Z</time>
      </trkpt>
      <trkpt lat="46.54177" lon="5.85062">
        <ele>1015.4</ele>
        <time>2021-08-09T13:05:50Z</time>
      </trkpt>
      <trkpt lat="46.54164" lon="5.85071">
        <ele>1014.6</ele>
        <time>2021-08-09T13:05:52Z</time>
      </trkpt>
      <trkpt lat="46.54157" lon="5.85078">
        <ele>1014.2</ele>
        <time>2021-08-09T13:05:53Z</time>
      </trkpt>
      <trkpt lat="46.54143" lon="5.85092">
        <ele>1013.8</ele>
        <time>2021-08-09T13:05:55Z</time>
      </trkpt>
      <trkpt lat="46.54134" lon="5.85111">
        <ele>1013</ele>
        <time>2021-08-09T13:05:57Z</time>
      </trkpt>
      <trkpt lat="46.54129" lon="5.8514">
        <ele>1012.4</ele>
        <time>2021-08-09T13:05:59Z</time>
      </trkpt>
      <trkpt lat="46.54127" lon="5.85155">
        <ele>1012</ele>
        <time>2021-08-09T13:06:00Z</time>
      </trkpt>
      <trkpt lat="46.54125" lon="5.85167">
        <ele>1011.6</ele>
        <time>2021-08-09T13:06:01Z</time>
      </trkpt>
      <trkpt lat="46.54118" lon="5.85198">
        <ele>1010.8</ele>
        <time>2021-08-09T13:06:03Z</time>
      </trkpt>
      <trkpt lat="46.54106" lon="5.85237">
        <ele>1009.6</ele>
        <time>2021-08-09T13:06:06Z</time>
      </trkpt>
      <trkpt lat="46.54102" lon="5.8525">
        <ele>1009.4</ele>
        <time>2021-08-09T13:06:07Z</time>
      </trkpt>
      <trkpt lat="46.541" lon="5.85263">
        <ele>1008.6</ele>
        <time>2021-08-09T13:06:08Z</time>
      </trkpt>
      <trkpt lat="46.54099" lon="5.8528">
        <ele>1007.4</ele>
        <time>2021-08-09T13:06:09Z</time>
      </trkpt>
      <trkpt lat="46.541" lon="5.85294">
        <ele>1006.8</ele>
        <time>2021-08-09T13:06:10Z</time>
      </trkpt>
      <trkpt lat="46.54105" lon="5.85306">
        <ele>1006</ele>
        <time>2021-08-09T13:06:11Z</time>
      </trkpt>
      <trkpt lat="46.5411" lon="5.85314">
        <ele>1005.8</ele>
        <time>2021-08-09T13:06:12Z</time>
      </trkpt>
      <trkpt lat="46.54118" lon="5.85318">
        <ele>1005.2</ele>
        <time>2021-08-09T13:06:13Z</time>
      </trkpt>
      <trkpt lat="46.54128" lon="5.85321">
        <ele>1004.6</ele>
        <time>2021-08-09T13:06:14Z</time>
      </trkpt>
      <trkpt lat="46.54137" lon="5.85327">
        <ele>1003.6</ele>
        <time>2021-08-09T13:06:15Z</time>
      </trkpt>
      <trkpt lat="46.54143" lon="5.85337">
        <ele>1003</ele>
        <time>2021-08-09T13:06:16Z</time>
      </trkpt>
      <trkpt lat="46.54144" lon="5.85345">
        <ele>1002.8</ele>
        <time>2021-08-09T13:06:17Z</time>
      </trkpt>
      <trkpt lat="46.54143" lon="5.85361">
        <ele>1002.4</ele>
        <time>2021-08-09T13:06:18Z</time>
      </trkpt>
      <trkpt lat="46.54139" lon="5.85388">
        <ele>1001.4</ele>
        <time>2021-08-09T13:06:20Z</time>
      </trkpt>
      <trkpt lat="46.54142" lon="5.85399">
        <ele>1001.2</ele>
        <time>2021-08-09T13:06:21Z</time>
      </trkpt>
      <trkpt lat="46.54147" lon="5.8541">
        <ele>1000.2</ele>
        <time>2021-08-09T13:06:22Z</time>
      </trkpt>
      <trkpt lat="46.54156" lon="5.8542">
        <ele>999</ele>
        <time>2021-08-09T13:06:23Z</time>
      </trkpt>
      <trkpt lat="46.54178" lon="5.85445">
        <ele>997.8</ele>
        <time>2021-08-09T13:06:26Z</time>
      </trkpt>
      <trkpt lat="46.54194" lon="5.85464">
        <ele>996.6</ele>
        <time>2021-08-09T13:06:28Z</time>
      </trkpt>
      <trkpt lat="46.54204" lon="5.85475">
        <ele>995.4</ele>
        <time>2021-08-09T13:06:29Z</time>
      </trkpt>
      <trkpt lat="46.54227" lon="5.85502">
        <ele>994</ele>
        <time>2021-08-09T13:06:32Z</time>
      </trkpt>
      <trkpt lat="46.54232" lon="5.85509">
        <ele>994</ele>
        <time>2021-08-09T13:06:33Z</time>
      </trkpt>
      <trkpt lat="46.54235" lon="5.85521">
        <ele>992.8</ele>
        <time>2021-08-09T13:06:34Z</time>
      </trkpt>
      <trkpt lat="46.54233" lon="5.85531">
        <ele>992.4</ele>
        <time>2021-08-09T13:06:35Z</time>
      </trkpt>
      <trkpt lat="46.54227" lon="5.85539">
        <ele>991.8</ele>
        <time>2021-08-09T13:06:36Z</time>
      </trkpt>
      <trkpt lat="46.54221" lon="5.85543">
        <ele>991.6</ele>
        <time>2021-08-09T13:06:37Z</time>
      </trkpt>
      <trkpt lat="46.54215" lon="5.85542">
        <ele>991</ele>
        <time>2021-08-09T13:06:38Z</time>
      </trkpt>
      <trkpt lat="46.54207" lon="5.85539">
        <ele>990.4</ele>
        <time>2021-08-09T13:06:39Z</time>
      </trkpt>
      <trkpt lat="46.54201" lon="5.85533">
        <ele>990.2</ele>
        <time>2021-08-09T13:06:40Z</time>
      </trkpt>
      <trkpt lat="46.54186" lon="5.85519">
        <ele>989</ele>
        <time>2021-08-09T13:06:42Z</time>
      </trkpt>
      <trkpt lat="46.54162" lon="5.85502">
        <ele>987.4</ele>
        <time>2021-08-09T13:06:45Z</time>
      </trkpt>
      <trkpt lat="46.54153" lon="5.85497">
        <ele>986.6</ele>
        <time>2021-08-09T13:06:46Z</time>
      </trkpt>
      <trkpt lat="46.54144" lon="5.85494">
        <ele>986.2</ele>
        <time>2021-08-09T13:06:47Z</time>
      </trkpt>
      <trkpt lat="46.54133" lon="5.8549">
        <ele>985.6</ele>
        <time>2021-08-09T13:06:48Z</time>
      </trkpt>
      <trkpt lat="46.54114" lon="5.85478">
        <ele>984.8</ele>
        <time>2021-08-09T13:06:50Z</time>
      </trkpt>
      <trkpt lat="46.54105" lon="5.85471">
        <ele>984</ele>
        <time>2021-08-09T13:06:51Z</time>
      </trkpt>
      <trkpt lat="46.54098" lon="5.85466">
        <ele>983.2</ele>
        <time>2021-08-09T13:06:52Z</time>
      </trkpt>
      <trkpt lat="46.54067" lon="5.85446">
        <ele>982</ele>
        <time>2021-08-09T13:06:55Z</time>
      </trkpt>
      <trkpt lat="46.54059" lon="5.85442">
        <ele>981.6</ele>
        <time>2021-08-09T13:06:56Z</time>
      </trkpt>
      <trkpt lat="46.54047" lon="5.85437">
        <ele>980.8</ele>
        <time>2021-08-09T13:06:57Z</time>
      </trkpt>
      <trkpt lat="46.54025" lon="5.8543">
        <ele>979</ele>
        <time>2021-08-09T13:06:59Z</time>
      </trkpt>
      <trkpt lat="46.54005" lon="5.85421">
        <ele>977.8</ele>
        <time>2021-08-09T13:07:01Z</time>
      </trkpt>
      <trkpt lat="46.5397" lon="5.85401">
        <ele>976.2</ele>
        <time>2021-08-09T13:07:04Z</time>
      </trkpt>
      <trkpt lat="46.5396" lon="5.85392">
        <ele>975.8</ele>
        <time>2021-08-09T13:07:05Z</time>
      </trkpt>
      <trkpt lat="46.53953" lon="5.85383">
        <ele>975</ele>
        <time>2021-08-09T13:07:06Z</time>
      </trkpt>
      <trkpt lat="46.53937" lon="5.85354">
        <ele>973.6</ele>
        <time>2021-08-09T13:07:08Z</time>
      </trkpt>
      <trkpt lat="46.53921" lon="5.85339">
        <ele>972.4</ele>
        <time>2021-08-09T13:07:10Z</time>
      </trkpt>
      <trkpt lat="46.53897" lon="5.85332">
        <ele>971.4</ele>
        <time>2021-08-09T13:07:12Z</time>
      </trkpt>
      <trkpt lat="46.53881" lon="5.8533">
        <ele>970.4</ele>
        <time>2021-08-09T13:07:13Z</time>
      </trkpt>
      <trkpt lat="46.53868" lon="5.85328">
        <ele>970</ele>
        <time>2021-08-09T13:07:14Z</time>
      </trkpt>
      <trkpt lat="46.53846" lon="5.85321">
        <ele>968.2</ele>
        <time>2021-08-09T13:07:16Z</time>
      </trkpt>
      <trkpt lat="46.53832" lon="5.85316">
        <ele>967.4</ele>
        <time>2021-08-09T13:07:17Z</time>
      </trkpt>
      <trkpt lat="46.53818" lon="5.8531">
        <ele>966.4</ele>
        <time>2021-08-09T13:07:18Z</time>
      </trkpt>
      <trkpt lat="46.53796" lon="5.85302">
        <ele>964.8</ele>
        <time>2021-08-09T13:07:20Z</time>
      </trkpt>
      <trkpt lat="46.53771" lon="5.85287">
        <ele>963.4</ele>
        <time>2021-08-09T13:07:22Z</time>
      </trkpt>
      <trkpt lat="46.53743" lon="5.8527">
        <ele>962.2</ele>
        <time>2021-08-09T13:07:24Z</time>
      </trkpt>
      <trkpt lat="46.53723" lon="5.85256">
        <ele>960.8</ele>
        <time>2021-08-09T13:07:26Z</time>
      </trkpt>
      <trkpt lat="46.53712" lon="5.85247">
        <ele>960</ele>
        <time>2021-08-09T13:07:27Z</time>
      </trkpt>
      <trkpt lat="46.537" lon="5.85237">
        <ele>959.8</ele>
        <time>2021-08-09T13:07:28Z</time>
      </trkpt>
      <trkpt lat="46.53677" lon="5.85221">
        <ele>958.4</ele>
        <time>2021-08-09T13:07:30Z</time>
      </trkpt>
      <trkpt lat="46.53658" lon="5.85206">
        <ele>957</ele>
        <time>2021-08-09T13:07:32Z</time>
      </trkpt>
      <trkpt lat="46.53647" lon="5.85198">
        <ele>956.4</ele>
        <time>2021-08-09T13:07:33Z</time>
      </trkpt>
      <trkpt lat="46.53634" lon="5.85189">
        <ele>955</ele>
        <time>2021-08-09T13:07:34Z</time>
      </trkpt>
      <trkpt lat="46.53614" lon="5.85175">
        <ele>953.6</ele>
        <time>2021-08-09T13:07:36Z</time>
      </trkpt>
      <trkpt lat="46.5359" lon="5.85158">
        <ele>952</ele>
        <time>2021-08-09T13:07:38Z</time>
      </trkpt>
      <trkpt lat="46.53567" lon="5.85142">
        <ele>951</ele>
        <time>2021-08-09T13:07:40Z</time>
      </trkpt>
      <trkpt lat="46.53557" lon="5.85137">
        <ele>949.8</ele>
        <time>2021-08-09T13:07:41Z</time>
      </trkpt>
      <trkpt lat="46.53519" lon="5.85116">
        <ele>948.2</ele>
        <time>2021-08-09T13:07:44Z</time>
      </trkpt>
      <trkpt lat="46.53507" lon="5.8511">
        <ele>946.8</ele>
        <time>2021-08-09T13:07:45Z</time>
      </trkpt>
      <trkpt lat="46.53494" lon="5.85103">
        <ele>946.2</ele>
        <time>2021-08-09T13:07:46Z</time>
      </trkpt>
      <trkpt lat="46.53485" lon="5.85098">
        <ele>945.8</ele>
        <time>2021-08-09T13:07:47Z</time>
      </trkpt>
      <trkpt lat="46.5347" lon="5.8509">
        <ele>944.8</ele>
        <time>2021-08-09T13:07:48Z</time>
      </trkpt>
      <trkpt lat="46.53433" lon="5.85071">
        <ele>943.4</ele>
        <time>2021-08-09T13:07:51Z</time>
      </trkpt>
      <trkpt lat="46.53423" lon="5.85066">
        <ele>942</ele>
        <time>2021-08-09T13:07:52Z</time>
      </trkpt>
      <trkpt lat="46.53397" lon="5.85051">
        <ele>940</ele>
        <time>2021-08-09T13:07:54Z</time>
      </trkpt>
      <trkpt lat="46.53365" lon="5.85031">
        <ele>938.8</ele>
        <time>2021-08-09T13:07:57Z</time>
      </trkpt>
      <trkpt lat="46.53313" lon="5.85">
        <ele>937.2</ele>
        <time>2021-08-09T13:08:02Z</time>
      </trkpt>
      <trkpt lat="46.533" lon="5.84992">
        <ele>936.8</ele>
        <time>2021-08-09T13:08:03Z</time>
      </trkpt>
      <trkpt lat="46.5327" lon="5.84976">
        <ele>936</ele>
        <time>2021-08-09T13:08:06Z</time>
      </trkpt>
      <trkpt lat="46.53246" lon="5.84962">
        <ele>934.8</ele>
        <time>2021-08-09T13:08:08Z</time>
      </trkpt>
      <trkpt lat="46.53236" lon="5.84956">
        <ele>933.6</ele>
        <time>2021-08-09T13:08:09Z</time>
      </trkpt>
      <trkpt lat="46.53207" lon="5.8494">
        <ele>932.6</ele>
        <time>2021-08-09T13:08:12Z</time>
      </trkpt>
      <trkpt lat="46.53184" lon="5.84927">
        <ele>932.2</ele>
        <time>2021-08-09T13:08:14Z</time>
      </trkpt>
      <trkpt lat="46.53152" lon="5.84909">
        <ele>931.4</ele>
        <time>2021-08-09T13:08:17Z</time>
      </trkpt>
      <trkpt lat="46.53132" lon="5.84898">
        <ele>930.4</ele>
        <time>2021-08-09T13:08:19Z</time>
      </trkpt>
      <trkpt lat="46.53122" lon="5.84892">
        <ele>929.8</ele>
        <time>2021-08-09T13:08:20Z</time>
      </trkpt>
      <trkpt lat="46.53104" lon="5.84883">
        <ele>929.2</ele>
        <time>2021-08-09T13:08:22Z</time>
      </trkpt>
      <trkpt lat="46.53053" lon="5.84854">
        <ele>927.8</ele>
        <time>2021-08-09T13:08:27Z</time>
      </trkpt>
      <trkpt lat="46.53044" lon="5.84847">
        <ele>927.6</ele>
        <time>2021-08-09T13:08:28Z</time>
      </trkpt>
      <trkpt lat="46.53017" lon="5.84829">
        <ele>926.4</ele>
        <time>2021-08-09T13:08:31Z</time>
      </trkpt>
      <trkpt lat="46.52982" lon="5.84799">
        <ele>925</ele>
        <time>2021-08-09T13:08:35Z</time>
      </trkpt>
      <trkpt lat="46.52958" lon="5.84781">
        <ele>924.8</ele>
        <time>2021-08-09T13:08:38Z</time>
      </trkpt>
      <trkpt lat="46.52941" lon="5.84772">
        <ele>924.8</ele>
        <time>2021-08-09T13:08:40Z</time>
      </trkpt>
      <trkpt lat="46.529" lon="5.84754">
        <ele>925</ele>
        <time>2021-08-09T13:08:45Z</time>
      </trkpt>
      <trkpt lat="46.52844" lon="5.84729">
        <ele>925</ele>
        <time>2021-08-09T13:08:52Z</time>
      </trkpt>
      <trkpt lat="46.52811" lon="5.84722">
        <ele>924.6</ele>
        <time>2021-08-09T13:08:56Z</time>
      </trkpt>
      <trkpt lat="46.52803" lon="5.84723">
        <ele>924.6</ele>
        <time>2021-08-09T13:08:57Z</time>
      </trkpt>
      <trkpt lat="46.52795" lon="5.84726">
        <ele>924.6</ele>
        <time>2021-08-09T13:08:58Z</time>
      </trkpt>
      <trkpt lat="46.52772" lon="5.84742">
        <ele>924</ele>
        <time>2021-08-09T13:09:01Z</time>
      </trkpt>
      <trkpt lat="46.52767" lon="5.84748">
        <ele>923.6</ele>
        <time>2021-08-09T13:09:02Z</time>
      </trkpt>
      <trkpt lat="46.5275" lon="5.84763">
        <ele>923.4</ele>
        <time>2021-08-09T13:09:04Z</time>
      </trkpt>
      <trkpt lat="46.52733" lon="5.84773">
        <ele>922.6</ele>
        <time>2021-08-09T13:09:06Z</time>
      </trkpt>
      <trkpt lat="46.52691" lon="5.84784">
        <ele>922</ele>
        <time>2021-08-09T13:09:11Z</time>
      </trkpt>
      <trkpt lat="46.52639" lon="5.84798">
        <ele>921.6</ele>
        <time>2021-08-09T13:09:17Z</time>
      </trkpt>
      <trkpt lat="46.52603" lon="5.8481">
        <ele>921.2</ele>
        <time>2021-08-09T13:09:21Z</time>
      </trkpt>
      <trkpt lat="46.5258" lon="5.84822">
        <ele>921.2</ele>
        <time>2021-08-09T13:09:24Z</time>
      </trkpt>
      <trkpt lat="46.52567" lon="5.84835">
        <ele>921</ele>
        <time>2021-08-09T13:09:26Z</time>
      </trkpt>
      <trkpt lat="46.52546" lon="5.84861">
        <ele>920.2</ele>
        <time>2021-08-09T13:09:29Z</time>
      </trkpt>
      <trkpt lat="46.52538" lon="5.8487">
        <ele>919.8</ele>
        <time>2021-08-09T13:09:30Z</time>
      </trkpt>
      <trkpt lat="46.52529" lon="5.84878">
        <ele>919.6</ele>
        <time>2021-08-09T13:09:31Z</time>
      </trkpt>
      <trkpt lat="46.52511" lon="5.84889">
        <ele>918.6</ele>
        <time>2021-08-09T13:09:33Z</time>
      </trkpt>
      <trkpt lat="46.52488" lon="5.84895">
        <ele>917.6</ele>
        <time>2021-08-09T13:09:35Z</time>
      </trkpt>
      <trkpt lat="46.52466" lon="5.84896">
        <ele>916.6</ele>
        <time>2021-08-09T13:09:37Z</time>
      </trkpt>
      <trkpt lat="46.52443" lon="5.84898">
        <ele>915.2</ele>
        <time>2021-08-09T13:09:39Z</time>
      </trkpt>
      <trkpt lat="46.52432" lon="5.84899">
        <ele>914.6</ele>
        <time>2021-08-09T13:09:40Z</time>
      </trkpt>
      <trkpt lat="46.52422" lon="5.849">
        <ele>914.2</ele>
        <time>2021-08-09T13:09:41Z</time>
      </trkpt>
      <trkpt lat="46.524" lon="5.849">
        <ele>912.2</ele>
        <time>2021-08-09T13:09:43Z</time>
      </trkpt>
      <trkpt lat="46.52379" lon="5.84897">
        <ele>910.6</ele>
        <time>2021-08-09T13:09:45Z</time>
      </trkpt>
      <trkpt lat="46.52363" lon="5.84886">
        <ele>909.6</ele>
        <time>2021-08-09T13:09:47Z</time>
      </trkpt>
      <trkpt lat="46.52354" lon="5.84875">
        <ele>909</ele>
        <time>2021-08-09T13:09:48Z</time>
      </trkpt>
      <trkpt lat="46.52338" lon="5.84855">
        <ele>908.2</ele>
        <time>2021-08-09T13:09:50Z</time>
      </trkpt>
      <trkpt lat="46.52317" lon="5.84828">
        <ele>906.8</ele>
        <time>2021-08-09T13:09:53Z</time>
      </trkpt>
      <trkpt lat="46.5231" lon="5.84821">
        <ele>905.6</ele>
        <time>2021-08-09T13:09:54Z</time>
      </trkpt>
      <trkpt lat="46.52304" lon="5.84817">
        <ele>904.4</ele>
        <time>2021-08-09T13:09:55Z</time>
      </trkpt>
      <trkpt lat="46.52298" lon="5.84815">
        <ele>903.8</ele>
        <time>2021-08-09T13:09:56Z</time>
      </trkpt>
      <trkpt lat="46.52294" lon="5.84815">
        <ele>903.2</ele>
        <time>2021-08-09T13:09:57Z</time>
      </trkpt>
      <trkpt lat="46.52288" lon="5.84817">
        <ele>903.2</ele>
        <time>2021-08-09T13:09:58Z</time>
      </trkpt>
      <trkpt lat="46.52279" lon="5.84816">
        <ele>902.8</ele>
        <time>2021-08-09T13:10:00Z</time>
      </trkpt>
      <trkpt lat="46.52274" lon="5.84813">
        <ele>902.6</ele>
        <time>2021-08-09T13:10:01Z</time>
      </trkpt>
      <trkpt lat="46.52264" lon="5.84805">
        <ele>902.2</ele>
        <time>2021-08-09T13:10:03Z</time>
      </trkpt>
      <trkpt lat="46.52251" lon="5.84796">
        <ele>901.8</ele>
        <time>2021-08-09T13:10:05Z</time>
      </trkpt>
      <trkpt lat="46.52246" lon="5.84793">
        <ele>901</ele>
        <time>2021-08-09T13:10:06Z</time>
      </trkpt>
      <trkpt lat="46.52212" lon="5.84776">
        <ele>899.8</ele>
        <time>2021-08-09T13:10:11Z</time>
      </trkpt>
      <trkpt lat="46.52203" lon="5.84771">
        <ele>899.6</ele>
        <time>2021-08-09T13:10:12Z</time>
      </trkpt>
      <trkpt lat="46.5216" lon="5.84747">
        <ele>899.4</ele>
        <time>2021-08-09T13:10:18Z</time>
      </trkpt>
      <trkpt lat="46.52117" lon="5.84733">
        <ele>899</ele>
        <time>2021-08-09T13:10:24Z</time>
      </trkpt>
      <trkpt lat="46.52109" lon="5.84733">
        <ele>898.6</ele>
        <time>2021-08-09T13:10:25Z</time>
      </trkpt>
      <trkpt lat="46.52087" lon="5.84741">
        <ele>898.4</ele>
        <time>2021-08-09T13:10:28Z</time>
      </trkpt>
      <trkpt lat="46.52068" lon="5.84756">
        <ele>898.2</ele>
        <time>2021-08-09T13:10:31Z</time>
      </trkpt>
      <trkpt lat="46.52056" lon="5.84771">
        <ele>898.2</ele>
        <time>2021-08-09T13:10:33Z</time>
      </trkpt>
      <trkpt lat="46.52023" lon="5.84821">
        <ele>898.6</ele>
        <time>2021-08-09T13:10:39Z</time>
      </trkpt>
      <trkpt lat="46.51984" lon="5.84877">
        <ele>897.8</ele>
        <time>2021-08-09T13:10:46Z</time>
      </trkpt>
      <trkpt lat="46.51971" lon="5.84888">
        <ele>897.8</ele>
        <time>2021-08-09T13:10:48Z</time>
      </trkpt>
      <trkpt lat="46.51957" lon="5.84896">
        <ele>897.8</ele>
        <time>2021-08-09T13:10:50Z</time>
      </trkpt>
      <trkpt lat="46.51934" lon="5.849">
        <ele>898</ele>
        <time>2021-08-09T13:10:53Z</time>
      </trkpt>
      <trkpt lat="46.51927" lon="5.849">
        <ele>898</ele>
        <time>2021-08-09T13:10:54Z</time>
      </trkpt>
      <trkpt lat="46.51919" lon="5.84898">
        <ele>897.6</ele>
        <time>2021-08-09T13:10:55Z</time>
      </trkpt>
      <trkpt lat="46.5189" lon="5.84883">
        <ele>897.8</ele>
        <time>2021-08-09T13:10:59Z</time>
      </trkpt>
      <trkpt lat="46.51844" lon="5.84845">
        <ele>896.6</ele>
        <time>2021-08-09T13:11:06Z</time>
      </trkpt>
      <trkpt lat="46.51825" lon="5.84826">
        <ele>896</ele>
        <time>2021-08-09T13:11:09Z</time>
      </trkpt>
      <trkpt lat="46.51812" lon="5.84814">
        <ele>896.2</ele>
        <time>2021-08-09T13:11:11Z</time>
      </trkpt>
      <trkpt lat="46.51764" lon="5.84763">
        <ele>896.2</ele>
        <time>2021-08-09T13:11:19Z</time>
      </trkpt>
      <trkpt lat="46.51749" lon="5.84739">
        <ele>896.4</ele>
        <time>2021-08-09T13:11:22Z</time>
      </trkpt>
      <trkpt lat="46.51742" lon="5.84721">
        <ele>896.8</ele>
        <time>2021-08-09T13:11:24Z</time>
      </trkpt>
      <trkpt lat="46.51731" lon="5.8467">
        <ele>896</ele>
        <time>2021-08-09T13:11:29Z</time>
      </trkpt>
      <trkpt lat="46.51729" lon="5.8466">
        <ele>896</ele>
        <time>2021-08-09T13:11:30Z</time>
      </trkpt>
      <trkpt lat="46.51729" lon="5.84616">
        <ele>895.6</ele>
        <time>2021-08-09T13:11:34Z</time>
      </trkpt>
      <trkpt lat="46.51738" lon="5.8455">
        <ele>895.6</ele>
        <time>2021-08-09T13:11:40Z</time>
      </trkpt>
      <trkpt lat="46.51741" lon="5.84483">
        <ele>896</ele>
        <time>2021-08-09T13:11:46Z</time>
      </trkpt>
      <trkpt lat="46.51739" lon="5.84439">
        <ele>895.8</ele>
        <time>2021-08-09T13:11:50Z</time>
      </trkpt>
      <trkpt lat="46.51734" lon="5.84418">
        <ele>895.8</ele>
        <time>2021-08-09T13:11:52Z</time>
      </trkpt>
      <trkpt lat="46.51725" lon="5.84401">
        <ele>895.8</ele>
        <time>2021-08-09T13:11:54Z</time>
      </trkpt>
      <trkpt lat="46.5172" lon="5.84393">
        <ele>895.6</ele>
        <time>2021-08-09T13:11:55Z</time>
      </trkpt>
      <trkpt lat="46.51714" lon="5.84387">
        <ele>895.4</ele>
        <time>2021-08-09T13:11:56Z</time>
      </trkpt>
      <trkpt lat="46.51685" lon="5.8436">
        <ele>895.4</ele>
        <time>2021-08-09T13:12:01Z</time>
      </trkpt>
      <trkpt lat="46.51634" lon="5.84314">
        <ele>896.6</ele>
        <time>2021-08-09T13:12:10Z</time>
      </trkpt>
      <trkpt lat="46.51629" lon="5.84309">
        <ele>896.8</ele>
        <time>2021-08-09T13:12:11Z</time>
      </trkpt>
      <trkpt lat="46.5158" lon="5.84265">
        <ele>897.4</ele>
        <time>2021-08-09T13:12:20Z</time>
      </trkpt>
      <trkpt lat="46.51535" lon="5.84219">
        <ele>897.6</ele>
        <time>2021-08-09T13:12:29Z</time>
      </trkpt>
      <trkpt lat="46.51526" lon="5.84206">
        <ele>897.8</ele>
        <time>2021-08-09T13:12:31Z</time>
      </trkpt>
      <trkpt lat="46.51522" lon="5.842">
        <ele>897.8</ele>
        <time>2021-08-09T13:12:32Z</time>
      </trkpt>
      <trkpt lat="46.51512" lon="5.84189">
        <ele>898</ele>
        <time>2021-08-09T13:12:34Z</time>
      </trkpt>
      <trkpt lat="46.51506" lon="5.84185">
        <ele>898</ele>
        <time>2021-08-09T13:12:35Z</time>
      </trkpt>
      <trkpt lat="46.515" lon="5.84182">
        <ele>898.2</ele>
        <time>2021-08-09T13:12:36Z</time>
      </trkpt>
      <trkpt lat="46.51488" lon="5.84178">
        <ele>898.4</ele>
        <time>2021-08-09T13:12:38Z</time>
      </trkpt>
      <trkpt lat="46.51474" lon="5.84175">
        <ele>898.6</ele>
        <time>2021-08-09T13:12:40Z</time>
      </trkpt>
      <trkpt lat="46.51434" lon="5.84162">
        <ele>898.6</ele>
        <time>2021-08-09T13:12:46Z</time>
      </trkpt>
      <trkpt lat="46.51394" lon="5.8413">
        <ele>897.2</ele>
        <time>2021-08-09T13:12:52Z</time>
      </trkpt>
      <trkpt lat="46.51373" lon="5.84116">
        <ele>896.8</ele>
        <time>2021-08-09T13:12:55Z</time>
      </trkpt>
      <trkpt lat="46.51366" lon="5.84113">
        <ele>896.6</ele>
        <time>2021-08-09T13:12:56Z</time>
      </trkpt>
      <trkpt lat="46.51359" lon="5.84109">
        <ele>896.6</ele>
        <time>2021-08-09T13:12:57Z</time>
      </trkpt>
      <trkpt lat="46.51331" lon="5.84088">
        <ele>896.4</ele>
        <time>2021-08-09T13:13:01Z</time>
      </trkpt>
      <trkpt lat="46.51326" lon="5.8408">
        <ele>896</ele>
        <time>2021-08-09T13:13:02Z</time>
      </trkpt>
      <trkpt lat="46.51322" lon="5.8407">
        <ele>896</ele>
        <time>2021-08-09T13:13:03Z</time>
      </trkpt>
      <trkpt lat="46.51319" lon="5.84049">
        <ele>895.8</ele>
        <time>2021-08-09T13:13:05Z</time>
      </trkpt>
      <trkpt lat="46.51319" lon="5.84039">
        <ele>895.6</ele>
        <time>2021-08-09T13:13:06Z</time>
      </trkpt>
      <trkpt lat="46.5132" lon="5.84017">
        <ele>895.2</ele>
        <time>2021-08-09T13:13:08Z</time>
      </trkpt>
      <trkpt lat="46.51318" lon="5.84006">
        <ele>895.2</ele>
        <time>2021-08-09T13:13:09Z</time>
      </trkpt>
      <trkpt lat="46.51316" lon="5.83995">
        <ele>895</ele>
        <time>2021-08-09T13:13:10Z</time>
      </trkpt>
      <trkpt lat="46.51313" lon="5.83985">
        <ele>894.6</ele>
        <time>2021-08-09T13:13:11Z</time>
      </trkpt>
      <trkpt lat="46.51308" lon="5.83977">
        <ele>894.6</ele>
        <time>2021-08-09T13:13:12Z</time>
      </trkpt>
      <trkpt lat="46.51297" lon="5.83963">
        <ele>894.4</ele>
        <time>2021-08-09T13:13:14Z</time>
      </trkpt>
      <trkpt lat="46.51291" lon="5.83958">
        <ele>894.6</ele>
        <time>2021-08-09T13:13:15Z</time>
      </trkpt>
      <trkpt lat="46.51258" lon="5.83941">
        <ele>894.6</ele>
        <time>2021-08-09T13:13:20Z</time>
      </trkpt>
      <trkpt lat="46.51232" lon="5.83936">
        <ele>895</ele>
        <time>2021-08-09T13:13:24Z</time>
      </trkpt>
      <trkpt lat="46.51225" lon="5.83937">
        <ele>894.8</ele>
        <time>2021-08-09T13:13:25Z</time>
      </trkpt>
      <trkpt lat="46.51218" lon="5.8394">
        <ele>895</ele>
        <time>2021-08-09T13:13:26Z</time>
      </trkpt>
      <trkpt lat="46.512" lon="5.83953">
        <ele>895.2</ele>
        <time>2021-08-09T13:13:29Z</time>
      </trkpt>
      <trkpt lat="46.5119" lon="5.83961">
        <ele>895.4</ele>
        <time>2021-08-09T13:13:31Z</time>
      </trkpt>
      <trkpt lat="46.51184" lon="5.83964">
        <ele>895.6</ele>
        <time>2021-08-09T13:13:32Z</time>
      </trkpt>
      <trkpt lat="46.5118" lon="5.83965">
        <ele>895.8</ele>
        <time>2021-08-09T13:13:33Z</time>
      </trkpt>
      <trkpt lat="46.5117" lon="5.83964">
        <ele>896.4</ele>
        <time>2021-08-09T13:13:35Z</time>
      </trkpt>
      <trkpt lat="46.51167" lon="5.83959">
        <ele>896.6</ele>
        <time>2021-08-09T13:13:36Z</time>
      </trkpt>
      <trkpt lat="46.51165" lon="5.83952">
        <ele>896.8</ele>
        <time>2021-08-09T13:13:37Z</time>
      </trkpt>
      <trkpt lat="46.51166" lon="5.83939">
        <ele>897.4</ele>
        <time>2021-08-09T13:13:39Z</time>
      </trkpt>
      <trkpt lat="46.51169" lon="5.83927">
        <ele>897.8</ele>
        <time>2021-08-09T13:13:41Z</time>
      </trkpt>
      <trkpt lat="46.51171" lon="5.83921">
        <ele>898</ele>
        <time>2021-08-09T13:13:42Z</time>
      </trkpt>
      <trkpt lat="46.51172" lon="5.83908">
        <ele>898.4</ele>
        <time>2021-08-09T13:13:44Z</time>
      </trkpt>
      <trkpt lat="46.51175" lon="5.83895">
        <ele>898.8</ele>
        <time>2021-08-09T13:13:46Z</time>
      </trkpt>
      <trkpt lat="46.51181" lon="5.83878">
        <ele>899.6</ele>
        <time>2021-08-09T13:13:49Z</time>
      </trkpt>
      <trkpt lat="46.51184" lon="5.83872">
        <ele>900</ele>
        <time>2021-08-09T13:13:50Z</time>
      </trkpt>
      <trkpt lat="46.51191" lon="5.83853">
        <ele>901</ele>
        <time>2021-08-09T13:13:53Z</time>
      </trkpt>
      <trkpt lat="46.51193" lon="5.83839">
        <ele>901.6</ele>
        <time>2021-08-09T13:13:55Z</time>
      </trkpt>
      <trkpt lat="46.51193" lon="5.83826">
        <ele>902</ele>
        <time>2021-08-09T13:13:57Z</time>
      </trkpt>
      <trkpt lat="46.51192" lon="5.83819">
        <ele>902.4</ele>
        <time>2021-08-09T13:13:58Z</time>
      </trkpt>
      <trkpt lat="46.51188" lon="5.83807">
        <ele>903</ele>
        <time>2021-08-09T13:14:00Z</time>
      </trkpt>
      <trkpt lat="46.51185" lon="5.83801">
        <ele>903.2</ele>
        <time>2021-08-09T13:14:01Z</time>
      </trkpt>
      <trkpt lat="46.51178" lon="5.83793">
        <ele>903.8</ele>
        <time>2021-08-09T13:14:03Z</time>
      </trkpt>
      <trkpt lat="46.51175" lon="5.8379">
        <ele>904.2</ele>
        <time>2021-08-09T13:14:04Z</time>
      </trkpt>
      <trkpt lat="46.51171" lon="5.83787">
        <ele>904.4</ele>
        <time>2021-08-09T13:14:05Z</time>
      </trkpt>
      <trkpt lat="46.51153" lon="5.83782">
        <ele>905.4</ele>
        <time>2021-08-09T13:14:09Z</time>
      </trkpt>
      <trkpt lat="46.51148" lon="5.83781">
        <ele>905.4</ele>
        <time>2021-08-09T13:14:10Z</time>
      </trkpt>
      <trkpt lat="46.5114" lon="5.83779">
        <ele>906.4</ele>
        <time>2021-08-09T13:14:12Z</time>
      </trkpt>
      <trkpt lat="46.51135" lon="5.83777">
        <ele>906.6</ele>
        <time>2021-08-09T13:14:13Z</time>
      </trkpt>
      <trkpt lat="46.51132" lon="5.83775">
        <ele>906.8</ele>
        <time>2021-08-09T13:14:14Z</time>
      </trkpt>
      <trkpt lat="46.51128" lon="5.83772">
        <ele>907</ele>
        <time>2021-08-09T13:14:15Z</time>
      </trkpt>
      <trkpt lat="46.51121" lon="5.83764">
        <ele>907.4</ele>
        <time>2021-08-09T13:14:17Z</time>
      </trkpt>
      <trkpt lat="46.51119" lon="5.83759">
        <ele>907.8</ele>
        <time>2021-08-09T13:14:18Z</time>
      </trkpt>
      <trkpt lat="46.51116" lon="5.83754">
        <ele>908</ele>
        <time>2021-08-09T13:14:19Z</time>
      </trkpt>
      <trkpt lat="46.51115" lon="5.83748">
        <ele>908.2</ele>
        <time>2021-08-09T13:14:20Z</time>
      </trkpt>
      <trkpt lat="46.51114" lon="5.83743">
        <ele>908.6</ele>
        <time>2021-08-09T13:14:21Z</time>
      </trkpt>
      <trkpt lat="46.51114" lon="5.83731">
        <ele>909</ele>
        <time>2021-08-09T13:14:23Z</time>
      </trkpt>
      <trkpt lat="46.5112" lon="5.83712">
        <ele>910</ele>
        <time>2021-08-09T13:14:27Z</time>
      </trkpt>
      <trkpt lat="46.51122" lon="5.83708">
        <ele>910.2</ele>
        <time>2021-08-09T13:14:28Z</time>
      </trkpt>
      <trkpt lat="46.51132" lon="5.83691">
        <ele>911.2</ele>
        <time>2021-08-09T13:14:32Z</time>
      </trkpt>
      <trkpt lat="46.5114" lon="5.83677">
        <ele>912</ele>
        <time>2021-08-09T13:14:35Z</time>
      </trkpt>
      <trkpt lat="46.51145" lon="5.83667">
        <ele>912.6</ele>
        <time>2021-08-09T13:14:37Z</time>
      </trkpt>
      <trkpt lat="46.51156" lon="5.83649">
        <ele>913.4</ele>
        <time>2021-08-09T13:14:41Z</time>
      </trkpt>
      <trkpt lat="46.51159" lon="5.83645">
        <ele>913.6</ele>
        <time>2021-08-09T13:14:42Z</time>
      </trkpt>
      <trkpt lat="46.51177" lon="5.83625">
        <ele>914.4</ele>
        <time>2021-08-09T13:14:47Z</time>
      </trkpt>
      <trkpt lat="46.51181" lon="5.83621">
        <ele>914.6</ele>
        <time>2021-08-09T13:14:48Z</time>
      </trkpt>
      <trkpt lat="46.51199" lon="5.83603">
        <ele>915</ele>
        <time>2021-08-09T13:14:52Z</time>
      </trkpt>
      <trkpt lat="46.51219" lon="5.83576">
        <ele>915</ele>
        <time>2021-08-09T13:14:58Z</time>
      </trkpt>
      <trkpt lat="46.51225" lon="5.83573">
        <ele>915</ele>
        <time>2021-08-09T13:15:00Z</time>
      </trkpt>
      <trkpt lat="46.51225" lon="5.83572">
        <ele>915</ele>
        <time>2021-08-09T13:15:01Z</time>
      </trkpt>
      <trkpt lat="46.51225" lon="5.83572">
        <ele>915.2</ele>
        <time>2021-08-09T13:15:04Z</time>
      </trkpt>
      <trkpt lat="46.51227" lon="5.83559">
        <ele>914.8</ele>
        <time>2021-08-09T13:15:37Z</time>
      </trkpt>
      <trkpt lat="46.51238" lon="5.83542">
        <ele>914.6</ele>
        <time>2021-08-09T13:15:41Z</time>
      </trkpt>
      <trkpt lat="46.51261" lon="5.83512">
        <ele>914.8</ele>
        <time>2021-08-09T13:15:47Z</time>
      </trkpt>
      <trkpt lat="46.51269" lon="5.83499">
        <ele>915</ele>
        <time>2021-08-09T13:15:49Z</time>
      </trkpt>
      <trkpt lat="46.51276" lon="5.83485">
        <ele>915.4</ele>
        <time>2021-08-09T13:15:51Z</time>
      </trkpt>
      <trkpt lat="46.51282" lon="5.83472">
        <ele>916</ele>
        <time>2021-08-09T13:15:53Z</time>
      </trkpt>
      <trkpt lat="46.51284" lon="5.83465">
        <ele>916.2</ele>
        <time>2021-08-09T13:15:54Z</time>
      </trkpt>
      <trkpt lat="46.51287" lon="5.83459">
        <ele>916.4</ele>
        <time>2021-08-09T13:15:55Z</time>
      </trkpt>
      <trkpt lat="46.51292" lon="5.83444">
        <ele>916.8</ele>
        <time>2021-08-09T13:15:57Z</time>
      </trkpt>
      <trkpt lat="46.51301" lon="5.83424">
        <ele>917.4</ele>
        <time>2021-08-09T13:16:00Z</time>
      </trkpt>
      <trkpt lat="46.51304" lon="5.83418">
        <ele>917.6</ele>
        <time>2021-08-09T13:16:01Z</time>
      </trkpt>
      <trkpt lat="46.51311" lon="5.83406">
        <ele>918</ele>
        <time>2021-08-09T13:16:03Z</time>
      </trkpt>
      <trkpt lat="46.51325" lon="5.83386">
        <ele>918.4</ele>
        <time>2021-08-09T13:16:07Z</time>
      </trkpt>
      <trkpt lat="46.51335" lon="5.83369">
        <ele>919</ele>
        <time>2021-08-09T13:16:10Z</time>
      </trkpt>
      <trkpt lat="46.51344" lon="5.83349">
        <ele>919.6</ele>
        <time>2021-08-09T13:16:13Z</time>
      </trkpt>
      <trkpt lat="46.51354" lon="5.83321">
        <ele>920.6</ele>
        <time>2021-08-09T13:16:17Z</time>
      </trkpt>
      <trkpt lat="46.51357" lon="5.83314">
        <ele>920.8</ele>
        <time>2021-08-09T13:16:18Z</time>
      </trkpt>
      <trkpt lat="46.51369" lon="5.83272">
        <ele>921</ele>
        <time>2021-08-09T13:16:24Z</time>
      </trkpt>
      <trkpt lat="46.51382" lon="5.83229">
        <ele>921.6</ele>
        <time>2021-08-09T13:16:30Z</time>
      </trkpt>
      <trkpt lat="46.51384" lon="5.83223">
        <ele>921.8</ele>
        <time>2021-08-09T13:16:31Z</time>
      </trkpt>
      <trkpt lat="46.51388" lon="5.83209">
        <ele>921.8</ele>
        <time>2021-08-09T13:16:33Z</time>
      </trkpt>
      <trkpt lat="46.51397" lon="5.83181">
        <ele>922.4</ele>
        <time>2021-08-09T13:16:37Z</time>
      </trkpt>
      <trkpt lat="46.51402" lon="5.83158">
        <ele>922.6</ele>
        <time>2021-08-09T13:16:40Z</time>
      </trkpt>
      <trkpt lat="46.51406" lon="5.83134">
        <ele>922.8</ele>
        <time>2021-08-09T13:16:43Z</time>
      </trkpt>
      <trkpt lat="46.51407" lon="5.83126">
        <ele>923</ele>
        <time>2021-08-09T13:16:44Z</time>
      </trkpt>
      <trkpt lat="46.51407" lon="5.8311">
        <ele>923</ele>
        <time>2021-08-09T13:16:46Z</time>
      </trkpt>
      <trkpt lat="46.51405" lon="5.83093">
        <ele>923.4</ele>
        <time>2021-08-09T13:16:48Z</time>
      </trkpt>
      <trkpt lat="46.51402" lon="5.83085">
        <ele>923.6</ele>
        <time>2021-08-09T13:16:49Z</time>
      </trkpt>
      <trkpt lat="46.514" lon="5.83077">
        <ele>923.6</ele>
        <time>2021-08-09T13:16:50Z</time>
      </trkpt>
      <trkpt lat="46.51394" lon="5.83062">
        <ele>924</ele>
        <time>2021-08-09T13:16:52Z</time>
      </trkpt>
      <trkpt lat="46.5139" lon="5.83055">
        <ele>924.2</ele>
        <time>2021-08-09T13:16:53Z</time>
      </trkpt>
      <trkpt lat="46.51386" lon="5.8305">
        <ele>924.4</ele>
        <time>2021-08-09T13:16:54Z</time>
      </trkpt>
      <trkpt lat="46.51376" lon="5.83039">
        <ele>924.6</ele>
        <time>2021-08-09T13:16:56Z</time>
      </trkpt>
      <trkpt lat="46.51366" lon="5.83031">
        <ele>924.8</ele>
        <time>2021-08-09T13:16:58Z</time>
      </trkpt>
      <trkpt lat="46.51346" lon="5.83013">
        <ele>925</ele>
        <time>2021-08-09T13:17:02Z</time>
      </trkpt>
      <trkpt lat="46.51338" lon="5.83001">
        <ele>925.2</ele>
        <time>2021-08-09T13:17:04Z</time>
      </trkpt>
      <trkpt lat="46.51331" lon="5.82988">
        <ele>925.4</ele>
        <time>2021-08-09T13:17:06Z</time>
      </trkpt>
      <trkpt lat="46.51328" lon="5.8298">
        <ele>925.6</ele>
        <time>2021-08-09T13:17:07Z</time>
      </trkpt>
      <trkpt lat="46.51325" lon="5.82972">
        <ele>925.6</ele>
        <time>2021-08-09T13:17:08Z</time>
      </trkpt>
      <trkpt lat="46.51323" lon="5.82956">
        <ele>925.8</ele>
        <time>2021-08-09T13:17:10Z</time>
      </trkpt>
      <trkpt lat="46.51323" lon="5.82939">
        <ele>926</ele>
        <time>2021-08-09T13:17:12Z</time>
      </trkpt>
      <trkpt lat="46.51326" lon="5.82907">
        <ele>926.6</ele>
        <time>2021-08-09T13:17:16Z</time>
      </trkpt>
      <trkpt lat="46.51329" lon="5.82883">
        <ele>927</ele>
        <time>2021-08-09T13:17:19Z</time>
      </trkpt>
      <trkpt lat="46.51328" lon="5.82866">
        <ele>927.2</ele>
        <time>2021-08-09T13:17:21Z</time>
      </trkpt>
      <trkpt lat="46.51325" lon="5.82844">
        <ele>927.8</ele>
        <time>2021-08-09T13:17:24Z</time>
      </trkpt>
      <trkpt lat="46.5131" lon="5.82794">
        <ele>928.6</ele>
        <time>2021-08-09T13:17:30Z</time>
      </trkpt>
      <trkpt lat="46.51294" lon="5.82765">
        <ele>928.6</ele>
        <time>2021-08-09T13:17:34Z</time>
      </trkpt>
      <trkpt lat="46.51286" lon="5.8275">
        <ele>928.8</ele>
        <time>2021-08-09T13:17:36Z</time>
      </trkpt>
      <trkpt lat="46.51264" lon="5.82714">
        <ele>928.8</ele>
        <time>2021-08-09T13:17:41Z</time>
      </trkpt>
      <trkpt lat="46.5126" lon="5.82705">
        <ele>928.8</ele>
        <time>2021-08-09T13:17:42Z</time>
      </trkpt>
      <trkpt lat="46.51232" lon="5.82649">
        <ele>929.4</ele>
        <time>2021-08-09T13:17:49Z</time>
      </trkpt>
      <trkpt lat="46.51217" lon="5.8263">
        <ele>929.4</ele>
        <time>2021-08-09T13:17:52Z</time>
      </trkpt>
      <trkpt lat="46.51207" lon="5.82619">
        <ele>929.6</ele>
        <time>2021-08-09T13:17:54Z</time>
      </trkpt>
      <trkpt lat="46.51196" lon="5.82611">
        <ele>929.8</ele>
        <time>2021-08-09T13:17:56Z</time>
      </trkpt>
      <trkpt lat="46.51173" lon="5.82599">
        <ele>930.4</ele>
        <time>2021-08-09T13:18:00Z</time>
      </trkpt>
      <trkpt lat="46.51143" lon="5.82592">
        <ele>930.8</ele>
        <time>2021-08-09T13:18:05Z</time>
      </trkpt>
      <trkpt lat="46.5113" lon="5.82591">
        <ele>931.2</ele>
        <time>2021-08-09T13:18:07Z</time>
      </trkpt>
      <trkpt lat="46.51117" lon="5.82589">
        <ele>931.2</ele>
        <time>2021-08-09T13:18:09Z</time>
      </trkpt>
      <trkpt lat="46.51105" lon="5.82585">
        <ele>931.2</ele>
        <time>2021-08-09T13:18:11Z</time>
      </trkpt>
      <trkpt lat="46.51099" lon="5.82582">
        <ele>931.4</ele>
        <time>2021-08-09T13:18:12Z</time>
      </trkpt>
      <trkpt lat="46.51093" lon="5.82578">
        <ele>931.4</ele>
        <time>2021-08-09T13:18:13Z</time>
      </trkpt>
      <trkpt lat="46.51082" lon="5.82567">
        <ele>931.4</ele>
        <time>2021-08-09T13:18:15Z</time>
      </trkpt>
      <trkpt lat="46.51078" lon="5.8256">
        <ele>931.4</ele>
        <time>2021-08-09T13:18:16Z</time>
      </trkpt>
      <trkpt lat="46.51074" lon="5.82552">
        <ele>931.6</ele>
        <time>2021-08-09T13:18:17Z</time>
      </trkpt>
      <trkpt lat="46.51067" lon="5.82533">
        <ele>931.6</ele>
        <time>2021-08-09T13:18:19Z</time>
      </trkpt>
      <trkpt lat="46.51049" lon="5.82471">
        <ele>931.6</ele>
        <time>2021-08-09T13:18:25Z</time>
      </trkpt>
      <trkpt lat="46.51021" lon="5.82418">
        <ele>930.8</ele>
        <time>2021-08-09T13:18:31Z</time>
      </trkpt>
      <trkpt lat="46.51017" lon="5.82408">
        <ele>930.6</ele>
        <time>2021-08-09T13:18:32Z</time>
      </trkpt>
      <trkpt lat="46.51013" lon="5.82385">
        <ele>930.6</ele>
        <time>2021-08-09T13:18:34Z</time>
      </trkpt>
      <trkpt lat="46.51013" lon="5.82351">
        <ele>930</ele>
        <time>2021-08-09T13:18:37Z</time>
      </trkpt>
      <trkpt lat="46.51016" lon="5.8234">
        <ele>929.8</ele>
        <time>2021-08-09T13:18:38Z</time>
      </trkpt>
      <trkpt lat="46.51019" lon="5.8233">
        <ele>929.8</ele>
        <time>2021-08-09T13:18:39Z</time>
      </trkpt>
      <trkpt lat="46.51031" lon="5.82301">
        <ele>929.6</ele>
        <time>2021-08-09T13:18:42Z</time>
      </trkpt>
      <trkpt lat="46.51048" lon="5.82275">
        <ele>929.6</ele>
        <time>2021-08-09T13:18:45Z</time>
      </trkpt>
      <trkpt lat="46.51054" lon="5.82269">
        <ele>929.6</ele>
        <time>2021-08-09T13:18:46Z</time>
      </trkpt>
      <trkpt lat="46.51082" lon="5.82248">
        <ele>929.4</ele>
        <time>2021-08-09T13:18:50Z</time>
      </trkpt>
      <trkpt lat="46.51098" lon="5.82235">
        <ele>929.2</ele>
        <time>2021-08-09T13:18:52Z</time>
      </trkpt>
      <trkpt lat="46.51118" lon="5.82211">
        <ele>928.8</ele>
        <time>2021-08-09T13:18:55Z</time>
      </trkpt>
      <trkpt lat="46.51124" lon="5.82203">
        <ele>928.8</ele>
        <time>2021-08-09T13:18:56Z</time>
      </trkpt>
      <trkpt lat="46.51144" lon="5.82183">
        <ele>928.8</ele>
        <time>2021-08-09T13:18:59Z</time>
      </trkpt>
      <trkpt lat="46.51158" lon="5.8217">
        <ele>928.8</ele>
        <time>2021-08-09T13:19:01Z</time>
      </trkpt>
      <trkpt lat="46.5117" lon="5.82154">
        <ele>928.8</ele>
        <time>2021-08-09T13:19:03Z</time>
      </trkpt>
      <trkpt lat="46.51179" lon="5.82134">
        <ele>928.6</ele>
        <time>2021-08-09T13:19:05Z</time>
      </trkpt>
      <trkpt lat="46.51195" lon="5.82079">
        <ele>928.6</ele>
        <time>2021-08-09T13:19:10Z</time>
      </trkpt>
      <trkpt lat="46.512" lon="5.82069">
        <ele>928.4</ele>
        <time>2021-08-09T13:19:11Z</time>
      </trkpt>
      <trkpt lat="46.51211" lon="5.82051">
        <ele>928.4</ele>
        <time>2021-08-09T13:19:13Z</time>
      </trkpt>
      <trkpt lat="46.51239" lon="5.82028">
        <ele>928.6</ele>
        <time>2021-08-09T13:19:17Z</time>
      </trkpt>
      <trkpt lat="46.51252" lon="5.82018">
        <ele>928.8</ele>
        <time>2021-08-09T13:19:19Z</time>
      </trkpt>
      <trkpt lat="46.51263" lon="5.82006">
        <ele>928.8</ele>
        <time>2021-08-09T13:19:21Z</time>
      </trkpt>
      <trkpt lat="46.51279" lon="5.81984">
        <ele>929.2</ele>
        <time>2021-08-09T13:19:24Z</time>
      </trkpt>
      <trkpt lat="46.51289" lon="5.81969">
        <ele>929.2</ele>
        <time>2021-08-09T13:19:26Z</time>
      </trkpt>
      <trkpt lat="46.51306" lon="5.81943">
        <ele>929.4</ele>
        <time>2021-08-09T13:19:29Z</time>
      </trkpt>
      <trkpt lat="46.51313" lon="5.81935">
        <ele>929.4</ele>
        <time>2021-08-09T13:19:30Z</time>
      </trkpt>
      <trkpt lat="46.5132" lon="5.81927">
        <ele>929.2</ele>
        <time>2021-08-09T13:19:31Z</time>
      </trkpt>
      <trkpt lat="46.51336" lon="5.81916">
        <ele>928.8</ele>
        <time>2021-08-09T13:19:33Z</time>
      </trkpt>
      <trkpt lat="46.51345" lon="5.81913">
        <ele>928.6</ele>
        <time>2021-08-09T13:19:34Z</time>
      </trkpt>
      <trkpt lat="46.51354" lon="5.8191">
        <ele>928.4</ele>
        <time>2021-08-09T13:19:35Z</time>
      </trkpt>
      <trkpt lat="46.51363" lon="5.81909">
        <ele>927</ele>
        <time>2021-08-09T13:19:36Z</time>
      </trkpt>
      <trkpt lat="46.51372" lon="5.81908">
        <ele>926.6</ele>
        <time>2021-08-09T13:19:37Z</time>
      </trkpt>
      <trkpt lat="46.51382" lon="5.8191">
        <ele>925.8</ele>
        <time>2021-08-09T13:19:38Z</time>
      </trkpt>
      <trkpt lat="46.51408" lon="5.81917">
        <ele>924.2</ele>
        <time>2021-08-09T13:19:41Z</time>
      </trkpt>
      <trkpt lat="46.51445" lon="5.8193">
        <ele>923</ele>
        <time>2021-08-09T13:19:45Z</time>
      </trkpt>
      <trkpt lat="46.51454" lon="5.81933">
        <ele>922.6</ele>
        <time>2021-08-09T13:19:46Z</time>
      </trkpt>
      <trkpt lat="46.51472" lon="5.81939">
        <ele>921.8</ele>
        <time>2021-08-09T13:19:48Z</time>
      </trkpt>
      <trkpt lat="46.51489" lon="5.8195">
        <ele>920.8</ele>
        <time>2021-08-09T13:19:50Z</time>
      </trkpt>
      <trkpt lat="46.51497" lon="5.81958">
        <ele>920.6</ele>
        <time>2021-08-09T13:19:51Z</time>
      </trkpt>
      <trkpt lat="46.51504" lon="5.81969">
        <ele>919.8</ele>
        <time>2021-08-09T13:19:52Z</time>
      </trkpt>
      <trkpt lat="46.51513" lon="5.81994">
        <ele>919</ele>
        <time>2021-08-09T13:19:54Z</time>
      </trkpt>
      <trkpt lat="46.51521" lon="5.82038">
        <ele>918</ele>
        <time>2021-08-09T13:19:57Z</time>
      </trkpt>
      <trkpt lat="46.51526" lon="5.82068">
        <ele>917.4</ele>
        <time>2021-08-09T13:19:59Z</time>
      </trkpt>
      <trkpt lat="46.51531" lon="5.82082">
        <ele>917.2</ele>
        <time>2021-08-09T13:20:00Z</time>
      </trkpt>
      <trkpt lat="46.51538" lon="5.82095">
        <ele>916.2</ele>
        <time>2021-08-09T13:20:01Z</time>
      </trkpt>
      <trkpt lat="46.51546" lon="5.82103">
        <ele>915.8</ele>
        <time>2021-08-09T13:20:02Z</time>
      </trkpt>
      <trkpt lat="46.51556" lon="5.82109">
        <ele>915</ele>
        <time>2021-08-09T13:20:03Z</time>
      </trkpt>
      <trkpt lat="46.51566" lon="5.82112">
        <ele>913.4</ele>
        <time>2021-08-09T13:20:04Z</time>
      </trkpt>
      <trkpt lat="46.51577" lon="5.82113">
        <ele>912.8</ele>
        <time>2021-08-09T13:20:05Z</time>
      </trkpt>
      <trkpt lat="46.51588" lon="5.82113">
        <ele>912</ele>
        <time>2021-08-09T13:20:06Z</time>
      </trkpt>
      <trkpt lat="46.51634" lon="5.82113">
        <ele>910.6</ele>
        <time>2021-08-09T13:20:10Z</time>
      </trkpt>
      <trkpt lat="46.51644" lon="5.82112">
        <ele>910</ele>
        <time>2021-08-09T13:20:11Z</time>
      </trkpt>
      <trkpt lat="46.51654" lon="5.82109">
        <ele>909.8</ele>
        <time>2021-08-09T13:20:12Z</time>
      </trkpt>
      <trkpt lat="46.51664" lon="5.82103">
        <ele>909</ele>
        <time>2021-08-09T13:20:13Z</time>
      </trkpt>
      <trkpt lat="46.51674" lon="5.82096">
        <ele>908.8</ele>
        <time>2021-08-09T13:20:14Z</time>
      </trkpt>
      <trkpt lat="46.51693" lon="5.82078">
        <ele>908</ele>
        <time>2021-08-09T13:20:16Z</time>
      </trkpt>
      <trkpt lat="46.51711" lon="5.82056">
        <ele>907</ele>
        <time>2021-08-09T13:20:18Z</time>
      </trkpt>
      <trkpt lat="46.5172" lon="5.82046">
        <ele>906.8</ele>
        <time>2021-08-09T13:20:19Z</time>
      </trkpt>
      <trkpt lat="46.51743" lon="5.82034">
        <ele>906.2</ele>
        <time>2021-08-09T13:20:21Z</time>
      </trkpt>
      <trkpt lat="46.51755" lon="5.82033">
        <ele>905.8</ele>
        <time>2021-08-09T13:20:22Z</time>
      </trkpt>
      <trkpt lat="46.51766" lon="5.82036">
        <ele>905.4</ele>
        <time>2021-08-09T13:20:23Z</time>
      </trkpt>
      <trkpt lat="46.51777" lon="5.82042">
        <ele>904.4</ele>
        <time>2021-08-09T13:20:24Z</time>
      </trkpt>
      <trkpt lat="46.518" lon="5.82049">
        <ele>902.6</ele>
        <time>2021-08-09T13:20:26Z</time>
      </trkpt>
      <trkpt lat="46.51811" lon="5.82051">
        <ele>902</ele>
        <time>2021-08-09T13:20:27Z</time>
      </trkpt>
      <trkpt lat="46.51834" lon="5.82048">
        <ele>901.4</ele>
        <time>2021-08-09T13:20:29Z</time>
      </trkpt>
      <trkpt lat="46.51858" lon="5.82043">
        <ele>900.2</ele>
        <time>2021-08-09T13:20:31Z</time>
      </trkpt>
      <trkpt lat="46.51871" lon="5.82041">
        <ele>899.8</ele>
        <time>2021-08-09T13:20:32Z</time>
      </trkpt>
      <trkpt lat="46.51883" lon="5.8204">
        <ele>899</ele>
        <time>2021-08-09T13:20:33Z</time>
      </trkpt>
      <trkpt lat="46.51895" lon="5.8204">
        <ele>897.8</ele>
        <time>2021-08-09T13:20:34Z</time>
      </trkpt>
      <trkpt lat="46.51921" lon="5.82046">
        <ele>897</ele>
        <time>2021-08-09T13:20:36Z</time>
      </trkpt>
      <trkpt lat="46.51932" lon="5.82049">
        <ele>896.6</ele>
        <time>2021-08-09T13:20:37Z</time>
      </trkpt>
      <trkpt lat="46.51968" lon="5.82057">
        <ele>895.2</ele>
        <time>2021-08-09T13:20:40Z</time>
      </trkpt>
      <trkpt lat="46.51989" lon="5.82062">
        <ele>894</ele>
        <time>2021-08-09T13:20:42Z</time>
      </trkpt>
      <trkpt lat="46.52001" lon="5.82065">
        <ele>893</ele>
        <time>2021-08-09T13:20:43Z</time>
      </trkpt>
      <trkpt lat="46.52013" lon="5.82068">
        <ele>892.4</ele>
        <time>2021-08-09T13:20:44Z</time>
      </trkpt>
      <trkpt lat="46.52028" lon="5.82067">
        <ele>891.4</ele>
        <time>2021-08-09T13:20:45Z</time>
      </trkpt>
      <trkpt lat="46.52038" lon="5.82064">
        <ele>891</ele>
        <time>2021-08-09T13:20:46Z</time>
      </trkpt>
      <trkpt lat="46.52049" lon="5.82059">
        <ele>890.2</ele>
        <time>2021-08-09T13:20:47Z</time>
      </trkpt>
      <trkpt lat="46.52062" lon="5.82051">
        <ele>889.4</ele>
        <time>2021-08-09T13:20:48Z</time>
      </trkpt>
      <trkpt lat="46.52073" lon="5.82044">
        <ele>888.6</ele>
        <time>2021-08-09T13:20:49Z</time>
      </trkpt>
      <trkpt lat="46.52084" lon="5.82036">
        <ele>887.4</ele>
        <time>2021-08-09T13:20:50Z</time>
      </trkpt>
      <trkpt lat="46.52103" lon="5.82025">
        <ele>885.8</ele>
        <time>2021-08-09T13:20:52Z</time>
      </trkpt>
      <trkpt lat="46.52117" lon="5.82021">
        <ele>885.4</ele>
        <time>2021-08-09T13:20:53Z</time>
      </trkpt>
      <trkpt lat="46.52127" lon="5.82019">
        <ele>885</ele>
        <time>2021-08-09T13:20:54Z</time>
      </trkpt>
      <trkpt lat="46.52138" lon="5.82017">
        <ele>884.4</ele>
        <time>2021-08-09T13:20:55Z</time>
      </trkpt>
      <trkpt lat="46.52176" lon="5.8201">
        <ele>883</ele>
        <time>2021-08-09T13:20:58Z</time>
      </trkpt>
      <trkpt lat="46.52187" lon="5.82005">
        <ele>882.2</ele>
        <time>2021-08-09T13:20:59Z</time>
      </trkpt>
      <trkpt lat="46.52205" lon="5.81993">
        <ele>881.6</ele>
        <time>2021-08-09T13:21:01Z</time>
      </trkpt>
      <trkpt lat="46.52218" lon="5.81987">
        <ele>881.4</ele>
        <time>2021-08-09T13:21:02Z</time>
      </trkpt>
      <trkpt lat="46.52227" lon="5.81986">
        <ele>880.8</ele>
        <time>2021-08-09T13:21:03Z</time>
      </trkpt>
      <trkpt lat="46.52238" lon="5.81988">
        <ele>880</ele>
        <time>2021-08-09T13:21:04Z</time>
      </trkpt>
      <trkpt lat="46.52249" lon="5.81994">
        <ele>879.6</ele>
        <time>2021-08-09T13:21:05Z</time>
      </trkpt>
      <trkpt lat="46.52259" lon="5.82004">
        <ele>879</ele>
        <time>2021-08-09T13:21:06Z</time>
      </trkpt>
      <trkpt lat="46.52277" lon="5.82031">
        <ele>878</ele>
        <time>2021-08-09T13:21:08Z</time>
      </trkpt>
      <trkpt lat="46.52285" lon="5.82042">
        <ele>877.6</ele>
        <time>2021-08-09T13:21:09Z</time>
      </trkpt>
      <trkpt lat="46.52303" lon="5.82055">
        <ele>876.2</ele>
        <time>2021-08-09T13:21:11Z</time>
      </trkpt>
      <trkpt lat="46.52323" lon="5.82046">
        <ele>874.4</ele>
        <time>2021-08-09T13:21:13Z</time>
      </trkpt>
      <trkpt lat="46.52331" lon="5.82026">
        <ele>873.4</ele>
        <time>2021-08-09T13:21:15Z</time>
      </trkpt>
      <trkpt lat="46.52327" lon="5.82001">
        <ele>872.4</ele>
        <time>2021-08-09T13:21:17Z</time>
      </trkpt>
      <trkpt lat="46.52312" lon="5.81984">
        <ele>871.8</ele>
        <time>2021-08-09T13:21:19Z</time>
      </trkpt>
      <trkpt lat="46.52295" lon="5.81979">
        <ele>871.2</ele>
        <time>2021-08-09T13:21:21Z</time>
      </trkpt>
      <trkpt lat="46.52276" lon="5.81975">
        <ele>870.8</ele>
        <time>2021-08-09T13:21:23Z</time>
      </trkpt>
      <trkpt lat="46.52268" lon="5.81968">
        <ele>870.8</ele>
        <time>2021-08-09T13:21:24Z</time>
      </trkpt>
      <trkpt lat="46.52261" lon="5.81958">
        <ele>870.6</ele>
        <time>2021-08-09T13:21:25Z</time>
      </trkpt>
      <trkpt lat="46.52249" lon="5.81938">
        <ele>870.2</ele>
        <time>2021-08-09T13:21:27Z</time>
      </trkpt>
      <trkpt lat="46.5224" lon="5.81926">
        <ele>870</ele>
        <time>2021-08-09T13:21:28Z</time>
      </trkpt>
      <trkpt lat="46.52226" lon="5.81909">
        <ele>869.8</ele>
        <time>2021-08-09T13:21:30Z</time>
      </trkpt>
      <trkpt lat="46.52199" lon="5.81891">
        <ele>869.2</ele>
        <time>2021-08-09T13:21:33Z</time>
      </trkpt>
      <trkpt lat="46.5219" lon="5.81888">
        <ele>868.6</ele>
        <time>2021-08-09T13:21:34Z</time>
      </trkpt>
      <trkpt lat="46.52179" lon="5.81887">
        <ele>868.4</ele>
        <time>2021-08-09T13:21:35Z</time>
      </trkpt>
      <trkpt lat="46.52159" lon="5.81887">
        <ele>868</ele>
        <time>2021-08-09T13:21:37Z</time>
      </trkpt>
      <trkpt lat="46.52148" lon="5.81887">
        <ele>867.6</ele>
        <time>2021-08-09T13:21:38Z</time>
      </trkpt>
      <trkpt lat="46.52138" lon="5.81884">
        <ele>867.2</ele>
        <time>2021-08-09T13:21:39Z</time>
      </trkpt>
      <trkpt lat="46.52128" lon="5.81881">
        <ele>866.6</ele>
        <time>2021-08-09T13:21:40Z</time>
      </trkpt>
      <trkpt lat="46.52117" lon="5.81878">
        <ele>865.6</ele>
        <time>2021-08-09T13:21:41Z</time>
      </trkpt>
      <trkpt lat="46.52095" lon="5.81876">
        <ele>864.4</ele>
        <time>2021-08-09T13:21:43Z</time>
      </trkpt>
      <trkpt lat="46.52075" lon="5.81861">
        <ele>863.8</ele>
        <time>2021-08-09T13:21:45Z</time>
      </trkpt>
      <trkpt lat="46.5206" lon="5.81832">
        <ele>862.4</ele>
        <time>2021-08-09T13:21:47Z</time>
      </trkpt>
      <trkpt lat="46.5205" lon="5.81805">
        <ele>861.2</ele>
        <time>2021-08-09T13:21:49Z</time>
      </trkpt>
      <trkpt lat="46.52028" lon="5.81757">
        <ele>859.4</ele>
        <time>2021-08-09T13:21:52Z</time>
      </trkpt>
      <trkpt lat="46.52022" lon="5.81745">
        <ele>859</ele>
        <time>2021-08-09T13:21:53Z</time>
      </trkpt>
      <trkpt lat="46.52015" lon="5.81729">
        <ele>858</ele>
        <time>2021-08-09T13:21:54Z</time>
      </trkpt>
      <trkpt lat="46.52" lon="5.81698">
        <ele>856.4</ele>
        <time>2021-08-09T13:21:56Z</time>
      </trkpt>
      <trkpt lat="46.51992" lon="5.81683">
        <ele>855</ele>
        <time>2021-08-09T13:21:57Z</time>
      </trkpt>
      <trkpt lat="46.51983" lon="5.81668">
        <ele>853.8</ele>
        <time>2021-08-09T13:21:58Z</time>
      </trkpt>
      <trkpt lat="46.51974" lon="5.81654">
        <ele>852.6</ele>
        <time>2021-08-09T13:21:59Z</time>
      </trkpt>
      <trkpt lat="46.51954" lon="5.81629">
        <ele>850.6</ele>
        <time>2021-08-09T13:22:01Z</time>
      </trkpt>
      <trkpt lat="46.51932" lon="5.81606">
        <ele>849.2</ele>
        <time>2021-08-09T13:22:03Z</time>
      </trkpt>
      <trkpt lat="46.51918" lon="5.81593">
        <ele>847.8</ele>
        <time>2021-08-09T13:22:04Z</time>
      </trkpt>
      <trkpt lat="46.51906" lon="5.81582">
        <ele>847.4</ele>
        <time>2021-08-09T13:22:05Z</time>
      </trkpt>
      <trkpt lat="46.51895" lon="5.81569">
        <ele>846.2</ele>
        <time>2021-08-09T13:22:06Z</time>
      </trkpt>
      <trkpt lat="46.51888" lon="5.81557">
        <ele>845</ele>
        <time>2021-08-09T13:22:07Z</time>
      </trkpt>
      <trkpt lat="46.5188" lon="5.8154">
        <ele>843.4</ele>
        <time>2021-08-09T13:22:08Z</time>
      </trkpt>
      <trkpt lat="46.51864" lon="5.81501">
        <ele>842.2</ele>
        <time>2021-08-09T13:22:10Z</time>
      </trkpt>
      <trkpt lat="46.51857" lon="5.81486">
        <ele>841</ele>
        <time>2021-08-09T13:22:11Z</time>
      </trkpt>
      <trkpt lat="46.51839" lon="5.81462">
        <ele>839</ele>
        <time>2021-08-09T13:22:13Z</time>
      </trkpt>
      <trkpt lat="46.51818" lon="5.81443">
        <ele>837</ele>
        <time>2021-08-09T13:22:15Z</time>
      </trkpt>
      <trkpt lat="46.51797" lon="5.81424">
        <ele>835.4</ele>
        <time>2021-08-09T13:22:17Z</time>
      </trkpt>
      <trkpt lat="46.51786" lon="5.81415">
        <ele>834</ele>
        <time>2021-08-09T13:22:18Z</time>
      </trkpt>
      <trkpt lat="46.51764" lon="5.81399">
        <ele>831.8</ele>
        <time>2021-08-09T13:22:20Z</time>
      </trkpt>
      <trkpt lat="46.51744" lon="5.81384">
        <ele>830</ele>
        <time>2021-08-09T13:22:22Z</time>
      </trkpt>
      <trkpt lat="46.51723" lon="5.81367">
        <ele>828.2</ele>
        <time>2021-08-09T13:22:24Z</time>
      </trkpt>
      <trkpt lat="46.51712" lon="5.8136">
        <ele>827.6</ele>
        <time>2021-08-09T13:22:25Z</time>
      </trkpt>
      <trkpt lat="46.517" lon="5.81353">
        <ele>827.2</ele>
        <time>2021-08-09T13:22:26Z</time>
      </trkpt>
      <trkpt lat="46.51668" lon="5.8133">
        <ele>826.2</ele>
        <time>2021-08-09T13:22:29Z</time>
      </trkpt>
      <trkpt lat="46.51658" lon="5.81319">
        <ele>826</ele>
        <time>2021-08-09T13:22:30Z</time>
      </trkpt>
      <trkpt lat="46.5164" lon="5.81295">
        <ele>825</ele>
        <time>2021-08-09T13:22:32Z</time>
      </trkpt>
      <trkpt lat="46.5163" lon="5.8128">
        <ele>824</ele>
        <time>2021-08-09T13:22:33Z</time>
      </trkpt>
      <trkpt lat="46.5162" lon="5.81268">
        <ele>823.2</ele>
        <time>2021-08-09T13:22:34Z</time>
      </trkpt>
      <trkpt lat="46.51601" lon="5.81245">
        <ele>822</ele>
        <time>2021-08-09T13:22:36Z</time>
      </trkpt>
      <trkpt lat="46.5157" lon="5.81212">
        <ele>820.8</ele>
        <time>2021-08-09T13:22:39Z</time>
      </trkpt>
      <trkpt lat="46.51551" lon="5.81194">
        <ele>818.4</ele>
        <time>2021-08-09T13:22:41Z</time>
      </trkpt>
      <trkpt lat="46.51538" lon="5.81182">
        <ele>817.8</ele>
        <time>2021-08-09T13:22:42Z</time>
      </trkpt>
      <trkpt lat="46.51527" lon="5.8117">
        <ele>816.8</ele>
        <time>2021-08-09T13:22:43Z</time>
      </trkpt>
      <trkpt lat="46.51517" lon="5.81157">
        <ele>816.2</ele>
        <time>2021-08-09T13:22:44Z</time>
      </trkpt>
      <trkpt lat="46.51509" lon="5.81145">
        <ele>814.6</ele>
        <time>2021-08-09T13:22:45Z</time>
      </trkpt>
      <trkpt lat="46.51501" lon="5.8113">
        <ele>814</ele>
        <time>2021-08-09T13:22:46Z</time>
      </trkpt>
      <trkpt lat="46.51493" lon="5.81113">
        <ele>813</ele>
        <time>2021-08-09T13:22:47Z</time>
      </trkpt>
      <trkpt lat="46.51483" lon="5.81093">
        <ele>812.2</ele>
        <time>2021-08-09T13:22:48Z</time>
      </trkpt>
      <trkpt lat="46.51476" lon="5.81081">
        <ele>811.2</ele>
        <time>2021-08-09T13:22:49Z</time>
      </trkpt>
      <trkpt lat="46.51467" lon="5.81066">
        <ele>809.2</ele>
        <time>2021-08-09T13:22:50Z</time>
      </trkpt>
      <trkpt lat="46.51453" lon="5.8105">
        <ele>808.6</ele>
        <time>2021-08-09T13:22:51Z</time>
      </trkpt>
      <trkpt lat="46.51444" lon="5.8104">
        <ele>807.2</ele>
        <time>2021-08-09T13:22:52Z</time>
      </trkpt>
      <trkpt lat="46.51422" lon="5.81013">
        <ele>806</ele>
        <time>2021-08-09T13:22:54Z</time>
      </trkpt>
      <trkpt lat="46.5141" lon="5.81">
        <ele>804.8</ele>
        <time>2021-08-09T13:22:55Z</time>
      </trkpt>
      <trkpt lat="46.51399" lon="5.80987">
        <ele>804.2</ele>
        <time>2021-08-09T13:22:56Z</time>
      </trkpt>
      <trkpt lat="46.51388" lon="5.80972">
        <ele>803</ele>
        <time>2021-08-09T13:22:57Z</time>
      </trkpt>
      <trkpt lat="46.51378" lon="5.80956">
        <ele>802.2</ele>
        <time>2021-08-09T13:22:58Z</time>
      </trkpt>
      <trkpt lat="46.5137" lon="5.80938">
        <ele>800.2</ele>
        <time>2021-08-09T13:22:59Z</time>
      </trkpt>
      <trkpt lat="46.51364" lon="5.80918">
        <ele>799.2</ele>
        <time>2021-08-09T13:23:00Z</time>
      </trkpt>
      <trkpt lat="46.5136" lon="5.80898">
        <ele>798.2</ele>
        <time>2021-08-09T13:23:01Z</time>
      </trkpt>
      <trkpt lat="46.51362" lon="5.80877">
        <ele>796.8</ele>
        <time>2021-08-09T13:23:02Z</time>
      </trkpt>
      <trkpt lat="46.51366" lon="5.80856">
        <ele>796</ele>
        <time>2021-08-09T13:23:03Z</time>
      </trkpt>
      <trkpt lat="46.51371" lon="5.80835">
        <ele>794.6</ele>
        <time>2021-08-09T13:23:04Z</time>
      </trkpt>
      <trkpt lat="46.51376" lon="5.80814">
        <ele>793.4</ele>
        <time>2021-08-09T13:23:05Z</time>
      </trkpt>
      <trkpt lat="46.51381" lon="5.80794">
        <ele>792</ele>
        <time>2021-08-09T13:23:06Z</time>
      </trkpt>
      <trkpt lat="46.51391" lon="5.80756">
        <ele>790.4</ele>
        <time>2021-08-09T13:23:08Z</time>
      </trkpt>
      <trkpt lat="46.514" lon="5.80719">
        <ele>789</ele>
        <time>2021-08-09T13:23:10Z</time>
      </trkpt>
      <trkpt lat="46.5141" lon="5.80679">
        <ele>787.6</ele>
        <time>2021-08-09T13:23:12Z</time>
      </trkpt>
      <trkpt lat="46.51418" lon="5.80647">
        <ele>786.6</ele>
        <time>2021-08-09T13:23:14Z</time>
      </trkpt>
      <trkpt lat="46.51426" lon="5.80611">
        <ele>785.4</ele>
        <time>2021-08-09T13:23:16Z</time>
      </trkpt>
      <trkpt lat="46.51434" lon="5.80579">
        <ele>783.6</ele>
        <time>2021-08-09T13:23:18Z</time>
      </trkpt>
      <trkpt lat="46.51446" lon="5.80533">
        <ele>782.8</ele>
        <time>2021-08-09T13:23:21Z</time>
      </trkpt>
      <trkpt lat="46.51447" lon="5.80519">
        <ele>782.4</ele>
        <time>2021-08-09T13:23:22Z</time>
      </trkpt>
      <trkpt lat="46.51446" lon="5.80504">
        <ele>782.2</ele>
        <time>2021-08-09T13:23:23Z</time>
      </trkpt>
      <trkpt lat="46.51442" lon="5.80491">
        <ele>781.6</ele>
        <time>2021-08-09T13:23:24Z</time>
      </trkpt>
      <trkpt lat="46.51437" lon="5.80479">
        <ele>781.2</ele>
        <time>2021-08-09T13:23:25Z</time>
      </trkpt>
      <trkpt lat="46.51431" lon="5.80468">
        <ele>781</ele>
        <time>2021-08-09T13:23:26Z</time>
      </trkpt>
      <trkpt lat="46.51426" lon="5.80457">
        <ele>780.4</ele>
        <time>2021-08-09T13:23:27Z</time>
      </trkpt>
      <trkpt lat="46.51422" lon="5.80445">
        <ele>780</ele>
        <time>2021-08-09T13:23:28Z</time>
      </trkpt>
      <trkpt lat="46.51419" lon="5.80433">
        <ele>779.6</ele>
        <time>2021-08-09T13:23:29Z</time>
      </trkpt>
      <trkpt lat="46.51404" lon="5.80368">
        <ele>779.8</ele>
        <time>2021-08-09T13:23:35Z</time>
      </trkpt>
      <trkpt lat="46.51399" lon="5.80349">
        <ele>780.8</ele>
        <time>2021-08-09T13:23:37Z</time>
      </trkpt>
      <trkpt lat="46.51397" lon="5.8034">
        <ele>781.2</ele>
        <time>2021-08-09T13:23:38Z</time>
      </trkpt>
      <trkpt lat="46.5139" lon="5.80322">
        <ele>782</ele>
        <time>2021-08-09T13:23:40Z</time>
      </trkpt>
      <trkpt lat="46.51387" lon="5.80314">
        <ele>782.6</ele>
        <time>2021-08-09T13:23:41Z</time>
      </trkpt>
      <trkpt lat="46.51372" lon="5.80292">
        <ele>783</ele>
        <time>2021-08-09T13:23:44Z</time>
      </trkpt>
      <trkpt lat="46.5134" lon="5.80261">
        <ele>783</ele>
        <time>2021-08-09T13:23:49Z</time>
      </trkpt>
      <trkpt lat="46.51308" lon="5.80237">
        <ele>781.2</ele>
        <time>2021-08-09T13:23:53Z</time>
      </trkpt>
      <trkpt lat="46.51291" lon="5.80226">
        <ele>780.4</ele>
        <time>2021-08-09T13:23:55Z</time>
      </trkpt>
      <trkpt lat="46.51282" lon="5.8022">
        <ele>780</ele>
        <time>2021-08-09T13:23:56Z</time>
      </trkpt>
      <trkpt lat="46.51257" lon="5.80201">
        <ele>778.8</ele>
        <time>2021-08-09T13:23:59Z</time>
      </trkpt>
      <trkpt lat="46.51249" lon="5.80193">
        <ele>778.4</ele>
        <time>2021-08-09T13:24:00Z</time>
      </trkpt>
      <trkpt lat="46.51243" lon="5.80182">
        <ele>778</ele>
        <time>2021-08-09T13:24:01Z</time>
      </trkpt>
      <trkpt lat="46.51238" lon="5.8017">
        <ele>777.6</ele>
        <time>2021-08-09T13:24:02Z</time>
      </trkpt>
      <trkpt lat="46.51234" lon="5.80158">
        <ele>777.4</ele>
        <time>2021-08-09T13:24:03Z</time>
      </trkpt>
      <trkpt lat="46.5123" lon="5.80132">
        <ele>776</ele>
        <time>2021-08-09T13:24:05Z</time>
      </trkpt>
      <trkpt lat="46.51226" lon="5.80108">
        <ele>775</ele>
        <time>2021-08-09T13:24:07Z</time>
      </trkpt>
      <trkpt lat="46.51223" lon="5.80083">
        <ele>774.4</ele>
        <time>2021-08-09T13:24:09Z</time>
      </trkpt>
      <trkpt lat="46.51213" lon="5.80045">
        <ele>774</ele>
        <time>2021-08-09T13:24:12Z</time>
      </trkpt>
      <trkpt lat="46.51209" lon="5.80034">
        <ele>774</ele>
        <time>2021-08-09T13:24:13Z</time>
      </trkpt>
      <trkpt lat="46.51189" lon="5.79984">
        <ele>774.2</ele>
        <time>2021-08-09T13:24:18Z</time>
      </trkpt>
      <trkpt lat="46.51165" lon="5.79931">
        <ele>774.6</ele>
        <time>2021-08-09T13:24:24Z</time>
      </trkpt>
      <trkpt lat="46.51147" lon="5.79896">
        <ele>775.2</ele>
        <time>2021-08-09T13:24:29Z</time>
      </trkpt>
      <trkpt lat="46.51145" lon="5.79889">
        <ele>775.2</ele>
        <time>2021-08-09T13:24:30Z</time>
      </trkpt>
      <trkpt lat="46.51139" lon="5.7987">
        <ele>776.2</ele>
        <time>2021-08-09T13:24:33Z</time>
      </trkpt>
      <trkpt lat="46.51134" lon="5.79851">
        <ele>777.6</ele>
        <time>2021-08-09T13:24:36Z</time>
      </trkpt>
      <trkpt lat="46.51133" lon="5.79845">
        <ele>777.8</ele>
        <time>2021-08-09T13:24:37Z</time>
      </trkpt>
      <trkpt lat="46.51129" lon="5.79832">
        <ele>778.6</ele>
        <time>2021-08-09T13:24:39Z</time>
      </trkpt>
      <trkpt lat="46.51121" lon="5.79809">
        <ele>779.6</ele>
        <time>2021-08-09T13:24:43Z</time>
      </trkpt>
      <trkpt lat="46.51113" lon="5.79793">
        <ele>780.4</ele>
        <time>2021-08-09T13:24:46Z</time>
      </trkpt>
      <trkpt lat="46.51108" lon="5.79783">
        <ele>781</ele>
        <time>2021-08-09T13:24:48Z</time>
      </trkpt>
      <trkpt lat="46.51096" lon="5.79763">
        <ele>781.8</ele>
        <time>2021-08-09T13:24:52Z</time>
      </trkpt>
      <trkpt lat="46.51092" lon="5.79759">
        <ele>782</ele>
        <time>2021-08-09T13:24:53Z</time>
      </trkpt>
      <trkpt lat="46.5107" lon="5.79734">
        <ele>783.6</ele>
        <time>2021-08-09T13:24:59Z</time>
      </trkpt>
      <trkpt lat="46.51055" lon="5.79718">
        <ele>784</ele>
        <time>2021-08-09T13:25:03Z</time>
      </trkpt>
      <trkpt lat="46.51044" lon="5.79704">
        <ele>784.6</ele>
        <time>2021-08-09T13:25:06Z</time>
      </trkpt>
      <trkpt lat="46.51028" lon="5.79681">
        <ele>786</ele>
        <time>2021-08-09T13:25:11Z</time>
      </trkpt>
      <trkpt lat="46.51021" lon="5.7967">
        <ele>786.6</ele>
        <time>2021-08-09T13:25:13Z</time>
      </trkpt>
      <trkpt lat="46.51013" lon="5.79655">
        <ele>787.2</ele>
        <time>2021-08-09T13:25:16Z</time>
      </trkpt>
      <trkpt lat="46.51001" lon="5.7963">
        <ele>788.2</ele>
        <time>2021-08-09T13:25:21Z</time>
      </trkpt>
      <trkpt lat="46.50999" lon="5.79625">
        <ele>788.6</ele>
        <time>2021-08-09T13:25:22Z</time>
      </trkpt>
      <trkpt lat="46.50995" lon="5.79615">
        <ele>789.4</ele>
        <time>2021-08-09T13:25:24Z</time>
      </trkpt>
      <trkpt lat="46.50988" lon="5.79601">
        <ele>790.4</ele>
        <time>2021-08-09T13:25:27Z</time>
      </trkpt>
      <trkpt lat="46.50986" lon="5.79596">
        <ele>790.6</ele>
        <time>2021-08-09T13:25:28Z</time>
      </trkpt>
      <trkpt lat="46.50978" lon="5.79583">
        <ele>791.6</ele>
        <time>2021-08-09T13:25:31Z</time>
      </trkpt>
      <trkpt lat="46.50963" lon="5.79558">
        <ele>792</ele>
        <time>2021-08-09T13:25:36Z</time>
      </trkpt>
      <trkpt lat="46.50954" lon="5.79542">
        <ele>792.6</ele>
        <time>2021-08-09T13:25:39Z</time>
      </trkpt>
      <trkpt lat="46.50952" lon="5.79538">
        <ele>792.8</ele>
        <time>2021-08-09T13:25:40Z</time>
      </trkpt>
      <trkpt lat="46.50935" lon="5.7951">
        <ele>794.2</ele>
        <time>2021-08-09T13:25:46Z</time>
      </trkpt>
      <trkpt lat="46.5092" lon="5.79485">
        <ele>795.2</ele>
        <time>2021-08-09T13:25:51Z</time>
      </trkpt>
      <trkpt lat="46.50914" lon="5.79476">
        <ele>795.8</ele>
        <time>2021-08-09T13:25:53Z</time>
      </trkpt>
      <trkpt lat="46.50909" lon="5.79467">
        <ele>796.4</ele>
        <time>2021-08-09T13:25:55Z</time>
      </trkpt>
      <trkpt lat="46.50901" lon="5.79452">
        <ele>797</ele>
        <time>2021-08-09T13:25:58Z</time>
      </trkpt>
      <trkpt lat="46.50896" lon="5.79443">
        <ele>797.4</ele>
        <time>2021-08-09T13:26:00Z</time>
      </trkpt>
      <trkpt lat="46.50885" lon="5.79425">
        <ele>798.6</ele>
        <time>2021-08-09T13:26:04Z</time>
      </trkpt>
      <trkpt lat="46.50883" lon="5.79422">
        <ele>798.6</ele>
        <time>2021-08-09T13:26:05Z</time>
      </trkpt>
      <trkpt lat="46.50875" lon="5.79406">
        <ele>799.6</ele>
        <time>2021-08-09T13:26:08Z</time>
      </trkpt>
      <trkpt lat="46.50864" lon="5.79388">
        <ele>800.2</ele>
        <time>2021-08-09T13:26:12Z</time>
      </trkpt>
      <trkpt lat="46.50861" lon="5.79384">
        <ele>800.4</ele>
        <time>2021-08-09T13:26:13Z</time>
      </trkpt>
      <trkpt lat="46.50857" lon="5.7938">
        <ele>800.4</ele>
        <time>2021-08-09T13:26:14Z</time>
      </trkpt>
      <trkpt lat="46.50849" lon="5.79376">
        <ele>800.6</ele>
        <time>2021-08-09T13:26:16Z</time>
      </trkpt>
      <trkpt lat="46.50843" lon="5.79375">
        <ele>800.8</ele>
        <time>2021-08-09T13:26:17Z</time>
      </trkpt>
      <trkpt lat="46.50817" lon="5.79376">
        <ele>801.6</ele>
        <time>2021-08-09T13:26:23Z</time>
      </trkpt>
      <trkpt lat="46.50808" lon="5.79376">
        <ele>801.8</ele>
        <time>2021-08-09T13:26:25Z</time>
      </trkpt>
      <trkpt lat="46.50799" lon="5.79373">
        <ele>802</ele>
        <time>2021-08-09T13:26:27Z</time>
      </trkpt>
      <trkpt lat="46.50795" lon="5.79371">
        <ele>802.2</ele>
        <time>2021-08-09T13:26:28Z</time>
      </trkpt>
      <trkpt lat="46.50788" lon="5.79365">
        <ele>802.6</ele>
        <time>2021-08-09T13:26:30Z</time>
      </trkpt>
      <trkpt lat="46.50785" lon="5.79356">
        <ele>802.8</ele>
        <time>2021-08-09T13:26:32Z</time>
      </trkpt>
      <trkpt lat="46.50781" lon="5.79345">
        <ele>803.2</ele>
        <time>2021-08-09T13:26:36Z</time>
      </trkpt>
      <trkpt lat="46.50769" lon="5.79345">
        <ele>803.4</ele>
        <time>2021-08-09T13:26:39Z</time>
      </trkpt>
      <trkpt lat="46.5074" lon="5.79354">
        <ele>803.2</ele>
        <time>2021-08-09T13:26:45Z</time>
      </trkpt>
      <trkpt lat="46.50695" lon="5.79365">
        <ele>802.6</ele>
        <time>2021-08-09T13:26:53Z</time>
      </trkpt>
      <trkpt lat="46.5065" lon="5.79365">
        <ele>802</ele>
        <time>2021-08-09T13:27:01Z</time>
      </trkpt>
      <trkpt lat="46.50645" lon="5.79364">
        <ele>802</ele>
        <time>2021-08-09T13:27:02Z</time>
      </trkpt>
      <trkpt lat="46.50613" lon="5.79359">
        <ele>802</ele>
        <time>2021-08-09T13:27:08Z</time>
      </trkpt>
      <trkpt lat="46.50608" lon="5.79356">
        <ele>802</ele>
        <time>2021-08-09T13:27:09Z</time>
      </trkpt>
      <trkpt lat="46.50605" lon="5.79352">
        <ele>802</ele>
        <time>2021-08-09T13:27:10Z</time>
      </trkpt>
      <trkpt lat="46.50603" lon="5.79338">
        <ele>802</ele>
        <time>2021-08-09T13:27:12Z</time>
      </trkpt>
      <trkpt lat="46.50605" lon="5.79332">
        <ele>802</ele>
        <time>2021-08-09T13:27:13Z</time>
      </trkpt>
      <trkpt lat="46.50608" lon="5.79328">
        <ele>802</ele>
        <time>2021-08-09T13:27:14Z</time>
      </trkpt>
      <trkpt lat="46.50614" lon="5.79319">
        <ele>802</ele>
        <time>2021-08-09T13:27:16Z</time>
      </trkpt>
      <trkpt lat="46.50623" lon="5.79305">
        <ele>802.2</ele>
        <time>2021-08-09T13:27:19Z</time>
      </trkpt>
      <trkpt lat="46.50633" lon="5.79298">
        <ele>802.2</ele>
        <time>2021-08-09T13:27:21Z</time>
      </trkpt>
      <trkpt lat="46.50637" lon="5.79295">
        <ele>802.2</ele>
        <time>2021-08-09T13:27:22Z</time>
      </trkpt>
      <trkpt lat="46.50643" lon="5.79294">
        <ele>802.2</ele>
        <time>2021-08-09T13:27:24Z</time>
      </trkpt>
      <trkpt lat="46.50643" lon="5.79294">
        <ele>802.2</ele>
        <time>2021-08-09T13:27:26Z</time>
      </trkpt>
      <trkpt lat="46.50645" lon="5.79291">
        <ele>801.4</ele>
        <time>2021-08-09T13:27:59Z</time>
      </trkpt>
      <trkpt lat="46.50654" lon="5.7928">
        <ele>801.2</ele>
        <time>2021-08-09T13:28:02Z</time>
      </trkpt>
      <trkpt lat="46.50662" lon="5.7927">
        <ele>801</ele>
        <time>2021-08-09T13:28:04Z</time>
      </trkpt>
      <trkpt lat="46.50681" lon="5.79234">
        <ele>800.2</ele>
        <time>2021-08-09T13:28:09Z</time>
      </trkpt>
      <trkpt lat="46.50684" lon="5.79225">
        <ele>799.8</ele>
        <time>2021-08-09T13:28:10Z</time>
      </trkpt>
      <trkpt lat="46.50687" lon="5.79205">
        <ele>798.8</ele>
        <time>2021-08-09T13:28:12Z</time>
      </trkpt>
      <trkpt lat="46.50685" lon="5.79183">
        <ele>797.6</ele>
        <time>2021-08-09T13:28:14Z</time>
      </trkpt>
      <trkpt lat="46.50684" lon="5.79171">
        <ele>797.6</ele>
        <time>2021-08-09T13:28:15Z</time>
      </trkpt>
      <trkpt lat="46.50686" lon="5.79159">
        <ele>797</ele>
        <time>2021-08-09T13:28:16Z</time>
      </trkpt>
      <trkpt lat="46.5069" lon="5.79148">
        <ele>796.6</ele>
        <time>2021-08-09T13:28:17Z</time>
      </trkpt>
      <trkpt lat="46.50696" lon="5.79138">
        <ele>796</ele>
        <time>2021-08-09T13:28:18Z</time>
      </trkpt>
      <trkpt lat="46.50708" lon="5.7912">
        <ele>794.8</ele>
        <time>2021-08-09T13:28:20Z</time>
      </trkpt>
      <trkpt lat="46.50712" lon="5.79108">
        <ele>794</ele>
        <time>2021-08-09T13:28:21Z</time>
      </trkpt>
      <trkpt lat="46.50715" lon="5.79095">
        <ele>793.8</ele>
        <time>2021-08-09T13:28:22Z</time>
      </trkpt>
      <trkpt lat="46.50715" lon="5.79072">
        <ele>792.8</ele>
        <time>2021-08-09T13:28:24Z</time>
      </trkpt>
      <trkpt lat="46.50711" lon="5.79058">
        <ele>792.2</ele>
        <time>2021-08-09T13:28:25Z</time>
      </trkpt>
      <trkpt lat="46.50707" lon="5.7905">
        <ele>792.2</ele>
        <time>2021-08-09T13:28:26Z</time>
      </trkpt>
      <trkpt lat="46.50701" lon="5.79043">
        <ele>792</ele>
        <time>2021-08-09T13:28:27Z</time>
      </trkpt>
      <trkpt lat="46.50681" lon="5.79021">
        <ele>792</ele>
        <time>2021-08-09T13:28:30Z</time>
      </trkpt>
      <trkpt lat="46.50677" lon="5.79011">
        <ele>792</ele>
        <time>2021-08-09T13:28:31Z</time>
      </trkpt>
      <trkpt lat="46.50674" lon="5.79">
        <ele>791.8</ele>
        <time>2021-08-09T13:28:32Z</time>
      </trkpt>
      <trkpt lat="46.50666" lon="5.78967">
        <ele>791.8</ele>
        <time>2021-08-09T13:28:35Z</time>
      </trkpt>
      <trkpt lat="46.5065" lon="5.78898">
        <ele>791.4</ele>
        <time>2021-08-09T13:28:41Z</time>
      </trkpt>
      <trkpt lat="46.50647" lon="5.78886">
        <ele>791.4</ele>
        <time>2021-08-09T13:28:42Z</time>
      </trkpt>
      <trkpt lat="46.50626" lon="5.78819">
        <ele>790.8</ele>
        <time>2021-08-09T13:28:48Z</time>
      </trkpt>
      <trkpt lat="46.50612" lon="5.78783">
        <ele>790.2</ele>
        <time>2021-08-09T13:28:51Z</time>
      </trkpt>
      <trkpt lat="46.50597" lon="5.78753">
        <ele>789.8</ele>
        <time>2021-08-09T13:28:54Z</time>
      </trkpt>
      <trkpt lat="46.50579" lon="5.7873">
        <ele>788.8</ele>
        <time>2021-08-09T13:28:57Z</time>
      </trkpt>
      <trkpt lat="46.50565" lon="5.78714">
        <ele>788</ele>
        <time>2021-08-09T13:28:59Z</time>
      </trkpt>
      <trkpt lat="46.50559" lon="5.78707">
        <ele>787.6</ele>
        <time>2021-08-09T13:29:00Z</time>
      </trkpt>
      <trkpt lat="46.50526" lon="5.78671">
        <ele>786.6</ele>
        <time>2021-08-09T13:29:05Z</time>
      </trkpt>
      <trkpt lat="46.50513" lon="5.78656">
        <ele>786.2</ele>
        <time>2021-08-09T13:29:07Z</time>
      </trkpt>
      <trkpt lat="46.50486" lon="5.78628">
        <ele>785.4</ele>
        <time>2021-08-09T13:29:11Z</time>
      </trkpt>
      <trkpt lat="46.50465" lon="5.78609">
        <ele>785.2</ele>
        <time>2021-08-09T13:29:14Z</time>
      </trkpt>
      <trkpt lat="46.50413" lon="5.78564">
        <ele>784.8</ele>
        <time>2021-08-09T13:29:21Z</time>
      </trkpt>
      <trkpt lat="46.50385" lon="5.7854">
        <ele>784.8</ele>
        <time>2021-08-09T13:29:25Z</time>
      </trkpt>
      <trkpt lat="46.50378" lon="5.78537">
        <ele>784.8</ele>
        <time>2021-08-09T13:29:26Z</time>
      </trkpt>
      <trkpt lat="46.50349" lon="5.7853">
        <ele>785</ele>
        <time>2021-08-09T13:29:30Z</time>
      </trkpt>
      <trkpt lat="46.50291" lon="5.78515">
        <ele>785.4</ele>
        <time>2021-08-09T13:29:38Z</time>
      </trkpt>
      <trkpt lat="46.50242" lon="5.7849">
        <ele>785.8</ele>
        <time>2021-08-09T13:29:45Z</time>
      </trkpt>
      <trkpt lat="46.50192" lon="5.7846">
        <ele>786.2</ele>
        <time>2021-08-09T13:29:53Z</time>
      </trkpt>
      <trkpt lat="46.50181" lon="5.78453">
        <ele>786.6</ele>
        <time>2021-08-09T13:29:55Z</time>
      </trkpt>
      <trkpt lat="46.5016" lon="5.78431">
        <ele>787.2</ele>
        <time>2021-08-09T13:29:59Z</time>
      </trkpt>
      <trkpt lat="46.50151" lon="5.78416">
        <ele>787.4</ele>
        <time>2021-08-09T13:30:01Z</time>
      </trkpt>
      <trkpt lat="46.50141" lon="5.78392">
        <ele>787.6</ele>
        <time>2021-08-09T13:30:04Z</time>
      </trkpt>
      <trkpt lat="46.50138" lon="5.78383">
        <ele>787.8</ele>
        <time>2021-08-09T13:30:05Z</time>
      </trkpt>
      <trkpt lat="46.50137" lon="5.78374">
        <ele>787.8</ele>
        <time>2021-08-09T13:30:06Z</time>
      </trkpt>
      <trkpt lat="46.50135" lon="5.78356">
        <ele>788</ele>
        <time>2021-08-09T13:30:08Z</time>
      </trkpt>
      <trkpt lat="46.50137" lon="5.78337">
        <ele>788</ele>
        <time>2021-08-09T13:30:10Z</time>
      </trkpt>
      <trkpt lat="46.5014" lon="5.78318">
        <ele>788</ele>
        <time>2021-08-09T13:30:12Z</time>
      </trkpt>
      <trkpt lat="46.50149" lon="5.78268">
        <ele>787.8</ele>
        <time>2021-08-09T13:30:17Z</time>
      </trkpt>
      <trkpt lat="46.5015" lon="5.78248">
        <ele>787.8</ele>
        <time>2021-08-09T13:30:19Z</time>
      </trkpt>
      <trkpt lat="46.50145" lon="5.7823">
        <ele>787.8</ele>
        <time>2021-08-09T13:30:21Z</time>
      </trkpt>
      <trkpt lat="46.50142" lon="5.78221">
        <ele>787.8</ele>
        <time>2021-08-09T13:30:22Z</time>
      </trkpt>
      <trkpt lat="46.50133" lon="5.78206">
        <ele>787.8</ele>
        <time>2021-08-09T13:30:24Z</time>
      </trkpt>
      <trkpt lat="46.50121" lon="5.78193">
        <ele>788</ele>
        <time>2021-08-09T13:30:26Z</time>
      </trkpt>
      <trkpt lat="46.50077" lon="5.78154">
        <ele>787.4</ele>
        <time>2021-08-09T13:30:32Z</time>
      </trkpt>
      <trkpt lat="46.50061" lon="5.7814">
        <ele>786.6</ele>
        <time>2021-08-09T13:30:34Z</time>
      </trkpt>
      <trkpt lat="46.50038" lon="5.7812">
        <ele>785.2</ele>
        <time>2021-08-09T13:30:37Z</time>
      </trkpt>
      <trkpt lat="46.50008" lon="5.78093">
        <ele>784.6</ele>
        <time>2021-08-09T13:30:41Z</time>
      </trkpt>
      <trkpt lat="46.49956" lon="5.78049">
        <ele>784</ele>
        <time>2021-08-09T13:30:48Z</time>
      </trkpt>
      <trkpt lat="46.49949" lon="5.78043">
        <ele>784</ele>
        <time>2021-08-09T13:30:49Z</time>
      </trkpt>
      <trkpt lat="46.49902" lon="5.78001">
        <ele>783.8</ele>
        <time>2021-08-09T13:30:56Z</time>
      </trkpt>
      <trkpt lat="46.49853" lon="5.77958">
        <ele>783.6</ele>
        <time>2021-08-09T13:31:03Z</time>
      </trkpt>
      <trkpt lat="46.49846" lon="5.77952">
        <ele>783.4</ele>
        <time>2021-08-09T13:31:04Z</time>
      </trkpt>
      <trkpt lat="46.49819" lon="5.77938">
        <ele>782.8</ele>
        <time>2021-08-09T13:31:07Z</time>
      </trkpt>
      <trkpt lat="46.49809" lon="5.77934">
        <ele>782.8</ele>
        <time>2021-08-09T13:31:08Z</time>
      </trkpt>
      <trkpt lat="46.49789" lon="5.77927">
        <ele>781.4</ele>
        <time>2021-08-09T13:31:10Z</time>
      </trkpt>
      <trkpt lat="46.49779" lon="5.77922">
        <ele>781.2</ele>
        <time>2021-08-09T13:31:11Z</time>
      </trkpt>
      <trkpt lat="46.4977" lon="5.77915">
        <ele>780</ele>
        <time>2021-08-09T13:31:12Z</time>
      </trkpt>
      <trkpt lat="46.49761" lon="5.77907">
        <ele>779.8</ele>
        <time>2021-08-09T13:31:13Z</time>
      </trkpt>
      <trkpt lat="46.49752" lon="5.77897">
        <ele>779</ele>
        <time>2021-08-09T13:31:14Z</time>
      </trkpt>
      <trkpt lat="46.49734" lon="5.77879">
        <ele>776.8</ele>
        <time>2021-08-09T13:31:16Z</time>
      </trkpt>
      <trkpt lat="46.49716" lon="5.77861">
        <ele>775.6</ele>
        <time>2021-08-09T13:31:18Z</time>
      </trkpt>
      <trkpt lat="46.49688" lon="5.77835">
        <ele>774.2</ele>
        <time>2021-08-09T13:31:21Z</time>
      </trkpt>
      <trkpt lat="46.49678" lon="5.77827">
        <ele>773.8</ele>
        <time>2021-08-09T13:31:22Z</time>
      </trkpt>
      <trkpt lat="46.4967" lon="5.77824">
        <ele>773</ele>
        <time>2021-08-09T13:31:23Z</time>
      </trkpt>
      <trkpt lat="46.49656" lon="5.77821">
        <ele>771.8</ele>
        <time>2021-08-09T13:31:24Z</time>
      </trkpt>
      <trkpt lat="46.49633" lon="5.77821">
        <ele>770.4</ele>
        <time>2021-08-09T13:31:26Z</time>
      </trkpt>
      <trkpt lat="46.4961" lon="5.7782">
        <ele>769.4</ele>
        <time>2021-08-09T13:31:28Z</time>
      </trkpt>
      <trkpt lat="46.49588" lon="5.77819">
        <ele>768.4</ele>
        <time>2021-08-09T13:31:30Z</time>
      </trkpt>
      <trkpt lat="46.49565" lon="5.77817">
        <ele>767.8</ele>
        <time>2021-08-09T13:31:32Z</time>
      </trkpt>
      <trkpt lat="46.49533" lon="5.77819">
        <ele>766.8</ele>
        <time>2021-08-09T13:31:35Z</time>
      </trkpt>
      <trkpt lat="46.49502" lon="5.77817">
        <ele>765.8</ele>
        <time>2021-08-09T13:31:38Z</time>
      </trkpt>
      <trkpt lat="46.49492" lon="5.77813">
        <ele>765.2</ele>
        <time>2021-08-09T13:31:39Z</time>
      </trkpt>
      <trkpt lat="46.49455" lon="5.77793">
        <ele>764.2</ele>
        <time>2021-08-09T13:31:43Z</time>
      </trkpt>
      <trkpt lat="46.49417" lon="5.7777">
        <ele>763.6</ele>
        <time>2021-08-09T13:31:47Z</time>
      </trkpt>
      <trkpt lat="46.494" lon="5.77753">
        <ele>763</ele>
        <time>2021-08-09T13:31:49Z</time>
      </trkpt>
      <trkpt lat="46.49367" lon="5.77714">
        <ele>761.8</ele>
        <time>2021-08-09T13:31:53Z</time>
      </trkpt>
      <trkpt lat="46.49358" lon="5.77707">
        <ele>761.2</ele>
        <time>2021-08-09T13:31:54Z</time>
      </trkpt>
      <trkpt lat="46.4934" lon="5.77692">
        <ele>760.2</ele>
        <time>2021-08-09T13:31:56Z</time>
      </trkpt>
      <trkpt lat="46.49313" lon="5.7767">
        <ele>758.8</ele>
        <time>2021-08-09T13:31:59Z</time>
      </trkpt>
      <trkpt lat="46.49306" lon="5.7766">
        <ele>758.4</ele>
        <time>2021-08-09T13:32:00Z</time>
      </trkpt>
      <trkpt lat="46.493" lon="5.7765">
        <ele>758.2</ele>
        <time>2021-08-09T13:32:01Z</time>
      </trkpt>
      <trkpt lat="46.49297" lon="5.77639">
        <ele>758</ele>
        <time>2021-08-09T13:32:02Z</time>
      </trkpt>
      <trkpt lat="46.49297" lon="5.77627">
        <ele>757.4</ele>
        <time>2021-08-09T13:32:03Z</time>
      </trkpt>
      <trkpt lat="46.49302" lon="5.77616">
        <ele>757.2</ele>
        <time>2021-08-09T13:32:04Z</time>
      </trkpt>
      <trkpt lat="46.49315" lon="5.7761">
        <ele>756.8</ele>
        <time>2021-08-09T13:32:06Z</time>
      </trkpt>
      <trkpt lat="46.49332" lon="5.77611">
        <ele>756.2</ele>
        <time>2021-08-09T13:32:08Z</time>
      </trkpt>
      <trkpt lat="46.49341" lon="5.77614">
        <ele>756</ele>
        <time>2021-08-09T13:32:09Z</time>
      </trkpt>
      <trkpt lat="46.49367" lon="5.77623">
        <ele>755</ele>
        <time>2021-08-09T13:32:12Z</time>
      </trkpt>
      <trkpt lat="46.49384" lon="5.77626">
        <ele>754.6</ele>
        <time>2021-08-09T13:32:14Z</time>
      </trkpt>
      <trkpt lat="46.49393" lon="5.77625">
        <ele>754.6</ele>
        <time>2021-08-09T13:32:15Z</time>
      </trkpt>
      <trkpt lat="46.49401" lon="5.7762">
        <ele>754.4</ele>
        <time>2021-08-09T13:32:16Z</time>
      </trkpt>
      <trkpt lat="46.49414" lon="5.77603">
        <ele>754.2</ele>
        <time>2021-08-09T13:32:18Z</time>
      </trkpt>
      <trkpt lat="46.49419" lon="5.77593">
        <ele>754</ele>
        <time>2021-08-09T13:32:19Z</time>
      </trkpt>
      <trkpt lat="46.49422" lon="5.77583">
        <ele>754</ele>
        <time>2021-08-09T13:32:20Z</time>
      </trkpt>
      <trkpt lat="46.49425" lon="5.77572">
        <ele>753.6</ele>
        <time>2021-08-09T13:32:21Z</time>
      </trkpt>
      <trkpt lat="46.49438" lon="5.77511">
        <ele>752.8</ele>
        <time>2021-08-09T13:32:26Z</time>
      </trkpt>
      <trkpt lat="46.4944" lon="5.77499">
        <ele>752.6</ele>
        <time>2021-08-09T13:32:27Z</time>
      </trkpt>
      <trkpt lat="46.49452" lon="5.77481">
        <ele>752.2</ele>
        <time>2021-08-09T13:32:29Z</time>
      </trkpt>
      <trkpt lat="46.49469" lon="5.77477">
        <ele>752</ele>
        <time>2021-08-09T13:32:31Z</time>
      </trkpt>
      <trkpt lat="46.49477" lon="5.77476">
        <ele>752</ele>
        <time>2021-08-09T13:32:32Z</time>
      </trkpt>
      <trkpt lat="46.49488" lon="5.77474">
        <ele>751.8</ele>
        <time>2021-08-09T13:32:33Z</time>
      </trkpt>
      <trkpt lat="46.49496" lon="5.77468">
        <ele>751.6</ele>
        <time>2021-08-09T13:32:34Z</time>
      </trkpt>
      <trkpt lat="46.49522" lon="5.77432">
        <ele>750.8</ele>
        <time>2021-08-09T13:32:38Z</time>
      </trkpt>
      <trkpt lat="46.49529" lon="5.77423">
        <ele>750.4</ele>
        <time>2021-08-09T13:32:39Z</time>
      </trkpt>
      <trkpt lat="46.49544" lon="5.7741">
        <ele>749.8</ele>
        <time>2021-08-09T13:32:41Z</time>
      </trkpt>
      <trkpt lat="46.4957" lon="5.77396">
        <ele>749.6</ele>
        <time>2021-08-09T13:32:44Z</time>
      </trkpt>
      <trkpt lat="46.49579" lon="5.77393">
        <ele>749.4</ele>
        <time>2021-08-09T13:32:45Z</time>
      </trkpt>
      <trkpt lat="46.49589" lon="5.7739">
        <ele>749.4</ele>
        <time>2021-08-09T13:32:46Z</time>
      </trkpt>
      <trkpt lat="46.49607" lon="5.77387">
        <ele>749.2</ele>
        <time>2021-08-09T13:32:48Z</time>
      </trkpt>
      <trkpt lat="46.49617" lon="5.77388">
        <ele>748.6</ele>
        <time>2021-08-09T13:32:49Z</time>
      </trkpt>
      <trkpt lat="46.49636" lon="5.77392">
        <ele>747.8</ele>
        <time>2021-08-09T13:32:51Z</time>
      </trkpt>
      <trkpt lat="46.49656" lon="5.77395">
        <ele>746.8</ele>
        <time>2021-08-09T13:32:53Z</time>
      </trkpt>
      <trkpt lat="46.49666" lon="5.77395">
        <ele>746.2</ele>
        <time>2021-08-09T13:32:54Z</time>
      </trkpt>
      <trkpt lat="46.49686" lon="5.77393">
        <ele>745.4</ele>
        <time>2021-08-09T13:32:56Z</time>
      </trkpt>
      <trkpt lat="46.49697" lon="5.77392">
        <ele>745.2</ele>
        <time>2021-08-09T13:32:57Z</time>
      </trkpt>
      <trkpt lat="46.49708" lon="5.77391">
        <ele>744.8</ele>
        <time>2021-08-09T13:32:58Z</time>
      </trkpt>
      <trkpt lat="46.49719" lon="5.7739">
        <ele>744.2</ele>
        <time>2021-08-09T13:32:59Z</time>
      </trkpt>
      <trkpt lat="46.49739" lon="5.77385">
        <ele>742.8</ele>
        <time>2021-08-09T13:33:01Z</time>
      </trkpt>
      <trkpt lat="46.49749" lon="5.77379">
        <ele>741.8</ele>
        <time>2021-08-09T13:33:02Z</time>
      </trkpt>
      <trkpt lat="46.49757" lon="5.77371">
        <ele>741</ele>
        <time>2021-08-09T13:33:03Z</time>
      </trkpt>
      <trkpt lat="46.49765" lon="5.7736">
        <ele>740.6</ele>
        <time>2021-08-09T13:33:04Z</time>
      </trkpt>
      <trkpt lat="46.49775" lon="5.7735">
        <ele>739.8</ele>
        <time>2021-08-09T13:33:05Z</time>
      </trkpt>
      <trkpt lat="46.49795" lon="5.77332">
        <ele>739.2</ele>
        <time>2021-08-09T13:33:07Z</time>
      </trkpt>
      <trkpt lat="46.49809" lon="5.77324">
        <ele>738.6</ele>
        <time>2021-08-09T13:33:08Z</time>
      </trkpt>
      <trkpt lat="46.49838" lon="5.77301">
        <ele>737.4</ele>
        <time>2021-08-09T13:33:11Z</time>
      </trkpt>
      <trkpt lat="46.49847" lon="5.77291">
        <ele>736</ele>
        <time>2021-08-09T13:33:12Z</time>
      </trkpt>
      <trkpt lat="46.49872" lon="5.77255">
        <ele>734.4</ele>
        <time>2021-08-09T13:33:15Z</time>
      </trkpt>
      <trkpt lat="46.49889" lon="5.77232">
        <ele>733.2</ele>
        <time>2021-08-09T13:33:17Z</time>
      </trkpt>
      <trkpt lat="46.49905" lon="5.77202">
        <ele>732</ele>
        <time>2021-08-09T13:33:19Z</time>
      </trkpt>
      <trkpt lat="46.49931" lon="5.77165">
        <ele>730.2</ele>
        <time>2021-08-09T13:33:22Z</time>
      </trkpt>
      <trkpt lat="46.4995" lon="5.77146">
        <ele>729.2</ele>
        <time>2021-08-09T13:33:24Z</time>
      </trkpt>
      <trkpt lat="46.49975" lon="5.77113">
        <ele>727.6</ele>
        <time>2021-08-09T13:33:27Z</time>
      </trkpt>
      <trkpt lat="46.4999" lon="5.77089">
        <ele>726.2</ele>
        <time>2021-08-09T13:33:29Z</time>
      </trkpt>
      <trkpt lat="46.50008" lon="5.77044">
        <ele>725.4</ele>
        <time>2021-08-09T13:33:32Z</time>
      </trkpt>
      <trkpt lat="46.50013" lon="5.77027">
        <ele>723.8</ele>
        <time>2021-08-09T13:33:33Z</time>
      </trkpt>
      <trkpt lat="46.50019" lon="5.77014">
        <ele>723.2</ele>
        <time>2021-08-09T13:33:34Z</time>
      </trkpt>
      <trkpt lat="46.50026" lon="5.77003">
        <ele>722.4</ele>
        <time>2021-08-09T13:33:35Z</time>
      </trkpt>
      <trkpt lat="46.50034" lon="5.76993">
        <ele>721.4</ele>
        <time>2021-08-09T13:33:36Z</time>
      </trkpt>
      <trkpt lat="46.50043" lon="5.76986">
        <ele>721.2</ele>
        <time>2021-08-09T13:33:37Z</time>
      </trkpt>
      <trkpt lat="46.50052" lon="5.76981">
        <ele>720.6</ele>
        <time>2021-08-09T13:33:38Z</time>
      </trkpt>
      <trkpt lat="46.50063" lon="5.76977">
        <ele>720.4</ele>
        <time>2021-08-09T13:33:39Z</time>
      </trkpt>
      <trkpt lat="46.50073" lon="5.76976">
        <ele>719.8</ele>
        <time>2021-08-09T13:33:40Z</time>
      </trkpt>
      <trkpt lat="46.50083" lon="5.76977">
        <ele>719.4</ele>
        <time>2021-08-09T13:33:41Z</time>
      </trkpt>
      <trkpt lat="46.50094" lon="5.7698">
        <ele>718.6</ele>
        <time>2021-08-09T13:33:42Z</time>
      </trkpt>
      <trkpt lat="46.50105" lon="5.76985">
        <ele>717.8</ele>
        <time>2021-08-09T13:33:43Z</time>
      </trkpt>
      <trkpt lat="46.50124" lon="5.7699">
        <ele>716.2</ele>
        <time>2021-08-09T13:33:45Z</time>
      </trkpt>
      <trkpt lat="46.50136" lon="5.76979">
        <ele>715</ele>
        <time>2021-08-09T13:33:47Z</time>
      </trkpt>
      <trkpt lat="46.5014" lon="5.76964">
        <ele>714.4</ele>
        <time>2021-08-09T13:33:49Z</time>
      </trkpt>
      <trkpt lat="46.50135" lon="5.76955">
        <ele>714</ele>
        <time>2021-08-09T13:33:50Z</time>
      </trkpt>
      <trkpt lat="46.5013" lon="5.76947">
        <ele>713.8</ele>
        <time>2021-08-09T13:33:51Z</time>
      </trkpt>
      <trkpt lat="46.50116" lon="5.76931">
        <ele>713.4</ele>
        <time>2021-08-09T13:33:53Z</time>
      </trkpt>
      <trkpt lat="46.50091" lon="5.76903">
        <ele>712.4</ele>
        <time>2021-08-09T13:33:56Z</time>
      </trkpt>
      <trkpt lat="46.50082" lon="5.76895">
        <ele>712.2</ele>
        <time>2021-08-09T13:33:57Z</time>
      </trkpt>
      <trkpt lat="46.50072" lon="5.76885">
        <ele>711.8</ele>
        <time>2021-08-09T13:33:58Z</time>
      </trkpt>
      <trkpt lat="46.50059" lon="5.7686">
        <ele>711.2</ele>
        <time>2021-08-09T13:34:00Z</time>
      </trkpt>
      <trkpt lat="46.50046" lon="5.76832">
        <ele>710.6</ele>
        <time>2021-08-09T13:34:02Z</time>
      </trkpt>
      <trkpt lat="46.50037" lon="5.76818">
        <ele>709.6</ele>
        <time>2021-08-09T13:34:03Z</time>
      </trkpt>
      <trkpt lat="46.50022" lon="5.76797">
        <ele>708</ele>
        <time>2021-08-09T13:34:05Z</time>
      </trkpt>
      <trkpt lat="46.50004" lon="5.76774">
        <ele>706.6</ele>
        <time>2021-08-09T13:34:07Z</time>
      </trkpt>
      <trkpt lat="46.49988" lon="5.76758">
        <ele>705</ele>
        <time>2021-08-09T13:34:09Z</time>
      </trkpt>
      <trkpt lat="46.49965" lon="5.7675">
        <ele>703.8</ele>
        <time>2021-08-09T13:34:11Z</time>
      </trkpt>
      <trkpt lat="46.49939" lon="5.76746">
        <ele>702.8</ele>
        <time>2021-08-09T13:34:13Z</time>
      </trkpt>
      <trkpt lat="46.49928" lon="5.76739">
        <ele>702.4</ele>
        <time>2021-08-09T13:34:14Z</time>
      </trkpt>
      <trkpt lat="46.49917" lon="5.7673">
        <ele>702</ele>
        <time>2021-08-09T13:34:15Z</time>
      </trkpt>
      <trkpt lat="46.49908" lon="5.7672">
        <ele>701.4</ele>
        <time>2021-08-09T13:34:16Z</time>
      </trkpt>
      <trkpt lat="46.49898" lon="5.76707">
        <ele>700.6</ele>
        <time>2021-08-09T13:34:17Z</time>
      </trkpt>
      <trkpt lat="46.49891" lon="5.76697">
        <ele>700.2</ele>
        <time>2021-08-09T13:34:18Z</time>
      </trkpt>
      <trkpt lat="46.49875" lon="5.76669">
        <ele>698.8</ele>
        <time>2021-08-09T13:34:20Z</time>
      </trkpt>
      <trkpt lat="46.49856" lon="5.76643">
        <ele>697.2</ele>
        <time>2021-08-09T13:34:22Z</time>
      </trkpt>
      <trkpt lat="46.49839" lon="5.76621">
        <ele>695.8</ele>
        <time>2021-08-09T13:34:24Z</time>
      </trkpt>
      <trkpt lat="46.49818" lon="5.76598">
        <ele>694.4</ele>
        <time>2021-08-09T13:34:26Z</time>
      </trkpt>
      <trkpt lat="46.49805" lon="5.76588">
        <ele>694</ele>
        <time>2021-08-09T13:34:27Z</time>
      </trkpt>
      <trkpt lat="46.49782" lon="5.7658">
        <ele>692.2</ele>
        <time>2021-08-09T13:34:29Z</time>
      </trkpt>
      <trkpt lat="46.49769" lon="5.76575">
        <ele>691.6</ele>
        <time>2021-08-09T13:34:30Z</time>
      </trkpt>
      <trkpt lat="46.49757" lon="5.76568">
        <ele>691</ele>
        <time>2021-08-09T13:34:31Z</time>
      </trkpt>
      <trkpt lat="46.49735" lon="5.7655">
        <ele>689.6</ele>
        <time>2021-08-09T13:34:33Z</time>
      </trkpt>
      <trkpt lat="46.49703" lon="5.76517">
        <ele>687.2</ele>
        <time>2021-08-09T13:34:36Z</time>
      </trkpt>
      <trkpt lat="46.49682" lon="5.76497">
        <ele>685.6</ele>
        <time>2021-08-09T13:34:38Z</time>
      </trkpt>
      <trkpt lat="46.49661" lon="5.76482">
        <ele>684.4</ele>
        <time>2021-08-09T13:34:40Z</time>
      </trkpt>
      <trkpt lat="46.49649" lon="5.76476">
        <ele>683.8</ele>
        <time>2021-08-09T13:34:41Z</time>
      </trkpt>
      <trkpt lat="46.49637" lon="5.76471">
        <ele>683</ele>
        <time>2021-08-09T13:34:42Z</time>
      </trkpt>
      <trkpt lat="46.49602" lon="5.76456">
        <ele>681.6</ele>
        <time>2021-08-09T13:34:45Z</time>
      </trkpt>
      <trkpt lat="46.49591" lon="5.76449">
        <ele>681.4</ele>
        <time>2021-08-09T13:34:46Z</time>
      </trkpt>
      <trkpt lat="46.4958" lon="5.76441">
        <ele>680.6</ele>
        <time>2021-08-09T13:34:47Z</time>
      </trkpt>
      <trkpt lat="46.49559" lon="5.76423">
        <ele>679.2</ele>
        <time>2021-08-09T13:34:49Z</time>
      </trkpt>
      <trkpt lat="46.49548" lon="5.76414">
        <ele>678</ele>
        <time>2021-08-09T13:34:50Z</time>
      </trkpt>
      <trkpt lat="46.49527" lon="5.76396">
        <ele>677</ele>
        <time>2021-08-09T13:34:52Z</time>
      </trkpt>
      <trkpt lat="46.49517" lon="5.76387">
        <ele>676.6</ele>
        <time>2021-08-09T13:34:53Z</time>
      </trkpt>
      <trkpt lat="46.49497" lon="5.76369">
        <ele>675</ele>
        <time>2021-08-09T13:34:55Z</time>
      </trkpt>
      <trkpt lat="46.4949" lon="5.76358">
        <ele>674</ele>
        <time>2021-08-09T13:34:56Z</time>
      </trkpt>
      <trkpt lat="46.49484" lon="5.76344">
        <ele>673.4</ele>
        <time>2021-08-09T13:34:57Z</time>
      </trkpt>
      <trkpt lat="46.49481" lon="5.76329">
        <ele>672.8</ele>
        <time>2021-08-09T13:34:58Z</time>
      </trkpt>
      <trkpt lat="46.49479" lon="5.76314">
        <ele>672.2</ele>
        <time>2021-08-09T13:34:59Z</time>
      </trkpt>
      <trkpt lat="46.49478" lon="5.76298">
        <ele>671.8</ele>
        <time>2021-08-09T13:35:00Z</time>
      </trkpt>
      <trkpt lat="46.49475" lon="5.76266">
        <ele>670.4</ele>
        <time>2021-08-09T13:35:02Z</time>
      </trkpt>
      <trkpt lat="46.4947" lon="5.76251">
        <ele>669.4</ele>
        <time>2021-08-09T13:35:03Z</time>
      </trkpt>
      <trkpt lat="46.49464" lon="5.76238">
        <ele>668.8</ele>
        <time>2021-08-09T13:35:04Z</time>
      </trkpt>
      <trkpt lat="46.49457" lon="5.7623">
        <ele>668.4</ele>
        <time>2021-08-09T13:35:05Z</time>
      </trkpt>
      <trkpt lat="46.49447" lon="5.76223">
        <ele>668</ele>
        <time>2021-08-09T13:35:06Z</time>
      </trkpt>
      <trkpt lat="46.49426" lon="5.76207">
        <ele>666.8</ele>
        <time>2021-08-09T13:35:08Z</time>
      </trkpt>
      <trkpt lat="46.49416" lon="5.76196">
        <ele>666.4</ele>
        <time>2021-08-09T13:35:09Z</time>
      </trkpt>
      <trkpt lat="46.49407" lon="5.76185">
        <ele>665.6</ele>
        <time>2021-08-09T13:35:10Z</time>
      </trkpt>
      <trkpt lat="46.49378" lon="5.76152">
        <ele>663.6</ele>
        <time>2021-08-09T13:35:13Z</time>
      </trkpt>
      <trkpt lat="46.49358" lon="5.76132">
        <ele>662</ele>
        <time>2021-08-09T13:35:15Z</time>
      </trkpt>
      <trkpt lat="46.49338" lon="5.76112">
        <ele>661</ele>
        <time>2021-08-09T13:35:17Z</time>
      </trkpt>
      <trkpt lat="46.49327" lon="5.76103">
        <ele>660.6</ele>
        <time>2021-08-09T13:35:18Z</time>
      </trkpt>
      <trkpt lat="46.49316" lon="5.76094">
        <ele>659.6</ele>
        <time>2021-08-09T13:35:19Z</time>
      </trkpt>
      <trkpt lat="46.49306" lon="5.76086">
        <ele>658.4</ele>
        <time>2021-08-09T13:35:20Z</time>
      </trkpt>
      <trkpt lat="46.49275" lon="5.76059">
        <ele>657.4</ele>
        <time>2021-08-09T13:35:23Z</time>
      </trkpt>
      <trkpt lat="46.49264" lon="5.76049">
        <ele>656.4</ele>
        <time>2021-08-09T13:35:24Z</time>
      </trkpt>
      <trkpt lat="46.49243" lon="5.76032">
        <ele>654.8</ele>
        <time>2021-08-09T13:35:26Z</time>
      </trkpt>
      <trkpt lat="46.4922" lon="5.76018">
        <ele>653.6</ele>
        <time>2021-08-09T13:35:28Z</time>
      </trkpt>
      <trkpt lat="46.49197" lon="5.76008">
        <ele>652.2</ele>
        <time>2021-08-09T13:35:30Z</time>
      </trkpt>
      <trkpt lat="46.49174" lon="5.75998">
        <ele>651</ele>
        <time>2021-08-09T13:35:32Z</time>
      </trkpt>
      <trkpt lat="46.49162" lon="5.7599">
        <ele>650.2</ele>
        <time>2021-08-09T13:35:33Z</time>
      </trkpt>
      <trkpt lat="46.49152" lon="5.75981">
        <ele>650</ele>
        <time>2021-08-09T13:35:34Z</time>
      </trkpt>
      <trkpt lat="46.49143" lon="5.75968">
        <ele>649.2</ele>
        <time>2021-08-09T13:35:35Z</time>
      </trkpt>
      <trkpt lat="46.49135" lon="5.75955">
        <ele>648</ele>
        <time>2021-08-09T13:35:36Z</time>
      </trkpt>
      <trkpt lat="46.49127" lon="5.75941">
        <ele>647.2</ele>
        <time>2021-08-09T13:35:37Z</time>
      </trkpt>
      <trkpt lat="46.4912" lon="5.75927">
        <ele>645.8</ele>
        <time>2021-08-09T13:35:38Z</time>
      </trkpt>
      <trkpt lat="46.49105" lon="5.75898">
        <ele>644.8</ele>
        <time>2021-08-09T13:35:40Z</time>
      </trkpt>
      <trkpt lat="46.49082" lon="5.75855">
        <ele>643.6</ele>
        <time>2021-08-09T13:35:43Z</time>
      </trkpt>
      <trkpt lat="46.49073" lon="5.75842">
        <ele>643.4</ele>
        <time>2021-08-09T13:35:44Z</time>
      </trkpt>
      <trkpt lat="46.49062" lon="5.75832">
        <ele>642.4</ele>
        <time>2021-08-09T13:35:45Z</time>
      </trkpt>
      <trkpt lat="46.49052" lon="5.75824">
        <ele>642</ele>
        <time>2021-08-09T13:35:46Z</time>
      </trkpt>
      <trkpt lat="46.49041" lon="5.75818">
        <ele>641</ele>
        <time>2021-08-09T13:35:47Z</time>
      </trkpt>
      <trkpt lat="46.49018" lon="5.75808">
        <ele>639.4</ele>
        <time>2021-08-09T13:35:49Z</time>
      </trkpt>
      <trkpt lat="46.49007" lon="5.75803">
        <ele>638.2</ele>
        <time>2021-08-09T13:35:50Z</time>
      </trkpt>
      <trkpt lat="46.48984" lon="5.75792">
        <ele>637</ele>
        <time>2021-08-09T13:35:52Z</time>
      </trkpt>
      <trkpt lat="46.4895" lon="5.75774">
        <ele>636.4</ele>
        <time>2021-08-09T13:35:55Z</time>
      </trkpt>
      <trkpt lat="46.4894" lon="5.75766">
        <ele>635.8</ele>
        <time>2021-08-09T13:35:56Z</time>
      </trkpt>
      <trkpt lat="46.48929" lon="5.75758">
        <ele>634.6</ele>
        <time>2021-08-09T13:35:57Z</time>
      </trkpt>
      <trkpt lat="46.48909" lon="5.75741">
        <ele>633.4</ele>
        <time>2021-08-09T13:35:59Z</time>
      </trkpt>
      <trkpt lat="46.48889" lon="5.75727">
        <ele>632.6</ele>
        <time>2021-08-09T13:36:01Z</time>
      </trkpt>
      <trkpt lat="46.48879" lon="5.75722">
        <ele>632.6</ele>
        <time>2021-08-09T13:36:02Z</time>
      </trkpt>
      <trkpt lat="46.48868" lon="5.75719">
        <ele>632.2</ele>
        <time>2021-08-09T13:36:03Z</time>
      </trkpt>
      <trkpt lat="46.48858" lon="5.75716">
        <ele>632</ele>
        <time>2021-08-09T13:36:04Z</time>
      </trkpt>
      <trkpt lat="46.48838" lon="5.75707">
        <ele>631.8</ele>
        <time>2021-08-09T13:36:06Z</time>
      </trkpt>
      <trkpt lat="46.48829" lon="5.757">
        <ele>631.8</ele>
        <time>2021-08-09T13:36:07Z</time>
      </trkpt>
      <trkpt lat="46.48821" lon="5.75692">
        <ele>631.6</ele>
        <time>2021-08-09T13:36:08Z</time>
      </trkpt>
      <trkpt lat="46.48807" lon="5.7567">
        <ele>631.6</ele>
        <time>2021-08-09T13:36:10Z</time>
      </trkpt>
      <trkpt lat="46.48793" lon="5.75631">
        <ele>631.8</ele>
        <time>2021-08-09T13:36:13Z</time>
      </trkpt>
      <trkpt lat="46.4878" lon="5.75579">
        <ele>631.2</ele>
        <time>2021-08-09T13:36:17Z</time>
      </trkpt>
      <trkpt lat="46.48779" lon="5.75565">
        <ele>631.2</ele>
        <time>2021-08-09T13:36:18Z</time>
      </trkpt>
      <trkpt lat="46.48781" lon="5.75538">
        <ele>631</ele>
        <time>2021-08-09T13:36:20Z</time>
      </trkpt>
      <trkpt lat="46.48784" lon="5.75525">
        <ele>631</ele>
        <time>2021-08-09T13:36:21Z</time>
      </trkpt>
      <trkpt lat="46.48805" lon="5.75457">
        <ele>629.8</ele>
        <time>2021-08-09T13:36:26Z</time>
      </trkpt>
      <trkpt lat="46.48814" lon="5.7543">
        <ele>629</ele>
        <time>2021-08-09T13:36:28Z</time>
      </trkpt>
      <trkpt lat="46.48819" lon="5.75418">
        <ele>628.4</ele>
        <time>2021-08-09T13:36:29Z</time>
      </trkpt>
      <trkpt lat="46.48833" lon="5.75378">
        <ele>627.2</ele>
        <time>2021-08-09T13:36:32Z</time>
      </trkpt>
      <trkpt lat="46.48841" lon="5.75349">
        <ele>626</ele>
        <time>2021-08-09T13:36:34Z</time>
      </trkpt>
      <trkpt lat="46.48849" lon="5.75321">
        <ele>625</ele>
        <time>2021-08-09T13:36:36Z</time>
      </trkpt>
      <trkpt lat="46.48853" lon="5.75308">
        <ele>624.6</ele>
        <time>2021-08-09T13:36:37Z</time>
      </trkpt>
      <trkpt lat="46.48871" lon="5.75239">
        <ele>623.6</ele>
        <time>2021-08-09T13:36:42Z</time>
      </trkpt>
      <trkpt lat="46.48878" lon="5.75212">
        <ele>623.2</ele>
        <time>2021-08-09T13:36:44Z</time>
      </trkpt>
      <trkpt lat="46.4889" lon="5.7516">
        <ele>622.6</ele>
        <time>2021-08-09T13:36:48Z</time>
      </trkpt>
      <trkpt lat="46.48896" lon="5.75134">
        <ele>622.4</ele>
        <time>2021-08-09T13:36:50Z</time>
      </trkpt>
      <trkpt lat="46.48914" lon="5.75058">
        <ele>622.4</ele>
        <time>2021-08-09T13:36:56Z</time>
      </trkpt>
      <trkpt lat="46.48923" lon="5.7502">
        <ele>622.2</ele>
        <time>2021-08-09T13:36:59Z</time>
      </trkpt>
      <trkpt lat="46.48933" lon="5.74969">
        <ele>622</ele>
        <time>2021-08-09T13:37:03Z</time>
      </trkpt>
      <trkpt lat="46.48938" lon="5.74958">
        <ele>622</ele>
        <time>2021-08-09T13:37:04Z</time>
      </trkpt>
      <trkpt lat="46.48943" lon="5.74947">
        <ele>622</ele>
        <time>2021-08-09T13:37:05Z</time>
      </trkpt>
      <trkpt lat="46.4895" lon="5.74938">
        <ele>621.8</ele>
        <time>2021-08-09T13:37:06Z</time>
      </trkpt>
      <trkpt lat="46.48957" lon="5.7493">
        <ele>621.8</ele>
        <time>2021-08-09T13:37:07Z</time>
      </trkpt>
      <trkpt lat="46.48991" lon="5.74891">
        <ele>620.8</ele>
        <time>2021-08-09T13:37:12Z</time>
      </trkpt>
      <trkpt lat="46.48997" lon="5.74881">
        <ele>620.8</ele>
        <time>2021-08-09T13:37:13Z</time>
      </trkpt>
      <trkpt lat="46.49017" lon="5.7484">
        <ele>620.6</ele>
        <time>2021-08-09T13:37:17Z</time>
      </trkpt>
      <trkpt lat="46.49025" lon="5.74818">
        <ele>620.6</ele>
        <time>2021-08-09T13:37:19Z</time>
      </trkpt>
      <trkpt lat="46.4905" lon="5.74739">
        <ele>620.2</ele>
        <time>2021-08-09T13:37:26Z</time>
      </trkpt>
      <trkpt lat="46.49061" lon="5.7472">
        <ele>620.2</ele>
        <time>2021-08-09T13:37:28Z</time>
      </trkpt>
      <trkpt lat="46.49073" lon="5.74704">
        <ele>620</ele>
        <time>2021-08-09T13:37:30Z</time>
      </trkpt>
      <trkpt lat="46.49112" lon="5.74653">
        <ele>619.6</ele>
        <time>2021-08-09T13:37:36Z</time>
      </trkpt>
      <trkpt lat="46.49152" lon="5.74595">
        <ele>620.2</ele>
        <time>2021-08-09T13:37:43Z</time>
      </trkpt>
      <trkpt lat="46.49167" lon="5.74554">
        <ele>620.2</ele>
        <time>2021-08-09T13:37:47Z</time>
      </trkpt>
      <trkpt lat="46.49187" lon="5.74511">
        <ele>619.6</ele>
        <time>2021-08-09T13:37:51Z</time>
      </trkpt>
      <trkpt lat="46.49194" lon="5.74487">
        <ele>618.8</ele>
        <time>2021-08-09T13:37:53Z</time>
      </trkpt>
      <trkpt lat="46.49197" lon="5.74471">
        <ele>618</ele>
        <time>2021-08-09T13:37:54Z</time>
      </trkpt>
      <trkpt lat="46.492" lon="5.74458">
        <ele>617.8</ele>
        <time>2021-08-09T13:37:55Z</time>
      </trkpt>
      <trkpt lat="46.4921" lon="5.74439">
        <ele>617</ele>
        <time>2021-08-09T13:37:57Z</time>
      </trkpt>
      <trkpt lat="46.49217" lon="5.74431">
        <ele>616.8</ele>
        <time>2021-08-09T13:37:58Z</time>
      </trkpt>
      <trkpt lat="46.49238" lon="5.74411">
        <ele>616.4</ele>
        <time>2021-08-09T13:38:01Z</time>
      </trkpt>
      <trkpt lat="46.49271" lon="5.74383">
        <ele>617</ele>
        <time>2021-08-09T13:38:06Z</time>
      </trkpt>
      <trkpt lat="46.49284" lon="5.74372">
        <ele>617.4</ele>
        <time>2021-08-09T13:38:08Z</time>
      </trkpt>
      <trkpt lat="46.49296" lon="5.74361">
        <ele>617.8</ele>
        <time>2021-08-09T13:38:10Z</time>
      </trkpt>
      <trkpt lat="46.49313" lon="5.74345">
        <ele>618.4</ele>
        <time>2021-08-09T13:38:13Z</time>
      </trkpt>
      <trkpt lat="46.49331" lon="5.74319">
        <ele>618.8</ele>
        <time>2021-08-09T13:38:17Z</time>
      </trkpt>
      <trkpt lat="46.49335" lon="5.74313">
        <ele>619.2</ele>
        <time>2021-08-09T13:38:18Z</time>
      </trkpt>
      <trkpt lat="46.49349" lon="5.74286">
        <ele>620.2</ele>
        <time>2021-08-09T13:38:22Z</time>
      </trkpt>
      <trkpt lat="46.49355" lon="5.74273">
        <ele>620.6</ele>
        <time>2021-08-09T13:38:24Z</time>
      </trkpt>
      <trkpt lat="46.49358" lon="5.74266">
        <ele>620.8</ele>
        <time>2021-08-09T13:38:25Z</time>
      </trkpt>
      <trkpt lat="46.4936" lon="5.74258">
        <ele>621.6</ele>
        <time>2021-08-09T13:38:26Z</time>
      </trkpt>
      <trkpt lat="46.49366" lon="5.74244">
        <ele>622</ele>
        <time>2021-08-09T13:38:28Z</time>
      </trkpt>
      <trkpt lat="46.49369" lon="5.74238">
        <ele>622.2</ele>
        <time>2021-08-09T13:38:29Z</time>
      </trkpt>
      <trkpt lat="46.49376" lon="5.74224">
        <ele>622.6</ele>
        <time>2021-08-09T13:38:31Z</time>
      </trkpt>
      <trkpt lat="46.4938" lon="5.74217">
        <ele>622.8</ele>
        <time>2021-08-09T13:38:32Z</time>
      </trkpt>
      <trkpt lat="46.49389" lon="5.74205">
        <ele>623.2</ele>
        <time>2021-08-09T13:38:34Z</time>
      </trkpt>
      <trkpt lat="46.49401" lon="5.74194">
        <ele>623.2</ele>
        <time>2021-08-09T13:38:36Z</time>
      </trkpt>
      <trkpt lat="46.49423" lon="5.7418">
        <ele>624</ele>
        <time>2021-08-09T13:38:40Z</time>
      </trkpt>
      <trkpt lat="46.49428" lon="5.74175">
        <ele>624.2</ele>
        <time>2021-08-09T13:38:41Z</time>
      </trkpt>
      <trkpt lat="46.49432" lon="5.7417">
        <ele>624.2</ele>
        <time>2021-08-09T13:38:42Z</time>
      </trkpt>
      <trkpt lat="46.49458" lon="5.7413">
        <ele>624.4</ele>
        <time>2021-08-09T13:38:48Z</time>
      </trkpt>
      <trkpt lat="46.49486" lon="5.74063">
        <ele>624.4</ele>
        <time>2021-08-09T13:38:56Z</time>
      </trkpt>
      <trkpt lat="46.49488" lon="5.74054">
        <ele>624.6</ele>
        <time>2021-08-09T13:38:57Z</time>
      </trkpt>
      <trkpt lat="46.49491" lon="5.74035">
        <ele>624.6</ele>
        <time>2021-08-09T13:38:59Z</time>
      </trkpt>
      <trkpt lat="46.4949" lon="5.74025">
        <ele>624.8</ele>
        <time>2021-08-09T13:39:00Z</time>
      </trkpt>
      <trkpt lat="46.49484" lon="5.73981">
        <ele>624.8</ele>
        <time>2021-08-09T13:39:04Z</time>
      </trkpt>
      <trkpt lat="46.49472" lon="5.73922">
        <ele>623.6</ele>
        <time>2021-08-09T13:39:09Z</time>
      </trkpt>
      <trkpt lat="46.49464" lon="5.73873">
        <ele>622.8</ele>
        <time>2021-08-09T13:39:13Z</time>
      </trkpt>
      <trkpt lat="46.4946" lon="5.73848">
        <ele>622.6</ele>
        <time>2021-08-09T13:39:15Z</time>
      </trkpt>
      <trkpt lat="46.4945" lon="5.73785">
        <ele>621.6</ele>
        <time>2021-08-09T13:39:20Z</time>
      </trkpt>
      <trkpt lat="46.49451" lon="5.73773">
        <ele>621.6</ele>
        <time>2021-08-09T13:39:21Z</time>
      </trkpt>
      <trkpt lat="46.49453" lon="5.7376">
        <ele>621.4</ele>
        <time>2021-08-09T13:39:22Z</time>
      </trkpt>
      <trkpt lat="46.49459" lon="5.73734">
        <ele>620.8</ele>
        <time>2021-08-09T13:39:24Z</time>
      </trkpt>
      <trkpt lat="46.49464" lon="5.73721">
        <ele>620</ele>
        <time>2021-08-09T13:39:25Z</time>
      </trkpt>
      <trkpt lat="46.49476" lon="5.73698">
        <ele>618.6</ele>
        <time>2021-08-09T13:39:27Z</time>
      </trkpt>
      <trkpt lat="46.49483" lon="5.73686">
        <ele>618</ele>
        <time>2021-08-09T13:39:28Z</time>
      </trkpt>
      <trkpt lat="46.4949" lon="5.73674">
        <ele>616.8</ele>
        <time>2021-08-09T13:39:29Z</time>
      </trkpt>
      <trkpt lat="46.49513" lon="5.73638">
        <ele>615</ele>
        <time>2021-08-09T13:39:32Z</time>
      </trkpt>
      <trkpt lat="46.49527" lon="5.73613">
        <ele>613.8</ele>
        <time>2021-08-09T13:39:34Z</time>
      </trkpt>
      <trkpt lat="46.49533" lon="5.736">
        <ele>613.4</ele>
        <time>2021-08-09T13:39:35Z</time>
      </trkpt>
      <trkpt lat="46.49539" lon="5.73587">
        <ele>612.4</ele>
        <time>2021-08-09T13:39:36Z</time>
      </trkpt>
      <trkpt lat="46.49547" lon="5.73559">
        <ele>611.4</ele>
        <time>2021-08-09T13:39:38Z</time>
      </trkpt>
      <trkpt lat="46.49551" lon="5.73544">
        <ele>611.2</ele>
        <time>2021-08-09T13:39:39Z</time>
      </trkpt>
      <trkpt lat="46.49557" lon="5.73514">
        <ele>610</ele>
        <time>2021-08-09T13:39:41Z</time>
      </trkpt>
      <trkpt lat="46.49569" lon="5.73468">
        <ele>608.8</ele>
        <time>2021-08-09T13:39:44Z</time>
      </trkpt>
      <trkpt lat="46.49575" lon="5.73455">
        <ele>608.2</ele>
        <time>2021-08-09T13:39:45Z</time>
      </trkpt>
      <trkpt lat="46.49584" lon="5.73444">
        <ele>607.8</ele>
        <time>2021-08-09T13:39:46Z</time>
      </trkpt>
      <trkpt lat="46.49602" lon="5.73427">
        <ele>606.4</ele>
        <time>2021-08-09T13:39:48Z</time>
      </trkpt>
      <trkpt lat="46.49625" lon="5.7341">
        <ele>604.4</ele>
        <time>2021-08-09T13:39:50Z</time>
      </trkpt>
      <trkpt lat="46.49646" lon="5.73393">
        <ele>603.2</ele>
        <time>2021-08-09T13:39:52Z</time>
      </trkpt>
      <trkpt lat="46.49656" lon="5.73383">
        <ele>603</ele>
        <time>2021-08-09T13:39:53Z</time>
      </trkpt>
      <trkpt lat="46.49665" lon="5.73372">
        <ele>601.6</ele>
        <time>2021-08-09T13:39:54Z</time>
      </trkpt>
      <trkpt lat="46.49672" lon="5.73362">
        <ele>600.6</ele>
        <time>2021-08-09T13:39:55Z</time>
      </trkpt>
      <trkpt lat="46.49679" lon="5.7335">
        <ele>600</ele>
        <time>2021-08-09T13:39:56Z</time>
      </trkpt>
      <trkpt lat="46.49685" lon="5.73337">
        <ele>599.4</ele>
        <time>2021-08-09T13:39:57Z</time>
      </trkpt>
      <trkpt lat="46.49708" lon="5.73285">
        <ele>598.4</ele>
        <time>2021-08-09T13:40:01Z</time>
      </trkpt>
      <trkpt lat="46.49714" lon="5.73274">
        <ele>598.2</ele>
        <time>2021-08-09T13:40:02Z</time>
      </trkpt>
      <trkpt lat="46.4972" lon="5.73264">
        <ele>598</ele>
        <time>2021-08-09T13:40:03Z</time>
      </trkpt>
      <trkpt lat="46.49737" lon="5.73229">
        <ele>597.6</ele>
        <time>2021-08-09T13:40:06Z</time>
      </trkpt>
      <trkpt lat="46.49745" lon="5.73207">
        <ele>597.4</ele>
        <time>2021-08-09T13:40:08Z</time>
      </trkpt>
      <trkpt lat="46.4975" lon="5.73196">
        <ele>597.4</ele>
        <time>2021-08-09T13:40:09Z</time>
      </trkpt>
      <trkpt lat="46.49755" lon="5.73188">
        <ele>597.2</ele>
        <time>2021-08-09T13:40:10Z</time>
      </trkpt>
      <trkpt lat="46.49763" lon="5.73178">
        <ele>597.2</ele>
        <time>2021-08-09T13:40:11Z</time>
      </trkpt>
      <trkpt lat="46.49778" lon="5.73165">
        <ele>596.6</ele>
        <time>2021-08-09T13:40:13Z</time>
      </trkpt>
      <trkpt lat="46.49792" lon="5.73151">
        <ele>596.2</ele>
        <time>2021-08-09T13:40:15Z</time>
      </trkpt>
      <trkpt lat="46.49813" lon="5.73128">
        <ele>595.8</ele>
        <time>2021-08-09T13:40:18Z</time>
      </trkpt>
      <trkpt lat="46.49831" lon="5.73103">
        <ele>595.4</ele>
        <time>2021-08-09T13:40:21Z</time>
      </trkpt>
      <trkpt lat="46.49839" lon="5.73083">
        <ele>595.4</ele>
        <time>2021-08-09T13:40:23Z</time>
      </trkpt>
      <trkpt lat="46.49848" lon="5.73061">
        <ele>595.4</ele>
        <time>2021-08-09T13:40:25Z</time>
      </trkpt>
      <trkpt lat="46.49855" lon="5.73041">
        <ele>595.2</ele>
        <time>2021-08-09T13:40:27Z</time>
      </trkpt>
      <trkpt lat="46.49858" lon="5.73025">
        <ele>595.2</ele>
        <time>2021-08-09T13:40:28Z</time>
      </trkpt>
      <trkpt lat="46.49859" lon="5.7301">
        <ele>594.8</ele>
        <time>2021-08-09T13:40:29Z</time>
      </trkpt>
      <trkpt lat="46.49859" lon="5.72983">
        <ele>594.4</ele>
        <time>2021-08-09T13:40:31Z</time>
      </trkpt>
      <trkpt lat="46.49859" lon="5.72949">
        <ele>593.4</ele>
        <time>2021-08-09T13:40:33Z</time>
      </trkpt>
      <trkpt lat="46.49858" lon="5.72936">
        <ele>592.2</ele>
        <time>2021-08-09T13:40:34Z</time>
      </trkpt>
      <trkpt lat="46.49857" lon="5.72906">
        <ele>591</ele>
        <time>2021-08-09T13:40:36Z</time>
      </trkpt>
      <trkpt lat="46.49856" lon="5.72891">
        <ele>590.6</ele>
        <time>2021-08-09T13:40:37Z</time>
      </trkpt>
      <trkpt lat="46.49846" lon="5.72847">
        <ele>590</ele>
        <time>2021-08-09T13:40:40Z</time>
      </trkpt>
      <trkpt lat="46.49844" lon="5.72833">
        <ele>589.8</ele>
        <time>2021-08-09T13:40:41Z</time>
      </trkpt>
      <trkpt lat="46.49841" lon="5.72804">
        <ele>588.8</ele>
        <time>2021-08-09T13:40:43Z</time>
      </trkpt>
      <trkpt lat="46.4984" lon="5.72789">
        <ele>588.4</ele>
        <time>2021-08-09T13:40:44Z</time>
      </trkpt>
      <trkpt lat="46.4984" lon="5.72774">
        <ele>587.6</ele>
        <time>2021-08-09T13:40:45Z</time>
      </trkpt>
      <trkpt lat="46.49841" lon="5.72762">
        <ele>587.2</ele>
        <time>2021-08-09T13:40:46Z</time>
      </trkpt>
      <trkpt lat="46.49844" lon="5.72748">
        <ele>586.8</ele>
        <time>2021-08-09T13:40:47Z</time>
      </trkpt>
      <trkpt lat="46.49849" lon="5.72733">
        <ele>586.4</ele>
        <time>2021-08-09T13:40:48Z</time>
      </trkpt>
      <trkpt lat="46.4986" lon="5.72711">
        <ele>585.8</ele>
        <time>2021-08-09T13:40:50Z</time>
      </trkpt>
      <trkpt lat="46.49867" lon="5.72692">
        <ele>585.4</ele>
        <time>2021-08-09T13:40:52Z</time>
      </trkpt>
      <trkpt lat="46.49881" lon="5.7265">
        <ele>584.8</ele>
        <time>2021-08-09T13:40:57Z</time>
      </trkpt>
      <trkpt lat="46.49881" lon="5.72636">
        <ele>584.4</ele>
        <time>2021-08-09T13:40:59Z</time>
      </trkpt>
      <trkpt lat="46.49879" lon="5.7263">
        <ele>584.4</ele>
        <time>2021-08-09T13:41:00Z</time>
      </trkpt>
      <trkpt lat="46.49876" lon="5.72625">
        <ele>584.4</ele>
        <time>2021-08-09T13:41:01Z</time>
      </trkpt>
      <trkpt lat="46.49861" lon="5.72612">
        <ele>584</ele>
        <time>2021-08-09T13:41:04Z</time>
      </trkpt>
      <trkpt lat="46.49856" lon="5.72607">
        <ele>584</ele>
        <time>2021-08-09T13:41:05Z</time>
      </trkpt>
      <trkpt lat="46.49849" lon="5.72598">
        <ele>583.8</ele>
        <time>2021-08-09T13:41:07Z</time>
      </trkpt>
      <trkpt lat="46.49847" lon="5.72598">
        <ele>583.8</ele>
        <time>2021-08-09T13:41:08Z</time>
      </trkpt>
      <trkpt lat="46.49847" lon="5.72604">
        <ele>583.6</ele>
        <time>2021-08-09T13:41:10Z</time>
      </trkpt>
      <trkpt lat="46.49862" lon="5.72617">
        <ele>583.4</ele>
        <time>2021-08-09T13:41:14Z</time>
      </trkpt>
      <trkpt lat="46.49875" lon="5.72632">
        <ele>583.4</ele>
        <time>2021-08-09T13:41:18Z</time>
      </trkpt>
      <trkpt lat="46.49876" lon="5.72636">
        <ele>583.4</ele>
        <time>2021-08-09T13:41:19Z</time>
      </trkpt>
      <trkpt lat="46.49878" lon="5.72638">
        <ele>583.6</ele>
        <time>2021-08-09T13:41:20Z</time>
      </trkpt>
      <trkpt lat="46.49884" lon="5.72635">
        <ele>583.6</ele>
        <time>2021-08-09T13:41:22Z</time>
      </trkpt>
      <trkpt lat="46.49887" lon="5.72629">
        <ele>583.8</ele>
        <time>2021-08-09T13:41:23Z</time>
      </trkpt>
      <trkpt lat="46.49895" lon="5.72613">
        <ele>584</ele>
        <time>2021-08-09T13:41:25Z</time>
      </trkpt>
      <trkpt lat="46.49902" lon="5.72599">
        <ele>584</ele>
        <time>2021-08-09T13:41:27Z</time>
      </trkpt>
      <trkpt lat="46.49909" lon="5.72581">
        <ele>583.8</ele>
        <time>2021-08-09T13:41:29Z</time>
      </trkpt>
      <trkpt lat="46.49912" lon="5.72571">
        <ele>583.8</ele>
        <time>2021-08-09T13:41:30Z</time>
      </trkpt>
      <trkpt lat="46.49913" lon="5.72563">
        <ele>583.6</ele>
        <time>2021-08-09T13:41:31Z</time>
      </trkpt>
      <trkpt lat="46.49914" lon="5.72544">
        <ele>583.2</ele>
        <time>2021-08-09T13:41:33Z</time>
      </trkpt>
      <trkpt lat="46.49914" lon="5.72532">
        <ele>583</ele>
        <time>2021-08-09T13:41:34Z</time>
      </trkpt>
      <trkpt lat="46.49911" lon="5.72501">
        <ele>582.2</ele>
        <time>2021-08-09T13:41:37Z</time>
      </trkpt>
      <trkpt lat="46.49911" lon="5.72478">
        <ele>581.8</ele>
        <time>2021-08-09T13:41:39Z</time>
      </trkpt>
      <trkpt lat="46.49912" lon="5.72467">
        <ele>581.8</ele>
        <time>2021-08-09T13:41:40Z</time>
      </trkpt>
      <trkpt lat="46.49918" lon="5.72379">
        <ele>581.4</ele>
        <time>2021-08-09T13:41:48Z</time>
      </trkpt>
      <trkpt lat="46.49921" lon="5.72325">
        <ele>580.8</ele>
        <time>2021-08-09T13:41:53Z</time>
      </trkpt>
      <trkpt lat="46.49921" lon="5.72282">
        <ele>580.6</ele>
        <time>2021-08-09T13:41:57Z</time>
      </trkpt>
      <trkpt lat="46.49921" lon="5.72262">
        <ele>580.6</ele>
        <time>2021-08-09T13:41:59Z</time>
      </trkpt>
      <trkpt lat="46.49924" lon="5.72244">
        <ele>580.4</ele>
        <time>2021-08-09T13:42:01Z</time>
      </trkpt>
      <trkpt lat="46.49934" lon="5.72205">
        <ele>580.6</ele>
        <time>2021-08-09T13:42:05Z</time>
      </trkpt>
      <trkpt lat="46.49934" lon="5.72171">
        <ele>580.4</ele>
        <time>2021-08-09T13:42:08Z</time>
      </trkpt>
      <trkpt lat="46.49935" lon="5.72155">
        <ele>580</ele>
        <time>2021-08-09T13:42:09Z</time>
      </trkpt>
      <trkpt lat="46.4994" lon="5.72122">
        <ele>579.6</ele>
        <time>2021-08-09T13:42:12Z</time>
      </trkpt>
      <trkpt lat="46.49944" lon="5.72112">
        <ele>579.4</ele>
        <time>2021-08-09T13:42:13Z</time>
      </trkpt>
      <trkpt lat="46.49954" lon="5.72081">
        <ele>579</ele>
        <time>2021-08-09T13:42:16Z</time>
      </trkpt>
      <trkpt lat="46.49972" lon="5.72032">
        <ele>579.2</ele>
        <time>2021-08-09T13:42:22Z</time>
      </trkpt>
      <trkpt lat="46.49984" lon="5.71995">
        <ele>580</ele>
        <time>2021-08-09T13:42:26Z</time>
      </trkpt>
      <trkpt lat="46.49993" lon="5.71967">
        <ele>581.2</ele>
        <time>2021-08-09T13:42:29Z</time>
      </trkpt>
      <trkpt lat="46.49995" lon="5.71957">
        <ele>581.2</ele>
        <time>2021-08-09T13:42:30Z</time>
      </trkpt>
      <trkpt lat="46.50015" lon="5.71897">
        <ele>581.6</ele>
        <time>2021-08-09T13:42:36Z</time>
      </trkpt>
      <trkpt lat="46.50024" lon="5.71881">
        <ele>581.2</ele>
        <time>2021-08-09T13:42:38Z</time>
      </trkpt>
      <trkpt lat="46.50035" lon="5.71866">
        <ele>581.2</ele>
        <time>2021-08-09T13:42:40Z</time>
      </trkpt>
      <trkpt lat="46.50073" lon="5.71834">
        <ele>580.6</ele>
        <time>2021-08-09T13:42:46Z</time>
      </trkpt>
      <trkpt lat="46.50105" lon="5.71809">
        <ele>580.2</ele>
        <time>2021-08-09T13:42:50Z</time>
      </trkpt>
      <trkpt lat="46.50113" lon="5.71802">
        <ele>580</ele>
        <time>2021-08-09T13:42:51Z</time>
      </trkpt>
      <trkpt lat="46.50122" lon="5.71795">
        <ele>579.8</ele>
        <time>2021-08-09T13:42:52Z</time>
      </trkpt>
      <trkpt lat="46.50147" lon="5.71769">
        <ele>578.2</ele>
        <time>2021-08-09T13:42:55Z</time>
      </trkpt>
      <trkpt lat="46.50165" lon="5.71751">
        <ele>576.8</ele>
        <time>2021-08-09T13:42:57Z</time>
      </trkpt>
      <trkpt lat="46.50172" lon="5.71743">
        <ele>576.2</ele>
        <time>2021-08-09T13:42:58Z</time>
      </trkpt>
      <trkpt lat="46.50181" lon="5.71732">
        <ele>575.2</ele>
        <time>2021-08-09T13:42:59Z</time>
      </trkpt>
      <trkpt lat="46.50191" lon="5.71718">
        <ele>574.2</ele>
        <time>2021-08-09T13:43:00Z</time>
      </trkpt>
      <trkpt lat="46.50209" lon="5.71695">
        <ele>573</ele>
        <time>2021-08-09T13:43:02Z</time>
      </trkpt>
      <trkpt lat="46.50225" lon="5.71673">
        <ele>571.6</ele>
        <time>2021-08-09T13:43:04Z</time>
      </trkpt>
      <trkpt lat="46.50245" lon="5.71645">
        <ele>570.2</ele>
        <time>2021-08-09T13:43:06Z</time>
      </trkpt>
      <trkpt lat="46.50255" lon="5.71632">
        <ele>569.2</ele>
        <time>2021-08-09T13:43:07Z</time>
      </trkpt>
      <trkpt lat="46.50272" lon="5.7161">
        <ele>567.2</ele>
        <time>2021-08-09T13:43:09Z</time>
      </trkpt>
      <trkpt lat="46.5029" lon="5.71584">
        <ele>565</ele>
        <time>2021-08-09T13:43:11Z</time>
      </trkpt>
      <trkpt lat="46.50311" lon="5.71557">
        <ele>563.6</ele>
        <time>2021-08-09T13:43:13Z</time>
      </trkpt>
      <trkpt lat="46.50327" lon="5.71534">
        <ele>562.2</ele>
        <time>2021-08-09T13:43:15Z</time>
      </trkpt>
      <trkpt lat="46.50339" lon="5.71519">
        <ele>561</ele>
        <time>2021-08-09T13:43:16Z</time>
      </trkpt>
      <trkpt lat="46.50357" lon="5.71494">
        <ele>559.4</ele>
        <time>2021-08-09T13:43:18Z</time>
      </trkpt>
      <trkpt lat="46.50384" lon="5.71457">
        <ele>557.8</ele>
        <time>2021-08-09T13:43:21Z</time>
      </trkpt>
      <trkpt lat="46.50416" lon="5.7141">
        <ele>556.4</ele>
        <time>2021-08-09T13:43:25Z</time>
      </trkpt>
      <trkpt lat="46.50433" lon="5.71382">
        <ele>555.6</ele>
        <time>2021-08-09T13:43:27Z</time>
      </trkpt>
      <trkpt lat="46.5044" lon="5.71369">
        <ele>555</ele>
        <time>2021-08-09T13:43:28Z</time>
      </trkpt>
      <trkpt lat="46.50465" lon="5.71316">
        <ele>554</ele>
        <time>2021-08-09T13:43:32Z</time>
      </trkpt>
      <trkpt lat="46.5047" lon="5.71303">
        <ele>553.8</ele>
        <time>2021-08-09T13:43:33Z</time>
      </trkpt>
      <trkpt lat="46.50493" lon="5.7125">
        <ele>553</ele>
        <time>2021-08-09T13:43:37Z</time>
      </trkpt>
      <trkpt lat="46.50504" lon="5.71225">
        <ele>552.2</ele>
        <time>2021-08-09T13:43:39Z</time>
      </trkpt>
      <trkpt lat="46.50515" lon="5.71199">
        <ele>551.2</ele>
        <time>2021-08-09T13:43:41Z</time>
      </trkpt>
      <trkpt lat="46.50526" lon="5.71173">
        <ele>550.2</ele>
        <time>2021-08-09T13:43:43Z</time>
      </trkpt>
      <trkpt lat="46.50543" lon="5.71134">
        <ele>549</ele>
        <time>2021-08-09T13:43:46Z</time>
      </trkpt>
      <trkpt lat="46.50555" lon="5.71107">
        <ele>547.8</ele>
        <time>2021-08-09T13:43:48Z</time>
      </trkpt>
      <trkpt lat="46.50579" lon="5.71052">
        <ele>546.8</ele>
        <time>2021-08-09T13:43:52Z</time>
      </trkpt>
      <trkpt lat="46.5059" lon="5.71026">
        <ele>546.2</ele>
        <time>2021-08-09T13:43:54Z</time>
      </trkpt>
      <trkpt lat="46.50595" lon="5.71013">
        <ele>545.8</ele>
        <time>2021-08-09T13:43:55Z</time>
      </trkpt>
      <trkpt lat="46.50619" lon="5.70965">
        <ele>544.8</ele>
        <time>2021-08-09T13:43:59Z</time>
      </trkpt>
      <trkpt lat="46.50626" lon="5.70953">
        <ele>544.6</ele>
        <time>2021-08-09T13:44:00Z</time>
      </trkpt>
      <trkpt lat="46.50659" lon="5.70899">
        <ele>543.6</ele>
        <time>2021-08-09T13:44:05Z</time>
      </trkpt>
      <trkpt lat="46.50678" lon="5.70867">
        <ele>543.4</ele>
        <time>2021-08-09T13:44:08Z</time>
      </trkpt>
      <trkpt lat="46.50698" lon="5.70837">
        <ele>542.4</ele>
        <time>2021-08-09T13:44:11Z</time>
      </trkpt>
      <trkpt lat="46.50736" lon="5.70776">
        <ele>541.4</ele>
        <time>2021-08-09T13:44:17Z</time>
      </trkpt>
      <trkpt lat="46.50769" lon="5.70725">
        <ele>540.4</ele>
        <time>2021-08-09T13:44:22Z</time>
      </trkpt>
      <trkpt lat="46.50796" lon="5.70683">
        <ele>539.6</ele>
        <time>2021-08-09T13:44:26Z</time>
      </trkpt>
      <trkpt lat="46.50802" lon="5.70673">
        <ele>539.4</ele>
        <time>2021-08-09T13:44:27Z</time>
      </trkpt>
      <trkpt lat="46.50835" lon="5.7062">
        <ele>538.4</ele>
        <time>2021-08-09T13:44:32Z</time>
      </trkpt>
      <trkpt lat="46.50862" lon="5.70577">
        <ele>537.6</ele>
        <time>2021-08-09T13:44:36Z</time>
      </trkpt>
      <trkpt lat="46.50875" lon="5.70556">
        <ele>537.2</ele>
        <time>2021-08-09T13:44:38Z</time>
      </trkpt>
      <trkpt lat="46.50908" lon="5.70503">
        <ele>536</ele>
        <time>2021-08-09T13:44:43Z</time>
      </trkpt>
      <trkpt lat="46.50935" lon="5.7046">
        <ele>535.2</ele>
        <time>2021-08-09T13:44:47Z</time>
      </trkpt>
      <trkpt lat="46.50942" lon="5.7045">
        <ele>535.2</ele>
        <time>2021-08-09T13:44:48Z</time>
      </trkpt>
      <trkpt lat="46.50975" lon="5.70397">
        <ele>533.8</ele>
        <time>2021-08-09T13:44:53Z</time>
      </trkpt>
      <trkpt lat="46.50995" lon="5.70366">
        <ele>533</ele>
        <time>2021-08-09T13:44:56Z</time>
      </trkpt>
      <trkpt lat="46.51002" lon="5.70355">
        <ele>532.6</ele>
        <time>2021-08-09T13:44:57Z</time>
      </trkpt>
      <trkpt lat="46.51038" lon="5.70292">
        <ele>531.8</ele>
        <time>2021-08-09T13:45:03Z</time>
      </trkpt>
      <trkpt lat="46.51043" lon="5.70282">
        <ele>532</ele>
        <time>2021-08-09T13:45:04Z</time>
      </trkpt>
      <trkpt lat="46.51071" lon="5.70213">
        <ele>532</ele>
        <time>2021-08-09T13:45:10Z</time>
      </trkpt>
      <trkpt lat="46.51085" lon="5.70176">
        <ele>531.6</ele>
        <time>2021-08-09T13:45:13Z</time>
      </trkpt>
      <trkpt lat="46.51113" lon="5.70101">
        <ele>530.8</ele>
        <time>2021-08-09T13:45:19Z</time>
      </trkpt>
      <trkpt lat="46.51122" lon="5.70075">
        <ele>530.6</ele>
        <time>2021-08-09T13:45:21Z</time>
      </trkpt>
      <trkpt lat="46.51132" lon="5.70049">
        <ele>530</ele>
        <time>2021-08-09T13:45:23Z</time>
      </trkpt>
      <trkpt lat="46.51143" lon="5.70021">
        <ele>529.2</ele>
        <time>2021-08-09T13:45:25Z</time>
      </trkpt>
      <trkpt lat="46.51166" lon="5.69955">
        <ele>528.2</ele>
        <time>2021-08-09T13:45:30Z</time>
      </trkpt>
      <trkpt lat="46.51171" lon="5.69942">
        <ele>527.8</ele>
        <time>2021-08-09T13:45:31Z</time>
      </trkpt>
      <trkpt lat="46.51182" lon="5.69912">
        <ele>527</ele>
        <time>2021-08-09T13:45:33Z</time>
      </trkpt>
      <trkpt lat="46.51195" lon="5.69872">
        <ele>525.8</ele>
        <time>2021-08-09T13:45:36Z</time>
      </trkpt>
      <trkpt lat="46.51205" lon="5.6984">
        <ele>525.4</ele>
        <time>2021-08-09T13:45:38Z</time>
      </trkpt>
      <trkpt lat="46.51214" lon="5.69798">
        <ele>524.8</ele>
        <time>2021-08-09T13:45:41Z</time>
      </trkpt>
      <trkpt lat="46.51223" lon="5.69749">
        <ele>523.6</ele>
        <time>2021-08-09T13:45:44Z</time>
      </trkpt>
      <trkpt lat="46.5123" lon="5.69683">
        <ele>522.6</ele>
        <time>2021-08-09T13:45:48Z</time>
      </trkpt>
      <trkpt lat="46.51231" lon="5.69666">
        <ele>522</ele>
        <time>2021-08-09T13:45:49Z</time>
      </trkpt>
      <trkpt lat="46.51233" lon="5.69629">
        <ele>521.4</ele>
        <time>2021-08-09T13:45:51Z</time>
      </trkpt>
      <trkpt lat="46.51232" lon="5.69564">
        <ele>520.8</ele>
        <time>2021-08-09T13:45:55Z</time>
      </trkpt>
      <trkpt lat="46.51231" lon="5.69548">
        <ele>520.4</ele>
        <time>2021-08-09T13:45:56Z</time>
      </trkpt>
      <trkpt lat="46.51227" lon="5.69503">
        <ele>519.2</ele>
        <time>2021-08-09T13:45:59Z</time>
      </trkpt>
      <trkpt lat="46.51223" lon="5.69469">
        <ele>518.4</ele>
        <time>2021-08-09T13:46:01Z</time>
      </trkpt>
      <trkpt lat="46.51221" lon="5.69456">
        <ele>518</ele>
        <time>2021-08-09T13:46:02Z</time>
      </trkpt>
      <trkpt lat="46.51203" lon="5.69372">
        <ele>516.4</ele>
        <time>2021-08-09T13:46:07Z</time>
      </trkpt>
      <trkpt lat="46.512" lon="5.69359">
        <ele>516</ele>
        <time>2021-08-09T13:46:08Z</time>
      </trkpt>
      <trkpt lat="46.51192" lon="5.69322">
        <ele>515</ele>
        <time>2021-08-09T13:46:10Z</time>
      </trkpt>
      <trkpt lat="46.51187" lon="5.6929">
        <ele>513</ele>
        <time>2021-08-09T13:46:12Z</time>
      </trkpt>
      <trkpt lat="46.51184" lon="5.69269">
        <ele>512.2</ele>
        <time>2021-08-09T13:46:13Z</time>
      </trkpt>
      <trkpt lat="46.51182" lon="5.6925">
        <ele>511.2</ele>
        <time>2021-08-09T13:46:14Z</time>
      </trkpt>
      <trkpt lat="46.51181" lon="5.69216">
        <ele>509.4</ele>
        <time>2021-08-09T13:46:16Z</time>
      </trkpt>
      <trkpt lat="46.5118" lon="5.69196">
        <ele>508.8</ele>
        <time>2021-08-09T13:46:17Z</time>
      </trkpt>
      <trkpt lat="46.51181" lon="5.69177">
        <ele>507.6</ele>
        <time>2021-08-09T13:46:18Z</time>
      </trkpt>
      <trkpt lat="46.51182" lon="5.69157">
        <ele>506.4</ele>
        <time>2021-08-09T13:46:19Z</time>
      </trkpt>
      <trkpt lat="46.51187" lon="5.69118">
        <ele>504.6</ele>
        <time>2021-08-09T13:46:21Z</time>
      </trkpt>
      <trkpt lat="46.51195" lon="5.69076">
        <ele>502.4</ele>
        <time>2021-08-09T13:46:23Z</time>
      </trkpt>
      <trkpt lat="46.51206" lon="5.69039">
        <ele>500</ele>
        <time>2021-08-09T13:46:25Z</time>
      </trkpt>
      <trkpt lat="46.5121" lon="5.69024">
        <ele>498.4</ele>
        <time>2021-08-09T13:46:26Z</time>
      </trkpt>
      <trkpt lat="46.51215" lon="5.69006">
        <ele>497.4</ele>
        <time>2021-08-09T13:46:27Z</time>
      </trkpt>
      <trkpt lat="46.51221" lon="5.68987">
        <ele>496</ele>
        <time>2021-08-09T13:46:28Z</time>
      </trkpt>
      <trkpt lat="46.51232" lon="5.6895">
        <ele>494</ele>
        <time>2021-08-09T13:46:30Z</time>
      </trkpt>
      <trkpt lat="46.51241" lon="5.68912">
        <ele>492.2</ele>
        <time>2021-08-09T13:46:32Z</time>
      </trkpt>
      <trkpt lat="46.51245" lon="5.68892">
        <ele>491.2</ele>
        <time>2021-08-09T13:46:33Z</time>
      </trkpt>
      <trkpt lat="46.51251" lon="5.68852">
        <ele>489.6</ele>
        <time>2021-08-09T13:46:35Z</time>
      </trkpt>
      <trkpt lat="46.51257" lon="5.68809">
        <ele>488</ele>
        <time>2021-08-09T13:46:37Z</time>
      </trkpt>
      <trkpt lat="46.51262" lon="5.68769">
        <ele>485.8</ele>
        <time>2021-08-09T13:46:39Z</time>
      </trkpt>
      <trkpt lat="46.51268" lon="5.68729">
        <ele>484.4</ele>
        <time>2021-08-09T13:46:41Z</time>
      </trkpt>
      <trkpt lat="46.51272" lon="5.68709">
        <ele>482.8</ele>
        <time>2021-08-09T13:46:42Z</time>
      </trkpt>
      <trkpt lat="46.51278" lon="5.68674">
        <ele>481.2</ele>
        <time>2021-08-09T13:46:44Z</time>
      </trkpt>
      <trkpt lat="46.51282" lon="5.68654">
        <ele>480.4</ele>
        <time>2021-08-09T13:46:45Z</time>
      </trkpt>
      <trkpt lat="46.51286" lon="5.68631">
        <ele>479.4</ele>
        <time>2021-08-09T13:46:46Z</time>
      </trkpt>
      <trkpt lat="46.5129" lon="5.68612">
        <ele>478.2</ele>
        <time>2021-08-09T13:46:47Z</time>
      </trkpt>
      <trkpt lat="46.51297" lon="5.68577">
        <ele>476.4</ele>
        <time>2021-08-09T13:46:49Z</time>
      </trkpt>
      <trkpt lat="46.51306" lon="5.68539">
        <ele>474.6</ele>
        <time>2021-08-09T13:46:51Z</time>
      </trkpt>
      <trkpt lat="46.51314" lon="5.685">
        <ele>472.8</ele>
        <time>2021-08-09T13:46:53Z</time>
      </trkpt>
      <trkpt lat="46.51322" lon="5.68462">
        <ele>471</ele>
        <time>2021-08-09T13:46:55Z</time>
      </trkpt>
      <trkpt lat="46.51335" lon="5.68405">
        <ele>468.8</ele>
        <time>2021-08-09T13:46:58Z</time>
      </trkpt>
      <trkpt lat="46.51345" lon="5.68363">
        <ele>467.2</ele>
        <time>2021-08-09T13:47:00Z</time>
      </trkpt>
      <trkpt lat="46.51355" lon="5.68325">
        <ele>465.2</ele>
        <time>2021-08-09T13:47:02Z</time>
      </trkpt>
      <trkpt lat="46.51364" lon="5.68292">
        <ele>463.8</ele>
        <time>2021-08-09T13:47:04Z</time>
      </trkpt>
      <trkpt lat="46.51369" lon="5.68274">
        <ele>462.4</ele>
        <time>2021-08-09T13:47:05Z</time>
      </trkpt>
      <trkpt lat="46.51379" lon="5.68235">
        <ele>461</ele>
        <time>2021-08-09T13:47:07Z</time>
      </trkpt>
      <trkpt lat="46.51387" lon="5.68204">
        <ele>459.6</ele>
        <time>2021-08-09T13:47:09Z</time>
      </trkpt>
      <trkpt lat="46.51391" lon="5.68183">
        <ele>459.4</ele>
        <time>2021-08-09T13:47:10Z</time>
      </trkpt>
      <trkpt lat="46.51406" lon="5.681">
        <ele>458.8</ele>
        <time>2021-08-09T13:47:15Z</time>
      </trkpt>
      <trkpt lat="46.51408" lon="5.68084">
        <ele>458.8</ele>
        <time>2021-08-09T13:47:16Z</time>
      </trkpt>
      <trkpt lat="46.5141" lon="5.68067">
        <ele>458.6</ele>
        <time>2021-08-09T13:47:17Z</time>
      </trkpt>
      <trkpt lat="46.51417" lon="5.67989">
        <ele>458.4</ele>
        <time>2021-08-09T13:47:22Z</time>
      </trkpt>
      <trkpt lat="46.51429" lon="5.67914">
        <ele>457.8</ele>
        <time>2021-08-09T13:47:27Z</time>
      </trkpt>
      <trkpt lat="46.51433" lon="5.67899">
        <ele>457.6</ele>
        <time>2021-08-09T13:47:28Z</time>
      </trkpt>
      <trkpt lat="46.51447" lon="5.67856">
        <ele>457.4</ele>
        <time>2021-08-09T13:47:31Z</time>
      </trkpt>
      <trkpt lat="46.5148" lon="5.67779">
        <ele>456.4</ele>
        <time>2021-08-09T13:47:37Z</time>
      </trkpt>
      <trkpt lat="46.51486" lon="5.67768">
        <ele>456.2</ele>
        <time>2021-08-09T13:47:38Z</time>
      </trkpt>
      <trkpt lat="46.51518" lon="5.67695">
        <ele>455.6</ele>
        <time>2021-08-09T13:47:44Z</time>
      </trkpt>
      <trkpt lat="46.51546" lon="5.67633">
        <ele>455</ele>
        <time>2021-08-09T13:47:49Z</time>
      </trkpt>
      <trkpt lat="46.51578" lon="5.67559">
        <ele>454.8</ele>
        <time>2021-08-09T13:47:55Z</time>
      </trkpt>
      <trkpt lat="46.51594" lon="5.67522">
        <ele>454.6</ele>
        <time>2021-08-09T13:47:58Z</time>
      </trkpt>
      <trkpt lat="46.51616" lon="5.67473">
        <ele>454.4</ele>
        <time>2021-08-09T13:48:02Z</time>
      </trkpt>
      <trkpt lat="46.51649" lon="5.67399">
        <ele>454.2</ele>
        <time>2021-08-09T13:48:08Z</time>
      </trkpt>
      <trkpt lat="46.51659" lon="5.67377">
        <ele>453.8</ele>
        <time>2021-08-09T13:48:10Z</time>
      </trkpt>
      <trkpt lat="46.51664" lon="5.67366">
        <ele>453.6</ele>
        <time>2021-08-09T13:48:11Z</time>
      </trkpt>
      <trkpt lat="46.51672" lon="5.67353">
        <ele>453</ele>
        <time>2021-08-09T13:48:12Z</time>
      </trkpt>
      <trkpt lat="46.5168" lon="5.67344">
        <ele>452.8</ele>
        <time>2021-08-09T13:48:13Z</time>
      </trkpt>
      <trkpt lat="46.51688" lon="5.67336">
        <ele>452.4</ele>
        <time>2021-08-09T13:48:14Z</time>
      </trkpt>
      <trkpt lat="46.51721" lon="5.67314">
        <ele>452.2</ele>
        <time>2021-08-09T13:48:18Z</time>
      </trkpt>
      <trkpt lat="46.51771" lon="5.67277">
        <ele>451.8</ele>
        <time>2021-08-09T13:48:24Z</time>
      </trkpt>
      <trkpt lat="46.51787" lon="5.67264">
        <ele>451.6</ele>
        <time>2021-08-09T13:48:26Z</time>
      </trkpt>
      <trkpt lat="46.51835" lon="5.67222">
        <ele>451.2</ele>
        <time>2021-08-09T13:48:32Z</time>
      </trkpt>
      <trkpt lat="46.51856" lon="5.67201">
        <ele>451</ele>
        <time>2021-08-09T13:48:35Z</time>
      </trkpt>
      <trkpt lat="46.51903" lon="5.67153">
        <ele>451</ele>
        <time>2021-08-09T13:48:42Z</time>
      </trkpt>
      <trkpt lat="46.51928" lon="5.67125">
        <ele>452.4</ele>
        <time>2021-08-09T13:48:47Z</time>
      </trkpt>
      <trkpt lat="46.51936" lon="5.67115">
        <ele>453.2</ele>
        <time>2021-08-09T13:48:49Z</time>
      </trkpt>
      <trkpt lat="46.51945" lon="5.67099">
        <ele>454.2</ele>
        <time>2021-08-09T13:48:52Z</time>
      </trkpt>
      <trkpt lat="46.51954" lon="5.67083">
        <ele>455.4</ele>
        <time>2021-08-09T13:48:55Z</time>
      </trkpt>
      <trkpt lat="46.5196" lon="5.67071">
        <ele>456</ele>
        <time>2021-08-09T13:48:57Z</time>
      </trkpt>
      <trkpt lat="46.51965" lon="5.6706">
        <ele>456.4</ele>
        <time>2021-08-09T13:48:59Z</time>
      </trkpt>
      <trkpt lat="46.51967" lon="5.67053">
        <ele>456.8</ele>
        <time>2021-08-09T13:49:00Z</time>
      </trkpt>
      <trkpt lat="46.51971" lon="5.67039">
        <ele>457.4</ele>
        <time>2021-08-09T13:49:02Z</time>
      </trkpt>
      <trkpt lat="46.51973" lon="5.67033">
        <ele>457.8</ele>
        <time>2021-08-09T13:49:03Z</time>
      </trkpt>
      <trkpt lat="46.51976" lon="5.67019">
        <ele>458.6</ele>
        <time>2021-08-09T13:49:05Z</time>
      </trkpt>
      <trkpt lat="46.51977" lon="5.67012">
        <ele>458.8</ele>
        <time>2021-08-09T13:49:06Z</time>
      </trkpt>
      <trkpt lat="46.51978" lon="5.66998">
        <ele>459.6</ele>
        <time>2021-08-09T13:49:08Z</time>
      </trkpt>
      <trkpt lat="46.5198" lon="5.66986">
        <ele>460</ele>
        <time>2021-08-09T13:49:10Z</time>
      </trkpt>
      <trkpt lat="46.51983" lon="5.66965">
        <ele>460.8</ele>
        <time>2021-08-09T13:49:13Z</time>
      </trkpt>
      <trkpt lat="46.51986" lon="5.66943">
        <ele>461.8</ele>
        <time>2021-08-09T13:49:16Z</time>
      </trkpt>
      <trkpt lat="46.51986" lon="5.66936">
        <ele>462.4</ele>
        <time>2021-08-09T13:49:17Z</time>
      </trkpt>
      <trkpt lat="46.51992" lon="5.66907">
        <ele>463.4</ele>
        <time>2021-08-09T13:49:21Z</time>
      </trkpt>
      <trkpt lat="46.51994" lon="5.669">
        <ele>463.8</ele>
        <time>2021-08-09T13:49:22Z</time>
      </trkpt>
      <trkpt lat="46.52" lon="5.66879">
        <ele>464.4</ele>
        <time>2021-08-09T13:49:25Z</time>
      </trkpt>
      <trkpt lat="46.52011" lon="5.66851">
        <ele>465</ele>
        <time>2021-08-09T13:49:29Z</time>
      </trkpt>
      <trkpt lat="46.52014" lon="5.66844">
        <ele>465.2</ele>
        <time>2021-08-09T13:49:30Z</time>
      </trkpt>
      <trkpt lat="46.52018" lon="5.66838">
        <ele>465.4</ele>
        <time>2021-08-09T13:49:31Z</time>
      </trkpt>
      <trkpt lat="46.52035" lon="5.66811">
        <ele>465.6</ele>
        <time>2021-08-09T13:49:35Z</time>
      </trkpt>
      <trkpt lat="46.52071" lon="5.66768">
        <ele>465.4</ele>
        <time>2021-08-09T13:49:42Z</time>
      </trkpt>
      <trkpt lat="46.52111" lon="5.6672">
        <ele>464.8</ele>
        <time>2021-08-09T13:49:49Z</time>
      </trkpt>
      <trkpt lat="46.5213" lon="5.66695">
        <ele>464</ele>
        <time>2021-08-09T13:49:52Z</time>
      </trkpt>
      <trkpt lat="46.52154" lon="5.66665">
        <ele>463</ele>
        <time>2021-08-09T13:49:56Z</time>
      </trkpt>
      <trkpt lat="46.52181" lon="5.66631">
        <ele>461.8</ele>
        <time>2021-08-09T13:50:00Z</time>
      </trkpt>
      <trkpt lat="46.52212" lon="5.66592">
        <ele>460.6</ele>
        <time>2021-08-09T13:50:05Z</time>
      </trkpt>
      <trkpt lat="46.52248" lon="5.66546">
        <ele>461</ele>
        <time>2021-08-09T13:50:12Z</time>
      </trkpt>
      <trkpt lat="46.52262" lon="5.66528">
        <ele>461.8</ele>
        <time>2021-08-09T13:50:15Z</time>
      </trkpt>
      <trkpt lat="46.52275" lon="5.66513">
        <ele>462.4</ele>
        <time>2021-08-09T13:50:18Z</time>
      </trkpt>
      <trkpt lat="46.52279" lon="5.66508">
        <ele>463</ele>
        <time>2021-08-09T13:50:19Z</time>
      </trkpt>
      <trkpt lat="46.52293" lon="5.66488">
        <ele>464.2</ele>
        <time>2021-08-09T13:50:23Z</time>
      </trkpt>
      <trkpt lat="46.52297" lon="5.66483">
        <ele>464.8</ele>
        <time>2021-08-09T13:50:24Z</time>
      </trkpt>
      <trkpt lat="46.52304" lon="5.66474">
        <ele>465.6</ele>
        <time>2021-08-09T13:50:26Z</time>
      </trkpt>
      <trkpt lat="46.52307" lon="5.66469">
        <ele>465.8</ele>
        <time>2021-08-09T13:50:27Z</time>
      </trkpt>
      <trkpt lat="46.52313" lon="5.6646">
        <ele>467</ele>
        <time>2021-08-09T13:50:29Z</time>
      </trkpt>
      <trkpt lat="46.5232" lon="5.66451">
        <ele>467.8</ele>
        <time>2021-08-09T13:50:31Z</time>
      </trkpt>
      <trkpt lat="46.52323" lon="5.66446">
        <ele>468</ele>
        <time>2021-08-09T13:50:32Z</time>
      </trkpt>
      <trkpt lat="46.52333" lon="5.66433">
        <ele>469.4</ele>
        <time>2021-08-09T13:50:35Z</time>
      </trkpt>
      <trkpt lat="46.52339" lon="5.66425">
        <ele>470</ele>
        <time>2021-08-09T13:50:37Z</time>
      </trkpt>
      <trkpt lat="46.52345" lon="5.66416">
        <ele>470.4</ele>
        <time>2021-08-09T13:50:39Z</time>
      </trkpt>
      <trkpt lat="46.52349" lon="5.6641">
        <ele>470.8</ele>
        <time>2021-08-09T13:50:40Z</time>
      </trkpt>
      <trkpt lat="46.52355" lon="5.664">
        <ele>471.6</ele>
        <time>2021-08-09T13:50:42Z</time>
      </trkpt>
      <trkpt lat="46.5236" lon="5.6639">
        <ele>471.8</ele>
        <time>2021-08-09T13:50:44Z</time>
      </trkpt>
      <trkpt lat="46.52371" lon="5.66372">
        <ele>472.6</ele>
        <time>2021-08-09T13:50:47Z</time>
      </trkpt>
      <trkpt lat="46.52381" lon="5.66351">
        <ele>473.2</ele>
        <time>2021-08-09T13:50:50Z</time>
      </trkpt>
      <trkpt lat="46.52393" lon="5.66323">
        <ele>474</ele>
        <time>2021-08-09T13:50:54Z</time>
      </trkpt>
      <trkpt lat="46.52407" lon="5.66292">
        <ele>474.6</ele>
        <time>2021-08-09T13:50:58Z</time>
      </trkpt>
      <trkpt lat="46.52423" lon="5.66261">
        <ele>475.2</ele>
        <time>2021-08-09T13:51:02Z</time>
      </trkpt>
      <trkpt lat="46.52438" lon="5.66228">
        <ele>475.6</ele>
        <time>2021-08-09T13:51:06Z</time>
      </trkpt>
      <trkpt lat="46.52464" lon="5.66172">
        <ele>476.4</ele>
        <time>2021-08-09T13:51:13Z</time>
      </trkpt>
      <trkpt lat="46.52469" lon="5.66162">
        <ele>476.2</ele>
        <time>2021-08-09T13:51:14Z</time>
      </trkpt>
      <trkpt lat="46.52494" lon="5.66107">
        <ele>477.4</ele>
        <time>2021-08-09T13:51:21Z</time>
      </trkpt>
      <trkpt lat="46.52521" lon="5.66049">
        <ele>478</ele>
        <time>2021-08-09T13:51:28Z</time>
      </trkpt>
      <trkpt lat="46.52551" lon="5.65985">
        <ele>478.4</ele>
        <time>2021-08-09T13:51:36Z</time>
      </trkpt>
      <trkpt lat="46.52555" lon="5.65977">
        <ele>478.4</ele>
        <time>2021-08-09T13:51:37Z</time>
      </trkpt>
      <trkpt lat="46.52583" lon="5.65921">
        <ele>479.4</ele>
        <time>2021-08-09T13:51:44Z</time>
      </trkpt>
      <trkpt lat="46.52586" lon="5.65915">
        <ele>479.6</ele>
        <time>2021-08-09T13:51:45Z</time>
      </trkpt>
      <trkpt lat="46.52605" lon="5.65875">
        <ele>480.8</ele>
        <time>2021-08-09T13:51:50Z</time>
      </trkpt>
      <trkpt lat="46.52612" lon="5.65861">
        <ele>481.2</ele>
        <time>2021-08-09T13:51:52Z</time>
      </trkpt>
      <trkpt lat="46.52633" lon="5.65813">
        <ele>482</ele>
        <time>2021-08-09T13:51:58Z</time>
      </trkpt>
      <trkpt lat="46.5264" lon="5.65797">
        <ele>482</ele>
        <time>2021-08-09T13:52:00Z</time>
      </trkpt>
      <trkpt lat="46.52655" lon="5.65754">
        <ele>483</ele>
        <time>2021-08-09T13:52:05Z</time>
      </trkpt>
      <trkpt lat="46.52665" lon="5.65719">
        <ele>483.6</ele>
        <time>2021-08-09T13:52:09Z</time>
      </trkpt>
      <trkpt lat="46.52673" lon="5.65683">
        <ele>484.2</ele>
        <time>2021-08-09T13:52:13Z</time>
      </trkpt>
      <trkpt lat="46.52681" lon="5.65636">
        <ele>485.4</ele>
        <time>2021-08-09T13:52:18Z</time>
      </trkpt>
      <trkpt lat="46.52682" lon="5.65627">
        <ele>485.6</ele>
        <time>2021-08-09T13:52:19Z</time>
      </trkpt>
      <trkpt lat="46.52687" lon="5.65584">
        <ele>486.4</ele>
        <time>2021-08-09T13:52:24Z</time>
      </trkpt>
      <trkpt lat="46.52694" lon="5.65522">
        <ele>487.8</ele>
        <time>2021-08-09T13:52:31Z</time>
      </trkpt>
      <trkpt lat="46.52696" lon="5.65496">
        <ele>489.2</ele>
        <time>2021-08-09T13:52:34Z</time>
      </trkpt>
      <trkpt lat="46.52699" lon="5.6546">
        <ele>490.2</ele>
        <time>2021-08-09T13:52:38Z</time>
      </trkpt>
      <trkpt lat="46.52701" lon="5.65427">
        <ele>491.4</ele>
        <time>2021-08-09T13:52:42Z</time>
      </trkpt>
      <trkpt lat="46.52704" lon="5.65379">
        <ele>492.8</ele>
        <time>2021-08-09T13:52:48Z</time>
      </trkpt>
      <trkpt lat="46.52705" lon="5.65362">
        <ele>493.4</ele>
        <time>2021-08-09T13:52:50Z</time>
      </trkpt>
      <trkpt lat="46.52707" lon="5.65339">
        <ele>493.6</ele>
        <time>2021-08-09T13:52:53Z</time>
      </trkpt>
      <trkpt lat="46.52708" lon="5.65331">
        <ele>493.8</ele>
        <time>2021-08-09T13:52:54Z</time>
      </trkpt>
      <trkpt lat="46.52711" lon="5.65289">
        <ele>495</ele>
        <time>2021-08-09T13:52:59Z</time>
      </trkpt>
      <trkpt lat="46.52713" lon="5.65249">
        <ele>496.2</ele>
        <time>2021-08-09T13:53:04Z</time>
      </trkpt>
      <trkpt lat="46.52716" lon="5.65209">
        <ele>498</ele>
        <time>2021-08-09T13:53:09Z</time>
      </trkpt>
      <trkpt lat="46.52718" lon="5.65187">
        <ele>498.8</ele>
        <time>2021-08-09T13:53:12Z</time>
      </trkpt>
      <trkpt lat="46.52719" lon="5.65177">
        <ele>499</ele>
        <time>2021-08-09T13:53:13Z</time>
      </trkpt>
      <trkpt lat="46.52723" lon="5.65137">
        <ele>500.4</ele>
        <time>2021-08-09T13:53:18Z</time>
      </trkpt>
      <trkpt lat="46.52725" lon="5.65099">
        <ele>501.6</ele>
        <time>2021-08-09T13:53:23Z</time>
      </trkpt>
      <trkpt lat="46.52726" lon="5.65082">
        <ele>502</ele>
        <time>2021-08-09T13:53:25Z</time>
      </trkpt>
      <trkpt lat="46.52729" lon="5.65042">
        <ele>502.8</ele>
        <time>2021-08-09T13:53:29Z</time>
      </trkpt>
      <trkpt lat="46.52731" lon="5.65017">
        <ele>504</ele>
        <time>2021-08-09T13:53:32Z</time>
      </trkpt>
      <trkpt lat="46.52734" lon="5.64979">
        <ele>504.8</ele>
        <time>2021-08-09T13:53:37Z</time>
      </trkpt>
      <trkpt lat="46.52735" lon="5.64971">
        <ele>505</ele>
        <time>2021-08-09T13:53:38Z</time>
      </trkpt>
      <trkpt lat="46.52737" lon="5.64939">
        <ele>506.2</ele>
        <time>2021-08-09T13:53:43Z</time>
      </trkpt>
      <trkpt lat="46.52741" lon="5.64898">
        <ele>507.4</ele>
        <time>2021-08-09T13:53:48Z</time>
      </trkpt>
      <trkpt lat="46.52743" lon="5.64866">
        <ele>508</ele>
        <time>2021-08-09T13:53:51Z</time>
      </trkpt>
      <trkpt lat="46.52744" lon="5.6485">
        <ele>509</ele>
        <time>2021-08-09T13:53:53Z</time>
      </trkpt>
      <trkpt lat="46.52747" lon="5.64826">
        <ele>510</ele>
        <time>2021-08-09T13:53:57Z</time>
      </trkpt>
      <trkpt lat="46.52751" lon="5.64758">
        <ele>511.4</ele>
        <time>2021-08-09T13:54:04Z</time>
      </trkpt>
      <trkpt lat="46.52752" lon="5.64734">
        <ele>512.4</ele>
        <time>2021-08-09T13:54:07Z</time>
      </trkpt>
      <trkpt lat="46.52755" lon="5.64692">
        <ele>513.6</ele>
        <time>2021-08-09T13:54:12Z</time>
      </trkpt>
      <trkpt lat="46.52757" lon="5.64667">
        <ele>514.8</ele>
        <time>2021-08-09T13:54:16Z</time>
      </trkpt>
      <trkpt lat="46.52758" lon="5.6465">
        <ele>515</ele>
        <time>2021-08-09T13:54:17Z</time>
      </trkpt>
      <trkpt lat="46.52763" lon="5.64598">
        <ele>516</ele>
        <time>2021-08-09T13:54:23Z</time>
      </trkpt>
      <trkpt lat="46.52767" lon="5.64545">
        <ele>517</ele>
        <time>2021-08-09T13:54:29Z</time>
      </trkpt>
      <trkpt lat="46.52767" lon="5.64545">
        <ele>517.2</ele>
        <time>2021-08-09T13:54:30Z</time>
      </trkpt>
      <trkpt lat="46.52771" lon="5.64482">
        <ele>518.2</ele>
        <time>2021-08-09T13:54:36Z</time>
      </trkpt>
      <trkpt lat="46.52773" lon="5.64464">
        <ele>518.4</ele>
        <time>2021-08-09T13:54:38Z</time>
      </trkpt>
      <trkpt lat="46.52777" lon="5.64416">
        <ele>519.4</ele>
        <time>2021-08-09T13:54:43Z</time>
      </trkpt>
      <trkpt lat="46.52781" lon="5.64357">
        <ele>520.4</ele>
        <time>2021-08-09T13:54:49Z</time>
      </trkpt>
      <trkpt lat="46.52783" lon="5.64337">
        <ele>520.6</ele>
        <time>2021-08-09T13:54:51Z</time>
      </trkpt>
      <trkpt lat="46.52787" lon="5.64257">
        <ele>521</ele>
        <time>2021-08-09T13:54:59Z</time>
      </trkpt>
      <trkpt lat="46.52788" lon="5.64246">
        <ele>521</ele>
        <time>2021-08-09T13:55:00Z</time>
      </trkpt>
      <trkpt lat="46.52785" lon="5.6416">
        <ele>521.4</ele>
        <time>2021-08-09T13:55:08Z</time>
      </trkpt>
      <trkpt lat="46.52769" lon="5.64083">
        <ele>521.6</ele>
        <time>2021-08-09T13:55:15Z</time>
      </trkpt>
      <trkpt lat="46.52755" lon="5.64042">
        <ele>521.8</ele>
        <time>2021-08-09T13:55:19Z</time>
      </trkpt>
      <trkpt lat="46.5275" lon="5.64033">
        <ele>521.8</ele>
        <time>2021-08-09T13:55:21Z</time>
      </trkpt>
      <trkpt lat="46.52713" lon="5.63975">
        <ele>522</ele>
        <time>2021-08-09T13:55:27Z</time>
      </trkpt>
      <trkpt lat="46.52681" lon="5.6393">
        <ele>522.4</ele>
        <time>2021-08-09T13:55:33Z</time>
      </trkpt>
      <trkpt lat="46.52676" lon="5.63922">
        <ele>522.6</ele>
        <time>2021-08-09T13:55:34Z</time>
      </trkpt>
      <trkpt lat="46.52676" lon="5.63922">
        <ele>523</ele>
        <time>2021-08-09T13:55:35Z</time>
      </trkpt>
      <trkpt lat="46.52668" lon="5.63904">
        <ele>523.4</ele>
        <time>2021-08-09T13:55:36Z</time>
      </trkpt>
      <trkpt lat="46.52661" lon="5.63883">
        <ele>523.8</ele>
        <time>2021-08-09T13:55:38Z</time>
      </trkpt>
      <trkpt lat="46.52659" lon="5.63876">
        <ele>524</ele>
        <time>2021-08-09T13:55:39Z</time>
      </trkpt>
      <trkpt lat="46.52643" lon="5.6378">
        <ele>525</ele>
        <time>2021-08-09T13:55:48Z</time>
      </trkpt>
      <trkpt lat="46.52646" lon="5.63758">
        <ele>525.4</ele>
        <time>2021-08-09T13:55:50Z</time>
      </trkpt>
      <trkpt lat="46.52658" lon="5.63699">
        <ele>525.2</ele>
        <time>2021-08-09T13:55:55Z</time>
      </trkpt>
      <trkpt lat="46.52675" lon="5.63633">
        <ele>524</ele>
        <time>2021-08-09T13:56:00Z</time>
      </trkpt>
      <trkpt lat="46.52681" lon="5.63606">
        <ele>523.8</ele>
        <time>2021-08-09T13:56:02Z</time>
      </trkpt>
      <trkpt lat="46.52688" lon="5.63549">
        <ele>522.8</ele>
        <time>2021-08-09T13:56:06Z</time>
      </trkpt>
      <trkpt lat="46.52689" lon="5.63537">
        <ele>522.4</ele>
        <time>2021-08-09T13:56:07Z</time>
      </trkpt>
      <trkpt lat="46.52691" lon="5.6349">
        <ele>521.6</ele>
        <time>2021-08-09T13:56:10Z</time>
      </trkpt>
      <trkpt lat="46.5269" lon="5.63457">
        <ele>520.8</ele>
        <time>2021-08-09T13:56:12Z</time>
      </trkpt>
      <trkpt lat="46.52688" lon="5.63441">
        <ele>520.4</ele>
        <time>2021-08-09T13:56:13Z</time>
      </trkpt>
      <trkpt lat="46.52681" lon="5.63389">
        <ele>518.6</ele>
        <time>2021-08-09T13:56:16Z</time>
      </trkpt>
      <trkpt lat="46.52676" lon="5.63354">
        <ele>517.4</ele>
        <time>2021-08-09T13:56:18Z</time>
      </trkpt>
      <trkpt lat="46.52671" lon="5.6332">
        <ele>516.4</ele>
        <time>2021-08-09T13:56:20Z</time>
      </trkpt>
      <trkpt lat="46.52668" lon="5.63303">
        <ele>515.2</ele>
        <time>2021-08-09T13:56:21Z</time>
      </trkpt>
      <trkpt lat="46.52664" lon="5.63269">
        <ele>514.2</ele>
        <time>2021-08-09T13:56:24Z</time>
      </trkpt>
      <trkpt lat="46.52655" lon="5.6322">
        <ele>513.8</ele>
        <time>2021-08-09T13:56:26Z</time>
      </trkpt>
      <trkpt lat="46.52649" lon="5.63189">
        <ele>513.2</ele>
        <time>2021-08-09T13:56:29Z</time>
      </trkpt>
      <trkpt lat="46.5263" lon="5.63115">
        <ele>513.2</ele>
        <time>2021-08-09T13:56:33Z</time>
      </trkpt>
      <trkpt lat="46.5263" lon="5.63115">
        <ele>513.4</ele>
        <time>2021-08-09T13:56:34Z</time>
      </trkpt>
      <trkpt lat="46.52608" lon="5.63028">
        <ele>514</ele>
        <time>2021-08-09T13:56:39Z</time>
      </trkpt>
      <trkpt lat="46.52601" lon="5.62999">
        <ele>514.4</ele>
        <time>2021-08-09T13:56:41Z</time>
      </trkpt>
      <trkpt lat="46.52597" lon="5.62984">
        <ele>514.6</ele>
        <time>2021-08-09T13:56:42Z</time>
      </trkpt>
      <trkpt lat="46.52575" lon="5.62897">
        <ele>514.4</ele>
        <time>2021-08-09T13:56:48Z</time>
      </trkpt>
      <trkpt lat="46.52558" lon="5.62837">
        <ele>513.8</ele>
        <time>2021-08-09T13:56:52Z</time>
      </trkpt>
      <trkpt lat="46.52549" lon="5.62807">
        <ele>513.4</ele>
        <time>2021-08-09T13:56:54Z</time>
      </trkpt>
      <trkpt lat="46.5254" lon="5.62777">
        <ele>512.2</ele>
        <time>2021-08-09T13:56:56Z</time>
      </trkpt>
      <trkpt lat="46.52521" lon="5.62715">
        <ele>510.8</ele>
        <time>2021-08-09T13:57:00Z</time>
      </trkpt>
      <trkpt lat="46.52516" lon="5.62699">
        <ele>510.2</ele>
        <time>2021-08-09T13:57:02Z</time>
      </trkpt>
      <trkpt lat="46.52507" lon="5.62667">
        <ele>509.6</ele>
        <time>2021-08-09T13:57:03Z</time>
      </trkpt>
      <trkpt lat="46.52497" lon="5.62634">
        <ele>508.4</ele>
        <time>2021-08-09T13:57:05Z</time>
      </trkpt>
      <trkpt lat="46.52487" lon="5.62602">
        <ele>507.4</ele>
        <time>2021-08-09T13:57:07Z</time>
      </trkpt>
      <trkpt lat="46.52487" lon="5.62602">
        <ele>507</ele>
        <time>2021-08-09T13:57:08Z</time>
      </trkpt>
      <trkpt lat="46.52474" lon="5.62571">
        <ele>506.2</ele>
        <time>2021-08-09T13:57:09Z</time>
      </trkpt>
      <trkpt lat="46.52458" lon="5.62543">
        <ele>504.8</ele>
        <time>2021-08-09T13:57:11Z</time>
      </trkpt>
      <trkpt lat="46.52441" lon="5.62515">
        <ele>503.6</ele>
        <time>2021-08-09T13:57:13Z</time>
      </trkpt>
      <trkpt lat="46.52423" lon="5.62487">
        <ele>502.4</ele>
        <time>2021-08-09T13:57:15Z</time>
      </trkpt>
      <trkpt lat="46.52414" lon="5.62472">
        <ele>501.2</ele>
        <time>2021-08-09T13:57:16Z</time>
      </trkpt>
      <trkpt lat="46.52397" lon="5.6244">
        <ele>499</ele>
        <time>2021-08-09T13:57:18Z</time>
      </trkpt>
      <trkpt lat="46.5239" lon="5.62422">
        <ele>498</ele>
        <time>2021-08-09T13:57:19Z</time>
      </trkpt>
      <trkpt lat="46.5238" lon="5.62384">
        <ele>496.4</ele>
        <time>2021-08-09T13:57:21Z</time>
      </trkpt>
      <trkpt lat="46.52376" lon="5.62364">
        <ele>495.4</ele>
        <time>2021-08-09T13:57:22Z</time>
      </trkpt>
      <trkpt lat="46.52373" lon="5.62343">
        <ele>494.2</ele>
        <time>2021-08-09T13:57:23Z</time>
      </trkpt>
      <trkpt lat="46.5237" lon="5.62302">
        <ele>492.8</ele>
        <time>2021-08-09T13:57:25Z</time>
      </trkpt>
      <trkpt lat="46.5237" lon="5.62281">
        <ele>491.2</ele>
        <time>2021-08-09T13:57:26Z</time>
      </trkpt>
      <trkpt lat="46.52372" lon="5.62242">
        <ele>489.2</ele>
        <time>2021-08-09T13:57:28Z</time>
      </trkpt>
      <trkpt lat="46.52374" lon="5.62203">
        <ele>487.8</ele>
        <time>2021-08-09T13:57:30Z</time>
      </trkpt>
      <trkpt lat="46.52376" lon="5.62184">
        <ele>487.4</ele>
        <time>2021-08-09T13:57:31Z</time>
      </trkpt>
      <trkpt lat="46.52376" lon="5.62184">
        <ele>486.4</ele>
        <time>2021-08-09T13:57:32Z</time>
      </trkpt>
      <trkpt lat="46.52378" lon="5.62148">
        <ele>485.2</ele>
        <time>2021-08-09T13:57:33Z</time>
      </trkpt>
      <trkpt lat="46.52383" lon="5.62079">
        <ele>484</ele>
        <time>2021-08-09T13:57:37Z</time>
      </trkpt>
      <trkpt lat="46.52384" lon="5.62062">
        <ele>484</ele>
        <time>2021-08-09T13:57:38Z</time>
      </trkpt>
      <trkpt lat="46.52388" lon="5.61984">
        <ele>484.6</ele>
        <time>2021-08-09T13:57:43Z</time>
      </trkpt>
      <trkpt lat="46.52389" lon="5.61969">
        <ele>484.8</ele>
        <time>2021-08-09T13:57:44Z</time>
      </trkpt>
      <trkpt lat="46.52394" lon="5.61887">
        <ele>485.2</ele>
        <time>2021-08-09T13:57:50Z</time>
      </trkpt>
      <trkpt lat="46.52394" lon="5.61853">
        <ele>485.6</ele>
        <time>2021-08-09T13:57:53Z</time>
      </trkpt>
      <trkpt lat="46.52392" lon="5.61831">
        <ele>486.6</ele>
        <time>2021-08-09T13:57:55Z</time>
      </trkpt>
      <trkpt lat="46.5239" lon="5.61821">
        <ele>486.8</ele>
        <time>2021-08-09T13:57:56Z</time>
      </trkpt>
      <trkpt lat="46.52383" lon="5.61784">
        <ele>488.4</ele>
        <time>2021-08-09T13:58:00Z</time>
      </trkpt>
      <trkpt lat="46.52383" lon="5.61784">
        <ele>488.6</ele>
        <time>2021-08-09T13:58:01Z</time>
      </trkpt>
      <trkpt lat="46.52381" lon="5.61776">
        <ele>489.6</ele>
        <time>2021-08-09T13:58:02Z</time>
      </trkpt>
      <trkpt lat="46.52378" lon="5.6176">
        <ele>490.2</ele>
        <time>2021-08-09T13:58:03Z</time>
      </trkpt>
      <trkpt lat="46.52375" lon="5.61743">
        <ele>491.2</ele>
        <time>2021-08-09T13:58:05Z</time>
      </trkpt>
      <trkpt lat="46.52373" lon="5.61734">
        <ele>491.6</ele>
        <time>2021-08-09T13:58:06Z</time>
      </trkpt>
      <trkpt lat="46.52369" lon="5.61717">
        <ele>492.2</ele>
        <time>2021-08-09T13:58:08Z</time>
      </trkpt>
      <trkpt lat="46.52364" lon="5.61692">
        <ele>493.4</ele>
        <time>2021-08-09T13:58:11Z</time>
      </trkpt>
      <trkpt lat="46.52359" lon="5.61668">
        <ele>494.8</ele>
        <time>2021-08-09T13:58:14Z</time>
      </trkpt>
      <trkpt lat="46.52354" lon="5.61653">
        <ele>495.8</ele>
        <time>2021-08-09T13:58:16Z</time>
      </trkpt>
      <trkpt lat="46.52347" lon="5.61638">
        <ele>496.2</ele>
        <time>2021-08-09T13:58:18Z</time>
      </trkpt>
      <trkpt lat="46.52342" lon="5.61631">
        <ele>496.6</ele>
        <time>2021-08-09T13:58:19Z</time>
      </trkpt>
      <trkpt lat="46.52338" lon="5.61626">
        <ele>496.8</ele>
        <time>2021-08-09T13:58:20Z</time>
      </trkpt>
      <trkpt lat="46.52332" lon="5.6162">
        <ele>497.2</ele>
        <time>2021-08-09T13:58:21Z</time>
      </trkpt>
      <trkpt lat="46.5232" lon="5.61611">
        <ele>498.4</ele>
        <time>2021-08-09T13:58:23Z</time>
      </trkpt>
      <trkpt lat="46.52301" lon="5.61597">
        <ele>500</ele>
        <time>2021-08-09T13:58:26Z</time>
      </trkpt>
      <trkpt lat="46.52274" lon="5.61573">
        <ele>500.4</ele>
        <time>2021-08-09T13:58:30Z</time>
      </trkpt>
      <trkpt lat="46.5223" lon="5.61524">
        <ele>500.2</ele>
        <time>2021-08-09T13:58:37Z</time>
      </trkpt>
      <trkpt lat="46.52183" lon="5.61476">
        <ele>500.2</ele>
        <time>2021-08-09T13:58:44Z</time>
      </trkpt>
      <trkpt lat="46.52173" lon="5.61463">
        <ele>500.2</ele>
        <time>2021-08-09T13:58:46Z</time>
      </trkpt>
      <trkpt lat="46.52166" lon="5.61454">
        <ele>500.4</ele>
        <time>2021-08-09T13:58:47Z</time>
      </trkpt>
      <trkpt lat="46.52134" lon="5.61421">
        <ele>501</ele>
        <time>2021-08-09T13:58:52Z</time>
      </trkpt>
      <trkpt lat="46.52122" lon="5.61406">
        <ele>501.8</ele>
        <time>2021-08-09T13:58:54Z</time>
      </trkpt>
      <trkpt lat="46.52112" lon="5.61387">
        <ele>502</ele>
        <time>2021-08-09T13:58:56Z</time>
      </trkpt>
      <trkpt lat="46.5211" lon="5.61376">
        <ele>502.2</ele>
        <time>2021-08-09T13:58:57Z</time>
      </trkpt>
      <trkpt lat="46.52097" lon="5.6129">
        <ele>503.4</ele>
        <time>2021-08-09T13:59:05Z</time>
      </trkpt>
      <trkpt lat="46.52096" lon="5.61279">
        <ele>503.6</ele>
        <time>2021-08-09T13:59:06Z</time>
      </trkpt>
      <trkpt lat="46.52098" lon="5.61246">
        <ele>504.4</ele>
        <time>2021-08-09T13:59:09Z</time>
      </trkpt>
      <trkpt lat="46.52099" lon="5.61235">
        <ele>504.8</ele>
        <time>2021-08-09T13:59:10Z</time>
      </trkpt>
      <trkpt lat="46.52098" lon="5.61181">
        <ele>505.6</ele>
        <time>2021-08-09T13:59:15Z</time>
      </trkpt>
      <trkpt lat="46.52096" lon="5.6116">
        <ele>506</ele>
        <time>2021-08-09T13:59:17Z</time>
      </trkpt>
      <trkpt lat="46.52093" lon="5.61118">
        <ele>507</ele>
        <time>2021-08-09T13:59:22Z</time>
      </trkpt>
      <trkpt lat="46.52094" lon="5.61113">
        <ele>507.4</ele>
        <time>2021-08-09T13:59:23Z</time>
      </trkpt>
      <trkpt lat="46.52096" lon="5.61098">
        <ele>507.8</ele>
        <time>2021-08-09T13:59:27Z</time>
      </trkpt>
      <trkpt lat="46.52097" lon="5.61093">
        <ele>508.4</ele>
        <time>2021-08-09T13:59:30Z</time>
      </trkpt>
      <trkpt lat="46.521" lon="5.61082">
        <ele>508.6</ele>
        <time>2021-08-09T13:59:33Z</time>
      </trkpt>
      <trkpt lat="46.52104" lon="5.61071">
        <ele>508.8</ele>
        <time>2021-08-09T13:59:35Z</time>
      </trkpt>
      <trkpt lat="46.52104" lon="5.61057">
        <ele>509</ele>
        <time>2021-08-09T13:59:37Z</time>
      </trkpt>
      <trkpt lat="46.52101" lon="5.61042">
        <ele>509</ele>
        <time>2021-08-09T13:59:39Z</time>
      </trkpt>
      <trkpt lat="46.52102" lon="5.61025">
        <ele>509</ele>
        <time>2021-08-09T13:59:41Z</time>
      </trkpt>
      <trkpt lat="46.52114" lon="5.61008">
        <ele>508.8</ele>
        <time>2021-08-09T13:59:44Z</time>
      </trkpt>
      <trkpt lat="46.52128" lon="5.6099">
        <ele>508.6</ele>
        <time>2021-08-09T13:59:47Z</time>
      </trkpt>
      <trkpt lat="46.52135" lon="5.60976">
        <ele>508.6</ele>
        <time>2021-08-09T13:59:49Z</time>
      </trkpt>
      <trkpt lat="46.52141" lon="5.60943">
        <ele>509</ele>
        <time>2021-08-09T13:59:53Z</time>
      </trkpt>
      <trkpt lat="46.52142" lon="5.60927">
        <ele>509.6</ele>
        <time>2021-08-09T13:59:55Z</time>
      </trkpt>
      <trkpt lat="46.52146" lon="5.60878">
        <ele>510.4</ele>
        <time>2021-08-09T14:00:01Z</time>
      </trkpt>
      <trkpt lat="46.5215" lon="5.60864">
        <ele>510.4</ele>
        <time>2021-08-09T14:00:03Z</time>
      </trkpt>
      <trkpt lat="46.52153" lon="5.60848">
        <ele>510.6</ele>
        <time>2021-08-09T14:00:05Z</time>
      </trkpt>
      <trkpt lat="46.5216" lon="5.60807">
        <ele>511.8</ele>
        <time>2021-08-09T14:00:10Z</time>
      </trkpt>
      <trkpt lat="46.5216" lon="5.60799">
        <ele>511.8</ele>
        <time>2021-08-09T14:00:11Z</time>
      </trkpt>
      <trkpt lat="46.5216" lon="5.60792">
        <ele>512</ele>
        <time>2021-08-09T14:00:12Z</time>
      </trkpt>
      <trkpt lat="46.52158" lon="5.60757">
        <ele>512.6</ele>
        <time>2021-08-09T14:00:16Z</time>
      </trkpt>
      <trkpt lat="46.52158" lon="5.60748">
        <ele>512.6</ele>
        <time>2021-08-09T14:00:17Z</time>
      </trkpt>
      <trkpt lat="46.5216" lon="5.6074">
        <ele>512.6</ele>
        <time>2021-08-09T14:00:18Z</time>
      </trkpt>
      <trkpt lat="46.52169" lon="5.60724">
        <ele>512.6</ele>
        <time>2021-08-09T14:00:20Z</time>
      </trkpt>
      <trkpt lat="46.52184" lon="5.60716">
        <ele>512.4</ele>
        <time>2021-08-09T14:00:22Z</time>
      </trkpt>
      <trkpt lat="46.52214" lon="5.60711">
        <ele>511</ele>
        <time>2021-08-09T14:00:25Z</time>
      </trkpt>
      <trkpt lat="46.5223" lon="5.60706">
        <ele>509.6</ele>
        <time>2021-08-09T14:00:27Z</time>
      </trkpt>
      <trkpt lat="46.5224" lon="5.607">
        <ele>509</ele>
        <time>2021-08-09T14:00:28Z</time>
      </trkpt>
      <trkpt lat="46.52248" lon="5.60693">
        <ele>508.8</ele>
        <time>2021-08-09T14:00:29Z</time>
      </trkpt>
      <trkpt lat="46.52254" lon="5.60684">
        <ele>508.4</ele>
        <time>2021-08-09T14:00:30Z</time>
      </trkpt>
      <trkpt lat="46.52259" lon="5.60674">
        <ele>507.8</ele>
        <time>2021-08-09T14:00:31Z</time>
      </trkpt>
      <trkpt lat="46.52265" lon="5.6065">
        <ele>506.8</ele>
        <time>2021-08-09T14:00:33Z</time>
      </trkpt>
      <trkpt lat="46.52266" lon="5.60637">
        <ele>506.4</ele>
        <time>2021-08-09T14:00:34Z</time>
      </trkpt>
      <trkpt lat="46.52268" lon="5.60606">
        <ele>505.8</ele>
        <time>2021-08-09T14:00:36Z</time>
      </trkpt>
      <trkpt lat="46.52273" lon="5.60548">
        <ele>504.6</ele>
        <time>2021-08-09T14:00:40Z</time>
      </trkpt>
      <trkpt lat="46.52274" lon="5.60533">
        <ele>504.6</ele>
        <time>2021-08-09T14:00:41Z</time>
      </trkpt>
      <trkpt lat="46.52277" lon="5.60493">
        <ele>503.4</ele>
        <time>2021-08-09T14:00:44Z</time>
      </trkpt>
      <trkpt lat="46.52283" lon="5.60418">
        <ele>502.4</ele>
        <time>2021-08-09T14:00:49Z</time>
      </trkpt>
      <trkpt lat="46.5229" lon="5.60333">
        <ele>502</ele>
        <time>2021-08-09T14:00:55Z</time>
      </trkpt>
      <trkpt lat="46.52294" lon="5.6029">
        <ele>501.6</ele>
        <time>2021-08-09T14:00:58Z</time>
      </trkpt>
      <trkpt lat="46.52299" lon="5.60237">
        <ele>501.4</ele>
        <time>2021-08-09T14:01:02Z</time>
      </trkpt>
      <trkpt lat="46.52306" lon="5.60154">
        <ele>501</ele>
        <time>2021-08-09T14:01:08Z</time>
      </trkpt>
      <trkpt lat="46.52311" lon="5.60075">
        <ele>500.8</ele>
        <time>2021-08-09T14:01:14Z</time>
      </trkpt>
      <trkpt lat="46.52315" lon="5.60033">
        <ele>500.8</ele>
        <time>2021-08-09T14:01:17Z</time>
      </trkpt>
      <trkpt lat="46.52321" lon="5.59952">
        <ele>500.6</ele>
        <time>2021-08-09T14:01:23Z</time>
      </trkpt>
      <trkpt lat="46.52322" lon="5.59941">
        <ele>500.4</ele>
        <time>2021-08-09T14:01:24Z</time>
      </trkpt>
      <trkpt lat="46.52323" lon="5.59911">
        <ele>500.2</ele>
        <time>2021-08-09T14:01:26Z</time>
      </trkpt>
      <trkpt lat="46.52328" lon="5.59857">
        <ele>499.2</ele>
        <time>2021-08-09T14:01:30Z</time>
      </trkpt>
      <trkpt lat="46.52334" lon="5.59778">
        <ele>498.8</ele>
        <time>2021-08-09T14:01:36Z</time>
      </trkpt>
      <trkpt lat="46.52341" lon="5.5969">
        <ele>498.8</ele>
        <time>2021-08-09T14:01:43Z</time>
      </trkpt>
      <trkpt lat="46.52344" lon="5.59648">
        <ele>498.6</ele>
        <time>2021-08-09T14:01:46Z</time>
      </trkpt>
      <trkpt lat="46.52349" lon="5.59583">
        <ele>498.4</ele>
        <time>2021-08-09T14:01:51Z</time>
      </trkpt>
      <trkpt lat="46.52355" lon="5.59502">
        <ele>498</ele>
        <time>2021-08-09T14:01:57Z</time>
      </trkpt>
      <trkpt lat="46.52356" lon="5.59488">
        <ele>498</ele>
        <time>2021-08-09T14:01:58Z</time>
      </trkpt>
      <trkpt lat="46.5236" lon="5.59432">
        <ele>497.4</ele>
        <time>2021-08-09T14:02:02Z</time>
      </trkpt>
      <trkpt lat="46.52365" lon="5.59374">
        <ele>496</ele>
        <time>2021-08-09T14:02:06Z</time>
      </trkpt>
      <trkpt lat="46.52366" lon="5.59358">
        <ele>495.6</ele>
        <time>2021-08-09T14:02:07Z</time>
      </trkpt>
      <trkpt lat="46.52367" lon="5.59343">
        <ele>494.8</ele>
        <time>2021-08-09T14:02:08Z</time>
      </trkpt>
      <trkpt lat="46.52371" lon="5.59282">
        <ele>493.4</ele>
        <time>2021-08-09T14:02:12Z</time>
      </trkpt>
      <trkpt lat="46.52374" lon="5.59251">
        <ele>492.4</ele>
        <time>2021-08-09T14:02:14Z</time>
      </trkpt>
      <trkpt lat="46.52376" lon="5.59221">
        <ele>491.6</ele>
        <time>2021-08-09T14:02:16Z</time>
      </trkpt>
      <trkpt lat="46.52379" lon="5.59191">
        <ele>491.4</ele>
        <time>2021-08-09T14:02:18Z</time>
      </trkpt>
      <trkpt lat="46.52383" lon="5.59133">
        <ele>490.2</ele>
        <time>2021-08-09T14:02:22Z</time>
      </trkpt>
      <trkpt lat="46.52386" lon="5.5909">
        <ele>489.8</ele>
        <time>2021-08-09T14:02:25Z</time>
      </trkpt>
      <trkpt lat="46.52392" lon="5.59006">
        <ele>489.4</ele>
        <time>2021-08-09T14:02:31Z</time>
      </trkpt>
      <trkpt lat="46.52394" lon="5.58979">
        <ele>489.2</ele>
        <time>2021-08-09T14:02:33Z</time>
      </trkpt>
      <trkpt lat="46.524" lon="5.58899">
        <ele>489</ele>
        <time>2021-08-09T14:02:39Z</time>
      </trkpt>
      <trkpt lat="46.52401" lon="5.58886">
        <ele>489</ele>
        <time>2021-08-09T14:02:40Z</time>
      </trkpt>
      <trkpt lat="46.52403" lon="5.5886">
        <ele>488.4</ele>
        <time>2021-08-09T14:02:42Z</time>
      </trkpt>
      <trkpt lat="46.52408" lon="5.58783">
        <ele>487.2</ele>
        <time>2021-08-09T14:02:48Z</time>
      </trkpt>
      <trkpt lat="46.5241" lon="5.58759">
        <ele>487.4</ele>
        <time>2021-08-09T14:02:50Z</time>
      </trkpt>
      <trkpt lat="46.52417" lon="5.58673">
        <ele>487.8</ele>
        <time>2021-08-09T14:02:57Z</time>
      </trkpt>
      <trkpt lat="46.52424" lon="5.5859">
        <ele>487.8</ele>
        <time>2021-08-09T14:03:04Z</time>
      </trkpt>
      <trkpt lat="46.52427" lon="5.58543">
        <ele>487.8</ele>
        <time>2021-08-09T14:03:08Z</time>
      </trkpt>
      <trkpt lat="46.52434" lon="5.58463">
        <ele>488</ele>
        <time>2021-08-09T14:03:15Z</time>
      </trkpt>
      <trkpt lat="46.52437" lon="5.58418">
        <ele>488.2</ele>
        <time>2021-08-09T14:03:19Z</time>
      </trkpt>
      <trkpt lat="46.52444" lon="5.58329">
        <ele>488.2</ele>
        <time>2021-08-09T14:03:27Z</time>
      </trkpt>
      <trkpt lat="46.52447" lon="5.58284">
        <ele>488.2</ele>
        <time>2021-08-09T14:03:31Z</time>
      </trkpt>
      <trkpt lat="46.52454" lon="5.58204">
        <ele>488.4</ele>
        <time>2021-08-09T14:03:38Z</time>
      </trkpt>
      <trkpt lat="46.52455" lon="5.5818">
        <ele>488.2</ele>
        <time>2021-08-09T14:03:40Z</time>
      </trkpt>
      <trkpt lat="46.52461" lon="5.58096">
        <ele>487.2</ele>
        <time>2021-08-09T14:03:47Z</time>
      </trkpt>
      <trkpt lat="46.52463" lon="5.58071">
        <ele>487</ele>
        <time>2021-08-09T14:03:49Z</time>
      </trkpt>
      <trkpt lat="46.52469" lon="5.57997">
        <ele>486.6</ele>
        <time>2021-08-09T14:03:55Z</time>
      </trkpt>
      <trkpt lat="46.52473" lon="5.57949">
        <ele>486.6</ele>
        <time>2021-08-09T14:03:59Z</time>
      </trkpt>
      <trkpt lat="46.52479" lon="5.57866">
        <ele>487</ele>
        <time>2021-08-09T14:04:06Z</time>
      </trkpt>
      <trkpt lat="46.52481" lon="5.57843">
        <ele>487.4</ele>
        <time>2021-08-09T14:04:08Z</time>
      </trkpt>
      <trkpt lat="46.52487" lon="5.57763">
        <ele>487</ele>
        <time>2021-08-09T14:04:15Z</time>
      </trkpt>
      <trkpt lat="46.52489" lon="5.57729">
        <ele>486.8</ele>
        <time>2021-08-09T14:04:18Z</time>
      </trkpt>
      <trkpt lat="46.52495" lon="5.5765">
        <ele>486.6</ele>
        <time>2021-08-09T14:04:25Z</time>
      </trkpt>
      <trkpt lat="46.52498" lon="5.57606">
        <ele>487</ele>
        <time>2021-08-09T14:04:29Z</time>
      </trkpt>
      <trkpt lat="46.52505" lon="5.5752">
        <ele>487</ele>
        <time>2021-08-09T14:04:37Z</time>
      </trkpt>
      <trkpt lat="46.52508" lon="5.57489">
        <ele>487</ele>
        <time>2021-08-09T14:04:40Z</time>
      </trkpt>
      <trkpt lat="46.52514" lon="5.57404">
        <ele>487</ele>
        <time>2021-08-09T14:04:48Z</time>
      </trkpt>
      <trkpt lat="46.52515" lon="5.57394">
        <ele>487</ele>
        <time>2021-08-09T14:04:49Z</time>
      </trkpt>
      <trkpt lat="46.52522" lon="5.57307">
        <ele>486.4</ele>
        <time>2021-08-09T14:04:57Z</time>
      </trkpt>
      <trkpt lat="46.52523" lon="5.57297">
        <ele>486.6</ele>
        <time>2021-08-09T14:04:58Z</time>
      </trkpt>
      <trkpt lat="46.5253" lon="5.57213">
        <ele>487</ele>
        <time>2021-08-09T14:05:06Z</time>
      </trkpt>
      <trkpt lat="46.5253" lon="5.57203">
        <ele>487</ele>
        <time>2021-08-09T14:05:07Z</time>
      </trkpt>
      <trkpt lat="46.52536" lon="5.57129">
        <ele>487</ele>
        <time>2021-08-09T14:05:14Z</time>
      </trkpt>
      <trkpt lat="46.52542" lon="5.57041">
        <ele>486.8</ele>
        <time>2021-08-09T14:05:22Z</time>
      </trkpt>
      <trkpt lat="46.5255" lon="5.56956">
        <ele>486.4</ele>
        <time>2021-08-09T14:05:30Z</time>
      </trkpt>
      <trkpt lat="46.52556" lon="5.56869">
        <ele>486.6</ele>
        <time>2021-08-09T14:05:38Z</time>
      </trkpt>
      <trkpt lat="46.52559" lon="5.56837">
        <ele>486.6</ele>
        <time>2021-08-09T14:05:41Z</time>
      </trkpt>
      <trkpt lat="46.52565" lon="5.56753">
        <ele>486.8</ele>
        <time>2021-08-09T14:05:49Z</time>
      </trkpt>
      <trkpt lat="46.52566" lon="5.56742">
        <ele>486.8</ele>
        <time>2021-08-09T14:05:50Z</time>
      </trkpt>
      <trkpt lat="46.52573" lon="5.5666">
        <ele>486.8</ele>
        <time>2021-08-09T14:05:58Z</time>
      </trkpt>
      <trkpt lat="46.52577" lon="5.566">
        <ele>487</ele>
        <time>2021-08-09T14:06:04Z</time>
      </trkpt>
      <trkpt lat="46.52581" lon="5.56531">
        <ele>487.6</ele>
        <time>2021-08-09T14:06:11Z</time>
      </trkpt>
      <trkpt lat="46.52585" lon="5.56502">
        <ele>488.6</ele>
        <time>2021-08-09T14:06:14Z</time>
      </trkpt>
      <trkpt lat="46.52585" lon="5.56492">
        <ele>488.8</ele>
        <time>2021-08-09T14:06:15Z</time>
      </trkpt>
      <trkpt lat="46.52585" lon="5.56482">
        <ele>489.2</ele>
        <time>2021-08-09T14:06:16Z</time>
      </trkpt>
      <trkpt lat="46.5259" lon="5.56425">
        <ele>489.6</ele>
        <time>2021-08-09T14:06:22Z</time>
      </trkpt>
      <trkpt lat="46.52593" lon="5.56395">
        <ele>489.8</ele>
        <time>2021-08-09T14:06:25Z</time>
      </trkpt>
      <trkpt lat="46.52598" lon="5.5633">
        <ele>490.2</ele>
        <time>2021-08-09T14:06:31Z</time>
      </trkpt>
      <trkpt lat="46.52605" lon="5.56245">
        <ele>489</ele>
        <time>2021-08-09T14:06:38Z</time>
      </trkpt>
      <trkpt lat="46.52606" lon="5.56232">
        <ele>488.6</ele>
        <time>2021-08-09T14:06:39Z</time>
      </trkpt>
      <trkpt lat="46.5261" lon="5.5618">
        <ele>487.6</ele>
        <time>2021-08-09T14:06:43Z</time>
      </trkpt>
      <trkpt lat="46.52614" lon="5.56126">
        <ele>487.4</ele>
        <time>2021-08-09T14:06:47Z</time>
      </trkpt>
      <trkpt lat="46.52618" lon="5.56086">
        <ele>486.6</ele>
        <time>2021-08-09T14:06:50Z</time>
      </trkpt>
      <trkpt lat="46.52624" lon="5.56006">
        <ele>486</ele>
        <time>2021-08-09T14:06:56Z</time>
      </trkpt>
      <trkpt lat="46.52627" lon="5.5598">
        <ele>485.6</ele>
        <time>2021-08-09T14:06:58Z</time>
      </trkpt>
      <trkpt lat="46.52633" lon="5.55903">
        <ele>485.2</ele>
        <time>2021-08-09T14:07:04Z</time>
      </trkpt>
      <trkpt lat="46.5264" lon="5.55816">
        <ele>485</ele>
        <time>2021-08-09T14:07:11Z</time>
      </trkpt>
      <trkpt lat="46.52642" lon="5.55791">
        <ele>485</ele>
        <time>2021-08-09T14:07:13Z</time>
      </trkpt>
      <trkpt lat="46.52648" lon="5.55708">
        <ele>485.2</ele>
        <time>2021-08-09T14:07:20Z</time>
      </trkpt>
      <trkpt lat="46.52649" lon="5.55696">
        <ele>485.4</ele>
        <time>2021-08-09T14:07:21Z</time>
      </trkpt>
      <trkpt lat="46.52655" lon="5.55613">
        <ele>485.4</ele>
        <time>2021-08-09T14:07:28Z</time>
      </trkpt>
      <trkpt lat="46.52656" lon="5.55601">
        <ele>485.4</ele>
        <time>2021-08-09T14:07:29Z</time>
      </trkpt>
      <trkpt lat="46.52662" lon="5.55518">
        <ele>485.2</ele>
        <time>2021-08-09T14:07:36Z</time>
      </trkpt>
      <trkpt lat="46.52667" lon="5.55461">
        <ele>485.2</ele>
        <time>2021-08-09T14:07:41Z</time>
      </trkpt>
      <trkpt lat="46.52674" lon="5.55375">
        <ele>486</ele>
        <time>2021-08-09T14:07:49Z</time>
      </trkpt>
      <trkpt lat="46.52676" lon="5.55344">
        <ele>486.6</ele>
        <time>2021-08-09T14:07:52Z</time>
      </trkpt>
      <trkpt lat="46.52679" lon="5.55303">
        <ele>487.2</ele>
        <time>2021-08-09T14:07:56Z</time>
      </trkpt>
      <trkpt lat="46.52682" lon="5.55253">
        <ele>487.4</ele>
        <time>2021-08-09T14:08:01Z</time>
      </trkpt>
      <trkpt lat="46.52689" lon="5.55174">
        <ele>488</ele>
        <time>2021-08-09T14:08:09Z</time>
      </trkpt>
      <trkpt lat="46.5269" lon="5.55164">
        <ele>488</ele>
        <time>2021-08-09T14:08:10Z</time>
      </trkpt>
      <trkpt lat="46.52697" lon="5.55081">
        <ele>488.4</ele>
        <time>2021-08-09T14:08:18Z</time>
      </trkpt>
      <trkpt lat="46.52697" lon="5.55071">
        <ele>488.4</ele>
        <time>2021-08-09T14:08:19Z</time>
      </trkpt>
      <trkpt lat="46.52699" lon="5.55051">
        <ele>488.4</ele>
        <time>2021-08-09T14:08:21Z</time>
      </trkpt>
      <trkpt lat="46.52705" lon="5.54966">
        <ele>488.8</ele>
        <time>2021-08-09T14:08:30Z</time>
      </trkpt>
      <trkpt lat="46.52708" lon="5.54924">
        <ele>489.4</ele>
        <time>2021-08-09T14:08:35Z</time>
      </trkpt>
      <trkpt lat="46.52709" lon="5.54909">
        <ele>490</ele>
        <time>2021-08-09T14:08:37Z</time>
      </trkpt>
      <trkpt lat="46.5271" lon="5.54893">
        <ele>490.6</ele>
        <time>2021-08-09T14:08:39Z</time>
      </trkpt>
      <trkpt lat="46.52713" lon="5.54854">
        <ele>491.8</ele>
        <time>2021-08-09T14:08:44Z</time>
      </trkpt>
      <trkpt lat="46.52713" lon="5.54845">
        <ele>492</ele>
        <time>2021-08-09T14:08:45Z</time>
      </trkpt>
      <trkpt lat="46.52716" lon="5.54806">
        <ele>493.2</ele>
        <time>2021-08-09T14:08:50Z</time>
      </trkpt>
      <trkpt lat="46.5272" lon="5.54757">
        <ele>494.2</ele>
        <time>2021-08-09T14:08:56Z</time>
      </trkpt>
      <trkpt lat="46.52725" lon="5.54686">
        <ele>495.4</ele>
        <time>2021-08-09T14:09:05Z</time>
      </trkpt>
      <trkpt lat="46.52727" lon="5.54671">
        <ele>495.6</ele>
        <time>2021-08-09T14:09:07Z</time>
      </trkpt>
      <trkpt lat="46.52731" lon="5.54635">
        <ele>496.4</ele>
        <time>2021-08-09T14:09:12Z</time>
      </trkpt>
      <trkpt lat="46.52733" lon="5.54629">
        <ele>496.6</ele>
        <time>2021-08-09T14:09:13Z</time>
      </trkpt>
      <trkpt lat="46.52736" lon="5.54624">
        <ele>497</ele>
        <time>2021-08-09T14:09:14Z</time>
      </trkpt>
      <trkpt lat="46.52744" lon="5.54615">
        <ele>497.4</ele>
        <time>2021-08-09T14:09:16Z</time>
      </trkpt>
      <trkpt lat="46.52748" lon="5.54612">
        <ele>497.6</ele>
        <time>2021-08-09T14:09:17Z</time>
      </trkpt>
      <trkpt lat="46.52752" lon="5.5461">
        <ele>497.8</ele>
        <time>2021-08-09T14:09:18Z</time>
      </trkpt>
      <trkpt lat="46.52768" lon="5.54608">
        <ele>498.8</ele>
        <time>2021-08-09T14:09:22Z</time>
      </trkpt>
      <trkpt lat="46.52773" lon="5.54608">
        <ele>499.4</ele>
        <time>2021-08-09T14:09:23Z</time>
      </trkpt>
      <trkpt lat="46.52796" lon="5.54608">
        <ele>500.6</ele>
        <time>2021-08-09T14:09:28Z</time>
      </trkpt>
      <trkpt lat="46.52813" lon="5.54609">
        <ele>501.8</ele>
        <time>2021-08-09T14:09:32Z</time>
      </trkpt>
      <trkpt lat="46.52817" lon="5.54609">
        <ele>501.8</ele>
        <time>2021-08-09T14:09:33Z</time>
      </trkpt>
      <trkpt lat="46.52833" lon="5.5461">
        <ele>503</ele>
        <time>2021-08-09T14:09:37Z</time>
      </trkpt>
      <trkpt lat="46.52847" lon="5.54612">
        <ele>504</ele>
        <time>2021-08-09T14:09:41Z</time>
      </trkpt>
      <trkpt lat="46.52874" lon="5.54613">
        <ele>505.2</ele>
        <time>2021-08-09T14:09:47Z</time>
      </trkpt>
      <trkpt lat="46.52887" lon="5.54614">
        <ele>505.8</ele>
        <time>2021-08-09T14:09:50Z</time>
      </trkpt>
      <trkpt lat="46.52892" lon="5.54615">
        <ele>506.2</ele>
        <time>2021-08-09T14:09:51Z</time>
      </trkpt>
      <trkpt lat="46.5292" lon="5.54617">
        <ele>507</ele>
        <time>2021-08-09T14:09:57Z</time>
      </trkpt>
      <trkpt lat="46.52945" lon="5.54619">
        <ele>507.4</ele>
        <time>2021-08-09T14:10:02Z</time>
      </trkpt>
      <trkpt lat="46.5297" lon="5.54621">
        <ele>508.4</ele>
        <time>2021-08-09T14:10:07Z</time>
      </trkpt>
      <trkpt lat="46.5298" lon="5.54621">
        <ele>508.6</ele>
        <time>2021-08-09T14:10:09Z</time>
      </trkpt>
      <trkpt lat="46.53005" lon="5.54624">
        <ele>509.4</ele>
        <time>2021-08-09T14:10:14Z</time>
      </trkpt>
      <trkpt lat="46.53036" lon="5.54627">
        <ele>510</ele>
        <time>2021-08-09T14:10:20Z</time>
      </trkpt>
      <trkpt lat="46.53051" lon="5.54628">
        <ele>510.6</ele>
        <time>2021-08-09T14:10:23Z</time>
      </trkpt>
      <trkpt lat="46.53065" lon="5.54629">
        <ele>511.2</ele>
        <time>2021-08-09T14:10:26Z</time>
      </trkpt>
      <trkpt lat="46.53089" lon="5.5463">
        <ele>511.8</ele>
        <time>2021-08-09T14:10:31Z</time>
      </trkpt>
      <trkpt lat="46.53099" lon="5.5463">
        <ele>512.4</ele>
        <time>2021-08-09T14:10:33Z</time>
      </trkpt>
      <trkpt lat="46.5311" lon="5.54631">
        <ele>512.8</ele>
        <time>2021-08-09T14:10:35Z</time>
      </trkpt>
      <trkpt lat="46.53135" lon="5.54636">
        <ele>513.8</ele>
        <time>2021-08-09T14:10:40Z</time>
      </trkpt>
      <trkpt lat="46.53144" lon="5.54638">
        <ele>514</ele>
        <time>2021-08-09T14:10:42Z</time>
      </trkpt>
      <trkpt lat="46.53174" lon="5.54645">
        <ele>515.2</ele>
        <time>2021-08-09T14:10:48Z</time>
      </trkpt>
      <trkpt lat="46.53182" lon="5.54647">
        <ele>515.8</ele>
        <time>2021-08-09T14:10:50Z</time>
      </trkpt>
      <trkpt lat="46.53187" lon="5.54647">
        <ele>516.2</ele>
        <time>2021-08-09T14:10:51Z</time>
      </trkpt>
      <trkpt lat="46.53216" lon="5.54651">
        <ele>517.6</ele>
        <time>2021-08-09T14:10:57Z</time>
      </trkpt>
      <trkpt lat="46.53236" lon="5.54654">
        <ele>518.2</ele>
        <time>2021-08-09T14:11:01Z</time>
      </trkpt>
      <trkpt lat="46.53251" lon="5.54657">
        <ele>518.6</ele>
        <time>2021-08-09T14:11:04Z</time>
      </trkpt>
      <trkpt lat="46.53279" lon="5.54663">
        <ele>519.8</ele>
        <time>2021-08-09T14:11:10Z</time>
      </trkpt>
      <trkpt lat="46.53306" lon="5.5467">
        <ele>520.8</ele>
        <time>2021-08-09T14:11:15Z</time>
      </trkpt>
      <trkpt lat="46.53327" lon="5.54676">
        <ele>521.8</ele>
        <time>2021-08-09T14:11:19Z</time>
      </trkpt>
      <trkpt lat="46.53332" lon="5.54678">
        <ele>521.8</ele>
        <time>2021-08-09T14:11:20Z</time>
      </trkpt>
      <trkpt lat="46.53358" lon="5.54686">
        <ele>522.8</ele>
        <time>2021-08-09T14:11:25Z</time>
      </trkpt>
      <trkpt lat="46.53385" lon="5.54695">
        <ele>523.2</ele>
        <time>2021-08-09T14:11:30Z</time>
      </trkpt>
      <trkpt lat="46.5343" lon="5.54711">
        <ele>524</ele>
        <time>2021-08-09T14:11:38Z</time>
      </trkpt>
      <trkpt lat="46.53436" lon="5.54712">
        <ele>524.2</ele>
        <time>2021-08-09T14:11:39Z</time>
      </trkpt>
      <trkpt lat="46.53471" lon="5.54725">
        <ele>525</ele>
        <time>2021-08-09T14:11:46Z</time>
      </trkpt>
      <trkpt lat="46.53481" lon="5.54728">
        <ele>525.6</ele>
        <time>2021-08-09T14:11:48Z</time>
      </trkpt>
      <trkpt lat="46.53501" lon="5.54735">
        <ele>526.4</ele>
        <time>2021-08-09T14:11:52Z</time>
      </trkpt>
      <trkpt lat="46.53537" lon="5.54747">
        <ele>527.2</ele>
        <time>2021-08-09T14:11:59Z</time>
      </trkpt>
      <trkpt lat="46.53542" lon="5.54748">
        <ele>527.4</ele>
        <time>2021-08-09T14:12:00Z</time>
      </trkpt>
      <trkpt lat="46.53567" lon="5.54757">
        <ele>528.6</ele>
        <time>2021-08-09T14:12:05Z</time>
      </trkpt>
      <trkpt lat="46.53596" lon="5.54767">
        <ele>529.6</ele>
        <time>2021-08-09T14:12:11Z</time>
      </trkpt>
      <trkpt lat="46.53632" lon="5.54778">
        <ele>530.6</ele>
        <time>2021-08-09T14:12:18Z</time>
      </trkpt>
      <trkpt lat="46.53642" lon="5.54781">
        <ele>531</ele>
        <time>2021-08-09T14:12:20Z</time>
      </trkpt>
      <trkpt lat="46.53666" lon="5.54789">
        <ele>531.8</ele>
        <time>2021-08-09T14:12:25Z</time>
      </trkpt>
      <trkpt lat="46.53671" lon="5.54791">
        <ele>532</ele>
        <time>2021-08-09T14:12:26Z</time>
      </trkpt>
      <trkpt lat="46.53691" lon="5.54797">
        <ele>532.6</ele>
        <time>2021-08-09T14:12:30Z</time>
      </trkpt>
      <trkpt lat="46.53701" lon="5.54801">
        <ele>533</ele>
        <time>2021-08-09T14:12:32Z</time>
      </trkpt>
      <trkpt lat="46.5373" lon="5.54812">
        <ele>534</ele>
        <time>2021-08-09T14:12:38Z</time>
      </trkpt>
      <trkpt lat="46.53735" lon="5.54814">
        <ele>534.2</ele>
        <time>2021-08-09T14:12:39Z</time>
      </trkpt>
      <trkpt lat="46.53771" lon="5.54822">
        <ele>535.2</ele>
        <time>2021-08-09T14:12:46Z</time>
      </trkpt>
      <trkpt lat="46.53816" lon="5.54816">
        <ele>536</ele>
        <time>2021-08-09T14:12:54Z</time>
      </trkpt>
      <trkpt lat="46.53826" lon="5.54813">
        <ele>536.4</ele>
        <time>2021-08-09T14:12:56Z</time>
      </trkpt>
      <trkpt lat="46.53858" lon="5.54805">
        <ele>537.2</ele>
        <time>2021-08-09T14:13:02Z</time>
      </trkpt>
      <trkpt lat="46.53863" lon="5.54804">
        <ele>537.8</ele>
        <time>2021-08-09T14:13:03Z</time>
      </trkpt>
      <trkpt lat="46.53906" lon="5.54791">
        <ele>538.6</ele>
        <time>2021-08-09T14:13:11Z</time>
      </trkpt>
      <trkpt lat="46.53922" lon="5.54782">
        <ele>538.8</ele>
        <time>2021-08-09T14:13:14Z</time>
      </trkpt>
      <trkpt lat="46.53937" lon="5.54771">
        <ele>539.2</ele>
        <time>2021-08-09T14:13:17Z</time>
      </trkpt>
      <trkpt lat="46.5397" lon="5.54738">
        <ele>539.8</ele>
        <time>2021-08-09T14:13:24Z</time>
      </trkpt>
      <trkpt lat="46.53975" lon="5.54732">
        <ele>540</ele>
        <time>2021-08-09T14:13:25Z</time>
      </trkpt>
      <trkpt lat="46.53998" lon="5.54688">
        <ele>540</ele>
        <time>2021-08-09T14:13:31Z</time>
      </trkpt>
      <trkpt lat="46.54001" lon="5.54679">
        <ele>540</ele>
        <time>2021-08-09T14:13:32Z</time>
      </trkpt>
      <trkpt lat="46.54006" lon="5.54659">
        <ele>540</ele>
        <time>2021-08-09T14:13:34Z</time>
      </trkpt>
      <trkpt lat="46.54008" lon="5.54648">
        <ele>539.8</ele>
        <time>2021-08-09T14:13:35Z</time>
      </trkpt>
      <trkpt lat="46.54027" lon="5.54578">
        <ele>538.6</ele>
        <time>2021-08-09T14:13:41Z</time>
      </trkpt>
      <trkpt lat="46.5404" lon="5.5453">
        <ele>537.4</ele>
        <time>2021-08-09T14:13:45Z</time>
      </trkpt>
      <trkpt lat="46.5405" lon="5.54495">
        <ele>536.8</ele>
        <time>2021-08-09T14:13:48Z</time>
      </trkpt>
      <trkpt lat="46.54071" lon="5.54422">
        <ele>536.6</ele>
        <time>2021-08-09T14:13:54Z</time>
      </trkpt>
      <trkpt lat="46.54074" lon="5.5441">
        <ele>536.6</ele>
        <time>2021-08-09T14:13:55Z</time>
      </trkpt>
      <trkpt lat="46.54081" lon="5.54385">
        <ele>536.4</ele>
        <time>2021-08-09T14:13:57Z</time>
      </trkpt>
      <trkpt lat="46.54095" lon="5.54331">
        <ele>535.2</ele>
        <time>2021-08-09T14:14:01Z</time>
      </trkpt>
      <trkpt lat="46.54098" lon="5.54317">
        <ele>534.8</ele>
        <time>2021-08-09T14:14:02Z</time>
      </trkpt>
      <trkpt lat="46.54102" lon="5.54303">
        <ele>534</ele>
        <time>2021-08-09T14:14:03Z</time>
      </trkpt>
      <trkpt lat="46.54114" lon="5.54259">
        <ele>533</ele>
        <time>2021-08-09T14:14:06Z</time>
      </trkpt>
      <trkpt lat="46.54122" lon="5.54228">
        <ele>532.6</ele>
        <time>2021-08-09T14:14:08Z</time>
      </trkpt>
      <trkpt lat="46.54126" lon="5.54213">
        <ele>532</ele>
        <time>2021-08-09T14:14:09Z</time>
      </trkpt>
      <trkpt lat="46.54135" lon="5.54182">
        <ele>530.6</ele>
        <time>2021-08-09T14:14:11Z</time>
      </trkpt>
      <trkpt lat="46.54143" lon="5.54151">
        <ele>529.2</ele>
        <time>2021-08-09T14:14:13Z</time>
      </trkpt>
      <trkpt lat="46.54152" lon="5.54121">
        <ele>527.8</ele>
        <time>2021-08-09T14:14:15Z</time>
      </trkpt>
      <trkpt lat="46.5416" lon="5.5409">
        <ele>526.6</ele>
        <time>2021-08-09T14:14:17Z</time>
      </trkpt>
      <trkpt lat="46.54172" lon="5.54046">
        <ele>525.6</ele>
        <time>2021-08-09T14:14:20Z</time>
      </trkpt>
      <trkpt lat="46.5418" lon="5.54018">
        <ele>525.2</ele>
        <time>2021-08-09T14:14:22Z</time>
      </trkpt>
      <trkpt lat="46.54188" lon="5.5399">
        <ele>524.4</ele>
        <time>2021-08-09T14:14:24Z</time>
      </trkpt>
      <trkpt lat="46.542" lon="5.53935">
        <ele>523.6</ele>
        <time>2021-08-09T14:14:28Z</time>
      </trkpt>
      <trkpt lat="46.54202" lon="5.53906">
        <ele>523.4</ele>
        <time>2021-08-09T14:14:30Z</time>
      </trkpt>
      <trkpt lat="46.54202" lon="5.53879">
        <ele>523.4</ele>
        <time>2021-08-09T14:14:32Z</time>
      </trkpt>
      <trkpt lat="46.54203" lon="5.53797">
        <ele>523.4</ele>
        <time>2021-08-09T14:14:38Z</time>
      </trkpt>
      <trkpt lat="46.54204" lon="5.53741">
        <ele>523</ele>
        <time>2021-08-09T14:14:42Z</time>
      </trkpt>
      <trkpt lat="46.54205" lon="5.53713">
        <ele>523</ele>
        <time>2021-08-09T14:14:44Z</time>
      </trkpt>
      <trkpt lat="46.54211" lon="5.53673">
        <ele>522.6</ele>
        <time>2021-08-09T14:14:47Z</time>
      </trkpt>
      <trkpt lat="46.54215" lon="5.5366">
        <ele>522.2</ele>
        <time>2021-08-09T14:14:48Z</time>
      </trkpt>
      <trkpt lat="46.54221" lon="5.53648">
        <ele>521.8</ele>
        <time>2021-08-09T14:14:49Z</time>
      </trkpt>
      <trkpt lat="46.54238" lon="5.53614">
        <ele>521.4</ele>
        <time>2021-08-09T14:14:52Z</time>
      </trkpt>
      <trkpt lat="46.54268" lon="5.53557">
        <ele>520.8</ele>
        <time>2021-08-09T14:14:57Z</time>
      </trkpt>
      <trkpt lat="46.54273" lon="5.53545">
        <ele>520.6</ele>
        <time>2021-08-09T14:14:58Z</time>
      </trkpt>
      <trkpt lat="46.54295" lon="5.53482">
        <ele>520</ele>
        <time>2021-08-09T14:15:03Z</time>
      </trkpt>
      <trkpt lat="46.543" lon="5.53471">
        <ele>519.8</ele>
        <time>2021-08-09T14:15:04Z</time>
      </trkpt>
      <trkpt lat="46.54308" lon="5.53458">
        <ele>519.6</ele>
        <time>2021-08-09T14:15:05Z</time>
      </trkpt>
      <trkpt lat="46.54315" lon="5.53449">
        <ele>519.4</ele>
        <time>2021-08-09T14:15:06Z</time>
      </trkpt>
      <trkpt lat="46.54344" lon="5.53411">
        <ele>519</ele>
        <time>2021-08-09T14:15:10Z</time>
      </trkpt>
      <trkpt lat="46.5435" lon="5.53399">
        <ele>518.8</ele>
        <time>2021-08-09T14:15:11Z</time>
      </trkpt>
      <trkpt lat="46.54354" lon="5.53385">
        <ele>518.4</ele>
        <time>2021-08-09T14:15:12Z</time>
      </trkpt>
      <trkpt lat="46.54359" lon="5.5336">
        <ele>518</ele>
        <time>2021-08-09T14:15:14Z</time>
      </trkpt>
      <trkpt lat="46.54366" lon="5.53329">
        <ele>517.6</ele>
        <time>2021-08-09T14:15:16Z</time>
      </trkpt>
      <trkpt lat="46.5437" lon="5.53316">
        <ele>517.2</ele>
        <time>2021-08-09T14:15:17Z</time>
      </trkpt>
      <trkpt lat="46.54375" lon="5.53306">
        <ele>517</ele>
        <time>2021-08-09T14:15:18Z</time>
      </trkpt>
      <trkpt lat="46.5439" lon="5.53284">
        <ele>516.6</ele>
        <time>2021-08-09T14:15:20Z</time>
      </trkpt>
      <trkpt lat="46.54401" lon="5.53274">
        <ele>516.2</ele>
        <time>2021-08-09T14:15:21Z</time>
      </trkpt>
      <trkpt lat="46.5441" lon="5.53269">
        <ele>515.8</ele>
        <time>2021-08-09T14:15:22Z</time>
      </trkpt>
      <trkpt lat="46.54431" lon="5.53261">
        <ele>514.4</ele>
        <time>2021-08-09T14:15:24Z</time>
      </trkpt>
      <trkpt lat="46.54454" lon="5.53255">
        <ele>513</ele>
        <time>2021-08-09T14:15:26Z</time>
      </trkpt>
      <trkpt lat="46.54477" lon="5.5325">
        <ele>511.8</ele>
        <time>2021-08-09T14:15:28Z</time>
      </trkpt>
      <trkpt lat="46.54502" lon="5.53245">
        <ele>510.8</ele>
        <time>2021-08-09T14:15:30Z</time>
      </trkpt>
      <trkpt lat="46.54514" lon="5.53242">
        <ele>509.8</ele>
        <time>2021-08-09T14:15:31Z</time>
      </trkpt>
      <trkpt lat="46.54538" lon="5.53236">
        <ele>508.2</ele>
        <time>2021-08-09T14:15:33Z</time>
      </trkpt>
      <trkpt lat="46.54563" lon="5.53229">
        <ele>506.8</ele>
        <time>2021-08-09T14:15:35Z</time>
      </trkpt>
      <trkpt lat="46.54587" lon="5.53222">
        <ele>505.4</ele>
        <time>2021-08-09T14:15:37Z</time>
      </trkpt>
      <trkpt lat="46.54599" lon="5.53217">
        <ele>504.2</ele>
        <time>2021-08-09T14:15:38Z</time>
      </trkpt>
      <trkpt lat="46.54623" lon="5.53208">
        <ele>502.8</ele>
        <time>2021-08-09T14:15:40Z</time>
      </trkpt>
      <trkpt lat="46.54647" lon="5.53199">
        <ele>501.8</ele>
        <time>2021-08-09T14:15:42Z</time>
      </trkpt>
      <trkpt lat="46.54672" lon="5.53194">
        <ele>500.6</ele>
        <time>2021-08-09T14:15:44Z</time>
      </trkpt>
      <trkpt lat="46.5471" lon="5.53197">
        <ele>499</ele>
        <time>2021-08-09T14:15:47Z</time>
      </trkpt>
      <trkpt lat="46.54723" lon="5.53198">
        <ele>498.8</ele>
        <time>2021-08-09T14:15:48Z</time>
      </trkpt>
      <trkpt lat="46.54735" lon="5.53199">
        <ele>497.8</ele>
        <time>2021-08-09T14:15:49Z</time>
      </trkpt>
      <trkpt lat="46.5476" lon="5.53197">
        <ele>495.8</ele>
        <time>2021-08-09T14:15:51Z</time>
      </trkpt>
      <trkpt lat="46.54773" lon="5.53194">
        <ele>494.8</ele>
        <time>2021-08-09T14:15:52Z</time>
      </trkpt>
      <trkpt lat="46.54785" lon="5.5319">
        <ele>494.4</ele>
        <time>2021-08-09T14:15:53Z</time>
      </trkpt>
      <trkpt lat="46.54808" lon="5.53178">
        <ele>493.2</ele>
        <time>2021-08-09T14:15:55Z</time>
      </trkpt>
      <trkpt lat="46.5482" lon="5.53172">
        <ele>492.6</ele>
        <time>2021-08-09T14:15:56Z</time>
      </trkpt>
      <trkpt lat="46.54842" lon="5.5316">
        <ele>491.4</ele>
        <time>2021-08-09T14:15:58Z</time>
      </trkpt>
      <trkpt lat="46.54864" lon="5.53147">
        <ele>490.6</ele>
        <time>2021-08-09T14:16:00Z</time>
      </trkpt>
      <trkpt lat="46.54874" lon="5.53139">
        <ele>490.2</ele>
        <time>2021-08-09T14:16:01Z</time>
      </trkpt>
      <trkpt lat="46.54883" lon="5.53129">
        <ele>490</ele>
        <time>2021-08-09T14:16:02Z</time>
      </trkpt>
      <trkpt lat="46.54904" lon="5.5309">
        <ele>488.8</ele>
        <time>2021-08-09T14:16:05Z</time>
      </trkpt>
      <trkpt lat="46.54924" lon="5.53047">
        <ele>487.4</ele>
        <time>2021-08-09T14:16:08Z</time>
      </trkpt>
      <trkpt lat="46.54937" lon="5.53017">
        <ele>486.2</ele>
        <time>2021-08-09T14:16:10Z</time>
      </trkpt>
      <trkpt lat="46.54948" lon="5.52986">
        <ele>485.2</ele>
        <time>2021-08-09T14:16:12Z</time>
      </trkpt>
      <trkpt lat="46.54952" lon="5.52969">
        <ele>484.6</ele>
        <time>2021-08-09T14:16:13Z</time>
      </trkpt>
      <trkpt lat="46.54959" lon="5.52935">
        <ele>483.2</ele>
        <time>2021-08-09T14:16:15Z</time>
      </trkpt>
      <trkpt lat="46.54973" lon="5.52886">
        <ele>482</ele>
        <time>2021-08-09T14:16:18Z</time>
      </trkpt>
      <trkpt lat="46.54993" lon="5.52846">
        <ele>480.6</ele>
        <time>2021-08-09T14:16:21Z</time>
      </trkpt>
      <trkpt lat="46.55031" lon="5.52793">
        <ele>479.6</ele>
        <time>2021-08-09T14:16:26Z</time>
      </trkpt>
      <trkpt lat="46.55038" lon="5.52782">
        <ele>479.6</ele>
        <time>2021-08-09T14:16:27Z</time>
      </trkpt>
      <trkpt lat="46.55055" lon="5.52747">
        <ele>479.4</ele>
        <time>2021-08-09T14:16:30Z</time>
      </trkpt>
      <trkpt lat="46.55085" lon="5.52675">
        <ele>479.2</ele>
        <time>2021-08-09T14:16:36Z</time>
      </trkpt>
      <trkpt lat="46.55097" lon="5.52641">
        <ele>479</ele>
        <time>2021-08-09T14:16:39Z</time>
      </trkpt>
      <trkpt lat="46.55099" lon="5.5263">
        <ele>479</ele>
        <time>2021-08-09T14:16:40Z</time>
      </trkpt>
      <trkpt lat="46.551" lon="5.52618">
        <ele>479</ele>
        <time>2021-08-09T14:16:41Z</time>
      </trkpt>
      <trkpt lat="46.55097" lon="5.52597">
        <ele>479</ele>
        <time>2021-08-09T14:16:43Z</time>
      </trkpt>
      <trkpt lat="46.55087" lon="5.52563">
        <ele>480.2</ele>
        <time>2021-08-09T14:16:47Z</time>
      </trkpt>
      <trkpt lat="46.55081" lon="5.52548">
        <ele>480.6</ele>
        <time>2021-08-09T14:16:49Z</time>
      </trkpt>
      <trkpt lat="46.55075" lon="5.52526">
        <ele>482</ele>
        <time>2021-08-09T14:16:52Z</time>
      </trkpt>
      <trkpt lat="46.55072" lon="5.52519">
        <ele>482.2</ele>
        <time>2021-08-09T14:16:53Z</time>
      </trkpt>
      <trkpt lat="46.55067" lon="5.52505">
        <ele>483.2</ele>
        <time>2021-08-09T14:16:55Z</time>
      </trkpt>
      <trkpt lat="46.5506" lon="5.52486">
        <ele>484.2</ele>
        <time>2021-08-09T14:16:58Z</time>
      </trkpt>
      <trkpt lat="46.55053" lon="5.52466">
        <ele>485.2</ele>
        <time>2021-08-09T14:17:01Z</time>
      </trkpt>
      <trkpt lat="46.55051" lon="5.5246">
        <ele>485.4</ele>
        <time>2021-08-09T14:17:02Z</time>
      </trkpt>
      <trkpt lat="46.55042" lon="5.52434">
        <ele>486.8</ele>
        <time>2021-08-09T14:17:06Z</time>
      </trkpt>
      <trkpt lat="46.55036" lon="5.52415">
        <ele>487.8</ele>
        <time>2021-08-09T14:17:09Z</time>
      </trkpt>
      <trkpt lat="46.55027" lon="5.52386">
        <ele>488.8</ele>
        <time>2021-08-09T14:17:14Z</time>
      </trkpt>
      <trkpt lat="46.5502" lon="5.52364">
        <ele>489.6</ele>
        <time>2021-08-09T14:17:18Z</time>
      </trkpt>
      <trkpt lat="46.55018" lon="5.52359">
        <ele>490</ele>
        <time>2021-08-09T14:17:19Z</time>
      </trkpt>
      <trkpt lat="46.55012" lon="5.52343">
        <ele>491</ele>
        <time>2021-08-09T14:17:22Z</time>
      </trkpt>
      <trkpt lat="46.55003" lon="5.52323">
        <ele>492</ele>
        <time>2021-08-09T14:17:26Z</time>
      </trkpt>
      <trkpt lat="46.55" lon="5.52319">
        <ele>492.2</ele>
        <time>2021-08-09T14:17:27Z</time>
      </trkpt>
      <trkpt lat="46.54995" lon="5.52309">
        <ele>492.6</ele>
        <time>2021-08-09T14:17:29Z</time>
      </trkpt>
      <trkpt lat="46.54986" lon="5.52297">
        <ele>493</ele>
        <time>2021-08-09T14:17:32Z</time>
      </trkpt>
      <trkpt lat="46.54983" lon="5.52294">
        <ele>493.2</ele>
        <time>2021-08-09T14:17:33Z</time>
      </trkpt>
      <trkpt lat="46.54969" lon="5.5228">
        <ele>494.4</ele>
        <time>2021-08-09T14:17:37Z</time>
      </trkpt>
      <trkpt lat="46.54955" lon="5.52269">
        <ele>495.4</ele>
        <time>2021-08-09T14:17:41Z</time>
      </trkpt>
      <trkpt lat="46.54931" lon="5.52257">
        <ele>496.6</ele>
        <time>2021-08-09T14:17:47Z</time>
      </trkpt>
      <trkpt lat="46.54919" lon="5.52252">
        <ele>498</ele>
        <time>2021-08-09T14:17:50Z</time>
      </trkpt>
      <trkpt lat="46.54911" lon="5.52249">
        <ele>498.4</ele>
        <time>2021-08-09T14:17:52Z</time>
      </trkpt>
      <trkpt lat="46.54895" lon="5.52243">
        <ele>499</ele>
        <time>2021-08-09T14:17:56Z</time>
      </trkpt>
      <trkpt lat="46.54871" lon="5.52234">
        <ele>500</ele>
        <time>2021-08-09T14:18:02Z</time>
      </trkpt>
      <trkpt lat="46.54867" lon="5.52232">
        <ele>500.4</ele>
        <time>2021-08-09T14:18:03Z</time>
      </trkpt>
      <trkpt lat="46.54846" lon="5.52223">
        <ele>501.4</ele>
        <time>2021-08-09T14:18:08Z</time>
      </trkpt>
      <trkpt lat="46.54827" lon="5.52212">
        <ele>502.6</ele>
        <time>2021-08-09T14:18:13Z</time>
      </trkpt>
      <trkpt lat="46.54811" lon="5.52201">
        <ele>503.6</ele>
        <time>2021-08-09T14:18:17Z</time>
      </trkpt>
      <trkpt lat="46.54797" lon="5.5219">
        <ele>504.6</ele>
        <time>2021-08-09T14:18:21Z</time>
      </trkpt>
      <trkpt lat="46.54793" lon="5.52187">
        <ele>504.8</ele>
        <time>2021-08-09T14:18:22Z</time>
      </trkpt>
      <trkpt lat="46.54779" lon="5.52175">
        <ele>505.8</ele>
        <time>2021-08-09T14:18:26Z</time>
      </trkpt>
      <trkpt lat="46.54757" lon="5.52159">
        <ele>506.8</ele>
        <time>2021-08-09T14:18:32Z</time>
      </trkpt>
      <trkpt lat="46.5475" lon="5.52155">
        <ele>508</ele>
        <time>2021-08-09T14:18:34Z</time>
      </trkpt>
      <trkpt lat="46.54723" lon="5.52142">
        <ele>509.2</ele>
        <time>2021-08-09T14:18:41Z</time>
      </trkpt>
      <trkpt lat="46.54719" lon="5.5214">
        <ele>509.4</ele>
        <time>2021-08-09T14:18:42Z</time>
      </trkpt>
      <trkpt lat="46.54706" lon="5.52137">
        <ele>510.6</ele>
        <time>2021-08-09T14:18:45Z</time>
      </trkpt>
      <trkpt lat="46.54685" lon="5.5213">
        <ele>511.8</ele>
        <time>2021-08-09T14:18:50Z</time>
      </trkpt>
      <trkpt lat="46.54677" lon="5.52126">
        <ele>512.6</ele>
        <time>2021-08-09T14:18:52Z</time>
      </trkpt>
      <trkpt lat="46.54664" lon="5.52119">
        <ele>513</ele>
        <time>2021-08-09T14:18:55Z</time>
      </trkpt>
      <trkpt lat="46.54643" lon="5.52105">
        <ele>514</ele>
        <time>2021-08-09T14:19:01Z</time>
      </trkpt>
      <trkpt lat="46.54639" lon="5.52102">
        <ele>514.4</ele>
        <time>2021-08-09T14:19:02Z</time>
      </trkpt>
      <trkpt lat="46.54628" lon="5.52093">
        <ele>515.2</ele>
        <time>2021-08-09T14:19:05Z</time>
      </trkpt>
      <trkpt lat="46.54607" lon="5.52072">
        <ele>516.4</ele>
        <time>2021-08-09T14:19:11Z</time>
      </trkpt>
      <trkpt lat="46.54582" lon="5.52044">
        <ele>517.4</ele>
        <time>2021-08-09T14:19:17Z</time>
      </trkpt>
      <trkpt lat="46.54556" lon="5.52016">
        <ele>517.6</ele>
        <time>2021-08-09T14:19:22Z</time>
      </trkpt>
      <trkpt lat="46.54508" lon="5.51962">
        <ele>518</ele>
        <time>2021-08-09T14:19:31Z</time>
      </trkpt>
      <trkpt lat="46.54471" lon="5.51922">
        <ele>517.8</ele>
        <time>2021-08-09T14:19:37Z</time>
      </trkpt>
      <trkpt lat="46.54424" lon="5.51869">
        <ele>516.8</ele>
        <time>2021-08-09T14:19:45Z</time>
      </trkpt>
      <trkpt lat="46.54418" lon="5.51863">
        <ele>516.8</ele>
        <time>2021-08-09T14:19:46Z</time>
      </trkpt>
      <trkpt lat="46.54388" lon="5.5183">
        <ele>517.4</ele>
        <time>2021-08-09T14:19:52Z</time>
      </trkpt>
      <trkpt lat="46.54364" lon="5.51804">
        <ele>518.4</ele>
        <time>2021-08-09T14:19:57Z</time>
      </trkpt>
      <trkpt lat="46.5436" lon="5.51799">
        <ele>518.8</ele>
        <time>2021-08-09T14:19:58Z</time>
      </trkpt>
      <trkpt lat="46.5434" lon="5.51783">
        <ele>519.6</ele>
        <time>2021-08-09T14:20:02Z</time>
      </trkpt>
      <trkpt lat="46.54325" lon="5.51774">
        <ele>520</ele>
        <time>2021-08-09T14:20:05Z</time>
      </trkpt>
      <trkpt lat="46.54314" lon="5.5177">
        <ele>520.8</ele>
        <time>2021-08-09T14:20:07Z</time>
      </trkpt>
      <trkpt lat="46.54285" lon="5.5176">
        <ele>522</ele>
        <time>2021-08-09T14:20:12Z</time>
      </trkpt>
      <trkpt lat="46.54273" lon="5.51755">
        <ele>522.2</ele>
        <time>2021-08-09T14:20:14Z</time>
      </trkpt>
      <trkpt lat="46.54249" lon="5.51743">
        <ele>523.2</ele>
        <time>2021-08-09T14:20:18Z</time>
      </trkpt>
      <trkpt lat="46.54237" lon="5.51734">
        <ele>523.6</ele>
        <time>2021-08-09T14:20:20Z</time>
      </trkpt>
      <trkpt lat="46.54201" lon="5.51695">
        <ele>524.4</ele>
        <time>2021-08-09T14:20:27Z</time>
      </trkpt>
      <trkpt lat="46.5419" lon="5.51682">
        <ele>524.4</ele>
        <time>2021-08-09T14:20:29Z</time>
      </trkpt>
      <trkpt lat="46.54144" lon="5.51626">
        <ele>525</ele>
        <time>2021-08-09T14:20:38Z</time>
      </trkpt>
      <trkpt lat="46.54107" lon="5.5158">
        <ele>525.2</ele>
        <time>2021-08-09T14:20:45Z</time>
      </trkpt>
      <trkpt lat="46.54064" lon="5.51526">
        <ele>524.8</ele>
        <time>2021-08-09T14:20:52Z</time>
      </trkpt>
      <trkpt lat="46.54021" lon="5.51473">
        <ele>523.6</ele>
        <time>2021-08-09T14:20:59Z</time>
      </trkpt>
      <trkpt lat="46.54004" lon="5.51453">
        <ele>523.8</ele>
        <time>2021-08-09T14:21:02Z</time>
      </trkpt>
      <trkpt lat="46.53975" lon="5.51419">
        <ele>524.4</ele>
        <time>2021-08-09T14:21:08Z</time>
      </trkpt>
      <trkpt lat="46.53959" lon="5.514">
        <ele>525.4</ele>
        <time>2021-08-09T14:21:12Z</time>
      </trkpt>
      <trkpt lat="46.53945" lon="5.51386">
        <ele>526.2</ele>
        <time>2021-08-09T14:21:15Z</time>
      </trkpt>
      <trkpt lat="46.53941" lon="5.51381">
        <ele>526.6</ele>
        <time>2021-08-09T14:21:16Z</time>
      </trkpt>
      <trkpt lat="46.53918" lon="5.51356">
        <ele>527.8</ele>
        <time>2021-08-09T14:21:21Z</time>
      </trkpt>
      <trkpt lat="46.53895" lon="5.51332">
        <ele>529.2</ele>
        <time>2021-08-09T14:21:26Z</time>
      </trkpt>
      <trkpt lat="46.53881" lon="5.51317">
        <ele>530.4</ele>
        <time>2021-08-09T14:21:29Z</time>
      </trkpt>
      <trkpt lat="46.5385" lon="5.51282">
        <ele>531.2</ele>
        <time>2021-08-09T14:21:36Z</time>
      </trkpt>
      <trkpt lat="46.53833" lon="5.51263">
        <ele>531.4</ele>
        <time>2021-08-09T14:21:40Z</time>
      </trkpt>
      <trkpt lat="46.53824" lon="5.51253">
        <ele>532</ele>
        <time>2021-08-09T14:21:42Z</time>
      </trkpt>
      <trkpt lat="46.53816" lon="5.5124">
        <ele>532.2</ele>
        <time>2021-08-09T14:21:44Z</time>
      </trkpt>
      <trkpt lat="46.53804" lon="5.51219">
        <ele>532.6</ele>
        <time>2021-08-09T14:21:47Z</time>
      </trkpt>
      <trkpt lat="46.53791" lon="5.51194">
        <ele>532.6</ele>
        <time>2021-08-09T14:21:50Z</time>
      </trkpt>
      <trkpt lat="46.53758" lon="5.51129">
        <ele>531.8</ele>
        <time>2021-08-09T14:21:57Z</time>
      </trkpt>
      <trkpt lat="46.53753" lon="5.51119">
        <ele>531.4</ele>
        <time>2021-08-09T14:21:58Z</time>
      </trkpt>
      <trkpt lat="46.53732" lon="5.51077">
        <ele>530</ele>
        <time>2021-08-09T14:22:02Z</time>
      </trkpt>
      <trkpt lat="46.53722" lon="5.51055">
        <ele>529</ele>
        <time>2021-08-09T14:22:04Z</time>
      </trkpt>
      <trkpt lat="46.53712" lon="5.51036">
        <ele>528</ele>
        <time>2021-08-09T14:22:06Z</time>
      </trkpt>
      <trkpt lat="46.53702" lon="5.51016">
        <ele>526.8</ele>
        <time>2021-08-09T14:22:08Z</time>
      </trkpt>
      <trkpt lat="46.53692" lon="5.50995">
        <ele>525.8</ele>
        <time>2021-08-09T14:22:10Z</time>
      </trkpt>
      <trkpt lat="46.53671" lon="5.50952">
        <ele>524.4</ele>
        <time>2021-08-09T14:22:14Z</time>
      </trkpt>
      <trkpt lat="46.5366" lon="5.5093">
        <ele>523.2</ele>
        <time>2021-08-09T14:22:16Z</time>
      </trkpt>
      <trkpt lat="46.53644" lon="5.50898">
        <ele>522</ele>
        <time>2021-08-09T14:22:19Z</time>
      </trkpt>
      <trkpt lat="46.53611" lon="5.50831">
        <ele>521</ele>
        <time>2021-08-09T14:22:25Z</time>
      </trkpt>
      <trkpt lat="46.53594" lon="5.50796">
        <ele>519.8</ele>
        <time>2021-08-09T14:22:28Z</time>
      </trkpt>
      <trkpt lat="46.53564" lon="5.50735">
        <ele>518.8</ele>
        <time>2021-08-09T14:22:33Z</time>
      </trkpt>
      <trkpt lat="46.53558" lon="5.50723">
        <ele>518.2</ele>
        <time>2021-08-09T14:22:34Z</time>
      </trkpt>
      <trkpt lat="46.5354" lon="5.50687">
        <ele>517</ele>
        <time>2021-08-09T14:22:37Z</time>
      </trkpt>
      <trkpt lat="46.53527" lon="5.50662">
        <ele>515.8</ele>
        <time>2021-08-09T14:22:39Z</time>
      </trkpt>
      <trkpt lat="46.5351" lon="5.50626">
        <ele>515.2</ele>
        <time>2021-08-09T14:22:42Z</time>
      </trkpt>
      <trkpt lat="46.53498" lon="5.50601">
        <ele>514.6</ele>
        <time>2021-08-09T14:22:44Z</time>
      </trkpt>
      <trkpt lat="46.53481" lon="5.50566">
        <ele>513.6</ele>
        <time>2021-08-09T14:22:47Z</time>
      </trkpt>
      <trkpt lat="46.53464" lon="5.50532">
        <ele>512.6</ele>
        <time>2021-08-09T14:22:50Z</time>
      </trkpt>
      <trkpt lat="46.53458" lon="5.50521">
        <ele>512</ele>
        <time>2021-08-09T14:22:51Z</time>
      </trkpt>
      <trkpt lat="46.53427" lon="5.50457">
        <ele>511.8</ele>
        <time>2021-08-09T14:22:57Z</time>
      </trkpt>
      <trkpt lat="46.53397" lon="5.50396">
        <ele>512.6</ele>
        <time>2021-08-09T14:23:03Z</time>
      </trkpt>
      <trkpt lat="46.53362" lon="5.50325">
        <ele>512.8</ele>
        <time>2021-08-09T14:23:10Z</time>
      </trkpt>
      <trkpt lat="46.53352" lon="5.50305">
        <ele>512.8</ele>
        <time>2021-08-09T14:23:12Z</time>
      </trkpt>
      <trkpt lat="46.53317" lon="5.50237">
        <ele>512.4</ele>
        <time>2021-08-09T14:23:18Z</time>
      </trkpt>
      <trkpt lat="46.533" lon="5.50201">
        <ele>511.4</ele>
        <time>2021-08-09T14:23:21Z</time>
      </trkpt>
      <trkpt lat="46.53269" lon="5.50141">
        <ele>510</ele>
        <time>2021-08-09T14:23:26Z</time>
      </trkpt>
      <trkpt lat="46.53257" lon="5.50116">
        <ele>509</ele>
        <time>2021-08-09T14:23:28Z</time>
      </trkpt>
      <trkpt lat="46.53238" lon="5.50075">
        <ele>508</ele>
        <time>2021-08-09T14:23:31Z</time>
      </trkpt>
      <trkpt lat="46.53231" lon="5.50061">
        <ele>506.2</ele>
        <time>2021-08-09T14:23:32Z</time>
      </trkpt>
      <trkpt lat="46.53217" lon="5.50033">
        <ele>504.2</ele>
        <time>2021-08-09T14:23:34Z</time>
      </trkpt>
      <trkpt lat="46.5321" lon="5.50018">
        <ele>503</ele>
        <time>2021-08-09T14:23:35Z</time>
      </trkpt>
      <trkpt lat="46.53195" lon="5.49989">
        <ele>502</ele>
        <time>2021-08-09T14:23:37Z</time>
      </trkpt>
      <trkpt lat="46.53188" lon="5.49974">
        <ele>501.8</ele>
        <time>2021-08-09T14:23:38Z</time>
      </trkpt>
      <trkpt lat="46.53173" lon="5.49943">
        <ele>500.8</ele>
        <time>2021-08-09T14:23:40Z</time>
      </trkpt>
      <trkpt lat="46.53165" lon="5.49928">
        <ele>499.8</ele>
        <time>2021-08-09T14:23:41Z</time>
      </trkpt>
      <trkpt lat="46.53158" lon="5.49913">
        <ele>498</ele>
        <time>2021-08-09T14:23:42Z</time>
      </trkpt>
      <trkpt lat="46.53143" lon="5.49882">
        <ele>496</ele>
        <time>2021-08-09T14:23:44Z</time>
      </trkpt>
      <trkpt lat="46.53129" lon="5.49852">
        <ele>494.6</ele>
        <time>2021-08-09T14:23:46Z</time>
      </trkpt>
      <trkpt lat="46.53115" lon="5.49824">
        <ele>493.6</ele>
        <time>2021-08-09T14:23:48Z</time>
      </trkpt>
      <trkpt lat="46.53095" lon="5.49783">
        <ele>492</ele>
        <time>2021-08-09T14:23:51Z</time>
      </trkpt>
      <trkpt lat="46.53088" lon="5.4977">
        <ele>491.8</ele>
        <time>2021-08-09T14:23:52Z</time>
      </trkpt>
      <trkpt lat="46.53053" lon="5.49696">
        <ele>491</ele>
        <time>2021-08-09T14:23:58Z</time>
      </trkpt>
      <trkpt lat="46.53022" lon="5.49635">
        <ele>492</ele>
        <time>2021-08-09T14:24:04Z</time>
      </trkpt>
      <trkpt lat="46.53" lon="5.49604">
        <ele>493</ele>
        <time>2021-08-09T14:24:08Z</time>
      </trkpt>
      <trkpt lat="46.52995" lon="5.49597">
        <ele>493.2</ele>
        <time>2021-08-09T14:24:09Z</time>
      </trkpt>
      <trkpt lat="46.52975" lon="5.49572">
        <ele>494.2</ele>
        <time>2021-08-09T14:24:13Z</time>
      </trkpt>
      <trkpt lat="46.52959" lon="5.49554">
        <ele>495.6</ele>
        <time>2021-08-09T14:24:16Z</time>
      </trkpt>
      <trkpt lat="46.52954" lon="5.49548">
        <ele>495.8</ele>
        <time>2021-08-09T14:24:17Z</time>
      </trkpt>
      <trkpt lat="46.52943" lon="5.49537">
        <ele>496.6</ele>
        <time>2021-08-09T14:24:19Z</time>
      </trkpt>
      <trkpt lat="46.52911" lon="5.49501">
        <ele>497.6</ele>
        <time>2021-08-09T14:24:25Z</time>
      </trkpt>
      <trkpt lat="46.52906" lon="5.49494">
        <ele>497.8</ele>
        <time>2021-08-09T14:24:26Z</time>
      </trkpt>
      <trkpt lat="46.52865" lon="5.49434">
        <ele>498.2</ele>
        <time>2021-08-09T14:24:34Z</time>
      </trkpt>
      <trkpt lat="46.52824" lon="5.49373">
        <ele>498.4</ele>
        <time>2021-08-09T14:24:42Z</time>
      </trkpt>
      <trkpt lat="46.52798" lon="5.49335">
        <ele>498.6</ele>
        <time>2021-08-09T14:24:47Z</time>
      </trkpt>
      <trkpt lat="46.52793" lon="5.49327">
        <ele>498.6</ele>
        <time>2021-08-09T14:24:48Z</time>
      </trkpt>
      <trkpt lat="46.52751" lon="5.49265">
        <ele>498.6</ele>
        <time>2021-08-09T14:24:56Z</time>
      </trkpt>
      <trkpt lat="46.52746" lon="5.49257">
        <ele>498.6</ele>
        <time>2021-08-09T14:24:57Z</time>
      </trkpt>
      <trkpt lat="46.52706" lon="5.49199">
        <ele>499.2</ele>
        <time>2021-08-09T14:25:05Z</time>
      </trkpt>
      <trkpt lat="46.52693" lon="5.49178">
        <ele>499.8</ele>
        <time>2021-08-09T14:25:08Z</time>
      </trkpt>
      <trkpt lat="46.52671" lon="5.49145">
        <ele>500.6</ele>
        <time>2021-08-09T14:25:13Z</time>
      </trkpt>
      <trkpt lat="46.52662" lon="5.49133">
        <ele>501</ele>
        <time>2021-08-09T14:25:15Z</time>
      </trkpt>
      <trkpt lat="46.52646" lon="5.49109">
        <ele>502.2</ele>
        <time>2021-08-09T14:25:19Z</time>
      </trkpt>
      <trkpt lat="46.52638" lon="5.49097">
        <ele>502.6</ele>
        <time>2021-08-09T14:25:21Z</time>
      </trkpt>
      <trkpt lat="46.52626" lon="5.4908">
        <ele>503.2</ele>
        <time>2021-08-09T14:25:24Z</time>
      </trkpt>
      <trkpt lat="46.52611" lon="5.49056">
        <ele>504.4</ele>
        <time>2021-08-09T14:25:28Z</time>
      </trkpt>
      <trkpt lat="46.52604" lon="5.49043">
        <ele>504.8</ele>
        <time>2021-08-09T14:25:30Z</time>
      </trkpt>
      <trkpt lat="46.52595" lon="5.4902">
        <ele>505.4</ele>
        <time>2021-08-09T14:25:33Z</time>
      </trkpt>
      <trkpt lat="46.52589" lon="5.48993">
        <ele>506</ele>
        <time>2021-08-09T14:25:36Z</time>
      </trkpt>
      <trkpt lat="46.52579" lon="5.48932">
        <ele>506</ele>
        <time>2021-08-09T14:25:42Z</time>
      </trkpt>
      <trkpt lat="46.52565" lon="5.48855">
        <ele>505</ele>
        <time>2021-08-09T14:25:49Z</time>
      </trkpt>
      <trkpt lat="46.52564" lon="5.48832">
        <ele>504.8</ele>
        <time>2021-08-09T14:25:51Z</time>
      </trkpt>
      <trkpt lat="46.52565" lon="5.4881">
        <ele>504.8</ele>
        <time>2021-08-09T14:25:53Z</time>
      </trkpt>
      <trkpt lat="46.52576" lon="5.48756">
        <ele>504.4</ele>
        <time>2021-08-09T14:25:58Z</time>
      </trkpt>
      <trkpt lat="46.52593" lon="5.48684">
        <ele>505.2</ele>
        <time>2021-08-09T14:26:05Z</time>
      </trkpt>
      <trkpt lat="46.52606" lon="5.48603">
        <ele>504.8</ele>
        <time>2021-08-09T14:26:12Z</time>
      </trkpt>
      <trkpt lat="46.52609" lon="5.4859">
        <ele>504.6</ele>
        <time>2021-08-09T14:26:13Z</time>
      </trkpt>
      <trkpt lat="46.52617" lon="5.48571">
        <ele>504.6</ele>
        <time>2021-08-09T14:26:15Z</time>
      </trkpt>
      <trkpt lat="46.52635" lon="5.48545">
        <ele>504</ele>
        <time>2021-08-09T14:26:18Z</time>
      </trkpt>
      <trkpt lat="46.5264" lon="5.48536">
        <ele>503.6</ele>
        <time>2021-08-09T14:26:19Z</time>
      </trkpt>
      <trkpt lat="46.52644" lon="5.48526">
        <ele>503.6</ele>
        <time>2021-08-09T14:26:20Z</time>
      </trkpt>
      <trkpt lat="46.52645" lon="5.48502">
        <ele>503.4</ele>
        <time>2021-08-09T14:26:22Z</time>
      </trkpt>
      <trkpt lat="46.52639" lon="5.48478">
        <ele>502.8</ele>
        <time>2021-08-09T14:26:24Z</time>
      </trkpt>
      <trkpt lat="46.52634" lon="5.48466">
        <ele>502.6</ele>
        <time>2021-08-09T14:26:25Z</time>
      </trkpt>
      <trkpt lat="46.52629" lon="5.48454">
        <ele>502.4</ele>
        <time>2021-08-09T14:26:26Z</time>
      </trkpt>
      <trkpt lat="46.52623" lon="5.48441">
        <ele>502</ele>
        <time>2021-08-09T14:26:27Z</time>
      </trkpt>
      <trkpt lat="46.52616" lon="5.48413">
        <ele>501.2</ele>
        <time>2021-08-09T14:26:29Z</time>
      </trkpt>
      <trkpt lat="46.52611" lon="5.48366">
        <ele>499.4</ele>
        <time>2021-08-09T14:26:32Z</time>
      </trkpt>
      <trkpt lat="46.52607" lon="5.48335">
        <ele>498.6</ele>
        <time>2021-08-09T14:26:34Z</time>
      </trkpt>
      <trkpt lat="46.52605" lon="5.4832">
        <ele>497.8</ele>
        <time>2021-08-09T14:26:35Z</time>
      </trkpt>
      <trkpt lat="46.52596" lon="5.4829">
        <ele>496.8</ele>
        <time>2021-08-09T14:26:37Z</time>
      </trkpt>
      <trkpt lat="46.52589" lon="5.48275">
        <ele>496.4</ele>
        <time>2021-08-09T14:26:38Z</time>
      </trkpt>
      <trkpt lat="46.52581" lon="5.48262">
        <ele>495.4</ele>
        <time>2021-08-09T14:26:39Z</time>
      </trkpt>
      <trkpt lat="46.52563" lon="5.4824">
        <ele>494.4</ele>
        <time>2021-08-09T14:26:41Z</time>
      </trkpt>
      <trkpt lat="46.52553" lon="5.48231">
        <ele>493.6</ele>
        <time>2021-08-09T14:26:42Z</time>
      </trkpt>
      <trkpt lat="46.52531" lon="5.48215">
        <ele>492.6</ele>
        <time>2021-08-09T14:26:44Z</time>
      </trkpt>
      <trkpt lat="46.5252" lon="5.48208">
        <ele>491.8</ele>
        <time>2021-08-09T14:26:45Z</time>
      </trkpt>
      <trkpt lat="46.5251" lon="5.48202">
        <ele>490.8</ele>
        <time>2021-08-09T14:26:46Z</time>
      </trkpt>
      <trkpt lat="46.52487" lon="5.4819">
        <ele>489.6</ele>
        <time>2021-08-09T14:26:48Z</time>
      </trkpt>
      <trkpt lat="46.52465" lon="5.48182">
        <ele>488.8</ele>
        <time>2021-08-09T14:26:50Z</time>
      </trkpt>
      <trkpt lat="46.52453" lon="5.48179">
        <ele>488.4</ele>
        <time>2021-08-09T14:26:51Z</time>
      </trkpt>
      <trkpt lat="46.52418" lon="5.4817">
        <ele>486.2</ele>
        <time>2021-08-09T14:26:54Z</time>
      </trkpt>
      <trkpt lat="46.52407" lon="5.48169">
        <ele>485.4</ele>
        <time>2021-08-09T14:26:55Z</time>
      </trkpt>
      <trkpt lat="46.52396" lon="5.48168">
        <ele>484.4</ele>
        <time>2021-08-09T14:26:56Z</time>
      </trkpt>
      <trkpt lat="46.5237" lon="5.4817">
        <ele>483.2</ele>
        <time>2021-08-09T14:26:59Z</time>
      </trkpt>
      <trkpt lat="46.52364" lon="5.4817">
        <ele>482.8</ele>
        <time>2021-08-09T14:27:00Z</time>
      </trkpt>
      <trkpt lat="46.52354" lon="5.48167">
        <ele>482</ele>
        <time>2021-08-09T14:27:02Z</time>
      </trkpt>
      <trkpt lat="46.52352" lon="5.48163">
        <ele>481.6</ele>
        <time>2021-08-09T14:27:03Z</time>
      </trkpt>
      <trkpt lat="46.52352" lon="5.48158">
        <ele>481.6</ele>
        <time>2021-08-09T14:27:04Z</time>
      </trkpt>
      <trkpt lat="46.52356" lon="5.48154">
        <ele>481.2</ele>
        <time>2021-08-09T14:27:05Z</time>
      </trkpt>
      <trkpt lat="46.52368" lon="5.48149">
        <ele>480.4</ele>
        <time>2021-08-09T14:27:07Z</time>
      </trkpt>
      <trkpt lat="46.52376" lon="5.48147">
        <ele>480.2</ele>
        <time>2021-08-09T14:27:08Z</time>
      </trkpt>
      <trkpt lat="46.52394" lon="5.48143">
        <ele>479.4</ele>
        <time>2021-08-09T14:27:10Z</time>
      </trkpt>
      <trkpt lat="46.52413" lon="5.48137">
        <ele>478.2</ele>
        <time>2021-08-09T14:27:12Z</time>
      </trkpt>
      <trkpt lat="46.52433" lon="5.48132">
        <ele>476.8</ele>
        <time>2021-08-09T14:27:14Z</time>
      </trkpt>
      <trkpt lat="46.52454" lon="5.48125">
        <ele>475.6</ele>
        <time>2021-08-09T14:27:16Z</time>
      </trkpt>
      <trkpt lat="46.52465" lon="5.48122">
        <ele>475</ele>
        <time>2021-08-09T14:27:17Z</time>
      </trkpt>
      <trkpt lat="46.52487" lon="5.48116">
        <ele>474.4</ele>
        <time>2021-08-09T14:27:19Z</time>
      </trkpt>
      <trkpt lat="46.52509" lon="5.48109">
        <ele>472.6</ele>
        <time>2021-08-09T14:27:21Z</time>
      </trkpt>
      <trkpt lat="46.52532" lon="5.48106">
        <ele>471.4</ele>
        <time>2021-08-09T14:27:23Z</time>
      </trkpt>
      <trkpt lat="46.52554" lon="5.48107">
        <ele>470.2</ele>
        <time>2021-08-09T14:27:25Z</time>
      </trkpt>
      <trkpt lat="46.52564" lon="5.48109">
        <ele>469</ele>
        <time>2021-08-09T14:27:26Z</time>
      </trkpt>
      <trkpt lat="46.52578" lon="5.48111">
        <ele>468.6</ele>
        <time>2021-08-09T14:27:27Z</time>
      </trkpt>
      <trkpt lat="46.52602" lon="5.48117">
        <ele>468.2</ele>
        <time>2021-08-09T14:27:29Z</time>
      </trkpt>
      <trkpt lat="46.52626" lon="5.48122">
        <ele>466</ele>
        <time>2021-08-09T14:27:31Z</time>
      </trkpt>
      <trkpt lat="46.5265" lon="5.48127">
        <ele>464.6</ele>
        <time>2021-08-09T14:27:33Z</time>
      </trkpt>
      <trkpt lat="46.52663" lon="5.4813">
        <ele>464</ele>
        <time>2021-08-09T14:27:34Z</time>
      </trkpt>
      <trkpt lat="46.52675" lon="5.48132">
        <ele>463.4</ele>
        <time>2021-08-09T14:27:35Z</time>
      </trkpt>
      <trkpt lat="46.52699" lon="5.48137">
        <ele>462.2</ele>
        <time>2021-08-09T14:27:37Z</time>
      </trkpt>
      <trkpt lat="46.52722" lon="5.48142">
        <ele>460.8</ele>
        <time>2021-08-09T14:27:39Z</time>
      </trkpt>
      <trkpt lat="46.52734" lon="5.48144">
        <ele>459.6</ele>
        <time>2021-08-09T14:27:40Z</time>
      </trkpt>
      <trkpt lat="46.52745" lon="5.48145">
        <ele>459</ele>
        <time>2021-08-09T14:27:41Z</time>
      </trkpt>
      <trkpt lat="46.52755" lon="5.48147">
        <ele>458.4</ele>
        <time>2021-08-09T14:27:42Z</time>
      </trkpt>
      <trkpt lat="46.52794" lon="5.4815">
        <ele>457.2</ele>
        <time>2021-08-09T14:27:46Z</time>
      </trkpt>
      <trkpt lat="46.52812" lon="5.48141">
        <ele>456.6</ele>
        <time>2021-08-09T14:27:48Z</time>
      </trkpt>
      <trkpt lat="46.5282" lon="5.48131">
        <ele>456.2</ele>
        <time>2021-08-09T14:27:49Z</time>
      </trkpt>
      <trkpt lat="46.52832" lon="5.48107">
        <ele>456</ele>
        <time>2021-08-09T14:27:51Z</time>
      </trkpt>
      <trkpt lat="46.52841" lon="5.4808">
        <ele>455.2</ele>
        <time>2021-08-09T14:27:53Z</time>
      </trkpt>
      <trkpt lat="46.52846" lon="5.48066">
        <ele>454.8</ele>
        <time>2021-08-09T14:27:54Z</time>
      </trkpt>
      <trkpt lat="46.52858" lon="5.48024">
        <ele>453.8</ele>
        <time>2021-08-09T14:27:57Z</time>
      </trkpt>
      <trkpt lat="46.52866" lon="5.48">
        <ele>452.6</ele>
        <time>2021-08-09T14:27:59Z</time>
      </trkpt>
      <trkpt lat="46.52872" lon="5.4798">
        <ele>451.4</ele>
        <time>2021-08-09T14:28:01Z</time>
      </trkpt>
      <trkpt lat="46.52876" lon="5.47964">
        <ele>451</ele>
        <time>2021-08-09T14:28:03Z</time>
      </trkpt>
      <trkpt lat="46.5288" lon="5.47948">
        <ele>450.8</ele>
        <time>2021-08-09T14:28:07Z</time>
      </trkpt>
      <trkpt lat="46.5288" lon="5.47948">
        <ele>450.8</ele>
        <time>2021-08-09T14:28:09Z</time>
      </trkpt>
      <trkpt lat="46.52878" lon="5.47941">
        <ele>450.8</ele>
        <time>2021-08-09T14:28:16Z</time>
      </trkpt>
      <trkpt lat="46.52867" lon="5.47935">
        <ele>450.6</ele>
        <time>2021-08-09T14:28:19Z</time>
      </trkpt>
      <trkpt lat="46.52856" lon="5.47931">
        <ele>450.4</ele>
        <time>2021-08-09T14:28:21Z</time>
      </trkpt>
      <trkpt lat="46.52844" lon="5.47927">
        <ele>450.2</ele>
        <time>2021-08-09T14:28:23Z</time>
      </trkpt>
      <trkpt lat="46.52807" lon="5.47914">
        <ele>450</ele>
        <time>2021-08-09T14:28:28Z</time>
      </trkpt>
      <trkpt lat="46.52799" lon="5.47911">
        <ele>450</ele>
        <time>2021-08-09T14:28:29Z</time>
      </trkpt>
      <trkpt lat="46.52752" lon="5.47895">
        <ele>450</ele>
        <time>2021-08-09T14:28:35Z</time>
      </trkpt>
      <trkpt lat="46.52698" lon="5.47876">
        <ele>450.2</ele>
        <time>2021-08-09T14:28:42Z</time>
      </trkpt>
      <trkpt lat="46.5269" lon="5.47873">
        <ele>450.2</ele>
        <time>2021-08-09T14:28:43Z</time>
      </trkpt>
      <trkpt lat="46.52633" lon="5.47853">
        <ele>450.2</ele>
        <time>2021-08-09T14:28:50Z</time>
      </trkpt>
      <trkpt lat="46.52599" lon="5.4784">
        <ele>449.4</ele>
        <time>2021-08-09T14:28:54Z</time>
      </trkpt>
      <trkpt lat="46.52591" lon="5.47837">
        <ele>449.2</ele>
        <time>2021-08-09T14:28:55Z</time>
      </trkpt>
      <trkpt lat="46.52557" lon="5.47824">
        <ele>448.2</ele>
        <time>2021-08-09T14:28:59Z</time>
      </trkpt>
      <trkpt lat="46.52513" lon="5.47809">
        <ele>448</ele>
        <time>2021-08-09T14:29:04Z</time>
      </trkpt>
      <trkpt lat="46.52487" lon="5.478">
        <ele>447.2</ele>
        <time>2021-08-09T14:29:07Z</time>
      </trkpt>
      <trkpt lat="46.52433" lon="5.47779">
        <ele>446</ele>
        <time>2021-08-09T14:29:13Z</time>
      </trkpt>
      <trkpt lat="46.52381" lon="5.47758">
        <ele>445.8</ele>
        <time>2021-08-09T14:29:19Z</time>
      </trkpt>
      <trkpt lat="46.52346" lon="5.47743">
        <ele>445.2</ele>
        <time>2021-08-09T14:29:23Z</time>
      </trkpt>
      <trkpt lat="46.52337" lon="5.47738">
        <ele>445.2</ele>
        <time>2021-08-09T14:29:24Z</time>
      </trkpt>
      <trkpt lat="46.52284" lon="5.47714">
        <ele>444.6</ele>
        <time>2021-08-09T14:29:30Z</time>
      </trkpt>
      <trkpt lat="46.52259" lon="5.47702">
        <ele>444.6</ele>
        <time>2021-08-09T14:29:33Z</time>
      </trkpt>
      <trkpt lat="46.522" lon="5.47673">
        <ele>444.2</ele>
        <time>2021-08-09T14:29:40Z</time>
      </trkpt>
      <trkpt lat="46.52167" lon="5.47656">
        <ele>444.2</ele>
        <time>2021-08-09T14:29:44Z</time>
      </trkpt>
      <trkpt lat="46.52111" lon="5.47627">
        <ele>444.4</ele>
        <time>2021-08-09T14:29:51Z</time>
      </trkpt>
      <trkpt lat="46.52102" lon="5.47623">
        <ele>444.4</ele>
        <time>2021-08-09T14:29:52Z</time>
      </trkpt>
      <trkpt lat="46.52051" lon="5.47602">
        <ele>444.2</ele>
        <time>2021-08-09T14:29:58Z</time>
      </trkpt>
      <trkpt lat="46.52025" lon="5.47593">
        <ele>444</ele>
        <time>2021-08-09T14:30:01Z</time>
      </trkpt>
      <trkpt lat="46.51972" lon="5.47571">
        <ele>443.8</ele>
        <time>2021-08-09T14:30:07Z</time>
      </trkpt>
      <trkpt lat="46.51921" lon="5.4755">
        <ele>443.8</ele>
        <time>2021-08-09T14:30:13Z</time>
      </trkpt>
      <trkpt lat="46.51861" lon="5.47526">
        <ele>443.8</ele>
        <time>2021-08-09T14:30:20Z</time>
      </trkpt>
      <trkpt lat="46.51827" lon="5.47512">
        <ele>443.8</ele>
        <time>2021-08-09T14:30:24Z</time>
      </trkpt>
      <trkpt lat="46.51767" lon="5.47488">
        <ele>443.4</ele>
        <time>2021-08-09T14:30:31Z</time>
      </trkpt>
      <trkpt lat="46.5175" lon="5.47481">
        <ele>443.2</ele>
        <time>2021-08-09T14:30:33Z</time>
      </trkpt>
      <trkpt lat="46.51689" lon="5.47458">
        <ele>442.6</ele>
        <time>2021-08-09T14:30:40Z</time>
      </trkpt>
      <trkpt lat="46.51646" lon="5.4744">
        <ele>442.4</ele>
        <time>2021-08-09T14:30:45Z</time>
      </trkpt>
      <trkpt lat="46.51594" lon="5.47418">
        <ele>442.2</ele>
        <time>2021-08-09T14:30:51Z</time>
      </trkpt>
      <trkpt lat="46.51551" lon="5.474">
        <ele>441.8</ele>
        <time>2021-08-09T14:30:56Z</time>
      </trkpt>
      <trkpt lat="46.51498" lon="5.47379">
        <ele>441.6</ele>
        <time>2021-08-09T14:31:02Z</time>
      </trkpt>
      <trkpt lat="46.51472" lon="5.47369">
        <ele>441.4</ele>
        <time>2021-08-09T14:31:05Z</time>
      </trkpt>
      <trkpt lat="46.51412" lon="5.47345">
        <ele>441.4</ele>
        <time>2021-08-09T14:31:12Z</time>
      </trkpt>
      <trkpt lat="46.51395" lon="5.47338">
        <ele>441.4</ele>
        <time>2021-08-09T14:31:14Z</time>
      </trkpt>
      <trkpt lat="46.51341" lon="5.47316">
        <ele>441</ele>
        <time>2021-08-09T14:31:20Z</time>
      </trkpt>
      <trkpt lat="46.51306" lon="5.47302">
        <ele>440.8</ele>
        <time>2021-08-09T14:31:24Z</time>
      </trkpt>
      <trkpt lat="46.51247" lon="5.47278">
        <ele>440.4</ele>
        <time>2021-08-09T14:31:31Z</time>
      </trkpt>
      <trkpt lat="46.5123" lon="5.4727">
        <ele>440.4</ele>
        <time>2021-08-09T14:31:33Z</time>
      </trkpt>
      <trkpt lat="46.51171" lon="5.47246">
        <ele>440.4</ele>
        <time>2021-08-09T14:31:40Z</time>
      </trkpt>
      <trkpt lat="46.5113" lon="5.4723">
        <ele>440.6</ele>
        <time>2021-08-09T14:31:45Z</time>
      </trkpt>
      <trkpt lat="46.5107" lon="5.47209">
        <ele>440.4</ele>
        <time>2021-08-09T14:31:52Z</time>
      </trkpt>
      <trkpt lat="46.51009" lon="5.47186">
        <ele>440.4</ele>
        <time>2021-08-09T14:31:59Z</time>
      </trkpt>
      <trkpt lat="46.50984" lon="5.47176">
        <ele>440.4</ele>
        <time>2021-08-09T14:32:02Z</time>
      </trkpt>
      <trkpt lat="46.50926" lon="5.47148">
        <ele>440.6</ele>
        <time>2021-08-09T14:32:09Z</time>
      </trkpt>
      <trkpt lat="46.50893" lon="5.47132">
        <ele>440.6</ele>
        <time>2021-08-09T14:32:13Z</time>
      </trkpt>
      <trkpt lat="46.50837" lon="5.47109">
        <ele>440.6</ele>
        <time>2021-08-09T14:32:20Z</time>
      </trkpt>
      <trkpt lat="46.50829" lon="5.47105">
        <ele>440.8</ele>
        <time>2021-08-09T14:32:21Z</time>
      </trkpt>
      <trkpt lat="46.50769" lon="5.47082">
        <ele>440.4</ele>
        <time>2021-08-09T14:32:28Z</time>
      </trkpt>
      <trkpt lat="46.50742" lon="5.47071">
        <ele>440.2</ele>
        <time>2021-08-09T14:32:31Z</time>
      </trkpt>
      <trkpt lat="46.5069" lon="5.47051">
        <ele>439.8</ele>
        <time>2021-08-09T14:32:37Z</time>
      </trkpt>
      <trkpt lat="46.50646" lon="5.47038">
        <ele>439</ele>
        <time>2021-08-09T14:32:42Z</time>
      </trkpt>
      <trkpt lat="46.50592" lon="5.4702">
        <ele>438.6</ele>
        <time>2021-08-09T14:32:48Z</time>
      </trkpt>
      <trkpt lat="46.50574" lon="5.47015">
        <ele>438.6</ele>
        <time>2021-08-09T14:32:50Z</time>
      </trkpt>
      <trkpt lat="46.50539" lon="5.47003">
        <ele>438</ele>
        <time>2021-08-09T14:32:54Z</time>
      </trkpt>
      <trkpt lat="46.50481" lon="5.46985">
        <ele>437.6</ele>
        <time>2021-08-09T14:33:01Z</time>
      </trkpt>
      <trkpt lat="46.50425" lon="5.46967">
        <ele>438</ele>
        <time>2021-08-09T14:33:08Z</time>
      </trkpt>
      <trkpt lat="46.50371" lon="5.46962">
        <ele>439</ele>
        <time>2021-08-09T14:33:15Z</time>
      </trkpt>
      <trkpt lat="46.50363" lon="5.46962">
        <ele>439.2</ele>
        <time>2021-08-09T14:33:16Z</time>
      </trkpt>
      <trkpt lat="46.50315" lon="5.46963">
        <ele>440.4</ele>
        <time>2021-08-09T14:33:22Z</time>
      </trkpt>
      <trkpt lat="46.503" lon="5.46965">
        <ele>440.8</ele>
        <time>2021-08-09T14:33:24Z</time>
      </trkpt>
      <trkpt lat="46.50259" lon="5.46968">
        <ele>441.4</ele>
        <time>2021-08-09T14:33:29Z</time>
      </trkpt>
      <trkpt lat="46.50218" lon="5.46972">
        <ele>441.8</ele>
        <time>2021-08-09T14:33:34Z</time>
      </trkpt>
      <trkpt lat="46.50193" lon="5.46976">
        <ele>441.8</ele>
        <time>2021-08-09T14:33:37Z</time>
      </trkpt>
      <trkpt lat="46.50177" lon="5.46982">
        <ele>441.6</ele>
        <time>2021-08-09T14:33:39Z</time>
      </trkpt>
      <trkpt lat="46.50122" lon="5.47004">
        <ele>441.4</ele>
        <time>2021-08-09T14:33:46Z</time>
      </trkpt>
      <trkpt lat="46.50115" lon="5.47007">
        <ele>441.4</ele>
        <time>2021-08-09T14:33:47Z</time>
      </trkpt>
      <trkpt lat="46.50058" lon="5.47022">
        <ele>441.2</ele>
        <time>2021-08-09T14:33:54Z</time>
      </trkpt>
      <trkpt lat="46.50023" lon="5.47024">
        <ele>440.6</ele>
        <time>2021-08-09T14:33:58Z</time>
      </trkpt>
      <trkpt lat="46.49996" lon="5.47021">
        <ele>440.2</ele>
        <time>2021-08-09T14:34:01Z</time>
      </trkpt>
      <trkpt lat="46.4997" lon="5.47015">
        <ele>439.8</ele>
        <time>2021-08-09T14:34:04Z</time>
      </trkpt>
      <trkpt lat="46.4991" lon="5.46998">
        <ele>439.2</ele>
        <time>2021-08-09T14:34:11Z</time>
      </trkpt>
      <trkpt lat="46.49893" lon="5.46994">
        <ele>439</ele>
        <time>2021-08-09T14:34:13Z</time>
      </trkpt>
      <trkpt lat="46.49839" lon="5.46984">
        <ele>438.4</ele>
        <time>2021-08-09T14:34:19Z</time>
      </trkpt>
      <trkpt lat="46.49821" lon="5.46981">
        <ele>438</ele>
        <time>2021-08-09T14:34:21Z</time>
      </trkpt>
      <trkpt lat="46.49803" lon="5.46978">
        <ele>437.6</ele>
        <time>2021-08-09T14:34:23Z</time>
      </trkpt>
      <trkpt lat="46.49757" lon="5.4697">
        <ele>436.8</ele>
        <time>2021-08-09T14:34:28Z</time>
      </trkpt>
      <trkpt lat="46.49702" lon="5.46961">
        <ele>435.8</ele>
        <time>2021-08-09T14:34:34Z</time>
      </trkpt>
      <trkpt lat="46.49693" lon="5.46959">
        <ele>435.8</ele>
        <time>2021-08-09T14:34:35Z</time>
      </trkpt>
      <trkpt lat="46.49644" lon="5.46949">
        <ele>434.8</ele>
        <time>2021-08-09T14:34:40Z</time>
      </trkpt>
      <trkpt lat="46.49614" lon="5.46941">
        <ele>433.4</ele>
        <time>2021-08-09T14:34:43Z</time>
      </trkpt>
      <trkpt lat="46.49565" lon="5.46925">
        <ele>432.4</ele>
        <time>2021-08-09T14:34:48Z</time>
      </trkpt>
      <trkpt lat="46.49535" lon="5.46912">
        <ele>431.8</ele>
        <time>2021-08-09T14:34:51Z</time>
      </trkpt>
      <trkpt lat="46.49496" lon="5.46893">
        <ele>431.2</ele>
        <time>2021-08-09T14:34:55Z</time>
      </trkpt>
      <trkpt lat="46.49455" lon="5.46872">
        <ele>430.2</ele>
        <time>2021-08-09T14:34:59Z</time>
      </trkpt>
      <trkpt lat="46.49445" lon="5.46867">
        <ele>429.8</ele>
        <time>2021-08-09T14:35:00Z</time>
      </trkpt>
      <trkpt lat="46.49414" lon="5.46851">
        <ele>429.2</ele>
        <time>2021-08-09T14:35:03Z</time>
      </trkpt>
      <trkpt lat="46.49383" lon="5.46835">
        <ele>428</ele>
        <time>2021-08-09T14:35:06Z</time>
      </trkpt>
      <trkpt lat="46.49372" lon="5.46829">
        <ele>427.6</ele>
        <time>2021-08-09T14:35:07Z</time>
      </trkpt>
      <trkpt lat="46.4935" lon="5.46818">
        <ele>426.8</ele>
        <time>2021-08-09T14:35:09Z</time>
      </trkpt>
      <trkpt lat="46.49306" lon="5.46793">
        <ele>425.4</ele>
        <time>2021-08-09T14:35:13Z</time>
      </trkpt>
      <trkpt lat="46.49271" lon="5.46772">
        <ele>424.2</ele>
        <time>2021-08-09T14:35:16Z</time>
      </trkpt>
      <trkpt lat="46.49249" lon="5.46759">
        <ele>423</ele>
        <time>2021-08-09T14:35:18Z</time>
      </trkpt>
      <trkpt lat="46.49223" lon="5.46747">
        <ele>422</ele>
        <time>2021-08-09T14:35:20Z</time>
      </trkpt>
      <trkpt lat="46.49201" lon="5.46742">
        <ele>420.4</ele>
        <time>2021-08-09T14:35:22Z</time>
      </trkpt>
      <trkpt lat="46.49189" lon="5.46742">
        <ele>419.2</ele>
        <time>2021-08-09T14:35:23Z</time>
      </trkpt>
      <trkpt lat="46.49177" lon="5.46743">
        <ele>419</ele>
        <time>2021-08-09T14:35:24Z</time>
      </trkpt>
      <trkpt lat="46.49164" lon="5.46746">
        <ele>418</ele>
        <time>2021-08-09T14:35:25Z</time>
      </trkpt>
      <trkpt lat="46.49152" lon="5.46751">
        <ele>417.6</ele>
        <time>2021-08-09T14:35:26Z</time>
      </trkpt>
      <trkpt lat="46.49141" lon="5.46758">
        <ele>416.8</ele>
        <time>2021-08-09T14:35:27Z</time>
      </trkpt>
      <trkpt lat="46.49119" lon="5.46774">
        <ele>415.4</ele>
        <time>2021-08-09T14:35:29Z</time>
      </trkpt>
      <trkpt lat="46.49098" lon="5.46793">
        <ele>414</ele>
        <time>2021-08-09T14:35:31Z</time>
      </trkpt>
      <trkpt lat="46.49088" lon="5.46802">
        <ele>413</ele>
        <time>2021-08-09T14:35:32Z</time>
      </trkpt>
      <trkpt lat="46.49057" lon="5.46829">
        <ele>411.8</ele>
        <time>2021-08-09T14:35:35Z</time>
      </trkpt>
      <trkpt lat="46.49026" lon="5.46857">
        <ele>410.4</ele>
        <time>2021-08-09T14:35:38Z</time>
      </trkpt>
      <trkpt lat="46.49016" lon="5.46866">
        <ele>409.2</ele>
        <time>2021-08-09T14:35:39Z</time>
      </trkpt>
      <trkpt lat="46.48995" lon="5.46885">
        <ele>408</ele>
        <time>2021-08-09T14:35:41Z</time>
      </trkpt>
      <trkpt lat="46.48963" lon="5.46909">
        <ele>406.4</ele>
        <time>2021-08-09T14:35:44Z</time>
      </trkpt>
      <trkpt lat="46.48951" lon="5.46915">
        <ele>405.2</ele>
        <time>2021-08-09T14:35:45Z</time>
      </trkpt>
      <trkpt lat="46.48927" lon="5.46918">
        <ele>404.6</ele>
        <time>2021-08-09T14:35:47Z</time>
      </trkpt>
      <trkpt lat="46.48914" lon="5.46917">
        <ele>403</ele>
        <time>2021-08-09T14:35:48Z</time>
      </trkpt>
      <trkpt lat="46.48889" lon="5.46912">
        <ele>401.6</ele>
        <time>2021-08-09T14:35:50Z</time>
      </trkpt>
      <trkpt lat="46.48851" lon="5.46901">
        <ele>399.8</ele>
        <time>2021-08-09T14:35:53Z</time>
      </trkpt>
      <trkpt lat="46.48839" lon="5.46895">
        <ele>398.8</ele>
        <time>2021-08-09T14:35:54Z</time>
      </trkpt>
      <trkpt lat="46.48827" lon="5.46889">
        <ele>397.6</ele>
        <time>2021-08-09T14:35:55Z</time>
      </trkpt>
      <trkpt lat="46.48802" lon="5.46875">
        <ele>396</ele>
        <time>2021-08-09T14:35:57Z</time>
      </trkpt>
      <trkpt lat="46.4879" lon="5.46868">
        <ele>395.4</ele>
        <time>2021-08-09T14:35:58Z</time>
      </trkpt>
      <trkpt lat="46.48778" lon="5.4686">
        <ele>394.8</ele>
        <time>2021-08-09T14:35:59Z</time>
      </trkpt>
      <trkpt lat="46.48743" lon="5.46839">
        <ele>393</ele>
        <time>2021-08-09T14:36:02Z</time>
      </trkpt>
      <trkpt lat="46.48718" lon="5.46824">
        <ele>391.8</ele>
        <time>2021-08-09T14:36:04Z</time>
      </trkpt>
      <trkpt lat="46.48695" lon="5.4681">
        <ele>389.6</ele>
        <time>2021-08-09T14:36:06Z</time>
      </trkpt>
      <trkpt lat="46.48683" lon="5.46803">
        <ele>389.4</ele>
        <time>2021-08-09T14:36:07Z</time>
      </trkpt>
      <trkpt lat="46.48659" lon="5.46789">
        <ele>388.2</ele>
        <time>2021-08-09T14:36:09Z</time>
      </trkpt>
      <trkpt lat="46.48614" lon="5.46762">
        <ele>386.6</ele>
        <time>2021-08-09T14:36:13Z</time>
      </trkpt>
      <trkpt lat="46.48582" lon="5.46742">
        <ele>385.6</ele>
        <time>2021-08-09T14:36:16Z</time>
      </trkpt>
      <trkpt lat="46.48573" lon="5.46737">
        <ele>385.4</ele>
        <time>2021-08-09T14:36:17Z</time>
      </trkpt>
      <trkpt lat="46.48542" lon="5.46718">
        <ele>384.4</ele>
        <time>2021-08-09T14:36:20Z</time>
      </trkpt>
      <trkpt lat="46.48499" lon="5.46693">
        <ele>383.2</ele>
        <time>2021-08-09T14:36:24Z</time>
      </trkpt>
      <trkpt lat="46.48449" lon="5.46663">
        <ele>382.2</ele>
        <time>2021-08-09T14:36:29Z</time>
      </trkpt>
      <trkpt lat="46.48393" lon="5.4663">
        <ele>381.2</ele>
        <time>2021-08-09T14:36:35Z</time>
      </trkpt>
      <trkpt lat="46.48368" lon="5.46617">
        <ele>381.2</ele>
        <time>2021-08-09T14:36:38Z</time>
      </trkpt>
      <trkpt lat="46.48362" lon="5.4661">
        <ele>381.4</ele>
        <time>2021-08-09T14:36:39Z</time>
      </trkpt>
      <trkpt lat="46.48356" lon="5.46602">
        <ele>381.4</ele>
        <time>2021-08-09T14:36:40Z</time>
      </trkpt>
      <trkpt lat="46.48354" lon="5.46593">
        <ele>381.4</ele>
        <time>2021-08-09T14:36:41Z</time>
      </trkpt>
      <trkpt lat="46.48354" lon="5.46582">
        <ele>381.4</ele>
        <time>2021-08-09T14:36:42Z</time>
      </trkpt>
      <trkpt lat="46.48356" lon="5.46572">
        <ele>381.4</ele>
        <time>2021-08-09T14:36:43Z</time>
      </trkpt>
      <trkpt lat="46.48376" lon="5.46521">
        <ele>381.4</ele>
        <time>2021-08-09T14:36:48Z</time>
      </trkpt>
      <trkpt lat="46.48386" lon="5.46486">
        <ele>381.4</ele>
        <time>2021-08-09T14:36:51Z</time>
      </trkpt>
      <trkpt lat="46.48387" lon="5.46472">
        <ele>381.2</ele>
        <time>2021-08-09T14:36:52Z</time>
      </trkpt>
      <trkpt lat="46.48393" lon="5.46409">
        <ele>381.2</ele>
        <time>2021-08-09T14:36:57Z</time>
      </trkpt>
      <trkpt lat="46.48409" lon="5.46359">
        <ele>381.2</ele>
        <time>2021-08-09T14:37:01Z</time>
      </trkpt>
      <trkpt lat="46.4844" lon="5.4629">
        <ele>381.8</ele>
        <time>2021-08-09T14:37:08Z</time>
      </trkpt>
      <trkpt lat="46.48444" lon="5.4628">
        <ele>382</ele>
        <time>2021-08-09T14:37:09Z</time>
      </trkpt>
      <trkpt lat="46.48445" lon="5.4627">
        <ele>382.2</ele>
        <time>2021-08-09T14:37:10Z</time>
      </trkpt>
      <trkpt lat="46.48445" lon="5.4626">
        <ele>382.4</ele>
        <time>2021-08-09T14:37:11Z</time>
      </trkpt>
      <trkpt lat="46.48442" lon="5.46251">
        <ele>382.6</ele>
        <time>2021-08-09T14:37:12Z</time>
      </trkpt>
      <trkpt lat="46.4844" lon="5.46245">
        <ele>382.8</ele>
        <time>2021-08-09T14:37:13Z</time>
      </trkpt>
      <trkpt lat="46.48436" lon="5.46234">
        <ele>383</ele>
        <time>2021-08-09T14:37:14Z</time>
      </trkpt>
      <trkpt lat="46.48429" lon="5.46207">
        <ele>383.8</ele>
        <time>2021-08-09T14:37:17Z</time>
      </trkpt>
      <trkpt lat="46.48417" lon="5.46166">
        <ele>384.8</ele>
        <time>2021-08-09T14:37:22Z</time>
      </trkpt>
      <trkpt lat="46.48414" lon="5.46158">
        <ele>385.4</ele>
        <time>2021-08-09T14:37:23Z</time>
      </trkpt>
      <trkpt lat="46.48404" lon="5.46136">
        <ele>386</ele>
        <time>2021-08-09T14:37:26Z</time>
      </trkpt>
      <trkpt lat="46.48389" lon="5.46108">
        <ele>387.2</ele>
        <time>2021-08-09T14:37:30Z</time>
      </trkpt>
      <trkpt lat="46.4837" lon="5.46073">
        <ele>388.2</ele>
        <time>2021-08-09T14:37:35Z</time>
      </trkpt>
      <trkpt lat="46.48366" lon="5.46066">
        <ele>388.6</ele>
        <time>2021-08-09T14:37:36Z</time>
      </trkpt>
      <trkpt lat="46.48346" lon="5.46025">
        <ele>388.8</ele>
        <time>2021-08-09T14:37:41Z</time>
      </trkpt>
      <trkpt lat="46.48314" lon="5.45971">
        <ele>388.4</ele>
        <time>2021-08-09T14:37:48Z</time>
      </trkpt>
      <trkpt lat="46.48277" lon="5.45914">
        <ele>387.8</ele>
        <time>2021-08-09T14:37:55Z</time>
      </trkpt>
      <trkpt lat="46.48265" lon="5.45897">
        <ele>387.4</ele>
        <time>2021-08-09T14:37:57Z</time>
      </trkpt>
      <trkpt lat="46.48239" lon="5.45862">
        <ele>386.2</ele>
        <time>2021-08-09T14:38:01Z</time>
      </trkpt>
      <trkpt lat="46.48232" lon="5.45853">
        <ele>385.8</ele>
        <time>2021-08-09T14:38:02Z</time>
      </trkpt>
      <trkpt lat="46.48218" lon="5.45835">
        <ele>385</ele>
        <time>2021-08-09T14:38:04Z</time>
      </trkpt>
      <trkpt lat="46.48188" lon="5.45798">
        <ele>384</ele>
        <time>2021-08-09T14:38:08Z</time>
      </trkpt>
      <trkpt lat="46.48181" lon="5.45789">
        <ele>383.8</ele>
        <time>2021-08-09T14:38:09Z</time>
      </trkpt>
      <trkpt lat="46.48143" lon="5.45742">
        <ele>382.6</ele>
        <time>2021-08-09T14:38:14Z</time>
      </trkpt>
      <trkpt lat="46.4812" lon="5.45714">
        <ele>381.8</ele>
        <time>2021-08-09T14:38:17Z</time>
      </trkpt>
      <trkpt lat="46.48112" lon="5.45704">
        <ele>381.4</ele>
        <time>2021-08-09T14:38:18Z</time>
      </trkpt>
      <trkpt lat="46.4808" lon="5.45671">
        <ele>380.4</ele>
        <time>2021-08-09T14:38:23Z</time>
      </trkpt>
      <trkpt lat="46.48037" lon="5.45642">
        <ele>380.2</ele>
        <time>2021-08-09T14:38:27Z</time>
      </trkpt>
      <trkpt lat="46.47989" lon="5.45621">
        <ele>379.8</ele>
        <time>2021-08-09T14:38:33Z</time>
      </trkpt>
      <trkpt lat="46.47946" lon="5.45605">
        <ele>380.4</ele>
        <time>2021-08-09T14:38:39Z</time>
      </trkpt>
      <trkpt lat="46.47913" lon="5.45592">
        <ele>381.6</ele>
        <time>2021-08-09T14:38:44Z</time>
      </trkpt>
      <trkpt lat="46.47901" lon="5.45587">
        <ele>382</ele>
        <time>2021-08-09T14:38:46Z</time>
      </trkpt>
      <trkpt lat="46.4788" lon="5.45579">
        <ele>382.8</ele>
        <time>2021-08-09T14:38:49Z</time>
      </trkpt>
      <trkpt lat="46.47855" lon="5.4557">
        <ele>384.4</ele>
        <time>2021-08-09T14:38:53Z</time>
      </trkpt>
      <trkpt lat="46.47848" lon="5.45568">
        <ele>384.6</ele>
        <time>2021-08-09T14:38:54Z</time>
      </trkpt>
      <trkpt lat="46.47823" lon="5.45559">
        <ele>385.4</ele>
        <time>2021-08-09T14:38:58Z</time>
      </trkpt>
      <trkpt lat="46.47795" lon="5.45553">
        <ele>386.4</ele>
        <time>2021-08-09T14:39:02Z</time>
      </trkpt>
      <trkpt lat="46.47779" lon="5.4555">
        <ele>386.6</ele>
        <time>2021-08-09T14:39:04Z</time>
      </trkpt>
      <trkpt lat="46.47756" lon="5.45541">
        <ele>386.8</ele>
        <time>2021-08-09T14:39:07Z</time>
      </trkpt>
      <trkpt lat="46.47721" lon="5.4551">
        <ele>386.8</ele>
        <time>2021-08-09T14:39:12Z</time>
      </trkpt>
      <trkpt lat="46.47672" lon="5.45469">
        <ele>386.6</ele>
        <time>2021-08-09T14:39:19Z</time>
      </trkpt>
      <trkpt lat="46.47665" lon="5.45464">
        <ele>386.6</ele>
        <time>2021-08-09T14:39:20Z</time>
      </trkpt>
      <trkpt lat="46.47631" lon="5.45447">
        <ele>386.6</ele>
        <time>2021-08-09T14:39:25Z</time>
      </trkpt>
      <trkpt lat="46.47587" lon="5.45418">
        <ele>386.6</ele>
        <time>2021-08-09T14:39:31Z</time>
      </trkpt>
      <trkpt lat="46.47535" lon="5.45378">
        <ele>386.2</ele>
        <time>2021-08-09T14:39:38Z</time>
      </trkpt>
      <trkpt lat="46.47499" lon="5.45361">
        <ele>385.6</ele>
        <time>2021-08-09T14:39:42Z</time>
      </trkpt>
      <trkpt lat="46.4746" lon="5.45348">
        <ele>384.8</ele>
        <time>2021-08-09T14:39:46Z</time>
      </trkpt>
      <trkpt lat="46.47441" lon="5.45343">
        <ele>383.6</ele>
        <time>2021-08-09T14:39:48Z</time>
      </trkpt>
      <trkpt lat="46.47422" lon="5.45338">
        <ele>383.2</ele>
        <time>2021-08-09T14:39:50Z</time>
      </trkpt>
      <trkpt lat="46.47376" lon="5.45324">
        <ele>382.4</ele>
        <time>2021-08-09T14:39:55Z</time>
      </trkpt>
      <trkpt lat="46.47349" lon="5.45315">
        <ele>382.2</ele>
        <time>2021-08-09T14:39:58Z</time>
      </trkpt>
      <trkpt lat="46.47296" lon="5.45292">
        <ele>381.8</ele>
        <time>2021-08-09T14:40:04Z</time>
      </trkpt>
      <trkpt lat="46.47244" lon="5.45268">
        <ele>381.4</ele>
        <time>2021-08-09T14:40:10Z</time>
      </trkpt>
      <trkpt lat="46.47235" lon="5.45264">
        <ele>381.4</ele>
        <time>2021-08-09T14:40:11Z</time>
      </trkpt>
      <trkpt lat="46.47183" lon="5.45239">
        <ele>381</ele>
        <time>2021-08-09T14:40:17Z</time>
      </trkpt>
      <trkpt lat="46.47158" lon="5.45227">
        <ele>380.8</ele>
        <time>2021-08-09T14:40:20Z</time>
      </trkpt>
      <trkpt lat="46.47101" lon="5.45198">
        <ele>380.6</ele>
        <time>2021-08-09T14:40:27Z</time>
      </trkpt>
      <trkpt lat="46.47091" lon="5.45192">
        <ele>380.4</ele>
        <time>2021-08-09T14:40:28Z</time>
      </trkpt>
      <trkpt lat="46.47038" lon="5.45154">
        <ele>381.2</ele>
        <time>2021-08-09T14:40:35Z</time>
      </trkpt>
      <trkpt lat="46.47014" lon="5.45142">
        <ele>381.4</ele>
        <time>2021-08-09T14:40:38Z</time>
      </trkpt>
      <trkpt lat="46.47007" lon="5.45139">
        <ele>381.8</ele>
        <time>2021-08-09T14:40:39Z</time>
      </trkpt>
      <trkpt lat="46.46992" lon="5.45134">
        <ele>381.8</ele>
        <time>2021-08-09T14:40:41Z</time>
      </trkpt>
      <trkpt lat="46.46978" lon="5.45135">
        <ele>382</ele>
        <time>2021-08-09T14:40:43Z</time>
      </trkpt>
      <trkpt lat="46.46955" lon="5.45146">
        <ele>382.2</ele>
        <time>2021-08-09T14:40:47Z</time>
      </trkpt>
      <trkpt lat="46.4695" lon="5.45155">
        <ele>382.8</ele>
        <time>2021-08-09T14:40:49Z</time>
      </trkpt>
      <trkpt lat="46.46949" lon="5.45164">
        <ele>383</ele>
        <time>2021-08-09T14:40:50Z</time>
      </trkpt>
      <trkpt lat="46.46946" lon="5.45179">
        <ele>383.6</ele>
        <time>2021-08-09T14:40:52Z</time>
      </trkpt>
      <trkpt lat="46.46943" lon="5.45186">
        <ele>384.2</ele>
        <time>2021-08-09T14:40:53Z</time>
      </trkpt>
      <trkpt lat="46.46938" lon="5.45191">
        <ele>384.4</ele>
        <time>2021-08-09T14:40:54Z</time>
      </trkpt>
      <trkpt lat="46.46912" lon="5.45207">
        <ele>384.8</ele>
        <time>2021-08-09T14:40:58Z</time>
      </trkpt>
      <trkpt lat="46.46901" lon="5.45222">
        <ele>384.6</ele>
        <time>2021-08-09T14:41:00Z</time>
      </trkpt>
      <trkpt lat="46.46898" lon="5.45232">
        <ele>384.6</ele>
        <time>2021-08-09T14:41:01Z</time>
      </trkpt>
      <trkpt lat="46.46889" lon="5.45258">
        <ele>384.4</ele>
        <time>2021-08-09T14:41:04Z</time>
      </trkpt>
      <trkpt lat="46.46881" lon="5.45272">
        <ele>384.4</ele>
        <time>2021-08-09T14:41:06Z</time>
      </trkpt>
      <trkpt lat="46.46868" lon="5.45279">
        <ele>384.2</ele>
        <time>2021-08-09T14:41:08Z</time>
      </trkpt>
      <trkpt lat="46.46861" lon="5.45281">
        <ele>384.2</ele>
        <time>2021-08-09T14:41:09Z</time>
      </trkpt>
      <trkpt lat="46.46853" lon="5.45281">
        <ele>384</ele>
        <time>2021-08-09T14:41:10Z</time>
      </trkpt>
      <trkpt lat="46.46828" lon="5.45275">
        <ele>383.6</ele>
        <time>2021-08-09T14:41:13Z</time>
      </trkpt>
      <trkpt lat="46.46813" lon="5.45271">
        <ele>383.2</ele>
        <time>2021-08-09T14:41:15Z</time>
      </trkpt>
      <trkpt lat="46.46788" lon="5.45271">
        <ele>382.6</ele>
        <time>2021-08-09T14:41:18Z</time>
      </trkpt>
      <trkpt lat="46.46771" lon="5.4527">
        <ele>382.2</ele>
        <time>2021-08-09T14:41:20Z</time>
      </trkpt>
      <trkpt lat="46.46727" lon="5.45265">
        <ele>381.2</ele>
        <time>2021-08-09T14:41:25Z</time>
      </trkpt>
      <trkpt lat="46.467" lon="5.4526">
        <ele>380</ele>
        <time>2021-08-09T14:41:28Z</time>
      </trkpt>
      <trkpt lat="46.46673" lon="5.45254">
        <ele>379.2</ele>
        <time>2021-08-09T14:41:31Z</time>
      </trkpt>
      <trkpt lat="46.46664" lon="5.45252">
        <ele>378.8</ele>
        <time>2021-08-09T14:41:32Z</time>
      </trkpt>
      <trkpt lat="46.46638" lon="5.45253">
        <ele>377.8</ele>
        <time>2021-08-09T14:41:35Z</time>
      </trkpt>
      <trkpt lat="46.46628" lon="5.45254">
        <ele>377.8</ele>
        <time>2021-08-09T14:41:36Z</time>
      </trkpt>
      <trkpt lat="46.46619" lon="5.45257">
        <ele>377.4</ele>
        <time>2021-08-09T14:41:37Z</time>
      </trkpt>
      <trkpt lat="46.46602" lon="5.45263">
        <ele>376.8</ele>
        <time>2021-08-09T14:41:39Z</time>
      </trkpt>
      <trkpt lat="46.46592" lon="5.45266">
        <ele>376.4</ele>
        <time>2021-08-09T14:41:40Z</time>
      </trkpt>
      <trkpt lat="46.46573" lon="5.45268">
        <ele>375.8</ele>
        <time>2021-08-09T14:41:42Z</time>
      </trkpt>
      <trkpt lat="46.46564" lon="5.45267">
        <ele>375.8</ele>
        <time>2021-08-09T14:41:43Z</time>
      </trkpt>
      <trkpt lat="46.46514" lon="5.45248">
        <ele>374.8</ele>
        <time>2021-08-09T14:41:49Z</time>
      </trkpt>
      <trkpt lat="46.46478" lon="5.45238">
        <ele>375.2</ele>
        <time>2021-08-09T14:41:54Z</time>
      </trkpt>
      <trkpt lat="46.46474" lon="5.45236">
        <ele>375.2</ele>
        <time>2021-08-09T14:41:55Z</time>
      </trkpt>
    </trkseg>
  </trk>
</gpx>